<?xml version="1.0" encoding="UTF-8" standalone="no" ?>
<gpx xmlns="http://www.topografix.com/GPX/1/1" xmlns:xsi="http://www.w3.org/2001/XMLSchema-instance" xsi:schemaLocation="http://www.topografix.com/GPX/1/1 http://www.topografix.com/GPX/1/1/gpx.xsd" version="1.1" creator="VisuGPX - https://www.visugpx.com">
  <metadata>
    <name>Pornichet 20/02/2022</name>
    <desc><![CDATA[Sortie dimanche 20 février 2022]]></desc>
  </metadata>
  <trk>
    <name><![CDATA[Pornichet Cyclisme]]></name>
    <trkseg>
      <trkpt lat="47.26411" lon="-2.3155">
        <ele>10</ele>
        <time>2022-02-20T07:58:46.000Z</time>
      </trkpt>
      <trkpt lat="47.26405" lon="-2.31553">
        <ele>9.7</ele>
        <time>2022-02-20T07:58:48.000Z</time>
      </trkpt>
      <trkpt lat="47.26404" lon="-2.31557">
        <ele>9.5</ele>
        <time>2022-02-20T07:58:49.000Z</time>
      </trkpt>
      <trkpt lat="47.26403" lon="-2.31562">
        <ele>9.5</ele>
        <time>2022-02-20T07:58:50.000Z</time>
      </trkpt>
      <trkpt lat="47.26404" lon="-2.31567">
        <ele>-0.20000000298023</ele>
        <time>2022-02-20T07:58:51.000Z</time>
      </trkpt>
      <trkpt lat="47.26404" lon="-2.31573">
        <ele>0.20000000298023</ele>
        <time>2022-02-20T07:58:52.000Z</time>
      </trkpt>
      <trkpt lat="47.26405" lon="-2.31579">
        <ele>0.80000001192093</ele>
        <time>2022-02-20T07:58:53.000Z</time>
      </trkpt>
      <trkpt lat="47.26405" lon="-2.31591">
        <ele>0.80000001192093</ele>
        <time>2022-02-20T07:58:55.000Z</time>
      </trkpt>
      <trkpt lat="47.26405" lon="-2.31611">
        <ele>0.80000001192093</ele>
        <time>2022-02-20T07:58:58.000Z</time>
      </trkpt>
      <trkpt lat="47.26407" lon="-2.31657">
        <ele>0.80000001192093</ele>
        <time>2022-02-20T07:59:05.000Z</time>
      </trkpt>
      <trkpt lat="47.26406" lon="-2.31661">
        <ele>0.80000001192093</ele>
        <time>2022-02-20T07:59:06.000Z</time>
      </trkpt>
      <trkpt lat="47.264" lon="-2.31666">
        <ele>0.80000001192093</ele>
        <time>2022-02-20T07:59:08.000Z</time>
      </trkpt>
      <trkpt lat="47.2638" lon="-2.31678">
        <ele>7.6</ele>
        <time>2022-02-20T07:59:13.000Z</time>
      </trkpt>
      <trkpt lat="47.26375" lon="-2.31681">
        <ele>-0.60000002384186</ele>
        <time>2022-02-20T07:59:14.000Z</time>
      </trkpt>
      <trkpt lat="47.26369" lon="-2.31684">
        <ele>-1.3999999761581</ele>
        <time>2022-02-20T07:59:15.000Z</time>
      </trkpt>
      <trkpt lat="47.26364" lon="-2.31687">
        <ele>-2</ele>
        <time>2022-02-20T07:59:16.000Z</time>
      </trkpt>
      <trkpt lat="47.26359" lon="-2.3169">
        <ele>-2.7999999523163</ele>
        <time>2022-02-20T07:59:17.000Z</time>
      </trkpt>
      <trkpt lat="47.26342" lon="-2.31699">
        <ele>-2.7999999523163</ele>
        <time>2022-02-20T07:59:20.000Z</time>
      </trkpt>
      <trkpt lat="47.2631" lon="-2.31714">
        <ele>-3.2000000476837</ele>
        <time>2022-02-20T07:59:26.000Z</time>
      </trkpt>
      <trkpt lat="47.26306" lon="-2.31716">
        <ele>-3.5999999046326</ele>
        <time>2022-02-20T07:59:27.000Z</time>
      </trkpt>
      <trkpt lat="47.26303" lon="-2.3172">
        <ele>-4</ele>
        <time>2022-02-20T07:59:28.000Z</time>
      </trkpt>
      <trkpt lat="47.26302" lon="-2.31724">
        <ele>-4.4000000953674</ele>
        <time>2022-02-20T07:59:29.000Z</time>
      </trkpt>
      <trkpt lat="47.26301" lon="-2.31728">
        <ele>-4.8000001907349</ele>
        <time>2022-02-20T07:59:30.000Z</time>
      </trkpt>
      <trkpt lat="47.26301" lon="-2.31749">
        <ele>-4.8000001907349</ele>
        <time>2022-02-20T07:59:35.000Z</time>
      </trkpt>
      <trkpt lat="47.26302" lon="-2.31753">
        <ele>-4.8000001907349</ele>
        <time>2022-02-20T07:59:36.000Z</time>
      </trkpt>
      <trkpt lat="47.26302" lon="-2.3178">
        <ele>-4.8000001907349</ele>
        <time>2022-02-20T07:59:41.000Z</time>
      </trkpt>
      <trkpt lat="47.26301" lon="-2.31804">
        <ele>-4.8000001907349</ele>
        <time>2022-02-20T07:59:45.000Z</time>
      </trkpt>
      <trkpt lat="47.26301" lon="-2.3181">
        <ele>-4.8000001907349</ele>
        <time>2022-02-20T07:59:46.000Z</time>
      </trkpt>
      <trkpt lat="47.26299" lon="-2.31842">
        <ele>-4.8000001907349</ele>
        <time>2022-02-20T07:59:51.000Z</time>
      </trkpt>
      <trkpt lat="47.26298" lon="-2.31869">
        <ele>-4.8000001907349</ele>
        <time>2022-02-20T07:59:56.000Z</time>
      </trkpt>
      <trkpt lat="47.26296" lon="-2.31879">
        <ele>-4.8000001907349</ele>
        <time>2022-02-20T07:59:58.000Z</time>
      </trkpt>
      <trkpt lat="47.2629" lon="-2.31886">
        <ele>-4.8000001907349</ele>
        <time>2022-02-20T08:00:00.000Z</time>
      </trkpt>
      <trkpt lat="47.26287" lon="-2.31889">
        <ele>-5.1999998092651</ele>
        <time>2022-02-20T08:00:01.000Z</time>
      </trkpt>
      <trkpt lat="47.26284" lon="-2.31892">
        <ele>-5.5999999046326</ele>
        <time>2022-02-20T08:00:02.000Z</time>
      </trkpt>
      <trkpt lat="47.2628" lon="-2.31896">
        <ele>-6</ele>
        <time>2022-02-20T08:00:03.000Z</time>
      </trkpt>
      <trkpt lat="47.26277" lon="-2.319">
        <ele>-6.4000000953674</ele>
        <time>2022-02-20T08:00:04.000Z</time>
      </trkpt>
      <trkpt lat="47.26274" lon="-2.31905">
        <ele>-6.8000001907349</ele>
        <time>2022-02-20T08:00:05.000Z</time>
      </trkpt>
      <trkpt lat="47.26272" lon="-2.3191">
        <ele>-6.8000001907349</ele>
        <time>2022-02-20T08:00:06.000Z</time>
      </trkpt>
      <trkpt lat="47.26259" lon="-2.31932">
        <ele>-6.8000001907349</ele>
        <time>2022-02-20T08:00:11.000Z</time>
      </trkpt>
      <trkpt lat="47.26243" lon="-2.3196">
        <ele>-6.8000001907349</ele>
        <time>2022-02-20T08:00:17.000Z</time>
      </trkpt>
      <trkpt lat="47.26231" lon="-2.31973">
        <ele>-6.8000001907349</ele>
        <time>2022-02-20T08:00:22.000Z</time>
      </trkpt>
      <trkpt lat="47.26221" lon="-2.31986">
        <ele>-6.8000001907349</ele>
        <time>2022-02-20T08:00:28.000Z</time>
      </trkpt>
      <trkpt lat="47.26206" lon="-2.32001">
        <ele>-6.8000001907349</ele>
        <time>2022-02-20T08:00:34.000Z</time>
      </trkpt>
      <trkpt lat="47.26206" lon="-2.32003">
        <ele>-6.8000001907349</ele>
        <time>2022-02-20T08:00:35.000Z</time>
      </trkpt>
      <trkpt lat="47.26204" lon="-2.32013">
        <ele>-6.8000001907349</ele>
        <time>2022-02-20T08:00:39.000Z</time>
      </trkpt>
      <trkpt lat="47.26202" lon="-2.32017">
        <ele>-6.8000001907349</ele>
        <time>2022-02-20T08:00:41.000Z</time>
      </trkpt>
      <trkpt lat="47.26197" lon="-2.32018">
        <ele>-6.8000001907349</ele>
        <time>2022-02-20T08:00:44.000Z</time>
      </trkpt>
      <trkpt lat="47.2619" lon="-2.32018">
        <ele>-6.8000001907349</ele>
        <time>2022-02-20T08:00:47.000Z</time>
      </trkpt>
      <trkpt lat="47.26184" lon="-2.3202">
        <ele>-6.8000001907349</ele>
        <time>2022-02-20T08:00:49.000Z</time>
      </trkpt>
      <trkpt lat="47.26181" lon="-2.32022">
        <ele>-6.8000001907349</ele>
        <time>2022-02-20T08:00:50.000Z</time>
      </trkpt>
      <trkpt lat="47.26167" lon="-2.32029">
        <ele>-6.8000001907349</ele>
        <time>2022-02-20T08:00:54.000Z</time>
      </trkpt>
      <trkpt lat="47.26163" lon="-2.32033">
        <ele>-6.8000001907349</ele>
        <time>2022-02-20T08:00:55.000Z</time>
      </trkpt>
      <trkpt lat="47.26157" lon="-2.32049">
        <ele>-6.8000001907349</ele>
        <time>2022-02-20T08:00:58.000Z</time>
      </trkpt>
      <trkpt lat="47.26155" lon="-2.32056">
        <ele>-6.8000001907349</ele>
        <time>2022-02-20T08:00:59.000Z</time>
      </trkpt>
      <trkpt lat="47.26141" lon="-2.32099">
        <ele>-6.8000001907349</ele>
        <time>2022-02-20T08:01:06.000Z</time>
      </trkpt>
      <trkpt lat="47.26123" lon="-2.32156">
        <ele>-6.8000001907349</ele>
        <time>2022-02-20T08:01:15.000Z</time>
      </trkpt>
      <trkpt lat="47.26106" lon="-2.32198">
        <ele>-6.8000001907349</ele>
        <time>2022-02-20T08:01:22.000Z</time>
      </trkpt>
      <trkpt lat="47.26093" lon="-2.32221">
        <ele>-6.8000001907349</ele>
        <time>2022-02-20T08:01:26.000Z</time>
      </trkpt>
      <trkpt lat="47.26085" lon="-2.32231">
        <ele>-6.8000001907349</ele>
        <time>2022-02-20T08:01:28.000Z</time>
      </trkpt>
      <trkpt lat="47.26057" lon="-2.32262">
        <ele>-6.8000001907349</ele>
        <time>2022-02-20T08:01:35.000Z</time>
      </trkpt>
      <trkpt lat="47.26026" lon="-2.32301">
        <ele>-6.8000001907349</ele>
        <time>2022-02-20T08:01:43.000Z</time>
      </trkpt>
      <trkpt lat="47.25999" lon="-2.32334">
        <ele>-6.8000001907349</ele>
        <time>2022-02-20T08:01:50.000Z</time>
      </trkpt>
      <trkpt lat="47.25966" lon="-2.32376">
        <ele>-6.8000001907349</ele>
        <time>2022-02-20T08:01:59.000Z</time>
      </trkpt>
      <trkpt lat="47.25963" lon="-2.32381">
        <ele>-6.8000001907349</ele>
        <time>2022-02-20T08:02:00.000Z</time>
      </trkpt>
      <trkpt lat="47.25931" lon="-2.32421">
        <ele>-6.8000001907349</ele>
        <time>2022-02-20T08:02:09.000Z</time>
      </trkpt>
      <trkpt lat="47.25906" lon="-2.32456">
        <ele>-6.8000001907349</ele>
        <time>2022-02-20T08:02:17.000Z</time>
      </trkpt>
      <trkpt lat="47.25886" lon="-2.32475">
        <ele>-6.8000001907349</ele>
        <time>2022-02-20T08:02:23.000Z</time>
      </trkpt>
      <trkpt lat="47.25864" lon="-2.32478">
        <ele>-6.8000001907349</ele>
        <time>2022-02-20T08:02:28.000Z</time>
      </trkpt>
      <trkpt lat="47.2584" lon="-2.32475">
        <ele>-6.8000001907349</ele>
        <time>2022-02-20T08:02:33.000Z</time>
      </trkpt>
      <trkpt lat="47.25836" lon="-2.32473">
        <ele>-6.8000001907349</ele>
        <time>2022-02-20T08:02:34.000Z</time>
      </trkpt>
      <trkpt lat="47.25799" lon="-2.32458">
        <ele>-6.8000001907349</ele>
        <time>2022-02-20T08:02:42.000Z</time>
      </trkpt>
      <trkpt lat="47.2578" lon="-2.32453">
        <ele>-6.8000001907349</ele>
        <time>2022-02-20T08:02:47.000Z</time>
      </trkpt>
      <trkpt lat="47.25772" lon="-2.32438">
        <ele>-6.8000001907349</ele>
        <time>2022-02-20T08:02:50.000Z</time>
      </trkpt>
      <trkpt lat="47.25769" lon="-2.32433">
        <ele>-6.8000001907349</ele>
        <time>2022-02-20T08:02:51.000Z</time>
      </trkpt>
      <trkpt lat="47.25755" lon="-2.32428">
        <ele>-6.8000001907349</ele>
        <time>2022-02-20T08:02:54.000Z</time>
      </trkpt>
      <trkpt lat="47.25745" lon="-2.32428">
        <ele>-6.8000001907349</ele>
        <time>2022-02-20T08:02:56.000Z</time>
      </trkpt>
      <trkpt lat="47.25719" lon="-2.32426">
        <ele>-6.8000001907349</ele>
        <time>2022-02-20T08:03:01.000Z</time>
      </trkpt>
      <trkpt lat="47.25685" lon="-2.32425">
        <ele>-6.8000001907349</ele>
        <time>2022-02-20T08:03:08.000Z</time>
      </trkpt>
      <trkpt lat="47.25667" lon="-2.32425">
        <ele>-6.8000001907349</ele>
        <time>2022-02-20T08:03:12.000Z</time>
      </trkpt>
      <trkpt lat="47.25662" lon="-2.32434">
        <ele>-6.8000001907349</ele>
        <time>2022-02-20T08:03:14.000Z</time>
      </trkpt>
      <trkpt lat="47.25663" lon="-2.32451">
        <ele>-6.8000001907349</ele>
        <time>2022-02-20T08:03:17.000Z</time>
      </trkpt>
      <trkpt lat="47.25667" lon="-2.32463">
        <ele>-6.8000001907349</ele>
        <time>2022-02-20T08:03:19.000Z</time>
      </trkpt>
      <trkpt lat="47.25669" lon="-2.32469">
        <ele>-6.8000001907349</ele>
        <time>2022-02-20T08:03:20.000Z</time>
      </trkpt>
      <trkpt lat="47.25672" lon="-2.3248">
        <ele>-6.8000001907349</ele>
        <time>2022-02-20T08:03:22.000Z</time>
      </trkpt>
      <trkpt lat="47.25674" lon="-2.32485">
        <ele>-6.8000001907349</ele>
        <time>2022-02-20T08:03:23.000Z</time>
      </trkpt>
      <trkpt lat="47.25677" lon="-2.32496">
        <ele>-6.4000000953674</ele>
        <time>2022-02-20T08:03:25.000Z</time>
      </trkpt>
      <trkpt lat="47.25679" lon="-2.32502">
        <ele>-6</ele>
        <time>2022-02-20T08:03:26.000Z</time>
      </trkpt>
      <trkpt lat="47.25681" lon="-2.32508">
        <ele>-5.4000000953674</ele>
        <time>2022-02-20T08:03:27.000Z</time>
      </trkpt>
      <trkpt lat="47.25683" lon="-2.32513">
        <ele>-5</ele>
        <time>2022-02-20T08:03:28.000Z</time>
      </trkpt>
      <trkpt lat="47.25685" lon="-2.32519">
        <ele>-4.5999999046326</ele>
        <time>2022-02-20T08:03:29.000Z</time>
      </trkpt>
      <trkpt lat="47.257" lon="-2.32562">
        <ele>-4.1999998092651</ele>
        <time>2022-02-20T08:03:37.000Z</time>
      </trkpt>
      <trkpt lat="47.25702" lon="-2.32567">
        <ele>-3.7999999523163</ele>
        <time>2022-02-20T08:03:38.000Z</time>
      </trkpt>
      <trkpt lat="47.25704" lon="-2.32572">
        <ele>-3.4000000953674</ele>
        <time>2022-02-20T08:03:39.000Z</time>
      </trkpt>
      <trkpt lat="47.25705" lon="-2.32577">
        <ele>-3</ele>
        <time>2022-02-20T08:03:40.000Z</time>
      </trkpt>
      <trkpt lat="47.25706" lon="-2.32583">
        <ele>-2.4000000953674</ele>
        <time>2022-02-20T08:03:41.000Z</time>
      </trkpt>
      <trkpt lat="47.25713" lon="-2.3261">
        <ele>-2.4000000953674</ele>
        <time>2022-02-20T08:03:46.000Z</time>
      </trkpt>
      <trkpt lat="47.25711" lon="-2.32622">
        <ele>-2.4000000953674</ele>
        <time>2022-02-20T08:03:48.000Z</time>
      </trkpt>
      <trkpt lat="47.25708" lon="-2.32625">
        <ele>-2.4000000953674</ele>
        <time>2022-02-20T08:03:49.000Z</time>
      </trkpt>
      <trkpt lat="47.25691" lon="-2.32632">
        <ele>-2.4000000953674</ele>
        <time>2022-02-20T08:03:53.000Z</time>
      </trkpt>
      <trkpt lat="47.25673" lon="-2.3264">
        <ele>-2</ele>
        <time>2022-02-20T08:03:58.000Z</time>
      </trkpt>
      <trkpt lat="47.25669" lon="-2.32641">
        <ele>-1.6000000238419</ele>
        <time>2022-02-20T08:03:59.000Z</time>
      </trkpt>
      <trkpt lat="47.25665" lon="-2.32643">
        <ele>-1.2000000476837</ele>
        <time>2022-02-20T08:04:00.000Z</time>
      </trkpt>
      <trkpt lat="47.25661" lon="-2.32644">
        <ele>-0.80000001192093</ele>
        <time>2022-02-20T08:04:01.000Z</time>
      </trkpt>
      <trkpt lat="47.25657" lon="-2.32646">
        <ele>-0.40000000596046</ele>
        <time>2022-02-20T08:04:02.000Z</time>
      </trkpt>
      <trkpt lat="47.25634" lon="-2.32657">
        <ele>-0.40000000596046</ele>
        <time>2022-02-20T08:04:08.000Z</time>
      </trkpt>
      <trkpt lat="47.25604" lon="-2.32671">
        <ele>-0.40000000596046</ele>
        <time>2022-02-20T08:04:16.000Z</time>
      </trkpt>
      <trkpt lat="47.25592" lon="-2.32676">
        <ele>12.3</ele>
        <time>2022-02-20T08:04:19.000Z</time>
      </trkpt>
      <trkpt lat="47.25587" lon="-2.32678">
        <ele>0.40000000596046</ele>
        <time>2022-02-20T08:04:20.000Z</time>
      </trkpt>
      <trkpt lat="47.25583" lon="-2.3268">
        <ele>0.80000001192093</ele>
        <time>2022-02-20T08:04:21.000Z</time>
      </trkpt>
      <trkpt lat="47.25579" lon="-2.32682">
        <ele>1.2000000476837</ele>
        <time>2022-02-20T08:04:22.000Z</time>
      </trkpt>
      <trkpt lat="47.25574" lon="-2.32684">
        <ele>1.6000000238419</ele>
        <time>2022-02-20T08:04:23.000Z</time>
      </trkpt>
      <trkpt lat="47.25533" lon="-2.32698">
        <ele>1.6000000238419</ele>
        <time>2022-02-20T08:04:32.000Z</time>
      </trkpt>
      <trkpt lat="47.25505" lon="-2.32704">
        <ele>1.6000000238419</ele>
        <time>2022-02-20T08:04:38.000Z</time>
      </trkpt>
      <trkpt lat="47.25482" lon="-2.32709">
        <ele>1.6000000238419</ele>
        <time>2022-02-20T08:04:43.000Z</time>
      </trkpt>
      <trkpt lat="47.25474" lon="-2.32716">
        <ele>1.6000000238419</ele>
        <time>2022-02-20T08:04:45.000Z</time>
      </trkpt>
      <trkpt lat="47.25458" lon="-2.3274">
        <ele>1.6000000238419</ele>
        <time>2022-02-20T08:04:50.000Z</time>
      </trkpt>
      <trkpt lat="47.25444" lon="-2.32758">
        <ele>1.6000000238419</ele>
        <time>2022-02-20T08:04:52.000Z</time>
      </trkpt>
      <trkpt lat="47.25438" lon="-2.32768">
        <ele>1.6000000238419</ele>
        <time>2022-02-20T08:04:56.000Z</time>
      </trkpt>
      <trkpt lat="47.25434" lon="-2.32779">
        <ele>1.6000000238419</ele>
        <time>2022-02-20T08:04:58.000Z</time>
      </trkpt>
      <trkpt lat="47.25421" lon="-2.32799">
        <ele>1.6000000238419</ele>
        <time>2022-02-20T08:05:02.000Z</time>
      </trkpt>
      <trkpt lat="47.25397" lon="-2.32831">
        <ele>1.2000000476837</ele>
        <time>2022-02-20T08:05:08.000Z</time>
      </trkpt>
      <trkpt lat="47.25393" lon="-2.32836">
        <ele>0.80000001192093</ele>
        <time>2022-02-20T08:05:09.000Z</time>
      </trkpt>
      <trkpt lat="47.25389" lon="-2.32841">
        <ele>0.40000000596046</ele>
        <time>2022-02-20T08:05:10.000Z</time>
      </trkpt>
      <trkpt lat="47.25385" lon="-2.32846">
        <ele>9.6</ele>
        <time>2022-02-20T08:05:11.000Z</time>
      </trkpt>
      <trkpt lat="47.25381" lon="-2.32851">
        <ele>-0.60000002384186</ele>
        <time>2022-02-20T08:05:12.000Z</time>
      </trkpt>
      <trkpt lat="47.25369" lon="-2.32863">
        <ele>-0.60000002384186</ele>
        <time>2022-02-20T08:05:15.000Z</time>
      </trkpt>
      <trkpt lat="47.25342" lon="-2.32891">
        <ele>-0.60000002384186</ele>
        <time>2022-02-20T08:05:22.000Z</time>
      </trkpt>
      <trkpt lat="47.25315" lon="-2.32917">
        <ele>-0.60000002384186</ele>
        <time>2022-02-20T08:05:29.000Z</time>
      </trkpt>
      <trkpt lat="47.25311" lon="-2.32921">
        <ele>-0.60000002384186</ele>
        <time>2022-02-20T08:05:30.000Z</time>
      </trkpt>
      <trkpt lat="47.25307" lon="-2.32947">
        <ele>-0.60000002384186</ele>
        <time>2022-02-20T08:05:34.000Z</time>
      </trkpt>
      <trkpt lat="47.25315" lon="-2.32972">
        <ele>-0.60000002384186</ele>
        <time>2022-02-20T08:05:38.000Z</time>
      </trkpt>
      <trkpt lat="47.25318" lon="-2.32978">
        <ele>-0.60000002384186</ele>
        <time>2022-02-20T08:05:39.000Z</time>
      </trkpt>
      <trkpt lat="47.2532" lon="-2.32985">
        <ele>-0.60000002384186</ele>
        <time>2022-02-20T08:05:40.000Z</time>
      </trkpt>
      <trkpt lat="47.25333" lon="-2.33015">
        <ele>-0.60000002384186</ele>
        <time>2022-02-20T08:05:45.000Z</time>
      </trkpt>
      <trkpt lat="47.25334" lon="-2.33021">
        <ele>-0.60000002384186</ele>
        <time>2022-02-20T08:05:46.000Z</time>
      </trkpt>
      <trkpt lat="47.25344" lon="-2.33045">
        <ele>-0.60000002384186</ele>
        <time>2022-02-20T08:05:50.000Z</time>
      </trkpt>
      <trkpt lat="47.25357" lon="-2.33078">
        <ele>-1</ele>
        <time>2022-02-20T08:05:56.000Z</time>
      </trkpt>
      <trkpt lat="47.25359" lon="-2.33083">
        <ele>-1.3999999761581</ele>
        <time>2022-02-20T08:05:57.000Z</time>
      </trkpt>
      <trkpt lat="47.25361" lon="-2.33089">
        <ele>-1.7999999523163</ele>
        <time>2022-02-20T08:05:58.000Z</time>
      </trkpt>
      <trkpt lat="47.25363" lon="-2.33093">
        <ele>-2.2000000476837</ele>
        <time>2022-02-20T08:05:59.000Z</time>
      </trkpt>
      <trkpt lat="47.25364" lon="-2.33097">
        <ele>-2.5999999046326</ele>
        <time>2022-02-20T08:06:00.000Z</time>
      </trkpt>
      <trkpt lat="47.25368" lon="-2.33106">
        <ele>-2.5999999046326</ele>
        <time>2022-02-20T08:06:03.000Z</time>
      </trkpt>
      <trkpt lat="47.2537" lon="-2.3311">
        <ele>-2.5999999046326</ele>
        <time>2022-02-20T08:06:08.000Z</time>
      </trkpt>
      <trkpt lat="47.2537" lon="-2.33108">
        <ele>-2.5999999046326</ele>
        <time>2022-02-20T08:11:34.000Z</time>
      </trkpt>
      <trkpt lat="47.25369" lon="-2.33102">
        <ele>-2.5999999046326</ele>
        <time>2022-02-20T08:11:37.000Z</time>
      </trkpt>
      <trkpt lat="47.25364" lon="-2.33085">
        <ele>-2.5999999046326</ele>
        <time>2022-02-20T08:11:42.000Z</time>
      </trkpt>
      <trkpt lat="47.25352" lon="-2.33055">
        <ele>-2.5999999046326</ele>
        <time>2022-02-20T08:11:50.000Z</time>
      </trkpt>
      <trkpt lat="47.25338" lon="-2.3302">
        <ele>-2.5999999046326</ele>
        <time>2022-02-20T08:11:58.000Z</time>
      </trkpt>
      <trkpt lat="47.25329" lon="-2.32994">
        <ele>-2.5999999046326</ele>
        <time>2022-02-20T08:12:04.000Z</time>
      </trkpt>
      <trkpt lat="47.2532" lon="-2.3297">
        <ele>-2.5999999046326</ele>
        <time>2022-02-20T08:12:11.000Z</time>
      </trkpt>
      <trkpt lat="47.25313" lon="-2.32956">
        <ele>-2.5999999046326</ele>
        <time>2022-02-20T08:12:17.000Z</time>
      </trkpt>
      <trkpt lat="47.25307" lon="-2.32939">
        <ele>-2.5999999046326</ele>
        <time>2022-02-20T08:12:24.000Z</time>
      </trkpt>
      <trkpt lat="47.25299" lon="-2.32936">
        <ele>-2.5999999046326</ele>
        <time>2022-02-20T08:12:27.000Z</time>
      </trkpt>
      <trkpt lat="47.25296" lon="-2.32937">
        <ele>-2.5999999046326</ele>
        <time>2022-02-20T08:12:28.000Z</time>
      </trkpt>
      <trkpt lat="47.25288" lon="-2.32944">
        <ele>-2.5999999046326</ele>
        <time>2022-02-20T08:12:31.000Z</time>
      </trkpt>
      <trkpt lat="47.25276" lon="-2.32955">
        <ele>-2.5999999046326</ele>
        <time>2022-02-20T08:12:35.000Z</time>
      </trkpt>
      <trkpt lat="47.25251" lon="-2.32978">
        <ele>-2.5999999046326</ele>
        <time>2022-02-20T08:12:44.000Z</time>
      </trkpt>
      <trkpt lat="47.25234" lon="-2.32998">
        <ele>-2.5999999046326</ele>
        <time>2022-02-20T08:12:51.000Z</time>
      </trkpt>
      <trkpt lat="47.25216" lon="-2.33016">
        <ele>-2.5999999046326</ele>
        <time>2022-02-20T08:12:57.000Z</time>
      </trkpt>
      <trkpt lat="47.25197" lon="-2.33035">
        <ele>-2.5999999046326</ele>
        <time>2022-02-20T08:13:03.000Z</time>
      </trkpt>
      <trkpt lat="47.25171" lon="-2.3306">
        <ele>-2.5999999046326</ele>
        <time>2022-02-20T08:13:09.000Z</time>
      </trkpt>
      <trkpt lat="47.25158" lon="-2.33072">
        <ele>-2.5999999046326</ele>
        <time>2022-02-20T08:13:12.000Z</time>
      </trkpt>
      <trkpt lat="47.25144" lon="-2.33079">
        <ele>-2.5999999046326</ele>
        <time>2022-02-20T08:13:15.000Z</time>
      </trkpt>
      <trkpt lat="47.25121" lon="-2.33088">
        <ele>-2.5999999046326</ele>
        <time>2022-02-20T08:13:21.000Z</time>
      </trkpt>
      <trkpt lat="47.25116" lon="-2.33087">
        <ele>-2.5999999046326</ele>
        <time>2022-02-20T08:13:23.000Z</time>
      </trkpt>
      <trkpt lat="47.25113" lon="-2.3308">
        <ele>-2.5999999046326</ele>
        <time>2022-02-20T08:13:25.000Z</time>
      </trkpt>
      <trkpt lat="47.25117" lon="-2.33064">
        <ele>-2.5999999046326</ele>
        <time>2022-02-20T08:13:28.000Z</time>
      </trkpt>
      <trkpt lat="47.25119" lon="-2.33059">
        <ele>-2.5999999046326</ele>
        <time>2022-02-20T08:13:29.000Z</time>
      </trkpt>
      <trkpt lat="47.25133" lon="-2.33029">
        <ele>-2.5999999046326</ele>
        <time>2022-02-20T08:13:35.000Z</time>
      </trkpt>
      <trkpt lat="47.25136" lon="-2.33024">
        <ele>-2.5999999046326</ele>
        <time>2022-02-20T08:13:36.000Z</time>
      </trkpt>
      <trkpt lat="47.25137" lon="-2.33005">
        <ele>-2.5999999046326</ele>
        <time>2022-02-20T08:13:39.000Z</time>
      </trkpt>
      <trkpt lat="47.2513" lon="-2.32994">
        <ele>-2.5999999046326</ele>
        <time>2022-02-20T08:13:41.000Z</time>
      </trkpt>
      <trkpt lat="47.25126" lon="-2.32989">
        <ele>-2.5999999046326</ele>
        <time>2022-02-20T08:13:42.000Z</time>
      </trkpt>
      <trkpt lat="47.25119" lon="-2.32977">
        <ele>-2.5999999046326</ele>
        <time>2022-02-20T08:13:44.000Z</time>
      </trkpt>
      <trkpt lat="47.25106" lon="-2.32955">
        <ele>-2.5999999046326</ele>
        <time>2022-02-20T08:13:48.000Z</time>
      </trkpt>
      <trkpt lat="47.25095" lon="-2.32935">
        <ele>-2.5999999046326</ele>
        <time>2022-02-20T08:13:52.000Z</time>
      </trkpt>
      <trkpt lat="47.25093" lon="-2.3293">
        <ele>-2.5999999046326</ele>
        <time>2022-02-20T08:13:53.000Z</time>
      </trkpt>
      <trkpt lat="47.2509" lon="-2.3291">
        <ele>-2.5999999046326</ele>
        <time>2022-02-20T08:13:56.000Z</time>
      </trkpt>
      <trkpt lat="47.25088" lon="-2.32901">
        <ele>-2.5999999046326</ele>
        <time>2022-02-20T08:13:58.000Z</time>
      </trkpt>
      <trkpt lat="47.25086" lon="-2.32899">
        <ele>-2.5999999046326</ele>
        <time>2022-02-20T08:13:59.000Z</time>
      </trkpt>
      <trkpt lat="47.2508" lon="-2.32888">
        <ele>-2.5999999046326</ele>
        <time>2022-02-20T08:14:03.000Z</time>
      </trkpt>
      <trkpt lat="47.25077" lon="-2.32868">
        <ele>-2.5999999046326</ele>
        <time>2022-02-20T08:14:08.000Z</time>
      </trkpt>
      <trkpt lat="47.25076" lon="-2.32857">
        <ele>-2.5999999046326</ele>
        <time>2022-02-20T08:14:12.000Z</time>
      </trkpt>
      <trkpt lat="47.25076" lon="-2.32855">
        <ele>-2.5999999046326</ele>
        <time>2022-02-20T08:14:14.000Z</time>
      </trkpt>
      <trkpt lat="47.25075" lon="-2.32846">
        <ele>-2.5999999046326</ele>
        <time>2022-02-20T08:14:31.000Z</time>
      </trkpt>
      <trkpt lat="47.25071" lon="-2.32843">
        <ele>-2.5999999046326</ele>
        <time>2022-02-20T08:14:33.000Z</time>
      </trkpt>
      <trkpt lat="47.25062" lon="-2.32832">
        <ele>-2.5999999046326</ele>
        <time>2022-02-20T08:14:36.000Z</time>
      </trkpt>
      <trkpt lat="47.25058" lon="-2.32829">
        <ele>-2.5999999046326</ele>
        <time>2022-02-20T08:14:37.000Z</time>
      </trkpt>
      <trkpt lat="47.25055" lon="-2.32824">
        <ele>-2.5999999046326</ele>
        <time>2022-02-20T08:14:38.000Z</time>
      </trkpt>
      <trkpt lat="47.25048" lon="-2.32806">
        <ele>-2.5999999046326</ele>
        <time>2022-02-20T08:14:41.000Z</time>
      </trkpt>
      <trkpt lat="47.25045" lon="-2.32793">
        <ele>-2.5999999046326</ele>
        <time>2022-02-20T08:14:43.000Z</time>
      </trkpt>
      <trkpt lat="47.2504" lon="-2.32777">
        <ele>-2.5999999046326</ele>
        <time>2022-02-20T08:14:46.000Z</time>
      </trkpt>
      <trkpt lat="47.25029" lon="-2.32755">
        <ele>-2.5999999046326</ele>
        <time>2022-02-20T08:14:51.000Z</time>
      </trkpt>
      <trkpt lat="47.25029" lon="-2.32751">
        <ele>-2.5999999046326</ele>
        <time>2022-02-20T08:14:52.000Z</time>
      </trkpt>
      <trkpt lat="47.25031" lon="-2.32742">
        <ele>-2.5999999046326</ele>
        <time>2022-02-20T08:14:54.000Z</time>
      </trkpt>
      <trkpt lat="47.25041" lon="-2.32731">
        <ele>-2.5999999046326</ele>
        <time>2022-02-20T08:14:57.000Z</time>
      </trkpt>
      <trkpt lat="47.25045" lon="-2.32728">
        <ele>-2.5999999046326</ele>
        <time>2022-02-20T08:14:58.000Z</time>
      </trkpt>
      <trkpt lat="47.2506" lon="-2.32714">
        <ele>-2.5999999046326</ele>
        <time>2022-02-20T08:15:02.000Z</time>
      </trkpt>
      <trkpt lat="47.25064" lon="-2.32711">
        <ele>-2.2000000476837</ele>
        <time>2022-02-20T08:15:03.000Z</time>
      </trkpt>
      <trkpt lat="47.25067" lon="-2.32708">
        <ele>-1.7999999523163</ele>
        <time>2022-02-20T08:15:04.000Z</time>
      </trkpt>
      <trkpt lat="47.2507" lon="-2.32705">
        <ele>-1.3999999761581</ele>
        <time>2022-02-20T08:15:05.000Z</time>
      </trkpt>
      <trkpt lat="47.25074" lon="-2.32702">
        <ele>-1</ele>
        <time>2022-02-20T08:15:06.000Z</time>
      </trkpt>
      <trkpt lat="47.25077" lon="-2.32699">
        <ele>-0.60000002384186</ele>
        <time>2022-02-20T08:15:07.000Z</time>
      </trkpt>
      <trkpt lat="47.25084" lon="-2.32688">
        <ele>-0.60000002384186</ele>
        <time>2022-02-20T08:15:10.000Z</time>
      </trkpt>
      <trkpt lat="47.25084" lon="-2.32679">
        <ele>-0.60000002384186</ele>
        <time>2022-02-20T08:15:12.000Z</time>
      </trkpt>
      <trkpt lat="47.25083" lon="-2.32674">
        <ele>-0.60000002384186</ele>
        <time>2022-02-20T08:15:13.000Z</time>
      </trkpt>
      <trkpt lat="47.25065" lon="-2.32639">
        <ele>-0.60000002384186</ele>
        <time>2022-02-20T08:15:20.000Z</time>
      </trkpt>
      <trkpt lat="47.25061" lon="-2.3263">
        <ele>11.3</ele>
        <time>2022-02-20T08:15:22.000Z</time>
      </trkpt>
      <trkpt lat="47.25058" lon="-2.32625">
        <ele>0.40000000596046</ele>
        <time>2022-02-20T08:15:23.000Z</time>
      </trkpt>
      <trkpt lat="47.25056" lon="-2.32621">
        <ele>0.80000001192093</ele>
        <time>2022-02-20T08:15:24.000Z</time>
      </trkpt>
      <trkpt lat="47.25053" lon="-2.32616">
        <ele>1.2000000476837</ele>
        <time>2022-02-20T08:15:25.000Z</time>
      </trkpt>
      <trkpt lat="47.25051" lon="-2.32611">
        <ele>1.6000000238419</ele>
        <time>2022-02-20T08:15:26.000Z</time>
      </trkpt>
      <trkpt lat="47.25049" lon="-2.32607">
        <ele>1.6000000238419</ele>
        <time>2022-02-20T08:15:27.000Z</time>
      </trkpt>
      <trkpt lat="47.25041" lon="-2.3258">
        <ele>1.6000000238419</ele>
        <time>2022-02-20T08:15:33.000Z</time>
      </trkpt>
      <trkpt lat="47.25032" lon="-2.32564">
        <ele>2</ele>
        <time>2022-02-20T08:15:37.000Z</time>
      </trkpt>
      <trkpt lat="47.25031" lon="-2.3256">
        <ele>2.4000000953674</ele>
        <time>2022-02-20T08:15:38.000Z</time>
      </trkpt>
      <trkpt lat="47.25029" lon="-2.32555">
        <ele>2.7999999523163</ele>
        <time>2022-02-20T08:15:39.000Z</time>
      </trkpt>
      <trkpt lat="47.25029" lon="-2.3255">
        <ele>3.4000000953674</ele>
        <time>2022-02-20T08:15:40.000Z</time>
      </trkpt>
      <trkpt lat="47.25028" lon="-2.32544">
        <ele>3.7999999523163</ele>
        <time>2022-02-20T08:15:41.000Z</time>
      </trkpt>
      <trkpt lat="47.25029" lon="-2.32531">
        <ele>3.7999999523163</ele>
        <time>2022-02-20T08:15:44.000Z</time>
      </trkpt>
      <trkpt lat="47.25039" lon="-2.32513">
        <ele>3.7999999523163</ele>
        <time>2022-02-20T08:15:49.000Z</time>
      </trkpt>
      <trkpt lat="47.25052" lon="-2.32503">
        <ele>4.1999998092651</ele>
        <time>2022-02-20T08:15:53.000Z</time>
      </trkpt>
      <trkpt lat="47.25054" lon="-2.32501">
        <ele>4.5999999046326</ele>
        <time>2022-02-20T08:15:54.000Z</time>
      </trkpt>
      <trkpt lat="47.25058" lon="-2.32499">
        <ele>5</ele>
        <time>2022-02-20T08:15:55.000Z</time>
      </trkpt>
      <trkpt lat="47.25061" lon="-2.32498">
        <ele>5.4000000953674</ele>
        <time>2022-02-20T08:15:56.000Z</time>
      </trkpt>
      <trkpt lat="47.25064" lon="-2.32497">
        <ele>5.8000001907349</ele>
        <time>2022-02-20T08:15:57.000Z</time>
      </trkpt>
      <trkpt lat="47.25087" lon="-2.32484">
        <ele>5.8000001907349</ele>
        <time>2022-02-20T08:16:04.000Z</time>
      </trkpt>
      <trkpt lat="47.25105" lon="-2.32465">
        <ele>5.8000001907349</ele>
        <time>2022-02-20T08:16:10.000Z</time>
      </trkpt>
      <trkpt lat="47.25108" lon="-2.32444">
        <ele>6.1999998092651</ele>
        <time>2022-02-20T08:16:14.000Z</time>
      </trkpt>
      <trkpt lat="47.25108" lon="-2.32438">
        <ele>6.5999999046326</ele>
        <time>2022-02-20T08:16:15.000Z</time>
      </trkpt>
      <trkpt lat="47.25107" lon="-2.32433">
        <ele>7</ele>
        <time>2022-02-20T08:16:16.000Z</time>
      </trkpt>
      <trkpt lat="47.25107" lon="-2.32427">
        <ele>7.4000000953674</ele>
        <time>2022-02-20T08:16:17.000Z</time>
      </trkpt>
      <trkpt lat="47.25107" lon="-2.32422">
        <ele>8</ele>
        <time>2022-02-20T08:16:18.000Z</time>
      </trkpt>
      <trkpt lat="47.25106" lon="-2.32395">
        <ele>8</ele>
        <time>2022-02-20T08:16:23.000Z</time>
      </trkpt>
      <trkpt lat="47.25107" lon="-2.32368">
        <ele>8</ele>
        <time>2022-02-20T08:16:28.000Z</time>
      </trkpt>
      <trkpt lat="47.25108" lon="-2.32363">
        <ele>8.3999996185303</ele>
        <time>2022-02-20T08:16:29.000Z</time>
      </trkpt>
      <trkpt lat="47.25108" lon="-2.32358">
        <ele>8.8000001907349</ele>
        <time>2022-02-20T08:16:30.000Z</time>
      </trkpt>
      <trkpt lat="47.25109" lon="-2.32353">
        <ele>9.1999998092651</ele>
        <time>2022-02-20T08:16:31.000Z</time>
      </trkpt>
      <trkpt lat="47.25111" lon="-2.32349">
        <ele>9.6000003814697</ele>
        <time>2022-02-20T08:16:32.000Z</time>
      </trkpt>
      <trkpt lat="47.25112" lon="-2.32344">
        <ele>10</ele>
        <time>2022-02-20T08:16:33.000Z</time>
      </trkpt>
      <trkpt lat="47.25114" lon="-2.32334">
        <ele>10</ele>
        <time>2022-02-20T08:16:35.000Z</time>
      </trkpt>
      <trkpt lat="47.25122" lon="-2.32314">
        <ele>10</ele>
        <time>2022-02-20T08:16:40.000Z</time>
      </trkpt>
      <trkpt lat="47.25124" lon="-2.32311">
        <ele>10.39999961853</ele>
        <time>2022-02-20T08:16:41.000Z</time>
      </trkpt>
      <trkpt lat="47.25125" lon="-2.32308">
        <ele>10.800000190735</ele>
        <time>2022-02-20T08:16:42.000Z</time>
      </trkpt>
      <trkpt lat="47.25127" lon="-2.32305">
        <ele>11.199999809265</ele>
        <time>2022-02-20T08:16:43.000Z</time>
      </trkpt>
      <trkpt lat="47.25129" lon="-2.32301">
        <ele>11.60000038147</ele>
        <time>2022-02-20T08:16:44.000Z</time>
      </trkpt>
      <trkpt lat="47.25131" lon="-2.32298">
        <ele>12</ele>
        <time>2022-02-20T08:16:45.000Z</time>
      </trkpt>
      <trkpt lat="47.25133" lon="-2.32294">
        <ele>12</ele>
        <time>2022-02-20T08:16:46.000Z</time>
      </trkpt>
      <trkpt lat="47.25132" lon="-2.32271">
        <ele>12</ele>
        <time>2022-02-20T08:16:51.000Z</time>
      </trkpt>
      <trkpt lat="47.25129" lon="-2.32245">
        <ele>12</ele>
        <time>2022-02-20T08:16:57.000Z</time>
      </trkpt>
      <trkpt lat="47.25129" lon="-2.32233">
        <ele>12.39999961853</ele>
        <time>2022-02-20T08:17:00.000Z</time>
      </trkpt>
      <trkpt lat="47.25128" lon="-2.32229">
        <ele>12.800000190735</ele>
        <time>2022-02-20T08:17:01.000Z</time>
      </trkpt>
      <trkpt lat="47.25128" lon="-2.32224">
        <ele>13.199999809265</ele>
        <time>2022-02-20T08:17:02.000Z</time>
      </trkpt>
      <trkpt lat="47.25128" lon="-2.32219">
        <ele>13.60000038147</ele>
        <time>2022-02-20T08:17:03.000Z</time>
      </trkpt>
      <trkpt lat="47.25127" lon="-2.32213">
        <ele>14</ele>
        <time>2022-02-20T08:17:04.000Z</time>
      </trkpt>
      <trkpt lat="47.25123" lon="-2.32166">
        <ele>14</ele>
        <time>2022-02-20T08:17:12.000Z</time>
      </trkpt>
      <trkpt lat="47.2512" lon="-2.32121">
        <ele>14</ele>
        <time>2022-02-20T08:17:20.000Z</time>
      </trkpt>
      <trkpt lat="47.25116" lon="-2.32075">
        <ele>14</ele>
        <time>2022-02-20T08:17:28.000Z</time>
      </trkpt>
      <trkpt lat="47.25115" lon="-2.32058">
        <ele>14</ele>
        <time>2022-02-20T08:17:31.000Z</time>
      </trkpt>
      <trkpt lat="47.25113" lon="-2.32034">
        <ele>14</ele>
        <time>2022-02-20T08:17:35.000Z</time>
      </trkpt>
      <trkpt lat="47.25108" lon="-2.31988">
        <ele>14</ele>
        <time>2022-02-20T08:17:43.000Z</time>
      </trkpt>
      <trkpt lat="47.25105" lon="-2.31966">
        <ele>14</ele>
        <time>2022-02-20T08:17:47.000Z</time>
      </trkpt>
      <trkpt lat="47.25105" lon="-2.3196">
        <ele>14</ele>
        <time>2022-02-20T08:17:48.000Z</time>
      </trkpt>
      <trkpt lat="47.25105" lon="-2.31953">
        <ele>14</ele>
        <time>2022-02-20T08:17:49.000Z</time>
      </trkpt>
      <trkpt lat="47.25102" lon="-2.31929">
        <ele>14</ele>
        <time>2022-02-20T08:17:53.000Z</time>
      </trkpt>
      <trkpt lat="47.25098" lon="-2.31885">
        <ele>14</ele>
        <time>2022-02-20T08:18:01.000Z</time>
      </trkpt>
      <trkpt lat="47.2509" lon="-2.31834">
        <ele>14</ele>
        <time>2022-02-20T08:18:10.000Z</time>
      </trkpt>
      <trkpt lat="47.25082" lon="-2.31794">
        <ele>14</ele>
        <time>2022-02-20T08:18:17.000Z</time>
      </trkpt>
      <trkpt lat="47.25081" lon="-2.31789">
        <ele>14.39999961853</ele>
        <time>2022-02-20T08:18:18.000Z</time>
      </trkpt>
      <trkpt lat="47.25079" lon="-2.31783">
        <ele>14.800000190735</ele>
        <time>2022-02-20T08:18:19.000Z</time>
      </trkpt>
      <trkpt lat="47.25077" lon="-2.31777">
        <ele>15.199999809265</ele>
        <time>2022-02-20T08:18:20.000Z</time>
      </trkpt>
      <trkpt lat="47.25076" lon="-2.31772">
        <ele>15.60000038147</ele>
        <time>2022-02-20T08:18:21.000Z</time>
      </trkpt>
      <trkpt lat="47.25074" lon="-2.31767">
        <ele>16</ele>
        <time>2022-02-20T08:18:22.000Z</time>
      </trkpt>
      <trkpt lat="47.25068" lon="-2.31739">
        <ele>16</ele>
        <time>2022-02-20T08:18:27.000Z</time>
      </trkpt>
      <trkpt lat="47.25055" lon="-2.31689">
        <ele>16</ele>
        <time>2022-02-20T08:18:36.000Z</time>
      </trkpt>
      <trkpt lat="47.25048" lon="-2.31663">
        <ele>16</ele>
        <time>2022-02-20T08:18:41.000Z</time>
      </trkpt>
      <trkpt lat="47.25045" lon="-2.31654">
        <ele>16</ele>
        <time>2022-02-20T08:18:43.000Z</time>
      </trkpt>
      <trkpt lat="47.25043" lon="-2.31652">
        <ele>16</ele>
        <time>2022-02-20T08:18:44.000Z</time>
      </trkpt>
      <trkpt lat="47.25037" lon="-2.31652">
        <ele>16</ele>
        <time>2022-02-20T08:18:46.000Z</time>
      </trkpt>
      <trkpt lat="47.25027" lon="-2.31661">
        <ele>16</ele>
        <time>2022-02-20T08:18:49.000Z</time>
      </trkpt>
      <trkpt lat="47.25023" lon="-2.31665">
        <ele>16</ele>
        <time>2022-02-20T08:18:50.000Z</time>
      </trkpt>
      <trkpt lat="47.25003" lon="-2.31687">
        <ele>16</ele>
        <time>2022-02-20T08:18:56.000Z</time>
      </trkpt>
      <trkpt lat="47.2498" lon="-2.31709">
        <ele>16</ele>
        <time>2022-02-20T08:19:03.000Z</time>
      </trkpt>
      <trkpt lat="47.24957" lon="-2.31733">
        <ele>16</ele>
        <time>2022-02-20T08:19:10.000Z</time>
      </trkpt>
      <trkpt lat="47.24933" lon="-2.31755">
        <ele>16</ele>
        <time>2022-02-20T08:19:17.000Z</time>
      </trkpt>
      <trkpt lat="47.2491" lon="-2.31775">
        <ele>16</ele>
        <time>2022-02-20T08:19:23.000Z</time>
      </trkpt>
      <trkpt lat="47.24875" lon="-2.31806">
        <ele>16</ele>
        <time>2022-02-20T08:19:32.000Z</time>
      </trkpt>
      <trkpt lat="47.24855" lon="-2.31825">
        <ele>16</ele>
        <time>2022-02-20T08:19:37.000Z</time>
      </trkpt>
      <trkpt lat="47.24843" lon="-2.31835">
        <ele>16</ele>
        <time>2022-02-20T08:19:40.000Z</time>
      </trkpt>
      <trkpt lat="47.24816" lon="-2.31858">
        <ele>16</ele>
        <time>2022-02-20T08:19:47.000Z</time>
      </trkpt>
      <trkpt lat="47.24807" lon="-2.31864">
        <ele>16</ele>
        <time>2022-02-20T08:19:49.000Z</time>
      </trkpt>
      <trkpt lat="47.24796" lon="-2.31864">
        <ele>16</ele>
        <time>2022-02-20T08:19:51.000Z</time>
      </trkpt>
      <trkpt lat="47.24784" lon="-2.31852">
        <ele>16</ele>
        <time>2022-02-20T08:19:54.000Z</time>
      </trkpt>
      <trkpt lat="47.24781" lon="-2.31847">
        <ele>16</ele>
        <time>2022-02-20T08:19:55.000Z</time>
      </trkpt>
      <trkpt lat="47.24757" lon="-2.31812">
        <ele>16</ele>
        <time>2022-02-20T08:20:02.000Z</time>
      </trkpt>
      <trkpt lat="47.24736" lon="-2.3178">
        <ele>16</ele>
        <time>2022-02-20T08:20:09.000Z</time>
      </trkpt>
      <trkpt lat="47.24724" lon="-2.31762">
        <ele>16</ele>
        <time>2022-02-20T08:20:13.000Z</time>
      </trkpt>
      <trkpt lat="47.24721" lon="-2.31757">
        <ele>16</ele>
        <time>2022-02-20T08:20:14.000Z</time>
      </trkpt>
      <trkpt lat="47.24698" lon="-2.31722">
        <ele>16</ele>
        <time>2022-02-20T08:20:21.000Z</time>
      </trkpt>
      <trkpt lat="47.24668" lon="-2.31677">
        <ele>16</ele>
        <time>2022-02-20T08:20:30.000Z</time>
      </trkpt>
      <trkpt lat="47.24643" lon="-2.31638">
        <ele>16</ele>
        <time>2022-02-20T08:20:38.000Z</time>
      </trkpt>
      <trkpt lat="47.2463" lon="-2.31618">
        <ele>16</ele>
        <time>2022-02-20T08:20:42.000Z</time>
      </trkpt>
      <trkpt lat="47.24621" lon="-2.31604">
        <ele>16</ele>
        <time>2022-02-20T08:20:45.000Z</time>
      </trkpt>
      <trkpt lat="47.24618" lon="-2.316">
        <ele>16</ele>
        <time>2022-02-20T08:20:46.000Z</time>
      </trkpt>
      <trkpt lat="47.24602" lon="-2.31575">
        <ele>16</ele>
        <time>2022-02-20T08:20:51.000Z</time>
      </trkpt>
      <trkpt lat="47.246" lon="-2.31569">
        <ele>16</ele>
        <time>2022-02-20T08:20:52.000Z</time>
      </trkpt>
      <trkpt lat="47.24595" lon="-2.31549">
        <ele>16</ele>
        <time>2022-02-20T08:20:55.000Z</time>
      </trkpt>
      <trkpt lat="47.24593" lon="-2.31541">
        <ele>16</ele>
        <time>2022-02-20T08:20:56.000Z</time>
      </trkpt>
      <trkpt lat="47.2459" lon="-2.31527">
        <ele>16</ele>
        <time>2022-02-20T08:20:58.000Z</time>
      </trkpt>
      <trkpt lat="47.24588" lon="-2.31505">
        <ele>16</ele>
        <time>2022-02-20T08:21:01.000Z</time>
      </trkpt>
      <trkpt lat="47.24585" lon="-2.31469">
        <ele>16</ele>
        <time>2022-02-20T08:21:06.000Z</time>
      </trkpt>
      <trkpt lat="47.24583" lon="-2.31455">
        <ele>16</ele>
        <time>2022-02-20T08:21:08.000Z</time>
      </trkpt>
      <trkpt lat="47.24577" lon="-2.31402">
        <ele>16</ele>
        <time>2022-02-20T08:21:16.000Z</time>
      </trkpt>
      <trkpt lat="47.24573" lon="-2.31391">
        <ele>16</ele>
        <time>2022-02-20T08:21:19.000Z</time>
      </trkpt>
      <trkpt lat="47.24564" lon="-2.31392">
        <ele>16</ele>
        <time>2022-02-20T08:21:22.000Z</time>
      </trkpt>
      <trkpt lat="47.24558" lon="-2.31394">
        <ele>16</ele>
        <time>2022-02-20T08:21:24.000Z</time>
      </trkpt>
      <trkpt lat="47.24543" lon="-2.31392">
        <ele>16</ele>
        <time>2022-02-20T08:21:28.000Z</time>
      </trkpt>
      <trkpt lat="47.24519" lon="-2.3138">
        <ele>16</ele>
        <time>2022-02-20T08:21:34.000Z</time>
      </trkpt>
      <trkpt lat="47.24515" lon="-2.31376">
        <ele>15.60000038147</ele>
        <time>2022-02-20T08:21:35.000Z</time>
      </trkpt>
      <trkpt lat="47.24511" lon="-2.31372">
        <ele>15.199999809265</ele>
        <time>2022-02-20T08:21:36.000Z</time>
      </trkpt>
      <trkpt lat="47.24507" lon="-2.31368">
        <ele>14.800000190735</ele>
        <time>2022-02-20T08:21:37.000Z</time>
      </trkpt>
      <trkpt lat="47.24504" lon="-2.31363">
        <ele>14.39999961853</ele>
        <time>2022-02-20T08:21:38.000Z</time>
      </trkpt>
      <trkpt lat="47.24501" lon="-2.31358">
        <ele>14</ele>
        <time>2022-02-20T08:21:39.000Z</time>
      </trkpt>
      <trkpt lat="47.24497" lon="-2.31348">
        <ele>13.60000038147</ele>
        <time>2022-02-20T08:21:41.000Z</time>
      </trkpt>
      <trkpt lat="47.24496" lon="-2.31343">
        <ele>13</ele>
        <time>2022-02-20T08:21:42.000Z</time>
      </trkpt>
      <trkpt lat="47.24495" lon="-2.31338">
        <ele>12.60000038147</ele>
        <time>2022-02-20T08:21:43.000Z</time>
      </trkpt>
      <trkpt lat="47.24494" lon="-2.31333">
        <ele>12.199999809265</ele>
        <time>2022-02-20T08:21:44.000Z</time>
      </trkpt>
      <trkpt lat="47.24492" lon="-2.31329">
        <ele>11.60000038147</ele>
        <time>2022-02-20T08:21:45.000Z</time>
      </trkpt>
      <trkpt lat="47.24489" lon="-2.31325">
        <ele>11.60000038147</ele>
        <time>2022-02-20T08:21:46.000Z</time>
      </trkpt>
      <trkpt lat="47.24474" lon="-2.31293">
        <ele>11.199999809265</ele>
        <time>2022-02-20T08:21:51.000Z</time>
      </trkpt>
      <trkpt lat="47.2447" lon="-2.31285">
        <ele>10.800000190735</ele>
        <time>2022-02-20T08:21:52.000Z</time>
      </trkpt>
      <trkpt lat="47.24467" lon="-2.31278">
        <ele>10.39999961853</ele>
        <time>2022-02-20T08:21:53.000Z</time>
      </trkpt>
      <trkpt lat="47.24463" lon="-2.31271">
        <ele>10</ele>
        <time>2022-02-20T08:21:54.000Z</time>
      </trkpt>
      <trkpt lat="47.2446" lon="-2.31265">
        <ele>9.6000003814697</ele>
        <time>2022-02-20T08:21:55.000Z</time>
      </trkpt>
      <trkpt lat="47.24456" lon="-2.31252">
        <ele>9.6000003814697</ele>
        <time>2022-02-20T08:21:57.000Z</time>
      </trkpt>
      <trkpt lat="47.24448" lon="-2.31229">
        <ele>9.1999998092651</ele>
        <time>2022-02-20T08:22:02.000Z</time>
      </trkpt>
      <trkpt lat="47.24445" lon="-2.31227">
        <ele>8.8000001907349</ele>
        <time>2022-02-20T08:22:03.000Z</time>
      </trkpt>
      <trkpt lat="47.24443" lon="-2.31225">
        <ele>8.3999996185303</ele>
        <time>2022-02-20T08:22:04.000Z</time>
      </trkpt>
      <trkpt lat="47.2444" lon="-2.31225">
        <ele>8</ele>
        <time>2022-02-20T08:22:05.000Z</time>
      </trkpt>
      <trkpt lat="47.24436" lon="-2.31227">
        <ele>7.5999999046326</ele>
        <time>2022-02-20T08:22:06.000Z</time>
      </trkpt>
      <trkpt lat="47.24433" lon="-2.31229">
        <ele>7.1999998092651</ele>
        <time>2022-02-20T08:22:07.000Z</time>
      </trkpt>
      <trkpt lat="47.24429" lon="-2.31229">
        <ele>6.8000001907349</ele>
        <time>2022-02-20T08:22:08.000Z</time>
      </trkpt>
      <trkpt lat="47.24426" lon="-2.31228">
        <ele>6.4000000953674</ele>
        <time>2022-02-20T08:22:09.000Z</time>
      </trkpt>
      <trkpt lat="47.24424" lon="-2.31224">
        <ele>6</ele>
        <time>2022-02-20T08:22:10.000Z</time>
      </trkpt>
      <trkpt lat="47.24422" lon="-2.31221">
        <ele>5.5999999046326</ele>
        <time>2022-02-20T08:22:11.000Z</time>
      </trkpt>
      <trkpt lat="47.24418" lon="-2.31211">
        <ele>5.5999999046326</ele>
        <time>2022-02-20T08:22:15.000Z</time>
      </trkpt>
      <trkpt lat="47.24413" lon="-2.31198">
        <ele>5.5999999046326</ele>
        <time>2022-02-20T08:22:19.000Z</time>
      </trkpt>
      <trkpt lat="47.24412" lon="-2.31192">
        <ele>6</ele>
        <time>2022-02-20T08:22:21.000Z</time>
      </trkpt>
      <trkpt lat="47.24412" lon="-2.3119">
        <ele>6.4000000953674</ele>
        <time>2022-02-20T08:22:22.000Z</time>
      </trkpt>
      <trkpt lat="47.24411" lon="-2.31187">
        <ele>6.8000001907349</ele>
        <time>2022-02-20T08:22:23.000Z</time>
      </trkpt>
      <trkpt lat="47.24409" lon="-2.31183">
        <ele>7.1999998092651</ele>
        <time>2022-02-20T08:22:24.000Z</time>
      </trkpt>
      <trkpt lat="47.24407" lon="-2.31181">
        <ele>7.5999999046326</ele>
        <time>2022-02-20T08:22:25.000Z</time>
      </trkpt>
      <trkpt lat="47.244" lon="-2.3118">
        <ele>7.5999999046326</ele>
        <time>2022-02-20T08:22:27.000Z</time>
      </trkpt>
      <trkpt lat="47.24395" lon="-2.31177">
        <ele>7.5999999046326</ele>
        <time>2022-02-20T08:22:29.000Z</time>
      </trkpt>
      <trkpt lat="47.24389" lon="-2.31169">
        <ele>7.5999999046326</ele>
        <time>2022-02-20T08:22:32.000Z</time>
      </trkpt>
      <trkpt lat="47.24383" lon="-2.31162">
        <ele>8</ele>
        <time>2022-02-20T08:22:34.000Z</time>
      </trkpt>
      <trkpt lat="47.2438" lon="-2.31158">
        <ele>8.3999996185303</ele>
        <time>2022-02-20T08:22:35.000Z</time>
      </trkpt>
      <trkpt lat="47.24377" lon="-2.31153">
        <ele>8.8000001907349</ele>
        <time>2022-02-20T08:22:36.000Z</time>
      </trkpt>
      <trkpt lat="47.24375" lon="-2.3115">
        <ele>9.1999998092651</ele>
        <time>2022-02-20T08:22:37.000Z</time>
      </trkpt>
      <trkpt lat="47.24372" lon="-2.31146">
        <ele>9.6000003814697</ele>
        <time>2022-02-20T08:22:38.000Z</time>
      </trkpt>
      <trkpt lat="47.24359" lon="-2.31123">
        <ele>9.6000003814697</ele>
        <time>2022-02-20T08:22:44.000Z</time>
      </trkpt>
      <trkpt lat="47.24351" lon="-2.31095">
        <ele>9.6000003814697</ele>
        <time>2022-02-20T08:22:50.000Z</time>
      </trkpt>
      <trkpt lat="47.24341" lon="-2.31064">
        <ele>9.6000003814697</ele>
        <time>2022-02-20T08:22:56.000Z</time>
      </trkpt>
      <trkpt lat="47.24334" lon="-2.31045">
        <ele>9.6000003814697</ele>
        <time>2022-02-20T08:23:01.000Z</time>
      </trkpt>
      <trkpt lat="47.24332" lon="-2.31042">
        <ele>9.6000003814697</ele>
        <time>2022-02-20T08:23:02.000Z</time>
      </trkpt>
      <trkpt lat="47.24323" lon="-2.31036">
        <ele>9.6000003814697</ele>
        <time>2022-02-20T08:23:05.000Z</time>
      </trkpt>
      <trkpt lat="47.24304" lon="-2.31035">
        <ele>9.1999998092651</ele>
        <time>2022-02-20T08:23:09.000Z</time>
      </trkpt>
      <trkpt lat="47.243" lon="-2.31035">
        <ele>8.8000001907349</ele>
        <time>2022-02-20T08:23:10.000Z</time>
      </trkpt>
      <trkpt lat="47.24295" lon="-2.31034">
        <ele>8.1999998092651</ele>
        <time>2022-02-20T08:23:11.000Z</time>
      </trkpt>
      <trkpt lat="47.24287" lon="-2.31032">
        <ele>7.8000001907349</ele>
        <time>2022-02-20T08:23:12.000Z</time>
      </trkpt>
      <trkpt lat="47.24284" lon="-2.31026">
        <ele>7.1999998092651</ele>
        <time>2022-02-20T08:23:13.000Z</time>
      </trkpt>
      <trkpt lat="47.24282" lon="-2.3102">
        <ele>7.1999998092651</ele>
        <time>2022-02-20T08:23:14.000Z</time>
      </trkpt>
      <trkpt lat="47.24283" lon="-2.31001">
        <ele>7.1999998092651</ele>
        <time>2022-02-20T08:23:17.000Z</time>
      </trkpt>
      <trkpt lat="47.24284" lon="-2.30994">
        <ele>7.1999998092651</ele>
        <time>2022-02-20T08:23:18.000Z</time>
      </trkpt>
      <trkpt lat="47.24287" lon="-2.30972">
        <ele>7.1999998092651</ele>
        <time>2022-02-20T08:23:22.000Z</time>
      </trkpt>
      <trkpt lat="47.24289" lon="-2.30956">
        <ele>7.5999999046326</ele>
        <time>2022-02-20T08:23:25.000Z</time>
      </trkpt>
      <trkpt lat="47.24289" lon="-2.3095">
        <ele>8</ele>
        <time>2022-02-20T08:23:26.000Z</time>
      </trkpt>
      <trkpt lat="47.2429" lon="-2.30945">
        <ele>8.6000003814697</ele>
        <time>2022-02-20T08:23:27.000Z</time>
      </trkpt>
      <trkpt lat="47.2429" lon="-2.3094">
        <ele>9</ele>
        <time>2022-02-20T08:23:28.000Z</time>
      </trkpt>
      <trkpt lat="47.2429" lon="-2.30935">
        <ele>9.3999996185303</ele>
        <time>2022-02-20T08:23:29.000Z</time>
      </trkpt>
      <trkpt lat="47.2429" lon="-2.3093">
        <ele>9.3999996185303</ele>
        <time>2022-02-20T08:23:30.000Z</time>
      </trkpt>
      <trkpt lat="47.2429" lon="-2.30921">
        <ele>9.8000001907349</ele>
        <time>2022-02-20T08:23:32.000Z</time>
      </trkpt>
      <trkpt lat="47.24289" lon="-2.30916">
        <ele>10.199999809265</ele>
        <time>2022-02-20T08:23:33.000Z</time>
      </trkpt>
      <trkpt lat="47.24289" lon="-2.30911">
        <ele>11.199999809265</ele>
        <time>2022-02-20T08:23:34.000Z</time>
      </trkpt>
      <trkpt lat="47.24289" lon="-2.30906">
        <ele>11.60000038147</ele>
        <time>2022-02-20T08:23:35.000Z</time>
      </trkpt>
      <trkpt lat="47.24287" lon="-2.30892">
        <ele>11.60000038147</ele>
        <time>2022-02-20T08:23:38.000Z</time>
      </trkpt>
      <trkpt lat="47.24286" lon="-2.30861">
        <ele>11.60000038147</ele>
        <time>2022-02-20T08:23:44.000Z</time>
      </trkpt>
      <trkpt lat="47.24289" lon="-2.30838">
        <ele>12</ele>
        <time>2022-02-20T08:23:49.000Z</time>
      </trkpt>
      <trkpt lat="47.2429" lon="-2.30834">
        <ele>12.39999961853</ele>
        <time>2022-02-20T08:23:50.000Z</time>
      </trkpt>
      <trkpt lat="47.24291" lon="-2.3083">
        <ele>12.800000190735</ele>
        <time>2022-02-20T08:23:51.000Z</time>
      </trkpt>
      <trkpt lat="47.24292" lon="-2.30826">
        <ele>13.39999961853</ele>
        <time>2022-02-20T08:23:52.000Z</time>
      </trkpt>
      <trkpt lat="47.24293" lon="-2.30823">
        <ele>13.800000190735</ele>
        <time>2022-02-20T08:23:53.000Z</time>
      </trkpt>
      <trkpt lat="47.24296" lon="-2.30817">
        <ele>13.800000190735</ele>
        <time>2022-02-20T08:23:55.000Z</time>
      </trkpt>
      <trkpt lat="47.24297" lon="-2.30815">
        <ele>13.800000190735</ele>
        <time>2022-02-20T08:23:56.000Z</time>
      </trkpt>
      <trkpt lat="47.24302" lon="-2.30807">
        <ele>13.800000190735</ele>
        <time>2022-02-20T08:23:59.000Z</time>
      </trkpt>
      <trkpt lat="47.24307" lon="-2.30806">
        <ele>13.800000190735</ele>
        <time>2022-02-20T08:24:00.000Z</time>
      </trkpt>
      <trkpt lat="47.24333" lon="-2.30797">
        <ele>13.800000190735</ele>
        <time>2022-02-20T08:24:06.000Z</time>
      </trkpt>
      <trkpt lat="47.24348" lon="-2.30794">
        <ele>14.199999809265</ele>
        <time>2022-02-20T08:24:10.000Z</time>
      </trkpt>
      <trkpt lat="47.24351" lon="-2.30794">
        <ele>14.60000038147</ele>
        <time>2022-02-20T08:24:11.000Z</time>
      </trkpt>
      <trkpt lat="47.24355" lon="-2.30792">
        <ele>15</ele>
        <time>2022-02-20T08:24:12.000Z</time>
      </trkpt>
      <trkpt lat="47.24358" lon="-2.3079">
        <ele>15.39999961853</ele>
        <time>2022-02-20T08:24:13.000Z</time>
      </trkpt>
      <trkpt lat="47.24361" lon="-2.30788">
        <ele>15.800000190735</ele>
        <time>2022-02-20T08:24:14.000Z</time>
      </trkpt>
      <trkpt lat="47.24375" lon="-2.30775">
        <ele>15.800000190735</ele>
        <time>2022-02-20T08:24:19.000Z</time>
      </trkpt>
      <trkpt lat="47.24377" lon="-2.30772">
        <ele>16.200000762939</ele>
        <time>2022-02-20T08:24:20.000Z</time>
      </trkpt>
      <trkpt lat="47.24379" lon="-2.30769">
        <ele>16.60000038147</ele>
        <time>2022-02-20T08:24:21.000Z</time>
      </trkpt>
      <trkpt lat="47.24381" lon="-2.30766">
        <ele>17</ele>
        <time>2022-02-20T08:24:22.000Z</time>
      </trkpt>
      <trkpt lat="47.24383" lon="-2.30762">
        <ele>17.799999237061</ele>
        <time>2022-02-20T08:24:23.000Z</time>
      </trkpt>
      <trkpt lat="47.24389" lon="-2.30754">
        <ele>17.799999237061</ele>
        <time>2022-02-20T08:24:26.000Z</time>
      </trkpt>
      <trkpt lat="47.24392" lon="-2.3075">
        <ele>18.200000762939</ele>
        <time>2022-02-20T08:24:28.000Z</time>
      </trkpt>
      <trkpt lat="47.24394" lon="-2.30747">
        <ele>18.799999237061</ele>
        <time>2022-02-20T08:24:29.000Z</time>
      </trkpt>
      <trkpt lat="47.24395" lon="-2.30744">
        <ele>19.200000762939</ele>
        <time>2022-02-20T08:24:30.000Z</time>
      </trkpt>
      <trkpt lat="47.24397" lon="-2.30739">
        <ele>19.60000038147</ele>
        <time>2022-02-20T08:24:31.000Z</time>
      </trkpt>
      <trkpt lat="47.24398" lon="-2.30734">
        <ele>20</ele>
        <time>2022-02-20T08:24:32.000Z</time>
      </trkpt>
      <trkpt lat="47.24399" lon="-2.30714">
        <ele>20</ele>
        <time>2022-02-20T08:24:36.000Z</time>
      </trkpt>
      <trkpt lat="47.24405" lon="-2.30681">
        <ele>20</ele>
        <time>2022-02-20T08:24:42.000Z</time>
      </trkpt>
      <trkpt lat="47.24413" lon="-2.3065">
        <ele>20</ele>
        <time>2022-02-20T08:24:48.000Z</time>
      </trkpt>
      <trkpt lat="47.24423" lon="-2.30625">
        <ele>20</ele>
        <time>2022-02-20T08:24:53.000Z</time>
      </trkpt>
      <trkpt lat="47.24434" lon="-2.3061">
        <ele>20</ele>
        <time>2022-02-20T08:24:57.000Z</time>
      </trkpt>
      <trkpt lat="47.24438" lon="-2.30607">
        <ele>20</ele>
        <time>2022-02-20T08:24:58.000Z</time>
      </trkpt>
      <trkpt lat="47.24456" lon="-2.30589">
        <ele>20</ele>
        <time>2022-02-20T08:25:03.000Z</time>
      </trkpt>
      <trkpt lat="47.24461" lon="-2.30578">
        <ele>20</ele>
        <time>2022-02-20T08:25:05.000Z</time>
      </trkpt>
      <trkpt lat="47.24464" lon="-2.30571">
        <ele>19.60000038147</ele>
        <time>2022-02-20T08:25:06.000Z</time>
      </trkpt>
      <trkpt lat="47.24466" lon="-2.30566">
        <ele>19.200000762939</ele>
        <time>2022-02-20T08:25:07.000Z</time>
      </trkpt>
      <trkpt lat="47.24469" lon="-2.3056">
        <ele>18.799999237061</ele>
        <time>2022-02-20T08:25:08.000Z</time>
      </trkpt>
      <trkpt lat="47.2447" lon="-2.30555">
        <ele>18.39999961853</ele>
        <time>2022-02-20T08:25:09.000Z</time>
      </trkpt>
      <trkpt lat="47.24471" lon="-2.3055">
        <ele>18</ele>
        <time>2022-02-20T08:25:10.000Z</time>
      </trkpt>
      <trkpt lat="47.24472" lon="-2.30547">
        <ele>18</ele>
        <time>2022-02-20T08:25:11.000Z</time>
      </trkpt>
      <trkpt lat="47.24469" lon="-2.30546">
        <ele>18</ele>
        <time>2022-02-20T08:25:13.000Z</time>
      </trkpt>
      <trkpt lat="47.24463" lon="-2.30549">
        <ele>17.60000038147</ele>
        <time>2022-02-20T08:25:15.000Z</time>
      </trkpt>
      <trkpt lat="47.2446" lon="-2.30551">
        <ele>17.200000762939</ele>
        <time>2022-02-20T08:25:16.000Z</time>
      </trkpt>
      <trkpt lat="47.24456" lon="-2.30555">
        <ele>16.799999237061</ele>
        <time>2022-02-20T08:25:17.000Z</time>
      </trkpt>
      <trkpt lat="47.24451" lon="-2.30558">
        <ele>16.39999961853</ele>
        <time>2022-02-20T08:25:18.000Z</time>
      </trkpt>
      <trkpt lat="47.24448" lon="-2.30562">
        <ele>16</ele>
        <time>2022-02-20T08:25:19.000Z</time>
      </trkpt>
      <trkpt lat="47.24433" lon="-2.30574">
        <ele>15.39999961853</ele>
        <time>2022-02-20T08:25:23.000Z</time>
      </trkpt>
      <trkpt lat="47.24429" lon="-2.30576">
        <ele>15</ele>
        <time>2022-02-20T08:25:24.000Z</time>
      </trkpt>
      <trkpt lat="47.24425" lon="-2.30577">
        <ele>14.60000038147</ele>
        <time>2022-02-20T08:25:25.000Z</time>
      </trkpt>
      <trkpt lat="47.24421" lon="-2.30579">
        <ele>14.199999809265</ele>
        <time>2022-02-20T08:25:26.000Z</time>
      </trkpt>
      <trkpt lat="47.24417" lon="-2.3058">
        <ele>13.800000190735</ele>
        <time>2022-02-20T08:25:27.000Z</time>
      </trkpt>
      <trkpt lat="47.24408" lon="-2.30579">
        <ele>13.800000190735</ele>
        <time>2022-02-20T08:25:29.000Z</time>
      </trkpt>
      <trkpt lat="47.24396" lon="-2.30573">
        <ele>13.800000190735</ele>
        <time>2022-02-20T08:25:32.000Z</time>
      </trkpt>
      <trkpt lat="47.24386" lon="-2.30567">
        <ele>13.800000190735</ele>
        <time>2022-02-20T08:25:34.000Z</time>
      </trkpt>
      <trkpt lat="47.24381" lon="-2.30563">
        <ele>13.39999961853</ele>
        <time>2022-02-20T08:25:35.000Z</time>
      </trkpt>
      <trkpt lat="47.24378" lon="-2.30558">
        <ele>13</ele>
        <time>2022-02-20T08:25:36.000Z</time>
      </trkpt>
      <trkpt lat="47.24375" lon="-2.30553">
        <ele>12.199999809265</ele>
        <time>2022-02-20T08:25:37.000Z</time>
      </trkpt>
      <trkpt lat="47.24372" lon="-2.30547">
        <ele>11.800000190735</ele>
        <time>2022-02-20T08:25:38.000Z</time>
      </trkpt>
      <trkpt lat="47.24368" lon="-2.30534">
        <ele>11.800000190735</ele>
        <time>2022-02-20T08:25:40.000Z</time>
      </trkpt>
      <trkpt lat="47.24366" lon="-2.30524">
        <ele>11.800000190735</ele>
        <time>2022-02-20T08:25:42.000Z</time>
      </trkpt>
      <trkpt lat="47.24365" lon="-2.30512">
        <ele>12.199999809265</ele>
        <time>2022-02-20T08:25:45.000Z</time>
      </trkpt>
      <trkpt lat="47.24365" lon="-2.30508">
        <ele>12.60000038147</ele>
        <time>2022-02-20T08:25:46.000Z</time>
      </trkpt>
      <trkpt lat="47.24366" lon="-2.30502">
        <ele>13</ele>
        <time>2022-02-20T08:25:47.000Z</time>
      </trkpt>
      <trkpt lat="47.24367" lon="-2.30498">
        <ele>13.39999961853</ele>
        <time>2022-02-20T08:25:48.000Z</time>
      </trkpt>
      <trkpt lat="47.24368" lon="-2.30494">
        <ele>13.800000190735</ele>
        <time>2022-02-20T08:25:49.000Z</time>
      </trkpt>
      <trkpt lat="47.24371" lon="-2.30486">
        <ele>14.199999809265</ele>
        <time>2022-02-20T08:25:51.000Z</time>
      </trkpt>
      <trkpt lat="47.24372" lon="-2.30482">
        <ele>14.60000038147</ele>
        <time>2022-02-20T08:25:52.000Z</time>
      </trkpt>
      <trkpt lat="47.24373" lon="-2.30478">
        <ele>15</ele>
        <time>2022-02-20T08:25:53.000Z</time>
      </trkpt>
      <trkpt lat="47.24374" lon="-2.30474">
        <ele>15.39999961853</ele>
        <time>2022-02-20T08:25:54.000Z</time>
      </trkpt>
      <trkpt lat="47.24375" lon="-2.30469">
        <ele>15.800000190735</ele>
        <time>2022-02-20T08:25:55.000Z</time>
      </trkpt>
      <trkpt lat="47.24377" lon="-2.30454">
        <ele>15.800000190735</ele>
        <time>2022-02-20T08:25:59.000Z</time>
      </trkpt>
      <trkpt lat="47.24374" lon="-2.30448">
        <ele>16.200000762939</ele>
        <time>2022-02-20T08:26:01.000Z</time>
      </trkpt>
      <trkpt lat="47.24372" lon="-2.30448">
        <ele>17</ele>
        <time>2022-02-20T08:26:02.000Z</time>
      </trkpt>
      <trkpt lat="47.2437" lon="-2.30448">
        <ele>17.60000038147</ele>
        <time>2022-02-20T08:26:03.000Z</time>
      </trkpt>
      <trkpt lat="47.24368" lon="-2.30449">
        <ele>18</ele>
        <time>2022-02-20T08:26:04.000Z</time>
      </trkpt>
      <trkpt lat="47.24361" lon="-2.3045">
        <ele>18</ele>
        <time>2022-02-20T08:26:07.000Z</time>
      </trkpt>
      <trkpt lat="47.24345" lon="-2.30445">
        <ele>18</ele>
        <time>2022-02-20T08:26:12.000Z</time>
      </trkpt>
      <trkpt lat="47.24328" lon="-2.30437">
        <ele>18</ele>
        <time>2022-02-20T08:26:17.000Z</time>
      </trkpt>
      <trkpt lat="47.24324" lon="-2.30434">
        <ele>18</ele>
        <time>2022-02-20T08:26:18.000Z</time>
      </trkpt>
      <trkpt lat="47.24315" lon="-2.30428">
        <ele>18</ele>
        <time>2022-02-20T08:26:21.000Z</time>
      </trkpt>
      <trkpt lat="47.24313" lon="-2.30426">
        <ele>18.39999961853</ele>
        <time>2022-02-20T08:26:22.000Z</time>
      </trkpt>
      <trkpt lat="47.24312" lon="-2.30425">
        <ele>18.799999237061</ele>
        <time>2022-02-20T08:26:23.000Z</time>
      </trkpt>
      <trkpt lat="47.2431" lon="-2.30424">
        <ele>19.200000762939</ele>
        <time>2022-02-20T08:26:24.000Z</time>
      </trkpt>
      <trkpt lat="47.24308" lon="-2.30422">
        <ele>19.60000038147</ele>
        <time>2022-02-20T08:26:25.000Z</time>
      </trkpt>
      <trkpt lat="47.24306" lon="-2.30421">
        <ele>20</ele>
        <time>2022-02-20T08:26:26.000Z</time>
      </trkpt>
      <trkpt lat="47.243" lon="-2.30417">
        <ele>20</ele>
        <time>2022-02-20T08:26:28.000Z</time>
      </trkpt>
      <trkpt lat="47.24276" lon="-2.30398">
        <ele>20</ele>
        <time>2022-02-20T08:26:35.000Z</time>
      </trkpt>
      <trkpt lat="47.24259" lon="-2.30369">
        <ele>20</ele>
        <time>2022-02-20T08:26:41.000Z</time>
      </trkpt>
      <trkpt lat="47.24244" lon="-2.30341">
        <ele>20</ele>
        <time>2022-02-20T08:26:47.000Z</time>
      </trkpt>
      <trkpt lat="47.2423" lon="-2.30324">
        <ele>20</ele>
        <time>2022-02-20T08:26:52.000Z</time>
      </trkpt>
      <trkpt lat="47.24227" lon="-2.30325">
        <ele>20</ele>
        <time>2022-02-20T08:26:53.000Z</time>
      </trkpt>
      <trkpt lat="47.24218" lon="-2.3033">
        <ele>20</ele>
        <time>2022-02-20T08:26:55.000Z</time>
      </trkpt>
      <trkpt lat="47.2421" lon="-2.30332">
        <ele>19.60000038147</ele>
        <time>2022-02-20T08:26:57.000Z</time>
      </trkpt>
      <trkpt lat="47.24206" lon="-2.30331">
        <ele>19.200000762939</ele>
        <time>2022-02-20T08:26:58.000Z</time>
      </trkpt>
      <trkpt lat="47.24204" lon="-2.30328">
        <ele>18.799999237061</ele>
        <time>2022-02-20T08:26:59.000Z</time>
      </trkpt>
      <trkpt lat="47.24201" lon="-2.30322">
        <ele>18.39999961853</ele>
        <time>2022-02-20T08:27:00.000Z</time>
      </trkpt>
      <trkpt lat="47.24199" lon="-2.30315">
        <ele>17.799999237061</ele>
        <time>2022-02-20T08:27:01.000Z</time>
      </trkpt>
      <trkpt lat="47.24198" lon="-2.30308">
        <ele>17.39999961853</ele>
        <time>2022-02-20T08:27:02.000Z</time>
      </trkpt>
      <trkpt lat="47.24197" lon="-2.303">
        <ele>17</ele>
        <time>2022-02-20T08:27:03.000Z</time>
      </trkpt>
      <trkpt lat="47.24196" lon="-2.30293">
        <ele>16.60000038147</ele>
        <time>2022-02-20T08:27:04.000Z</time>
      </trkpt>
      <trkpt lat="47.24195" lon="-2.30285">
        <ele>16.200000762939</ele>
        <time>2022-02-20T08:27:05.000Z</time>
      </trkpt>
      <trkpt lat="47.24195" lon="-2.30277">
        <ele>15.800000190735</ele>
        <time>2022-02-20T08:27:06.000Z</time>
      </trkpt>
      <trkpt lat="47.24194" lon="-2.3027">
        <ele>15.800000190735</ele>
        <time>2022-02-20T08:27:07.000Z</time>
      </trkpt>
      <trkpt lat="47.24193" lon="-2.30256">
        <ele>15.800000190735</ele>
        <time>2022-02-20T08:27:09.000Z</time>
      </trkpt>
      <trkpt lat="47.2419" lon="-2.30243">
        <ele>15.800000190735</ele>
        <time>2022-02-20T08:27:12.000Z</time>
      </trkpt>
      <trkpt lat="47.24188" lon="-2.3024">
        <ele>15.800000190735</ele>
        <time>2022-02-20T08:27:13.000Z</time>
      </trkpt>
      <trkpt lat="47.24183" lon="-2.30242">
        <ele>15.800000190735</ele>
        <time>2022-02-20T08:27:15.000Z</time>
      </trkpt>
      <trkpt lat="47.24169" lon="-2.30242">
        <ele>15.800000190735</ele>
        <time>2022-02-20T08:27:19.000Z</time>
      </trkpt>
      <trkpt lat="47.24156" lon="-2.30225">
        <ele>15.800000190735</ele>
        <time>2022-02-20T08:27:24.000Z</time>
      </trkpt>
      <trkpt lat="47.24155" lon="-2.30218">
        <ele>15.800000190735</ele>
        <time>2022-02-20T08:27:26.000Z</time>
      </trkpt>
      <trkpt lat="47.24149" lon="-2.30204">
        <ele>15.800000190735</ele>
        <time>2022-02-20T08:27:30.000Z</time>
      </trkpt>
      <trkpt lat="47.24144" lon="-2.30188">
        <ele>15.800000190735</ele>
        <time>2022-02-20T08:27:35.000Z</time>
      </trkpt>
      <trkpt lat="47.24141" lon="-2.30179">
        <ele>16.200000762939</ele>
        <time>2022-02-20T08:27:37.000Z</time>
      </trkpt>
      <trkpt lat="47.2414" lon="-2.30176">
        <ele>16.60000038147</ele>
        <time>2022-02-20T08:27:38.000Z</time>
      </trkpt>
      <trkpt lat="47.24139" lon="-2.30172">
        <ele>17</ele>
        <time>2022-02-20T08:27:39.000Z</time>
      </trkpt>
      <trkpt lat="47.24138" lon="-2.30168">
        <ele>17.39999961853</ele>
        <time>2022-02-20T08:27:40.000Z</time>
      </trkpt>
      <trkpt lat="47.24137" lon="-2.30163">
        <ele>17.799999237061</ele>
        <time>2022-02-20T08:27:41.000Z</time>
      </trkpt>
      <trkpt lat="47.24136" lon="-2.30147">
        <ele>17.799999237061</ele>
        <time>2022-02-20T08:27:45.000Z</time>
      </trkpt>
      <trkpt lat="47.24138" lon="-2.30133">
        <ele>18.200000762939</ele>
        <time>2022-02-20T08:27:49.000Z</time>
      </trkpt>
      <trkpt lat="47.24139" lon="-2.30128">
        <ele>18.60000038147</ele>
        <time>2022-02-20T08:27:50.000Z</time>
      </trkpt>
      <trkpt lat="47.24139" lon="-2.30125">
        <ele>19</ele>
        <time>2022-02-20T08:27:51.000Z</time>
      </trkpt>
      <trkpt lat="47.2414" lon="-2.30122">
        <ele>19.60000038147</ele>
        <time>2022-02-20T08:27:52.000Z</time>
      </trkpt>
      <trkpt lat="47.24141" lon="-2.30118">
        <ele>20</ele>
        <time>2022-02-20T08:27:53.000Z</time>
      </trkpt>
      <trkpt lat="47.24142" lon="-2.30098">
        <ele>20</ele>
        <time>2022-02-20T08:27:58.000Z</time>
      </trkpt>
      <trkpt lat="47.24145" lon="-2.30088">
        <ele>20.39999961853</ele>
        <time>2022-02-20T08:28:01.000Z</time>
      </trkpt>
      <trkpt lat="47.24146" lon="-2.30084">
        <ele>20.799999237061</ele>
        <time>2022-02-20T08:28:02.000Z</time>
      </trkpt>
      <trkpt lat="47.24147" lon="-2.3008">
        <ele>21.200000762939</ele>
        <time>2022-02-20T08:28:03.000Z</time>
      </trkpt>
      <trkpt lat="47.24149" lon="-2.30076">
        <ele>21.60000038147</ele>
        <time>2022-02-20T08:28:04.000Z</time>
      </trkpt>
      <trkpt lat="47.24151" lon="-2.30073">
        <ele>22</ele>
        <time>2022-02-20T08:28:05.000Z</time>
      </trkpt>
      <trkpt lat="47.24156" lon="-2.3006">
        <ele>22</ele>
        <time>2022-02-20T08:28:09.000Z</time>
      </trkpt>
      <trkpt lat="47.24157" lon="-2.30057">
        <ele>22</ele>
        <time>2022-02-20T08:28:10.000Z</time>
      </trkpt>
      <trkpt lat="47.2416" lon="-2.30039">
        <ele>22.39999961853</ele>
        <time>2022-02-20T08:28:15.000Z</time>
      </trkpt>
      <trkpt lat="47.24161" lon="-2.30038">
        <ele>22.799999237061</ele>
        <time>2022-02-20T08:28:16.000Z</time>
      </trkpt>
      <trkpt lat="47.24162" lon="-2.30037">
        <ele>23.200000762939</ele>
        <time>2022-02-20T08:28:17.000Z</time>
      </trkpt>
      <trkpt lat="47.24162" lon="-2.30036">
        <ele>23.799999237061</ele>
        <time>2022-02-20T08:28:18.000Z</time>
      </trkpt>
      <trkpt lat="47.24168" lon="-2.30037">
        <ele>24.200000762939</ele>
        <time>2022-02-20T08:28:23.000Z</time>
      </trkpt>
      <trkpt lat="47.24169" lon="-2.30039">
        <ele>24.200000762939</ele>
        <time>2022-02-20T08:28:24.000Z</time>
      </trkpt>
      <trkpt lat="47.24174" lon="-2.30036">
        <ele>24.200000762939</ele>
        <time>2022-02-20T08:28:27.000Z</time>
      </trkpt>
      <trkpt lat="47.24177" lon="-2.30028">
        <ele>24.200000762939</ele>
        <time>2022-02-20T08:28:29.000Z</time>
      </trkpt>
      <trkpt lat="47.24176" lon="-2.30017">
        <ele>24.200000762939</ele>
        <time>2022-02-20T08:28:33.000Z</time>
      </trkpt>
      <trkpt lat="47.24175" lon="-2.30014">
        <ele>24.200000762939</ele>
        <time>2022-02-20T08:28:35.000Z</time>
      </trkpt>
      <trkpt lat="47.24173" lon="-2.30009">
        <ele>24.200000762939</ele>
        <time>2022-02-20T08:28:37.000Z</time>
      </trkpt>
      <trkpt lat="47.24171" lon="-2.30004">
        <ele>24.200000762939</ele>
        <time>2022-02-20T08:28:39.000Z</time>
      </trkpt>
      <trkpt lat="47.24167" lon="-2.29995">
        <ele>24.60000038147</ele>
        <time>2022-02-20T08:28:42.000Z</time>
      </trkpt>
      <trkpt lat="47.24166" lon="-2.29993">
        <ele>25</ele>
        <time>2022-02-20T08:28:43.000Z</time>
      </trkpt>
      <trkpt lat="47.24165" lon="-2.29991">
        <ele>25.39999961853</ele>
        <time>2022-02-20T08:28:44.000Z</time>
      </trkpt>
      <trkpt lat="47.24164" lon="-2.29989">
        <ele>25.799999237061</ele>
        <time>2022-02-20T08:28:45.000Z</time>
      </trkpt>
      <trkpt lat="47.24163" lon="-2.29989">
        <ele>26.200000762939</ele>
        <time>2022-02-20T08:28:46.000Z</time>
      </trkpt>
      <trkpt lat="47.24162" lon="-2.29988">
        <ele>26.200000762939</ele>
        <time>2022-02-20T08:28:47.000Z</time>
      </trkpt>
      <trkpt lat="47.24159" lon="-2.29979">
        <ele>26.200000762939</ele>
        <time>2022-02-20T08:29:02.000Z</time>
      </trkpt>
      <trkpt lat="47.24159" lon="-2.29972">
        <ele>26.200000762939</ele>
        <time>2022-02-20T08:29:04.000Z</time>
      </trkpt>
      <trkpt lat="47.24159" lon="-2.29954">
        <ele>26.200000762939</ele>
        <time>2022-02-20T08:29:09.000Z</time>
      </trkpt>
      <trkpt lat="47.24161" lon="-2.29935">
        <ele>26.200000762939</ele>
        <time>2022-02-20T08:29:13.000Z</time>
      </trkpt>
      <trkpt lat="47.24169" lon="-2.2991">
        <ele>26.200000762939</ele>
        <time>2022-02-20T08:29:19.000Z</time>
      </trkpt>
      <trkpt lat="47.24172" lon="-2.29901">
        <ele>26.200000762939</ele>
        <time>2022-02-20T08:29:21.000Z</time>
      </trkpt>
      <trkpt lat="47.24174" lon="-2.29894">
        <ele>26.200000762939</ele>
        <time>2022-02-20T08:29:23.000Z</time>
      </trkpt>
      <trkpt lat="47.24174" lon="-2.2989">
        <ele>26.60000038147</ele>
        <time>2022-02-20T08:29:24.000Z</time>
      </trkpt>
      <trkpt lat="47.24173" lon="-2.29885">
        <ele>27</ele>
        <time>2022-02-20T08:29:25.000Z</time>
      </trkpt>
      <trkpt lat="47.24173" lon="-2.29881">
        <ele>27.39999961853</ele>
        <time>2022-02-20T08:29:26.000Z</time>
      </trkpt>
      <trkpt lat="47.24172" lon="-2.29876">
        <ele>27.799999237061</ele>
        <time>2022-02-20T08:29:27.000Z</time>
      </trkpt>
      <trkpt lat="47.24171" lon="-2.29872">
        <ele>28.200000762939</ele>
        <time>2022-02-20T08:29:28.000Z</time>
      </trkpt>
      <trkpt lat="47.2417" lon="-2.29847">
        <ele>28.200000762939</ele>
        <time>2022-02-20T08:29:33.000Z</time>
      </trkpt>
      <trkpt lat="47.2417" lon="-2.29835">
        <ele>28.200000762939</ele>
        <time>2022-02-20T08:29:38.000Z</time>
      </trkpt>
      <trkpt lat="47.24169" lon="-2.29835">
        <ele>28.200000762939</ele>
        <time>2022-02-20T08:29:39.000Z</time>
      </trkpt>
      <trkpt lat="47.24161" lon="-2.29836">
        <ele>28.200000762939</ele>
        <time>2022-02-20T08:29:42.000Z</time>
      </trkpt>
      <trkpt lat="47.24144" lon="-2.29838">
        <ele>28.200000762939</ele>
        <time>2022-02-20T08:29:48.000Z</time>
      </trkpt>
      <trkpt lat="47.24127" lon="-2.2984">
        <ele>28.200000762939</ele>
        <time>2022-02-20T08:29:53.000Z</time>
      </trkpt>
      <trkpt lat="47.24107" lon="-2.29845">
        <ele>28.200000762939</ele>
        <time>2022-02-20T08:29:59.000Z</time>
      </trkpt>
      <trkpt lat="47.24085" lon="-2.29846">
        <ele>28.200000762939</ele>
        <time>2022-02-20T08:30:05.000Z</time>
      </trkpt>
      <trkpt lat="47.24078" lon="-2.2985">
        <ele>28.200000762939</ele>
        <time>2022-02-20T08:30:08.000Z</time>
      </trkpt>
      <trkpt lat="47.24078" lon="-2.29858">
        <ele>28.200000762939</ele>
        <time>2022-02-20T08:30:10.000Z</time>
      </trkpt>
      <trkpt lat="47.24078" lon="-2.29866">
        <ele>28.200000762939</ele>
        <time>2022-02-20T08:30:12.000Z</time>
      </trkpt>
      <trkpt lat="47.24078" lon="-2.29888">
        <ele>28.200000762939</ele>
        <time>2022-02-20T08:30:16.000Z</time>
      </trkpt>
      <trkpt lat="47.24076" lon="-2.29897">
        <ele>28.200000762939</ele>
        <time>2022-02-20T08:30:17.000Z</time>
      </trkpt>
      <trkpt lat="47.24072" lon="-2.29922">
        <ele>28.200000762939</ele>
        <time>2022-02-20T08:30:20.000Z</time>
      </trkpt>
      <trkpt lat="47.24071" lon="-2.29942">
        <ele>28.200000762939</ele>
        <time>2022-02-20T08:30:24.000Z</time>
      </trkpt>
      <trkpt lat="47.24078" lon="-2.29944">
        <ele>28.200000762939</ele>
        <time>2022-02-20T08:30:28.000Z</time>
      </trkpt>
      <trkpt lat="47.2408" lon="-2.29945">
        <ele>28.200000762939</ele>
        <time>2022-02-20T08:30:29.000Z</time>
      </trkpt>
      <trkpt lat="47.24091" lon="-2.29953">
        <ele>28.200000762939</ele>
        <time>2022-02-20T08:30:33.000Z</time>
      </trkpt>
      <trkpt lat="47.24096" lon="-2.29971">
        <ele>28.200000762939</ele>
        <time>2022-02-20T08:30:38.000Z</time>
      </trkpt>
      <trkpt lat="47.24095" lon="-2.29973">
        <ele>28.200000762939</ele>
        <time>2022-02-20T08:30:39.000Z</time>
      </trkpt>
      <trkpt lat="47.24086" lon="-2.29976">
        <ele>28.200000762939</ele>
        <time>2022-02-20T08:30:42.000Z</time>
      </trkpt>
      <trkpt lat="47.24079" lon="-2.29976">
        <ele>28.200000762939</ele>
        <time>2022-02-20T08:30:44.000Z</time>
      </trkpt>
      <trkpt lat="47.24062" lon="-2.29982">
        <ele>28.200000762939</ele>
        <time>2022-02-20T08:30:49.000Z</time>
      </trkpt>
      <trkpt lat="47.24054" lon="-2.29991">
        <ele>28.200000762939</ele>
        <time>2022-02-20T08:30:53.000Z</time>
      </trkpt>
      <trkpt lat="47.24045" lon="-2.30006">
        <ele>28.200000762939</ele>
        <time>2022-02-20T08:30:59.000Z</time>
      </trkpt>
      <trkpt lat="47.24024" lon="-2.30024">
        <ele>28.200000762939</ele>
        <time>2022-02-20T08:31:06.000Z</time>
      </trkpt>
      <trkpt lat="47.24026" lon="-2.3003">
        <ele>28.200000762939</ele>
        <time>2022-02-20T08:31:11.000Z</time>
      </trkpt>
      <trkpt lat="47.24027" lon="-2.30031">
        <ele>28.200000762939</ele>
        <time>2022-02-20T08:31:12.000Z</time>
      </trkpt>
      <trkpt lat="47.24028" lon="-2.30049">
        <ele>28.200000762939</ele>
        <time>2022-02-20T08:31:16.000Z</time>
      </trkpt>
      <trkpt lat="47.24021" lon="-2.30066">
        <ele>28.200000762939</ele>
        <time>2022-02-20T08:31:20.000Z</time>
      </trkpt>
      <trkpt lat="47.24019" lon="-2.3007">
        <ele>28.200000762939</ele>
        <time>2022-02-20T08:31:21.000Z</time>
      </trkpt>
      <trkpt lat="47.24007" lon="-2.30077">
        <ele>27.39999961853</ele>
        <time>2022-02-20T08:31:24.000Z</time>
      </trkpt>
      <trkpt lat="47.24001" lon="-2.3008">
        <ele>27</ele>
        <time>2022-02-20T08:31:25.000Z</time>
      </trkpt>
      <trkpt lat="47.23997" lon="-2.30082">
        <ele>26.60000038147</ele>
        <time>2022-02-20T08:31:26.000Z</time>
      </trkpt>
      <trkpt lat="47.23993" lon="-2.30083">
        <ele>26.200000762939</ele>
        <time>2022-02-20T08:31:27.000Z</time>
      </trkpt>
      <trkpt lat="47.23988" lon="-2.30085">
        <ele>26.200000762939</ele>
        <time>2022-02-20T08:31:29.000Z</time>
      </trkpt>
      <trkpt lat="47.23987" lon="-2.30089">
        <ele>26.200000762939</ele>
        <time>2022-02-20T08:31:30.000Z</time>
      </trkpt>
      <trkpt lat="47.23986" lon="-2.30097">
        <ele>26.200000762939</ele>
        <time>2022-02-20T08:31:32.000Z</time>
      </trkpt>
      <trkpt lat="47.23979" lon="-2.30117">
        <ele>26.200000762939</ele>
        <time>2022-02-20T08:31:37.000Z</time>
      </trkpt>
      <trkpt lat="47.23971" lon="-2.30133">
        <ele>26.200000762939</ele>
        <time>2022-02-20T08:31:42.000Z</time>
      </trkpt>
      <trkpt lat="47.23964" lon="-2.30135">
        <ele>25.799999237061</ele>
        <time>2022-02-20T08:31:44.000Z</time>
      </trkpt>
      <trkpt lat="47.23961" lon="-2.30135">
        <ele>25.39999961853</ele>
        <time>2022-02-20T08:31:45.000Z</time>
      </trkpt>
      <trkpt lat="47.23957" lon="-2.30136">
        <ele>25</ele>
        <time>2022-02-20T08:31:46.000Z</time>
      </trkpt>
      <trkpt lat="47.23952" lon="-2.30135">
        <ele>24.39999961853</ele>
        <time>2022-02-20T08:31:47.000Z</time>
      </trkpt>
      <trkpt lat="47.23947" lon="-2.30134">
        <ele>24</ele>
        <time>2022-02-20T08:31:48.000Z</time>
      </trkpt>
      <trkpt lat="47.23942" lon="-2.30135">
        <ele>24</ele>
        <time>2022-02-20T08:31:49.000Z</time>
      </trkpt>
      <trkpt lat="47.23933" lon="-2.30136">
        <ele>24</ele>
        <time>2022-02-20T08:31:51.000Z</time>
      </trkpt>
      <trkpt lat="47.23929" lon="-2.30136">
        <ele>23.60000038147</ele>
        <time>2022-02-20T08:31:52.000Z</time>
      </trkpt>
      <trkpt lat="47.23924" lon="-2.30132">
        <ele>23.200000762939</ele>
        <time>2022-02-20T08:31:53.000Z</time>
      </trkpt>
      <trkpt lat="47.23918" lon="-2.30126">
        <ele>22.799999237061</ele>
        <time>2022-02-20T08:31:54.000Z</time>
      </trkpt>
      <trkpt lat="47.23913" lon="-2.30122">
        <ele>22.39999961853</ele>
        <time>2022-02-20T08:31:55.000Z</time>
      </trkpt>
      <trkpt lat="47.2391" lon="-2.30118">
        <ele>22</ele>
        <time>2022-02-20T08:31:56.000Z</time>
      </trkpt>
      <trkpt lat="47.23909" lon="-2.30108">
        <ele>22</ele>
        <time>2022-02-20T08:31:58.000Z</time>
      </trkpt>
      <trkpt lat="47.2391" lon="-2.30102">
        <ele>22</ele>
        <time>2022-02-20T08:32:00.000Z</time>
      </trkpt>
      <trkpt lat="47.23912" lon="-2.30096">
        <ele>22</ele>
        <time>2022-02-20T08:32:03.000Z</time>
      </trkpt>
      <trkpt lat="47.23915" lon="-2.30094">
        <ele>22</ele>
        <time>2022-02-20T08:32:06.000Z</time>
      </trkpt>
      <trkpt lat="47.23917" lon="-2.30095">
        <ele>22</ele>
        <time>2022-02-20T08:32:08.000Z</time>
      </trkpt>
      <trkpt lat="47.23924" lon="-2.30097">
        <ele>22</ele>
        <time>2022-02-20T08:32:14.000Z</time>
      </trkpt>
      <trkpt lat="47.23934" lon="-2.30098">
        <ele>22</ele>
        <time>2022-02-20T08:32:21.000Z</time>
      </trkpt>
      <trkpt lat="47.23939" lon="-2.30093">
        <ele>22</ele>
        <time>2022-02-20T08:32:26.000Z</time>
      </trkpt>
      <trkpt lat="47.2394" lon="-2.30092">
        <ele>22</ele>
        <time>2022-02-20T08:32:27.000Z</time>
      </trkpt>
      <trkpt lat="47.2395" lon="-2.30088">
        <ele>22.39999961853</ele>
        <time>2022-02-20T08:32:30.000Z</time>
      </trkpt>
      <trkpt lat="47.23952" lon="-2.30086">
        <ele>22.799999237061</ele>
        <time>2022-02-20T08:32:31.000Z</time>
      </trkpt>
      <trkpt lat="47.23955" lon="-2.30083">
        <ele>23.200000762939</ele>
        <time>2022-02-20T08:32:32.000Z</time>
      </trkpt>
      <trkpt lat="47.23956" lon="-2.3008">
        <ele>23.60000038147</ele>
        <time>2022-02-20T08:32:33.000Z</time>
      </trkpt>
      <trkpt lat="47.23958" lon="-2.30077">
        <ele>24.200000762939</ele>
        <time>2022-02-20T08:32:34.000Z</time>
      </trkpt>
      <trkpt lat="47.23963" lon="-2.30065">
        <ele>24.200000762939</ele>
        <time>2022-02-20T08:32:37.000Z</time>
      </trkpt>
      <trkpt lat="47.23978" lon="-2.3005">
        <ele>24.200000762939</ele>
        <time>2022-02-20T08:32:42.000Z</time>
      </trkpt>
      <trkpt lat="47.23984" lon="-2.30046">
        <ele>24.200000762939</ele>
        <time>2022-02-20T08:32:45.000Z</time>
      </trkpt>
      <trkpt lat="47.23985" lon="-2.30043">
        <ele>24.200000762939</ele>
        <time>2022-02-20T08:32:46.000Z</time>
      </trkpt>
      <trkpt lat="47.23987" lon="-2.3004">
        <ele>24.60000038147</ele>
        <time>2022-02-20T08:32:47.000Z</time>
      </trkpt>
      <trkpt lat="47.23988" lon="-2.30038">
        <ele>25</ele>
        <time>2022-02-20T08:32:48.000Z</time>
      </trkpt>
      <trkpt lat="47.2399" lon="-2.30036">
        <ele>25.39999961853</ele>
        <time>2022-02-20T08:32:49.000Z</time>
      </trkpt>
      <trkpt lat="47.23991" lon="-2.30033">
        <ele>25.799999237061</ele>
        <time>2022-02-20T08:32:50.000Z</time>
      </trkpt>
      <trkpt lat="47.23992" lon="-2.30031">
        <ele>26.200000762939</ele>
        <time>2022-02-20T08:32:51.000Z</time>
      </trkpt>
      <trkpt lat="47.23994" lon="-2.30028">
        <ele>26.200000762939</ele>
        <time>2022-02-20T08:32:52.000Z</time>
      </trkpt>
      <trkpt lat="47.24" lon="-2.30009">
        <ele>26.200000762939</ele>
        <time>2022-02-20T08:32:57.000Z</time>
      </trkpt>
      <trkpt lat="47.24001" lon="-2.30004">
        <ele>26.200000762939</ele>
        <time>2022-02-20T08:32:58.000Z</time>
      </trkpt>
      <trkpt lat="47.23996" lon="-2.29991">
        <ele>26.200000762939</ele>
        <time>2022-02-20T08:33:02.000Z</time>
      </trkpt>
      <trkpt lat="47.23985" lon="-2.2998">
        <ele>26.200000762939</ele>
        <time>2022-02-20T08:33:06.000Z</time>
      </trkpt>
      <trkpt lat="47.23987" lon="-2.29963">
        <ele>26.200000762939</ele>
        <time>2022-02-20T08:33:09.000Z</time>
      </trkpt>
      <trkpt lat="47.23995" lon="-2.29941">
        <ele>26.200000762939</ele>
        <time>2022-02-20T08:33:14.000Z</time>
      </trkpt>
      <trkpt lat="47.23998" lon="-2.29921">
        <ele>26.60000038147</ele>
        <time>2022-02-20T08:33:18.000Z</time>
      </trkpt>
      <trkpt lat="47.24" lon="-2.29917">
        <ele>27</ele>
        <time>2022-02-20T08:33:19.000Z</time>
      </trkpt>
      <trkpt lat="47.24002" lon="-2.29912">
        <ele>27.39999961853</ele>
        <time>2022-02-20T08:33:20.000Z</time>
      </trkpt>
      <trkpt lat="47.24003" lon="-2.29908">
        <ele>27.799999237061</ele>
        <time>2022-02-20T08:33:21.000Z</time>
      </trkpt>
      <trkpt lat="47.24004" lon="-2.29904">
        <ele>28.200000762939</ele>
        <time>2022-02-20T08:33:22.000Z</time>
      </trkpt>
      <trkpt lat="47.24009" lon="-2.29899">
        <ele>28.200000762939</ele>
        <time>2022-02-20T08:33:25.000Z</time>
      </trkpt>
      <trkpt lat="47.24015" lon="-2.29896">
        <ele>28.200000762939</ele>
        <time>2022-02-20T08:33:28.000Z</time>
      </trkpt>
      <trkpt lat="47.24022" lon="-2.29889">
        <ele>28.200000762939</ele>
        <time>2022-02-20T08:33:31.000Z</time>
      </trkpt>
      <trkpt lat="47.24025" lon="-2.29881">
        <ele>28.200000762939</ele>
        <time>2022-02-20T08:33:34.000Z</time>
      </trkpt>
      <trkpt lat="47.24026" lon="-2.29879">
        <ele>28.200000762939</ele>
        <time>2022-02-20T08:33:35.000Z</time>
      </trkpt>
      <trkpt lat="47.24028" lon="-2.29871">
        <ele>28.200000762939</ele>
        <time>2022-02-20T08:33:37.000Z</time>
      </trkpt>
      <trkpt lat="47.24029" lon="-2.29852">
        <ele>28.200000762939</ele>
        <time>2022-02-20T08:33:42.000Z</time>
      </trkpt>
      <trkpt lat="47.24029" lon="-2.2985">
        <ele>28.200000762939</ele>
        <time>2022-02-20T08:33:43.000Z</time>
      </trkpt>
      <trkpt lat="47.24034" lon="-2.29841">
        <ele>28.200000762939</ele>
        <time>2022-02-20T08:33:46.000Z</time>
      </trkpt>
      <trkpt lat="47.24036" lon="-2.2984">
        <ele>28.200000762939</ele>
        <time>2022-02-20T08:33:47.000Z</time>
      </trkpt>
      <trkpt lat="47.24045" lon="-2.29839">
        <ele>28.200000762939</ele>
        <time>2022-02-20T08:33:50.000Z</time>
      </trkpt>
      <trkpt lat="47.24051" lon="-2.29838">
        <ele>28.200000762939</ele>
        <time>2022-02-20T08:33:52.000Z</time>
      </trkpt>
      <trkpt lat="47.24067" lon="-2.2983">
        <ele>28.200000762939</ele>
        <time>2022-02-20T08:33:57.000Z</time>
      </trkpt>
      <trkpt lat="47.2407" lon="-2.29826">
        <ele>28.200000762939</ele>
        <time>2022-02-20T08:33:58.000Z</time>
      </trkpt>
      <trkpt lat="47.24075" lon="-2.29818">
        <ele>28.200000762939</ele>
        <time>2022-02-20T08:34:00.000Z</time>
      </trkpt>
      <trkpt lat="47.24077" lon="-2.29809">
        <ele>28.200000762939</ele>
        <time>2022-02-20T08:34:02.000Z</time>
      </trkpt>
      <trkpt lat="47.24077" lon="-2.2978">
        <ele>28.200000762939</ele>
        <time>2022-02-20T08:34:07.000Z</time>
      </trkpt>
      <trkpt lat="47.2407" lon="-2.29753">
        <ele>28.60000038147</ele>
        <time>2022-02-20T08:34:12.000Z</time>
      </trkpt>
      <trkpt lat="47.24069" lon="-2.29746">
        <ele>29</ele>
        <time>2022-02-20T08:34:13.000Z</time>
      </trkpt>
      <trkpt lat="47.24067" lon="-2.2974">
        <ele>29.39999961853</ele>
        <time>2022-02-20T08:34:14.000Z</time>
      </trkpt>
      <trkpt lat="47.24066" lon="-2.29735">
        <ele>29.799999237061</ele>
        <time>2022-02-20T08:34:15.000Z</time>
      </trkpt>
      <trkpt lat="47.24064" lon="-2.29729">
        <ele>30.200000762939</ele>
        <time>2022-02-20T08:34:16.000Z</time>
      </trkpt>
      <trkpt lat="47.2406" lon="-2.29709">
        <ele>30.200000762939</ele>
        <time>2022-02-20T08:34:19.000Z</time>
      </trkpt>
      <trkpt lat="47.2405" lon="-2.29664">
        <ele>30.200000762939</ele>
        <time>2022-02-20T08:34:26.000Z</time>
      </trkpt>
      <trkpt lat="47.24048" lon="-2.2963">
        <ele>30.200000762939</ele>
        <time>2022-02-20T08:34:32.000Z</time>
      </trkpt>
      <trkpt lat="47.2405" lon="-2.29625">
        <ele>30.200000762939</ele>
        <time>2022-02-20T08:34:33.000Z</time>
      </trkpt>
      <trkpt lat="47.24057" lon="-2.29618">
        <ele>30.200000762939</ele>
        <time>2022-02-20T08:34:35.000Z</time>
      </trkpt>
      <trkpt lat="47.24081" lon="-2.296">
        <ele>30.200000762939</ele>
        <time>2022-02-20T08:34:41.000Z</time>
      </trkpt>
      <trkpt lat="47.24103" lon="-2.29585">
        <ele>30.200000762939</ele>
        <time>2022-02-20T08:34:46.000Z</time>
      </trkpt>
      <trkpt lat="47.24108" lon="-2.29579">
        <ele>30.200000762939</ele>
        <time>2022-02-20T08:34:47.000Z</time>
      </trkpt>
      <trkpt lat="47.24113" lon="-2.29557">
        <ele>30.200000762939</ele>
        <time>2022-02-20T08:34:50.000Z</time>
      </trkpt>
      <trkpt lat="47.24109" lon="-2.29535">
        <ele>30.200000762939</ele>
        <time>2022-02-20T08:34:53.000Z</time>
      </trkpt>
      <trkpt lat="47.24099" lon="-2.29491">
        <ele>30.200000762939</ele>
        <time>2022-02-20T08:34:59.000Z</time>
      </trkpt>
      <trkpt lat="47.241" lon="-2.29484">
        <ele>30.200000762939</ele>
        <time>2022-02-20T08:35:00.000Z</time>
      </trkpt>
      <trkpt lat="47.24106" lon="-2.29474">
        <ele>29.799999237061</ele>
        <time>2022-02-20T08:35:02.000Z</time>
      </trkpt>
      <trkpt lat="47.2411" lon="-2.29471">
        <ele>29.39999961853</ele>
        <time>2022-02-20T08:35:03.000Z</time>
      </trkpt>
      <trkpt lat="47.24114" lon="-2.29468">
        <ele>28.799999237061</ele>
        <time>2022-02-20T08:35:04.000Z</time>
      </trkpt>
      <trkpt lat="47.24118" lon="-2.29465">
        <ele>28.39999961853</ele>
        <time>2022-02-20T08:35:05.000Z</time>
      </trkpt>
      <trkpt lat="47.24122" lon="-2.29463">
        <ele>28</ele>
        <time>2022-02-20T08:35:06.000Z</time>
      </trkpt>
      <trkpt lat="47.2413" lon="-2.29457">
        <ele>28</ele>
        <time>2022-02-20T08:35:08.000Z</time>
      </trkpt>
      <trkpt lat="47.24163" lon="-2.29443">
        <ele>28</ele>
        <time>2022-02-20T08:35:15.000Z</time>
      </trkpt>
      <trkpt lat="47.24198" lon="-2.29444">
        <ele>28</ele>
        <time>2022-02-20T08:35:21.000Z</time>
      </trkpt>
      <trkpt lat="47.24208" lon="-2.29448">
        <ele>28</ele>
        <time>2022-02-20T08:35:23.000Z</time>
      </trkpt>
      <trkpt lat="47.24216" lon="-2.29454">
        <ele>27.60000038147</ele>
        <time>2022-02-20T08:35:25.000Z</time>
      </trkpt>
      <trkpt lat="47.24221" lon="-2.29457">
        <ele>27.200000762939</ele>
        <time>2022-02-20T08:35:26.000Z</time>
      </trkpt>
      <trkpt lat="47.24226" lon="-2.2946">
        <ele>26.60000038147</ele>
        <time>2022-02-20T08:35:27.000Z</time>
      </trkpt>
      <trkpt lat="47.24231" lon="-2.29463">
        <ele>26.200000762939</ele>
        <time>2022-02-20T08:35:28.000Z</time>
      </trkpt>
      <trkpt lat="47.24237" lon="-2.29464">
        <ele>25.799999237061</ele>
        <time>2022-02-20T08:35:29.000Z</time>
      </trkpt>
      <trkpt lat="47.24248" lon="-2.29461">
        <ele>25.799999237061</ele>
        <time>2022-02-20T08:35:31.000Z</time>
      </trkpt>
      <trkpt lat="47.24257" lon="-2.29455">
        <ele>25.799999237061</ele>
        <time>2022-02-20T08:35:33.000Z</time>
      </trkpt>
      <trkpt lat="47.24266" lon="-2.29447">
        <ele>25.799999237061</ele>
        <time>2022-02-20T08:35:35.000Z</time>
      </trkpt>
      <trkpt lat="47.24276" lon="-2.2944">
        <ele>25.799999237061</ele>
        <time>2022-02-20T08:35:37.000Z</time>
      </trkpt>
      <trkpt lat="47.24297" lon="-2.2943">
        <ele>25.799999237061</ele>
        <time>2022-02-20T08:35:41.000Z</time>
      </trkpt>
      <trkpt lat="47.24303" lon="-2.2943">
        <ele>25.799999237061</ele>
        <time>2022-02-20T08:35:42.000Z</time>
      </trkpt>
      <trkpt lat="47.24313" lon="-2.29433">
        <ele>25.799999237061</ele>
        <time>2022-02-20T08:35:44.000Z</time>
      </trkpt>
      <trkpt lat="47.24335" lon="-2.29451">
        <ele>25.799999237061</ele>
        <time>2022-02-20T08:35:49.000Z</time>
      </trkpt>
      <trkpt lat="47.24352" lon="-2.29464">
        <ele>25.799999237061</ele>
        <time>2022-02-20T08:35:53.000Z</time>
      </trkpt>
      <trkpt lat="47.24355" lon="-2.29464">
        <ele>25.799999237061</ele>
        <time>2022-02-20T08:35:54.000Z</time>
      </trkpt>
      <trkpt lat="47.24368" lon="-2.29454">
        <ele>25.799999237061</ele>
        <time>2022-02-20T08:35:57.000Z</time>
      </trkpt>
      <trkpt lat="47.24376" lon="-2.29445">
        <ele>25.799999237061</ele>
        <time>2022-02-20T08:35:59.000Z</time>
      </trkpt>
      <trkpt lat="47.24385" lon="-2.29438">
        <ele>25.799999237061</ele>
        <time>2022-02-20T08:36:01.000Z</time>
      </trkpt>
      <trkpt lat="47.24393" lon="-2.29432">
        <ele>25.799999237061</ele>
        <time>2022-02-20T08:36:03.000Z</time>
      </trkpt>
      <trkpt lat="47.24398" lon="-2.29431">
        <ele>25.799999237061</ele>
        <time>2022-02-20T08:36:04.000Z</time>
      </trkpt>
      <trkpt lat="47.24416" lon="-2.2943">
        <ele>25.799999237061</ele>
        <time>2022-02-20T08:36:07.000Z</time>
      </trkpt>
      <trkpt lat="47.24426" lon="-2.2943">
        <ele>25.799999237061</ele>
        <time>2022-02-20T08:36:09.000Z</time>
      </trkpt>
      <trkpt lat="47.24437" lon="-2.29429">
        <ele>26.200000762939</ele>
        <time>2022-02-20T08:36:11.000Z</time>
      </trkpt>
      <trkpt lat="47.24441" lon="-2.29429">
        <ele>26.60000038147</ele>
        <time>2022-02-20T08:36:12.000Z</time>
      </trkpt>
      <trkpt lat="47.24446" lon="-2.29428">
        <ele>27</ele>
        <time>2022-02-20T08:36:13.000Z</time>
      </trkpt>
      <trkpt lat="47.24451" lon="-2.29427">
        <ele>27.39999961853</ele>
        <time>2022-02-20T08:36:14.000Z</time>
      </trkpt>
      <trkpt lat="47.24455" lon="-2.29427">
        <ele>28</ele>
        <time>2022-02-20T08:36:15.000Z</time>
      </trkpt>
      <trkpt lat="47.2446" lon="-2.29426">
        <ele>28</ele>
        <time>2022-02-20T08:36:16.000Z</time>
      </trkpt>
      <trkpt lat="47.24488" lon="-2.29424">
        <ele>28</ele>
        <time>2022-02-20T08:36:22.000Z</time>
      </trkpt>
      <trkpt lat="47.24502" lon="-2.29421">
        <ele>28.39999961853</ele>
        <time>2022-02-20T08:36:25.000Z</time>
      </trkpt>
      <trkpt lat="47.24506" lon="-2.2942">
        <ele>28.799999237061</ele>
        <time>2022-02-20T08:36:26.000Z</time>
      </trkpt>
      <trkpt lat="47.2451" lon="-2.29417">
        <ele>29.200000762939</ele>
        <time>2022-02-20T08:36:27.000Z</time>
      </trkpt>
      <trkpt lat="47.24514" lon="-2.29413">
        <ele>29.60000038147</ele>
        <time>2022-02-20T08:36:28.000Z</time>
      </trkpt>
      <trkpt lat="47.24517" lon="-2.29409">
        <ele>30</ele>
        <time>2022-02-20T08:36:29.000Z</time>
      </trkpt>
      <trkpt lat="47.24519" lon="-2.294">
        <ele>30</ele>
        <time>2022-02-20T08:36:31.000Z</time>
      </trkpt>
      <trkpt lat="47.2452" lon="-2.29384">
        <ele>30</ele>
        <time>2022-02-20T08:36:34.000Z</time>
      </trkpt>
      <trkpt lat="47.24519" lon="-2.29372">
        <ele>30</ele>
        <time>2022-02-20T08:36:36.000Z</time>
      </trkpt>
      <trkpt lat="47.24515" lon="-2.29341">
        <ele>30</ele>
        <time>2022-02-20T08:36:41.000Z</time>
      </trkpt>
      <trkpt lat="47.24515" lon="-2.29335">
        <ele>30</ele>
        <time>2022-02-20T08:36:42.000Z</time>
      </trkpt>
      <trkpt lat="47.24514" lon="-2.29295">
        <ele>30</ele>
        <time>2022-02-20T08:36:48.000Z</time>
      </trkpt>
      <trkpt lat="47.24513" lon="-2.29242">
        <ele>30</ele>
        <time>2022-02-20T08:36:55.000Z</time>
      </trkpt>
      <trkpt lat="47.24514" lon="-2.29235">
        <ele>30</ele>
        <time>2022-02-20T08:36:56.000Z</time>
      </trkpt>
      <trkpt lat="47.24517" lon="-2.29205">
        <ele>30</ele>
        <time>2022-02-20T08:37:00.000Z</time>
      </trkpt>
      <trkpt lat="47.24527" lon="-2.29155">
        <ele>30</ele>
        <time>2022-02-20T08:37:07.000Z</time>
      </trkpt>
      <trkpt lat="47.2454" lon="-2.29108">
        <ele>30</ele>
        <time>2022-02-20T08:37:13.000Z</time>
      </trkpt>
      <trkpt lat="47.24548" lon="-2.29067">
        <ele>29.60000038147</ele>
        <time>2022-02-20T08:37:18.000Z</time>
      </trkpt>
      <trkpt lat="47.2455" lon="-2.29059">
        <ele>29.200000762939</ele>
        <time>2022-02-20T08:37:19.000Z</time>
      </trkpt>
      <trkpt lat="47.24551" lon="-2.29051">
        <ele>28.799999237061</ele>
        <time>2022-02-20T08:37:20.000Z</time>
      </trkpt>
      <trkpt lat="47.24552" lon="-2.29042">
        <ele>28.39999961853</ele>
        <time>2022-02-20T08:37:21.000Z</time>
      </trkpt>
      <trkpt lat="47.24553" lon="-2.29034">
        <ele>28</ele>
        <time>2022-02-20T08:37:22.000Z</time>
      </trkpt>
      <trkpt lat="47.24554" lon="-2.28992">
        <ele>28</ele>
        <time>2022-02-20T08:37:27.000Z</time>
      </trkpt>
      <trkpt lat="47.24541" lon="-2.28943">
        <ele>28</ele>
        <time>2022-02-20T08:37:33.000Z</time>
      </trkpt>
      <trkpt lat="47.24524" lon="-2.28888">
        <ele>28</ele>
        <time>2022-02-20T08:37:40.000Z</time>
      </trkpt>
      <trkpt lat="47.24523" lon="-2.28879">
        <ele>27.60000038147</ele>
        <time>2022-02-20T08:37:41.000Z</time>
      </trkpt>
      <trkpt lat="47.24524" lon="-2.28871">
        <ele>27.200000762939</ele>
        <time>2022-02-20T08:37:42.000Z</time>
      </trkpt>
      <trkpt lat="47.24527" lon="-2.28863">
        <ele>26.799999237061</ele>
        <time>2022-02-20T08:37:43.000Z</time>
      </trkpt>
      <trkpt lat="47.2453" lon="-2.28857">
        <ele>26.39999961853</ele>
        <time>2022-02-20T08:37:44.000Z</time>
      </trkpt>
      <trkpt lat="47.24535" lon="-2.28852">
        <ele>26</ele>
        <time>2022-02-20T08:37:45.000Z</time>
      </trkpt>
      <trkpt lat="47.2454" lon="-2.28848">
        <ele>26</ele>
        <time>2022-02-20T08:37:46.000Z</time>
      </trkpt>
      <trkpt lat="47.24544" lon="-2.28843">
        <ele>26</ele>
        <time>2022-02-20T08:37:47.000Z</time>
      </trkpt>
      <trkpt lat="47.24574" lon="-2.28811">
        <ele>26</ele>
        <time>2022-02-20T08:37:54.000Z</time>
      </trkpt>
      <trkpt lat="47.24584" lon="-2.28804">
        <ele>26</ele>
        <time>2022-02-20T08:37:56.000Z</time>
      </trkpt>
      <trkpt lat="47.24598" lon="-2.28792">
        <ele>26</ele>
        <time>2022-02-20T08:37:59.000Z</time>
      </trkpt>
      <trkpt lat="47.24607" lon="-2.28784">
        <ele>26</ele>
        <time>2022-02-20T08:38:01.000Z</time>
      </trkpt>
      <trkpt lat="47.2462" lon="-2.2877">
        <ele>26</ele>
        <time>2022-02-20T08:38:04.000Z</time>
      </trkpt>
      <trkpt lat="47.24642" lon="-2.28734">
        <ele>26</ele>
        <time>2022-02-20T08:38:10.000Z</time>
      </trkpt>
      <trkpt lat="47.24667" lon="-2.28703">
        <ele>26</ele>
        <time>2022-02-20T08:38:16.000Z</time>
      </trkpt>
      <trkpt lat="47.24695" lon="-2.28666">
        <ele>26</ele>
        <time>2022-02-20T08:38:23.000Z</time>
      </trkpt>
      <trkpt lat="47.24703" lon="-2.28655">
        <ele>26</ele>
        <time>2022-02-20T08:38:25.000Z</time>
      </trkpt>
      <trkpt lat="47.24716" lon="-2.28642">
        <ele>26</ele>
        <time>2022-02-20T08:38:28.000Z</time>
      </trkpt>
      <trkpt lat="47.24734" lon="-2.28622">
        <ele>26</ele>
        <time>2022-02-20T08:38:32.000Z</time>
      </trkpt>
      <trkpt lat="47.24738" lon="-2.28616">
        <ele>26</ele>
        <time>2022-02-20T08:38:33.000Z</time>
      </trkpt>
      <trkpt lat="47.24745" lon="-2.28586">
        <ele>26</ele>
        <time>2022-02-20T08:38:37.000Z</time>
      </trkpt>
      <trkpt lat="47.24749" lon="-2.28571">
        <ele>26.39999961853</ele>
        <time>2022-02-20T08:38:39.000Z</time>
      </trkpt>
      <trkpt lat="47.24752" lon="-2.28564">
        <ele>26.799999237061</ele>
        <time>2022-02-20T08:38:40.000Z</time>
      </trkpt>
      <trkpt lat="47.24756" lon="-2.28559">
        <ele>27.200000762939</ele>
        <time>2022-02-20T08:38:41.000Z</time>
      </trkpt>
      <trkpt lat="47.2476" lon="-2.28553">
        <ele>27.60000038147</ele>
        <time>2022-02-20T08:38:42.000Z</time>
      </trkpt>
      <trkpt lat="47.24764" lon="-2.28548">
        <ele>28</ele>
        <time>2022-02-20T08:38:43.000Z</time>
      </trkpt>
      <trkpt lat="47.24782" lon="-2.28529">
        <ele>28</ele>
        <time>2022-02-20T08:38:47.000Z</time>
      </trkpt>
      <trkpt lat="47.24816" lon="-2.285">
        <ele>28</ele>
        <time>2022-02-20T08:38:54.000Z</time>
      </trkpt>
      <trkpt lat="47.24852" lon="-2.28472">
        <ele>28</ele>
        <time>2022-02-20T08:39:01.000Z</time>
      </trkpt>
      <trkpt lat="47.24857" lon="-2.28467">
        <ele>28</ele>
        <time>2022-02-20T08:39:02.000Z</time>
      </trkpt>
      <trkpt lat="47.2488" lon="-2.2844">
        <ele>28</ele>
        <time>2022-02-20T08:39:07.000Z</time>
      </trkpt>
      <trkpt lat="47.24886" lon="-2.28434">
        <ele>27.60000038147</ele>
        <time>2022-02-20T08:39:08.000Z</time>
      </trkpt>
      <trkpt lat="47.24891" lon="-2.28429">
        <ele>27.200000762939</ele>
        <time>2022-02-20T08:39:09.000Z</time>
      </trkpt>
      <trkpt lat="47.24897" lon="-2.28425">
        <ele>26.799999237061</ele>
        <time>2022-02-20T08:39:10.000Z</time>
      </trkpt>
      <trkpt lat="47.24903" lon="-2.28421">
        <ele>26.39999961853</ele>
        <time>2022-02-20T08:39:11.000Z</time>
      </trkpt>
      <trkpt lat="47.24909" lon="-2.28418">
        <ele>25.799999237061</ele>
        <time>2022-02-20T08:39:12.000Z</time>
      </trkpt>
      <trkpt lat="47.24916" lon="-2.28415">
        <ele>25.799999237061</ele>
        <time>2022-02-20T08:39:13.000Z</time>
      </trkpt>
      <trkpt lat="47.24922" lon="-2.28413">
        <ele>25.39999961853</ele>
        <time>2022-02-20T08:39:14.000Z</time>
      </trkpt>
      <trkpt lat="47.24929" lon="-2.2841">
        <ele>25</ele>
        <time>2022-02-20T08:39:15.000Z</time>
      </trkpt>
      <trkpt lat="47.24936" lon="-2.28409">
        <ele>24.39999961853</ele>
        <time>2022-02-20T08:39:16.000Z</time>
      </trkpt>
      <trkpt lat="47.24943" lon="-2.28407">
        <ele>24</ele>
        <time>2022-02-20T08:39:17.000Z</time>
      </trkpt>
      <trkpt lat="47.2495" lon="-2.28404">
        <ele>23.60000038147</ele>
        <time>2022-02-20T08:39:18.000Z</time>
      </trkpt>
      <trkpt lat="47.24964" lon="-2.28397">
        <ele>23.200000762939</ele>
        <time>2022-02-20T08:39:20.000Z</time>
      </trkpt>
      <trkpt lat="47.24971" lon="-2.28393">
        <ele>22.799999237061</ele>
        <time>2022-02-20T08:39:21.000Z</time>
      </trkpt>
      <trkpt lat="47.24977" lon="-2.28387">
        <ele>22.39999961853</ele>
        <time>2022-02-20T08:39:22.000Z</time>
      </trkpt>
      <trkpt lat="47.24983" lon="-2.28379">
        <ele>21.799999237061</ele>
        <time>2022-02-20T08:39:23.000Z</time>
      </trkpt>
      <trkpt lat="47.24987" lon="-2.28371">
        <ele>21.39999961853</ele>
        <time>2022-02-20T08:39:24.000Z</time>
      </trkpt>
      <trkpt lat="47.24991" lon="-2.28363">
        <ele>21.39999961853</ele>
        <time>2022-02-20T08:39:25.000Z</time>
      </trkpt>
      <trkpt lat="47.24994" lon="-2.28354">
        <ele>21.39999961853</ele>
        <time>2022-02-20T08:39:26.000Z</time>
      </trkpt>
      <trkpt lat="47.25001" lon="-2.28338">
        <ele>21.39999961853</ele>
        <time>2022-02-20T08:39:28.000Z</time>
      </trkpt>
      <trkpt lat="47.25011" lon="-2.28327">
        <ele>21.39999961853</ele>
        <time>2022-02-20T08:39:30.000Z</time>
      </trkpt>
      <trkpt lat="47.2502" lon="-2.28318">
        <ele>21.39999961853</ele>
        <time>2022-02-20T08:39:32.000Z</time>
      </trkpt>
      <trkpt lat="47.25024" lon="-2.28313">
        <ele>21.39999961853</ele>
        <time>2022-02-20T08:39:33.000Z</time>
      </trkpt>
      <trkpt lat="47.25026" lon="-2.28308">
        <ele>21.39999961853</ele>
        <time>2022-02-20T08:39:34.000Z</time>
      </trkpt>
      <trkpt lat="47.25028" lon="-2.28291">
        <ele>21.39999961853</ele>
        <time>2022-02-20T08:39:37.000Z</time>
      </trkpt>
      <trkpt lat="47.25035" lon="-2.2825">
        <ele>21.39999961853</ele>
        <time>2022-02-20T08:39:43.000Z</time>
      </trkpt>
      <trkpt lat="47.25038" lon="-2.28237">
        <ele>22</ele>
        <time>2022-02-20T08:39:45.000Z</time>
      </trkpt>
      <trkpt lat="47.25039" lon="-2.2823">
        <ele>22.39999961853</ele>
        <time>2022-02-20T08:39:46.000Z</time>
      </trkpt>
      <trkpt lat="47.2504" lon="-2.28223">
        <ele>22.799999237061</ele>
        <time>2022-02-20T08:39:47.000Z</time>
      </trkpt>
      <trkpt lat="47.25043" lon="-2.28217">
        <ele>23.200000762939</ele>
        <time>2022-02-20T08:39:48.000Z</time>
      </trkpt>
      <trkpt lat="47.25044" lon="-2.2821">
        <ele>23.60000038147</ele>
        <time>2022-02-20T08:39:49.000Z</time>
      </trkpt>
      <trkpt lat="47.25046" lon="-2.28203">
        <ele>23.60000038147</ele>
        <time>2022-02-20T08:39:50.000Z</time>
      </trkpt>
      <trkpt lat="47.2505" lon="-2.28183">
        <ele>23.60000038147</ele>
        <time>2022-02-20T08:39:53.000Z</time>
      </trkpt>
      <trkpt lat="47.25055" lon="-2.28164">
        <ele>23.60000038147</ele>
        <time>2022-02-20T08:39:56.000Z</time>
      </trkpt>
      <trkpt lat="47.25061" lon="-2.28145">
        <ele>23.60000038147</ele>
        <time>2022-02-20T08:39:59.000Z</time>
      </trkpt>
      <trkpt lat="47.25067" lon="-2.28125">
        <ele>23.60000038147</ele>
        <time>2022-02-20T08:40:02.000Z</time>
      </trkpt>
      <trkpt lat="47.25076" lon="-2.28084">
        <ele>23.60000038147</ele>
        <time>2022-02-20T08:40:08.000Z</time>
      </trkpt>
      <trkpt lat="47.25079" lon="-2.28076">
        <ele>23.60000038147</ele>
        <time>2022-02-20T08:40:09.000Z</time>
      </trkpt>
      <trkpt lat="47.25086" lon="-2.28055">
        <ele>23.60000038147</ele>
        <time>2022-02-20T08:40:12.000Z</time>
      </trkpt>
      <trkpt lat="47.25105" lon="-2.28006">
        <ele>23.60000038147</ele>
        <time>2022-02-20T08:40:19.000Z</time>
      </trkpt>
      <trkpt lat="47.25118" lon="-2.27981">
        <ele>24</ele>
        <time>2022-02-20T08:40:23.000Z</time>
      </trkpt>
      <trkpt lat="47.25122" lon="-2.27976">
        <ele>24.39999961853</ele>
        <time>2022-02-20T08:40:24.000Z</time>
      </trkpt>
      <trkpt lat="47.25125" lon="-2.2797">
        <ele>24.799999237061</ele>
        <time>2022-02-20T08:40:25.000Z</time>
      </trkpt>
      <trkpt lat="47.25129" lon="-2.27964">
        <ele>25.799999237061</ele>
        <time>2022-02-20T08:40:26.000Z</time>
      </trkpt>
      <trkpt lat="47.25133" lon="-2.27959">
        <ele>25.799999237061</ele>
        <time>2022-02-20T08:40:27.000Z</time>
      </trkpt>
      <trkpt lat="47.25151" lon="-2.27942">
        <ele>25.799999237061</ele>
        <time>2022-02-20T08:40:31.000Z</time>
      </trkpt>
      <trkpt lat="47.25186" lon="-2.27917">
        <ele>25.799999237061</ele>
        <time>2022-02-20T08:40:38.000Z</time>
      </trkpt>
      <trkpt lat="47.25192" lon="-2.27913">
        <ele>26.200000762939</ele>
        <time>2022-02-20T08:40:39.000Z</time>
      </trkpt>
      <trkpt lat="47.25196" lon="-2.27909">
        <ele>26.60000038147</ele>
        <time>2022-02-20T08:40:40.000Z</time>
      </trkpt>
      <trkpt lat="47.25201" lon="-2.27907">
        <ele>27</ele>
        <time>2022-02-20T08:40:41.000Z</time>
      </trkpt>
      <trkpt lat="47.25206" lon="-2.27905">
        <ele>27.39999961853</ele>
        <time>2022-02-20T08:40:42.000Z</time>
      </trkpt>
      <trkpt lat="47.25211" lon="-2.27903">
        <ele>27.799999237061</ele>
        <time>2022-02-20T08:40:43.000Z</time>
      </trkpt>
      <trkpt lat="47.25235" lon="-2.27888">
        <ele>27.799999237061</ele>
        <time>2022-02-20T08:40:48.000Z</time>
      </trkpt>
      <trkpt lat="47.25249" lon="-2.27882">
        <ele>27.799999237061</ele>
        <time>2022-02-20T08:40:51.000Z</time>
      </trkpt>
      <trkpt lat="47.2526" lon="-2.27878">
        <ele>27.799999237061</ele>
        <time>2022-02-20T08:40:53.000Z</time>
      </trkpt>
      <trkpt lat="47.25266" lon="-2.27878">
        <ele>27.799999237061</ele>
        <time>2022-02-20T08:40:54.000Z</time>
      </trkpt>
      <trkpt lat="47.25288" lon="-2.27872">
        <ele>28.200000762939</ele>
        <time>2022-02-20T08:40:58.000Z</time>
      </trkpt>
      <trkpt lat="47.25294" lon="-2.27872">
        <ele>28.60000038147</ele>
        <time>2022-02-20T08:40:59.000Z</time>
      </trkpt>
      <trkpt lat="47.253" lon="-2.27871">
        <ele>29</ele>
        <time>2022-02-20T08:41:00.000Z</time>
      </trkpt>
      <trkpt lat="47.25306" lon="-2.2787">
        <ele>29.39999961853</ele>
        <time>2022-02-20T08:41:01.000Z</time>
      </trkpt>
      <trkpt lat="47.25311" lon="-2.2787">
        <ele>29.799999237061</ele>
        <time>2022-02-20T08:41:02.000Z</time>
      </trkpt>
      <trkpt lat="47.25334" lon="-2.27867">
        <ele>29.799999237061</ele>
        <time>2022-02-20T08:41:06.000Z</time>
      </trkpt>
      <trkpt lat="47.25365" lon="-2.27858">
        <ele>29.799999237061</ele>
        <time>2022-02-20T08:41:12.000Z</time>
      </trkpt>
      <trkpt lat="47.25397" lon="-2.27846">
        <ele>29.799999237061</ele>
        <time>2022-02-20T08:41:18.000Z</time>
      </trkpt>
      <trkpt lat="47.25426" lon="-2.27829">
        <ele>29.799999237061</ele>
        <time>2022-02-20T08:41:24.000Z</time>
      </trkpt>
      <trkpt lat="47.2544" lon="-2.27818">
        <ele>30.200000762939</ele>
        <time>2022-02-20T08:41:27.000Z</time>
      </trkpt>
      <trkpt lat="47.25444" lon="-2.27813">
        <ele>30.60000038147</ele>
        <time>2022-02-20T08:41:28.000Z</time>
      </trkpt>
      <trkpt lat="47.25448" lon="-2.27808">
        <ele>31</ele>
        <time>2022-02-20T08:41:29.000Z</time>
      </trkpt>
      <trkpt lat="47.25452" lon="-2.27804">
        <ele>31.39999961853</ele>
        <time>2022-02-20T08:41:30.000Z</time>
      </trkpt>
      <trkpt lat="47.25456" lon="-2.27799">
        <ele>31.799999237061</ele>
        <time>2022-02-20T08:41:31.000Z</time>
      </trkpt>
      <trkpt lat="47.2547" lon="-2.27781">
        <ele>31.799999237061</ele>
        <time>2022-02-20T08:41:35.000Z</time>
      </trkpt>
      <trkpt lat="47.25484" lon="-2.27764">
        <ele>31.799999237061</ele>
        <time>2022-02-20T08:41:39.000Z</time>
      </trkpt>
      <trkpt lat="47.25495" lon="-2.27752">
        <ele>31.799999237061</ele>
        <time>2022-02-20T08:41:42.000Z</time>
      </trkpt>
      <trkpt lat="47.25498" lon="-2.27747">
        <ele>31.799999237061</ele>
        <time>2022-02-20T08:41:43.000Z</time>
      </trkpt>
      <trkpt lat="47.25499" lon="-2.27741">
        <ele>32.200000762939</ele>
        <time>2022-02-20T08:41:44.000Z</time>
      </trkpt>
      <trkpt lat="47.255" lon="-2.27735">
        <ele>32.599998474121</ele>
        <time>2022-02-20T08:41:45.000Z</time>
      </trkpt>
      <trkpt lat="47.255" lon="-2.27729">
        <ele>33</ele>
        <time>2022-02-20T08:41:46.000Z</time>
      </trkpt>
      <trkpt lat="47.25499" lon="-2.27722">
        <ele>33.400001525879</ele>
        <time>2022-02-20T08:41:47.000Z</time>
      </trkpt>
      <trkpt lat="47.25499" lon="-2.27714">
        <ele>34</ele>
        <time>2022-02-20T08:41:48.000Z</time>
      </trkpt>
      <trkpt lat="47.25497" lon="-2.27706">
        <ele>34</ele>
        <time>2022-02-20T08:41:49.000Z</time>
      </trkpt>
      <trkpt lat="47.25495" lon="-2.27699">
        <ele>34</ele>
        <time>2022-02-20T08:41:50.000Z</time>
      </trkpt>
      <trkpt lat="47.25489" lon="-2.2767">
        <ele>34</ele>
        <time>2022-02-20T08:41:54.000Z</time>
      </trkpt>
      <trkpt lat="47.25487" lon="-2.27655">
        <ele>34</ele>
        <time>2022-02-20T08:41:56.000Z</time>
      </trkpt>
      <trkpt lat="47.25484" lon="-2.27632">
        <ele>34</ele>
        <time>2022-02-20T08:41:59.000Z</time>
      </trkpt>
      <trkpt lat="47.25479" lon="-2.27619">
        <ele>34</ele>
        <time>2022-02-20T08:42:01.000Z</time>
      </trkpt>
      <trkpt lat="47.25466" lon="-2.27603">
        <ele>34</ele>
        <time>2022-02-20T08:42:04.000Z</time>
      </trkpt>
      <trkpt lat="47.25463" lon="-2.27597">
        <ele>34</ele>
        <time>2022-02-20T08:42:05.000Z</time>
      </trkpt>
      <trkpt lat="47.25455" lon="-2.27569">
        <ele>34</ele>
        <time>2022-02-20T08:42:09.000Z</time>
      </trkpt>
      <trkpt lat="47.25454" lon="-2.27563">
        <ele>34</ele>
        <time>2022-02-20T08:42:10.000Z</time>
      </trkpt>
      <trkpt lat="47.25445" lon="-2.27528">
        <ele>34</ele>
        <time>2022-02-20T08:42:15.000Z</time>
      </trkpt>
      <trkpt lat="47.25442" lon="-2.2751">
        <ele>34</ele>
        <time>2022-02-20T08:42:19.000Z</time>
      </trkpt>
      <trkpt lat="47.2543" lon="-2.27497">
        <ele>34</ele>
        <time>2022-02-20T08:42:23.000Z</time>
      </trkpt>
      <trkpt lat="47.25425" lon="-2.27485">
        <ele>34</ele>
        <time>2022-02-20T08:42:25.000Z</time>
      </trkpt>
      <trkpt lat="47.2542" lon="-2.27472">
        <ele>34</ele>
        <time>2022-02-20T08:42:27.000Z</time>
      </trkpt>
      <trkpt lat="47.25407" lon="-2.27433">
        <ele>34</ele>
        <time>2022-02-20T08:42:33.000Z</time>
      </trkpt>
      <trkpt lat="47.25397" lon="-2.27394">
        <ele>34</ele>
        <time>2022-02-20T08:42:39.000Z</time>
      </trkpt>
      <trkpt lat="47.25389" lon="-2.27382">
        <ele>34</ele>
        <time>2022-02-20T08:42:42.000Z</time>
      </trkpt>
      <trkpt lat="47.25385" lon="-2.27381">
        <ele>34</ele>
        <time>2022-02-20T08:42:43.000Z</time>
      </trkpt>
      <trkpt lat="47.25371" lon="-2.27381">
        <ele>34</ele>
        <time>2022-02-20T08:42:47.000Z</time>
      </trkpt>
      <trkpt lat="47.2537" lon="-2.27378">
        <ele>34</ele>
        <time>2022-02-20T08:42:49.000Z</time>
      </trkpt>
      <trkpt lat="47.2537" lon="-2.27376">
        <ele>34</ele>
        <time>2022-02-20T08:42:51.000Z</time>
      </trkpt>
      <trkpt lat="47.25369" lon="-2.27373">
        <ele>34</ele>
        <time>2022-02-20T08:42:52.000Z</time>
      </trkpt>
      <trkpt lat="47.25368" lon="-2.2736">
        <ele>34</ele>
        <time>2022-02-20T08:42:55.000Z</time>
      </trkpt>
      <trkpt lat="47.25368" lon="-2.27354">
        <ele>34</ele>
        <time>2022-02-20T08:42:56.000Z</time>
      </trkpt>
      <trkpt lat="47.25366" lon="-2.27349">
        <ele>34</ele>
        <time>2022-02-20T08:42:57.000Z</time>
      </trkpt>
      <trkpt lat="47.25362" lon="-2.27346">
        <ele>34</ele>
        <time>2022-02-20T08:42:58.000Z</time>
      </trkpt>
      <trkpt lat="47.25343" lon="-2.2731">
        <ele>34</ele>
        <time>2022-02-20T08:43:06.000Z</time>
      </trkpt>
      <trkpt lat="47.25336" lon="-2.27288">
        <ele>34</ele>
        <time>2022-02-20T08:43:10.000Z</time>
      </trkpt>
      <trkpt lat="47.25331" lon="-2.27278">
        <ele>34</ele>
        <time>2022-02-20T08:43:12.000Z</time>
      </trkpt>
      <trkpt lat="47.25319" lon="-2.27265">
        <ele>34</ele>
        <time>2022-02-20T08:43:15.000Z</time>
      </trkpt>
      <trkpt lat="47.25311" lon="-2.27255">
        <ele>34</ele>
        <time>2022-02-20T08:43:17.000Z</time>
      </trkpt>
      <trkpt lat="47.25302" lon="-2.27236">
        <ele>34</ele>
        <time>2022-02-20T08:43:20.000Z</time>
      </trkpt>
      <trkpt lat="47.25295" lon="-2.27216">
        <ele>34</ele>
        <time>2022-02-20T08:43:23.000Z</time>
      </trkpt>
      <trkpt lat="47.25288" lon="-2.27197">
        <ele>34</ele>
        <time>2022-02-20T08:43:26.000Z</time>
      </trkpt>
      <trkpt lat="47.25265" lon="-2.27161">
        <ele>34</ele>
        <time>2022-02-20T08:43:32.000Z</time>
      </trkpt>
      <trkpt lat="47.25262" lon="-2.27155">
        <ele>34</ele>
        <time>2022-02-20T08:43:33.000Z</time>
      </trkpt>
      <trkpt lat="47.25254" lon="-2.27144">
        <ele>34</ele>
        <time>2022-02-20T08:43:35.000Z</time>
      </trkpt>
      <trkpt lat="47.25245" lon="-2.27135">
        <ele>34</ele>
        <time>2022-02-20T08:43:37.000Z</time>
      </trkpt>
      <trkpt lat="47.25237" lon="-2.2712">
        <ele>34</ele>
        <time>2022-02-20T08:43:39.000Z</time>
      </trkpt>
      <trkpt lat="47.2523" lon="-2.27106">
        <ele>34</ele>
        <time>2022-02-20T08:43:41.000Z</time>
      </trkpt>
      <trkpt lat="47.25209" lon="-2.27064">
        <ele>34</ele>
        <time>2022-02-20T08:43:47.000Z</time>
      </trkpt>
      <trkpt lat="47.25198" lon="-2.27038">
        <ele>34</ele>
        <time>2022-02-20T08:43:51.000Z</time>
      </trkpt>
      <trkpt lat="47.25192" lon="-2.27026">
        <ele>34</ele>
        <time>2022-02-20T08:43:53.000Z</time>
      </trkpt>
      <trkpt lat="47.25187" lon="-2.27016">
        <ele>34</ele>
        <time>2022-02-20T08:43:55.000Z</time>
      </trkpt>
      <trkpt lat="47.2518" lon="-2.26996">
        <ele>34</ele>
        <time>2022-02-20T08:43:58.000Z</time>
      </trkpt>
      <trkpt lat="47.25178" lon="-2.26975">
        <ele>34</ele>
        <time>2022-02-20T08:44:01.000Z</time>
      </trkpt>
      <trkpt lat="47.25168" lon="-2.26975">
        <ele>34</ele>
        <time>2022-02-20T08:44:04.000Z</time>
      </trkpt>
      <trkpt lat="47.25162" lon="-2.26964">
        <ele>34</ele>
        <time>2022-02-20T08:44:07.000Z</time>
      </trkpt>
      <trkpt lat="47.2516" lon="-2.26959">
        <ele>34</ele>
        <time>2022-02-20T08:44:08.000Z</time>
      </trkpt>
      <trkpt lat="47.25147" lon="-2.26947">
        <ele>34</ele>
        <time>2022-02-20T08:44:12.000Z</time>
      </trkpt>
      <trkpt lat="47.25144" lon="-2.26944">
        <ele>34</ele>
        <time>2022-02-20T08:44:13.000Z</time>
      </trkpt>
      <trkpt lat="47.25135" lon="-2.26925">
        <ele>34</ele>
        <time>2022-02-20T08:44:16.000Z</time>
      </trkpt>
      <trkpt lat="47.25132" lon="-2.26918">
        <ele>34</ele>
        <time>2022-02-20T08:44:17.000Z</time>
      </trkpt>
      <trkpt lat="47.25127" lon="-2.26904">
        <ele>34</ele>
        <time>2022-02-20T08:44:19.000Z</time>
      </trkpt>
      <trkpt lat="47.25116" lon="-2.26899">
        <ele>34</ele>
        <time>2022-02-20T08:44:21.000Z</time>
      </trkpt>
      <trkpt lat="47.25104" lon="-2.26896">
        <ele>34</ele>
        <time>2022-02-20T08:44:23.000Z</time>
      </trkpt>
      <trkpt lat="47.251" lon="-2.2689">
        <ele>34</ele>
        <time>2022-02-20T08:44:24.000Z</time>
      </trkpt>
      <trkpt lat="47.25096" lon="-2.26885">
        <ele>34</ele>
        <time>2022-02-20T08:44:25.000Z</time>
      </trkpt>
      <trkpt lat="47.25093" lon="-2.26879">
        <ele>34</ele>
        <time>2022-02-20T08:44:26.000Z</time>
      </trkpt>
      <trkpt lat="47.25074" lon="-2.26864">
        <ele>34</ele>
        <time>2022-02-20T08:44:30.000Z</time>
      </trkpt>
      <trkpt lat="47.25059" lon="-2.26861">
        <ele>34</ele>
        <time>2022-02-20T08:44:33.000Z</time>
      </trkpt>
      <trkpt lat="47.25052" lon="-2.26858">
        <ele>34</ele>
        <time>2022-02-20T08:44:35.000Z</time>
      </trkpt>
      <trkpt lat="47.25037" lon="-2.26862">
        <ele>34</ele>
        <time>2022-02-20T08:44:39.000Z</time>
      </trkpt>
      <trkpt lat="47.25033" lon="-2.26863">
        <ele>34</ele>
        <time>2022-02-20T08:44:40.000Z</time>
      </trkpt>
      <trkpt lat="47.25008" lon="-2.26869">
        <ele>34</ele>
        <time>2022-02-20T08:44:45.000Z</time>
      </trkpt>
      <trkpt lat="47.24973" lon="-2.26869">
        <ele>34</ele>
        <time>2022-02-20T08:44:52.000Z</time>
      </trkpt>
      <trkpt lat="47.24959" lon="-2.26856">
        <ele>34</ele>
        <time>2022-02-20T08:44:56.000Z</time>
      </trkpt>
      <trkpt lat="47.24955" lon="-2.26852">
        <ele>34</ele>
        <time>2022-02-20T08:44:57.000Z</time>
      </trkpt>
      <trkpt lat="47.24951" lon="-2.26851">
        <ele>34</ele>
        <time>2022-02-20T08:44:58.000Z</time>
      </trkpt>
      <trkpt lat="47.24937" lon="-2.26846">
        <ele>34</ele>
        <time>2022-02-20T08:45:01.000Z</time>
      </trkpt>
      <trkpt lat="47.24928" lon="-2.26838">
        <ele>34</ele>
        <time>2022-02-20T08:45:03.000Z</time>
      </trkpt>
      <trkpt lat="47.24924" lon="-2.26834">
        <ele>34</ele>
        <time>2022-02-20T08:45:04.000Z</time>
      </trkpt>
      <trkpt lat="47.24904" lon="-2.26825">
        <ele>34</ele>
        <time>2022-02-20T08:45:09.000Z</time>
      </trkpt>
      <trkpt lat="47.24884" lon="-2.26817">
        <ele>34</ele>
        <time>2022-02-20T08:45:13.000Z</time>
      </trkpt>
      <trkpt lat="47.24874" lon="-2.26812">
        <ele>34</ele>
        <time>2022-02-20T08:45:15.000Z</time>
      </trkpt>
      <trkpt lat="47.24858" lon="-2.26805">
        <ele>34</ele>
        <time>2022-02-20T08:45:18.000Z</time>
      </trkpt>
      <trkpt lat="47.24853" lon="-2.26802">
        <ele>33.400001525879</ele>
        <time>2022-02-20T08:45:19.000Z</time>
      </trkpt>
      <trkpt lat="47.24848" lon="-2.26801">
        <ele>33</ele>
        <time>2022-02-20T08:45:20.000Z</time>
      </trkpt>
      <trkpt lat="47.24842" lon="-2.268">
        <ele>32.400001525879</ele>
        <time>2022-02-20T08:45:21.000Z</time>
      </trkpt>
      <trkpt lat="47.24836" lon="-2.268">
        <ele>32</ele>
        <time>2022-02-20T08:45:22.000Z</time>
      </trkpt>
      <trkpt lat="47.2483" lon="-2.26802">
        <ele>31.39999961853</ele>
        <time>2022-02-20T08:45:23.000Z</time>
      </trkpt>
      <trkpt lat="47.24825" lon="-2.26802">
        <ele>31.39999961853</ele>
        <time>2022-02-20T08:45:24.000Z</time>
      </trkpt>
      <trkpt lat="47.24814" lon="-2.26799">
        <ele>31.39999961853</ele>
        <time>2022-02-20T08:45:26.000Z</time>
      </trkpt>
      <trkpt lat="47.2478" lon="-2.26787">
        <ele>31.39999961853</ele>
        <time>2022-02-20T08:45:33.000Z</time>
      </trkpt>
      <trkpt lat="47.24777" lon="-2.26786">
        <ele>31</ele>
        <time>2022-02-20T08:45:34.000Z</time>
      </trkpt>
      <trkpt lat="47.24773" lon="-2.26784">
        <ele>30.60000038147</ele>
        <time>2022-02-20T08:45:35.000Z</time>
      </trkpt>
      <trkpt lat="47.2477" lon="-2.26783">
        <ele>30.200000762939</ele>
        <time>2022-02-20T08:45:36.000Z</time>
      </trkpt>
      <trkpt lat="47.24765" lon="-2.26782">
        <ele>29.799999237061</ele>
        <time>2022-02-20T08:45:37.000Z</time>
      </trkpt>
      <trkpt lat="47.2476" lon="-2.26782">
        <ele>29.39999961853</ele>
        <time>2022-02-20T08:45:38.000Z</time>
      </trkpt>
      <trkpt lat="47.24724" lon="-2.2678">
        <ele>29.39999961853</ele>
        <time>2022-02-20T08:45:44.000Z</time>
      </trkpt>
      <trkpt lat="47.247" lon="-2.2678">
        <ele>29</ele>
        <time>2022-02-20T08:45:48.000Z</time>
      </trkpt>
      <trkpt lat="47.24694" lon="-2.26781">
        <ele>28.60000038147</ele>
        <time>2022-02-20T08:45:49.000Z</time>
      </trkpt>
      <trkpt lat="47.24688" lon="-2.26781">
        <ele>28.200000762939</ele>
        <time>2022-02-20T08:45:50.000Z</time>
      </trkpt>
      <trkpt lat="47.24683" lon="-2.26782">
        <ele>27.799999237061</ele>
        <time>2022-02-20T08:45:51.000Z</time>
      </trkpt>
      <trkpt lat="47.24679" lon="-2.26785">
        <ele>27.39999961853</ele>
        <time>2022-02-20T08:45:52.000Z</time>
      </trkpt>
      <trkpt lat="47.24668" lon="-2.26797">
        <ele>27.39999961853</ele>
        <time>2022-02-20T08:45:55.000Z</time>
      </trkpt>
      <trkpt lat="47.24664" lon="-2.268">
        <ele>27.39999961853</ele>
        <time>2022-02-20T08:45:56.000Z</time>
      </trkpt>
      <trkpt lat="47.24647" lon="-2.26811">
        <ele>27.39999961853</ele>
        <time>2022-02-20T08:45:59.000Z</time>
      </trkpt>
      <trkpt lat="47.24634" lon="-2.26815">
        <ele>27.39999961853</ele>
        <time>2022-02-20T08:46:01.000Z</time>
      </trkpt>
      <trkpt lat="47.24627" lon="-2.26819">
        <ele>26.799999237061</ele>
        <time>2022-02-20T08:46:02.000Z</time>
      </trkpt>
      <trkpt lat="47.24621" lon="-2.26823">
        <ele>26.39999961853</ele>
        <time>2022-02-20T08:46:03.000Z</time>
      </trkpt>
      <trkpt lat="47.24616" lon="-2.26827">
        <ele>26</ele>
        <time>2022-02-20T08:46:04.000Z</time>
      </trkpt>
      <trkpt lat="47.2461" lon="-2.26832">
        <ele>25.39999961853</ele>
        <time>2022-02-20T08:46:05.000Z</time>
      </trkpt>
      <trkpt lat="47.24605" lon="-2.26836">
        <ele>25</ele>
        <time>2022-02-20T08:46:06.000Z</time>
      </trkpt>
      <trkpt lat="47.24599" lon="-2.2684">
        <ele>25</ele>
        <time>2022-02-20T08:46:07.000Z</time>
      </trkpt>
      <trkpt lat="47.24593" lon="-2.26841">
        <ele>25</ele>
        <time>2022-02-20T08:46:08.000Z</time>
      </trkpt>
      <trkpt lat="47.24587" lon="-2.26841">
        <ele>24.60000038147</ele>
        <time>2022-02-20T08:46:09.000Z</time>
      </trkpt>
      <trkpt lat="47.24581" lon="-2.26841">
        <ele>24.200000762939</ele>
        <time>2022-02-20T08:46:10.000Z</time>
      </trkpt>
      <trkpt lat="47.24575" lon="-2.26843">
        <ele>23.799999237061</ele>
        <time>2022-02-20T08:46:11.000Z</time>
      </trkpt>
      <trkpt lat="47.24569" lon="-2.26847">
        <ele>23</ele>
        <time>2022-02-20T08:46:12.000Z</time>
      </trkpt>
      <trkpt lat="47.24541" lon="-2.26873">
        <ele>22.60000038147</ele>
        <time>2022-02-20T08:46:18.000Z</time>
      </trkpt>
      <trkpt lat="47.24538" lon="-2.26876">
        <ele>22.200000762939</ele>
        <time>2022-02-20T08:46:19.000Z</time>
      </trkpt>
      <trkpt lat="47.24534" lon="-2.26879">
        <ele>21.799999237061</ele>
        <time>2022-02-20T08:46:20.000Z</time>
      </trkpt>
      <trkpt lat="47.24531" lon="-2.26882">
        <ele>21.39999961853</ele>
        <time>2022-02-20T08:46:21.000Z</time>
      </trkpt>
      <trkpt lat="47.24529" lon="-2.26887">
        <ele>20.799999237061</ele>
        <time>2022-02-20T08:46:22.000Z</time>
      </trkpt>
      <trkpt lat="47.24527" lon="-2.26891">
        <ele>20.799999237061</ele>
        <time>2022-02-20T08:46:23.000Z</time>
      </trkpt>
      <trkpt lat="47.24523" lon="-2.26901">
        <ele>20.799999237061</ele>
        <time>2022-02-20T08:46:25.000Z</time>
      </trkpt>
      <trkpt lat="47.24518" lon="-2.26913">
        <ele>20.799999237061</ele>
        <time>2022-02-20T08:46:27.000Z</time>
      </trkpt>
      <trkpt lat="47.245" lon="-2.26931">
        <ele>20.799999237061</ele>
        <time>2022-02-20T08:46:31.000Z</time>
      </trkpt>
      <trkpt lat="47.24483" lon="-2.26941">
        <ele>20.799999237061</ele>
        <time>2022-02-20T08:46:34.000Z</time>
      </trkpt>
      <trkpt lat="47.24472" lon="-2.26941">
        <ele>20.799999237061</ele>
        <time>2022-02-20T08:46:36.000Z</time>
      </trkpt>
      <trkpt lat="47.24447" lon="-2.26939">
        <ele>20.799999237061</ele>
        <time>2022-02-20T08:46:41.000Z</time>
      </trkpt>
      <trkpt lat="47.24432" lon="-2.26949">
        <ele>20.799999237061</ele>
        <time>2022-02-20T08:46:44.000Z</time>
      </trkpt>
      <trkpt lat="47.24404" lon="-2.26979">
        <ele>20.799999237061</ele>
        <time>2022-02-20T08:46:50.000Z</time>
      </trkpt>
      <trkpt lat="47.24391" lon="-2.26998">
        <ele>20.39999961853</ele>
        <time>2022-02-20T08:46:54.000Z</time>
      </trkpt>
      <trkpt lat="47.24389" lon="-2.27">
        <ele>20</ele>
        <time>2022-02-20T08:46:55.000Z</time>
      </trkpt>
      <trkpt lat="47.24388" lon="-2.27">
        <ele>19.39999961853</ele>
        <time>2022-02-20T08:46:56.000Z</time>
      </trkpt>
      <trkpt lat="47.24389" lon="-2.27002">
        <ele>18.60000038147</ele>
        <time>2022-02-20T08:47:04.000Z</time>
      </trkpt>
      <trkpt lat="47.24392" lon="-2.27006">
        <ele>18.60000038147</ele>
        <time>2022-02-20T08:47:10.000Z</time>
      </trkpt>
      <trkpt lat="47.24398" lon="-2.27014">
        <ele>18.60000038147</ele>
        <time>2022-02-20T08:47:14.000Z</time>
      </trkpt>
      <trkpt lat="47.244" lon="-2.27024">
        <ele>18.60000038147</ele>
        <time>2022-02-20T08:47:16.000Z</time>
      </trkpt>
      <trkpt lat="47.244" lon="-2.27033">
        <ele>18.60000038147</ele>
        <time>2022-02-20T08:47:17.000Z</time>
      </trkpt>
      <trkpt lat="47.24398" lon="-2.27059">
        <ele>18</ele>
        <time>2022-02-20T08:47:20.000Z</time>
      </trkpt>
      <trkpt lat="47.24399" lon="-2.27069">
        <ele>17.60000038147</ele>
        <time>2022-02-20T08:47:21.000Z</time>
      </trkpt>
      <trkpt lat="47.244" lon="-2.27079">
        <ele>17.200000762939</ele>
        <time>2022-02-20T08:47:22.000Z</time>
      </trkpt>
      <trkpt lat="47.24403" lon="-2.27087">
        <ele>16.799999237061</ele>
        <time>2022-02-20T08:47:23.000Z</time>
      </trkpt>
      <trkpt lat="47.24405" lon="-2.27093">
        <ele>16.39999961853</ele>
        <time>2022-02-20T08:47:24.000Z</time>
      </trkpt>
      <trkpt lat="47.24408" lon="-2.27099">
        <ele>16.39999961853</ele>
        <time>2022-02-20T08:47:25.000Z</time>
      </trkpt>
      <trkpt lat="47.24408" lon="-2.27108">
        <ele>15.60000038147</ele>
        <time>2022-02-20T08:47:27.000Z</time>
      </trkpt>
      <trkpt lat="47.24406" lon="-2.27114">
        <ele>15.199999809265</ele>
        <time>2022-02-20T08:47:28.000Z</time>
      </trkpt>
      <trkpt lat="47.24403" lon="-2.27117">
        <ele>14.800000190735</ele>
        <time>2022-02-20T08:47:29.000Z</time>
      </trkpt>
      <trkpt lat="47.24399" lon="-2.2712">
        <ele>14.39999961853</ele>
        <time>2022-02-20T08:47:30.000Z</time>
      </trkpt>
      <trkpt lat="47.24395" lon="-2.27123">
        <ele>14.39999961853</ele>
        <time>2022-02-20T08:47:31.000Z</time>
      </trkpt>
      <trkpt lat="47.24378" lon="-2.27135">
        <ele>14.39999961853</ele>
        <time>2022-02-20T08:47:35.000Z</time>
      </trkpt>
      <trkpt lat="47.24362" lon="-2.27148">
        <ele>14.39999961853</ele>
        <time>2022-02-20T08:47:38.000Z</time>
      </trkpt>
      <trkpt lat="47.24357" lon="-2.27153">
        <ele>14.39999961853</ele>
        <time>2022-02-20T08:47:39.000Z</time>
      </trkpt>
      <trkpt lat="47.24343" lon="-2.27161">
        <ele>14.39999961853</ele>
        <time>2022-02-20T08:47:42.000Z</time>
      </trkpt>
      <trkpt lat="47.24328" lon="-2.27166">
        <ele>14.39999961853</ele>
        <time>2022-02-20T08:47:45.000Z</time>
      </trkpt>
      <trkpt lat="47.24325" lon="-2.2717">
        <ele>14.39999961853</ele>
        <time>2022-02-20T08:47:46.000Z</time>
      </trkpt>
      <trkpt lat="47.24318" lon="-2.27172">
        <ele>14.39999961853</ele>
        <time>2022-02-20T08:47:48.000Z</time>
      </trkpt>
      <trkpt lat="47.24316" lon="-2.27171">
        <ele>14.39999961853</ele>
        <time>2022-02-20T08:47:49.000Z</time>
      </trkpt>
      <trkpt lat="47.24314" lon="-2.27154">
        <ele>14.39999961853</ele>
        <time>2022-02-20T08:47:54.000Z</time>
      </trkpt>
      <trkpt lat="47.24309" lon="-2.27131">
        <ele>14.39999961853</ele>
        <time>2022-02-20T08:47:58.000Z</time>
      </trkpt>
      <trkpt lat="47.24306" lon="-2.27126">
        <ele>14.800000190735</ele>
        <time>2022-02-20T08:47:59.000Z</time>
      </trkpt>
      <trkpt lat="47.24302" lon="-2.27124">
        <ele>15.199999809265</ele>
        <time>2022-02-20T08:48:00.000Z</time>
      </trkpt>
      <trkpt lat="47.24298" lon="-2.27123">
        <ele>15.60000038147</ele>
        <time>2022-02-20T08:48:01.000Z</time>
      </trkpt>
      <trkpt lat="47.24294" lon="-2.27124">
        <ele>16</ele>
        <time>2022-02-20T08:48:02.000Z</time>
      </trkpt>
      <trkpt lat="47.24288" lon="-2.27123">
        <ele>16.39999961853</ele>
        <time>2022-02-20T08:48:03.000Z</time>
      </trkpt>
      <trkpt lat="47.24282" lon="-2.27122">
        <ele>16.39999961853</ele>
        <time>2022-02-20T08:48:04.000Z</time>
      </trkpt>
      <trkpt lat="47.24277" lon="-2.27122">
        <ele>16.39999961853</ele>
        <time>2022-02-20T08:48:05.000Z</time>
      </trkpt>
      <trkpt lat="47.24253" lon="-2.27126">
        <ele>16.39999961853</ele>
        <time>2022-02-20T08:48:09.000Z</time>
      </trkpt>
      <trkpt lat="47.24247" lon="-2.27128">
        <ele>16.39999961853</ele>
        <time>2022-02-20T08:48:10.000Z</time>
      </trkpt>
      <trkpt lat="47.24221" lon="-2.27143">
        <ele>16.39999961853</ele>
        <time>2022-02-20T08:48:15.000Z</time>
      </trkpt>
      <trkpt lat="47.24196" lon="-2.27159">
        <ele>16.39999961853</ele>
        <time>2022-02-20T08:48:20.000Z</time>
      </trkpt>
      <trkpt lat="47.24186" lon="-2.27163">
        <ele>16.39999961853</ele>
        <time>2022-02-20T08:48:22.000Z</time>
      </trkpt>
      <trkpt lat="47.24152" lon="-2.27178">
        <ele>16.39999961853</ele>
        <time>2022-02-20T08:48:28.000Z</time>
      </trkpt>
      <trkpt lat="47.24121" lon="-2.27189">
        <ele>16.39999961853</ele>
        <time>2022-02-20T08:48:34.000Z</time>
      </trkpt>
      <trkpt lat="47.24112" lon="-2.27191">
        <ele>16.39999961853</ele>
        <time>2022-02-20T08:48:36.000Z</time>
      </trkpt>
      <trkpt lat="47.24108" lon="-2.2719">
        <ele>16</ele>
        <time>2022-02-20T08:48:37.000Z</time>
      </trkpt>
      <trkpt lat="47.24104" lon="-2.27189">
        <ele>15.60000038147</ele>
        <time>2022-02-20T08:48:38.000Z</time>
      </trkpt>
      <trkpt lat="47.24102" lon="-2.27186">
        <ele>15.199999809265</ele>
        <time>2022-02-20T08:48:39.000Z</time>
      </trkpt>
      <trkpt lat="47.241" lon="-2.27183">
        <ele>14.60000038147</ele>
        <time>2022-02-20T08:48:40.000Z</time>
      </trkpt>
      <trkpt lat="47.24099" lon="-2.27179">
        <ele>14.199999809265</ele>
        <time>2022-02-20T08:48:41.000Z</time>
      </trkpt>
      <trkpt lat="47.24098" lon="-2.27174">
        <ele>14.199999809265</ele>
        <time>2022-02-20T08:48:42.000Z</time>
      </trkpt>
      <trkpt lat="47.24097" lon="-2.27145">
        <ele>14.199999809265</ele>
        <time>2022-02-20T08:48:47.000Z</time>
      </trkpt>
      <trkpt lat="47.24097" lon="-2.27107">
        <ele>14.199999809265</ele>
        <time>2022-02-20T08:48:53.000Z</time>
      </trkpt>
      <trkpt lat="47.24097" lon="-2.27063">
        <ele>13.800000190735</ele>
        <time>2022-02-20T08:48:58.000Z</time>
      </trkpt>
      <trkpt lat="47.24097" lon="-2.27052">
        <ele>13.39999961853</ele>
        <time>2022-02-20T08:48:59.000Z</time>
      </trkpt>
      <trkpt lat="47.24097" lon="-2.27041">
        <ele>13</ele>
        <time>2022-02-20T08:49:00.000Z</time>
      </trkpt>
      <trkpt lat="47.24098" lon="-2.2703">
        <ele>12.60000038147</ele>
        <time>2022-02-20T08:49:01.000Z</time>
      </trkpt>
      <trkpt lat="47.24099" lon="-2.2702">
        <ele>12.199999809265</ele>
        <time>2022-02-20T08:49:02.000Z</time>
      </trkpt>
      <trkpt lat="47.241" lon="-2.27">
        <ele>12.199999809265</ele>
        <time>2022-02-20T08:49:04.000Z</time>
      </trkpt>
      <trkpt lat="47.241" lon="-2.26948">
        <ele>12.199999809265</ele>
        <time>2022-02-20T08:49:10.000Z</time>
      </trkpt>
      <trkpt lat="47.241" lon="-2.26925">
        <ele>12.60000038147</ele>
        <time>2022-02-20T08:49:13.000Z</time>
      </trkpt>
      <trkpt lat="47.241" lon="-2.26918">
        <ele>13</ele>
        <time>2022-02-20T08:49:14.000Z</time>
      </trkpt>
      <trkpt lat="47.241" lon="-2.2691">
        <ele>13.39999961853</ele>
        <time>2022-02-20T08:49:15.000Z</time>
      </trkpt>
      <trkpt lat="47.241" lon="-2.26903">
        <ele>13.800000190735</ele>
        <time>2022-02-20T08:49:16.000Z</time>
      </trkpt>
      <trkpt lat="47.241" lon="-2.26896">
        <ele>14.199999809265</ele>
        <time>2022-02-20T08:49:17.000Z</time>
      </trkpt>
      <trkpt lat="47.241" lon="-2.26877">
        <ele>14.60000038147</ele>
        <time>2022-02-20T08:49:20.000Z</time>
      </trkpt>
      <trkpt lat="47.24101" lon="-2.26871">
        <ele>15</ele>
        <time>2022-02-20T08:49:21.000Z</time>
      </trkpt>
      <trkpt lat="47.24101" lon="-2.26865">
        <ele>15.39999961853</ele>
        <time>2022-02-20T08:49:22.000Z</time>
      </trkpt>
      <trkpt lat="47.24102" lon="-2.26859">
        <ele>15.800000190735</ele>
        <time>2022-02-20T08:49:23.000Z</time>
      </trkpt>
      <trkpt lat="47.24102" lon="-2.26854">
        <ele>16.39999961853</ele>
        <time>2022-02-20T08:49:24.000Z</time>
      </trkpt>
      <trkpt lat="47.24102" lon="-2.26841">
        <ele>16.39999961853</ele>
        <time>2022-02-20T08:49:27.000Z</time>
      </trkpt>
      <trkpt lat="47.24101" lon="-2.26839">
        <ele>16.799999237061</ele>
        <time>2022-02-20T08:49:28.000Z</time>
      </trkpt>
      <trkpt lat="47.24099" lon="-2.26837">
        <ele>17.200000762939</ele>
        <time>2022-02-20T08:49:29.000Z</time>
      </trkpt>
      <trkpt lat="47.24096" lon="-2.26837">
        <ele>18</ele>
        <time>2022-02-20T08:49:30.000Z</time>
      </trkpt>
      <trkpt lat="47.24093" lon="-2.26837">
        <ele>18.39999961853</ele>
        <time>2022-02-20T08:49:31.000Z</time>
      </trkpt>
      <trkpt lat="47.24091" lon="-2.26837">
        <ele>18.39999961853</ele>
        <time>2022-02-20T08:49:32.000Z</time>
      </trkpt>
      <trkpt lat="47.24075" lon="-2.2684">
        <ele>18.39999961853</ele>
        <time>2022-02-20T08:49:37.000Z</time>
      </trkpt>
      <trkpt lat="47.24072" lon="-2.2684">
        <ele>18.39999961853</ele>
        <time>2022-02-20T08:49:38.000Z</time>
      </trkpt>
      <trkpt lat="47.24064" lon="-2.26842">
        <ele>18.39999961853</ele>
        <time>2022-02-20T08:49:41.000Z</time>
      </trkpt>
      <trkpt lat="47.2406" lon="-2.26848">
        <ele>18.39999961853</ele>
        <time>2022-02-20T08:49:43.000Z</time>
      </trkpt>
      <trkpt lat="47.24058" lon="-2.26866">
        <ele>18.39999961853</ele>
        <time>2022-02-20T08:49:47.000Z</time>
      </trkpt>
      <trkpt lat="47.24057" lon="-2.26871">
        <ele>18.799999237061</ele>
        <time>2022-02-20T08:49:48.000Z</time>
      </trkpt>
      <trkpt lat="47.24056" lon="-2.26877">
        <ele>19.200000762939</ele>
        <time>2022-02-20T08:49:49.000Z</time>
      </trkpt>
      <trkpt lat="47.24055" lon="-2.26882">
        <ele>19.60000038147</ele>
        <time>2022-02-20T08:49:50.000Z</time>
      </trkpt>
      <trkpt lat="47.24055" lon="-2.2689">
        <ele>20.200000762939</ele>
        <time>2022-02-20T08:49:51.000Z</time>
      </trkpt>
      <trkpt lat="47.24054" lon="-2.26899">
        <ele>20.60000038147</ele>
        <time>2022-02-20T08:49:52.000Z</time>
      </trkpt>
      <trkpt lat="47.24049" lon="-2.26927">
        <ele>20.200000762939</ele>
        <time>2022-02-20T08:49:55.000Z</time>
      </trkpt>
      <trkpt lat="47.24047" lon="-2.26935">
        <ele>19.60000038147</ele>
        <time>2022-02-20T08:49:56.000Z</time>
      </trkpt>
      <trkpt lat="47.24047" lon="-2.26944">
        <ele>19.200000762939</ele>
        <time>2022-02-20T08:49:57.000Z</time>
      </trkpt>
      <trkpt lat="47.24046" lon="-2.26952">
        <ele>18.60000038147</ele>
        <time>2022-02-20T08:49:58.000Z</time>
      </trkpt>
      <trkpt lat="47.24046" lon="-2.26961">
        <ele>18</ele>
        <time>2022-02-20T08:49:59.000Z</time>
      </trkpt>
      <trkpt lat="47.24047" lon="-2.26969">
        <ele>17.39999961853</ele>
        <time>2022-02-20T08:50:00.000Z</time>
      </trkpt>
      <trkpt lat="47.24047" lon="-2.26976">
        <ele>16.799999237061</ele>
        <time>2022-02-20T08:50:01.000Z</time>
      </trkpt>
      <trkpt lat="47.24047" lon="-2.26983">
        <ele>16</ele>
        <time>2022-02-20T08:50:02.000Z</time>
      </trkpt>
      <trkpt lat="47.24046" lon="-2.26989">
        <ele>15</ele>
        <time>2022-02-20T08:50:03.000Z</time>
      </trkpt>
      <trkpt lat="47.24044" lon="-2.26994">
        <ele>14.199999809265</ele>
        <time>2022-02-20T08:50:04.000Z</time>
      </trkpt>
      <trkpt lat="47.24041" lon="-2.26997">
        <ele>13.39999961853</ele>
        <time>2022-02-20T08:50:05.000Z</time>
      </trkpt>
      <trkpt lat="47.24038" lon="-2.26996">
        <ele>12.60000038147</ele>
        <time>2022-02-20T08:50:06.000Z</time>
      </trkpt>
      <trkpt lat="47.24035" lon="-2.26995">
        <ele>11.800000190735</ele>
        <time>2022-02-20T08:50:07.000Z</time>
      </trkpt>
      <trkpt lat="47.24032" lon="-2.26992">
        <ele>11</ele>
        <time>2022-02-20T08:50:08.000Z</time>
      </trkpt>
      <trkpt lat="47.24028" lon="-2.26989">
        <ele>10.199999809265</ele>
        <time>2022-02-20T08:50:09.000Z</time>
      </trkpt>
      <trkpt lat="47.24022" lon="-2.26982">
        <ele>10.199999809265</ele>
        <time>2022-02-20T08:50:11.000Z</time>
      </trkpt>
      <trkpt lat="47.24012" lon="-2.26971">
        <ele>10.199999809265</ele>
        <time>2022-02-20T08:50:14.000Z</time>
      </trkpt>
      <trkpt lat="47.24005" lon="-2.26964">
        <ele>10.199999809265</ele>
        <time>2022-02-20T08:50:16.000Z</time>
      </trkpt>
      <trkpt lat="47.23993" lon="-2.26954">
        <ele>10.199999809265</ele>
        <time>2022-02-20T08:50:19.000Z</time>
      </trkpt>
      <trkpt lat="47.23984" lon="-2.26948">
        <ele>10.199999809265</ele>
        <time>2022-02-20T08:50:21.000Z</time>
      </trkpt>
      <trkpt lat="47.23971" lon="-2.26943">
        <ele>10.199999809265</ele>
        <time>2022-02-20T08:50:24.000Z</time>
      </trkpt>
      <trkpt lat="47.23957" lon="-2.26928">
        <ele>10.199999809265</ele>
        <time>2022-02-20T08:50:28.000Z</time>
      </trkpt>
      <trkpt lat="47.2395" lon="-2.26922">
        <ele>10.199999809265</ele>
        <time>2022-02-20T08:50:30.000Z</time>
      </trkpt>
      <trkpt lat="47.23948" lon="-2.26918">
        <ele>10.199999809265</ele>
        <time>2022-02-20T08:50:31.000Z</time>
      </trkpt>
      <trkpt lat="47.23947" lon="-2.26913">
        <ele>10.199999809265</ele>
        <time>2022-02-20T08:50:32.000Z</time>
      </trkpt>
      <trkpt lat="47.23946" lon="-2.26899">
        <ele>10.800000190735</ele>
        <time>2022-02-20T08:50:35.000Z</time>
      </trkpt>
      <trkpt lat="47.23947" lon="-2.26894">
        <ele>11.199999809265</ele>
        <time>2022-02-20T08:50:36.000Z</time>
      </trkpt>
      <trkpt lat="47.23947" lon="-2.2689">
        <ele>11.800000190735</ele>
        <time>2022-02-20T08:50:37.000Z</time>
      </trkpt>
      <trkpt lat="47.23947" lon="-2.26886">
        <ele>12.199999809265</ele>
        <time>2022-02-20T08:50:38.000Z</time>
      </trkpt>
      <trkpt lat="47.23947" lon="-2.26883">
        <ele>12.60000038147</ele>
        <time>2022-02-20T08:50:39.000Z</time>
      </trkpt>
      <trkpt lat="47.23946" lon="-2.26875">
        <ele>13</ele>
        <time>2022-02-20T08:50:41.000Z</time>
      </trkpt>
      <trkpt lat="47.23945" lon="-2.26871">
        <ele>13.39999961853</ele>
        <time>2022-02-20T08:50:42.000Z</time>
      </trkpt>
      <trkpt lat="47.23943" lon="-2.26866">
        <ele>13.800000190735</ele>
        <time>2022-02-20T08:50:43.000Z</time>
      </trkpt>
      <trkpt lat="47.23942" lon="-2.2686">
        <ele>14.199999809265</ele>
        <time>2022-02-20T08:50:44.000Z</time>
      </trkpt>
      <trkpt lat="47.2394" lon="-2.26855">
        <ele>14.60000038147</ele>
        <time>2022-02-20T08:50:45.000Z</time>
      </trkpt>
      <trkpt lat="47.23936" lon="-2.2683">
        <ele>14.60000038147</ele>
        <time>2022-02-20T08:50:49.000Z</time>
      </trkpt>
      <trkpt lat="47.23935" lon="-2.26824">
        <ele>14.60000038147</ele>
        <time>2022-02-20T08:50:50.000Z</time>
      </trkpt>
      <trkpt lat="47.23933" lon="-2.26802">
        <ele>14.60000038147</ele>
        <time>2022-02-20T08:50:54.000Z</time>
      </trkpt>
      <trkpt lat="47.23931" lon="-2.26774">
        <ele>14.60000038147</ele>
        <time>2022-02-20T08:51:00.000Z</time>
      </trkpt>
      <trkpt lat="47.2393" lon="-2.26754">
        <ele>14.60000038147</ele>
        <time>2022-02-20T08:51:06.000Z</time>
      </trkpt>
      <trkpt lat="47.23931" lon="-2.26749">
        <ele>14.60000038147</ele>
        <time>2022-02-20T08:51:08.000Z</time>
      </trkpt>
      <trkpt lat="47.23935" lon="-2.26746">
        <ele>14.60000038147</ele>
        <time>2022-02-20T08:51:10.000Z</time>
      </trkpt>
      <trkpt lat="47.23944" lon="-2.26738">
        <ele>14.60000038147</ele>
        <time>2022-02-20T08:51:15.000Z</time>
      </trkpt>
      <trkpt lat="47.23946" lon="-2.26737">
        <ele>14.60000038147</ele>
        <time>2022-02-20T08:51:16.000Z</time>
      </trkpt>
      <trkpt lat="47.2396" lon="-2.26733">
        <ele>14.60000038147</ele>
        <time>2022-02-20T08:51:22.000Z</time>
      </trkpt>
      <trkpt lat="47.23981" lon="-2.26736">
        <ele>14.60000038147</ele>
        <time>2022-02-20T08:51:29.000Z</time>
      </trkpt>
      <trkpt lat="47.23994" lon="-2.26737">
        <ele>15.199999809265</ele>
        <time>2022-02-20T08:51:33.000Z</time>
      </trkpt>
      <trkpt lat="47.23998" lon="-2.26737">
        <ele>16</ele>
        <time>2022-02-20T08:51:34.000Z</time>
      </trkpt>
      <trkpt lat="47.24002" lon="-2.26738">
        <ele>16.39999961853</ele>
        <time>2022-02-20T08:51:35.000Z</time>
      </trkpt>
      <trkpt lat="47.24005" lon="-2.26738">
        <ele>16.799999237061</ele>
        <time>2022-02-20T08:51:36.000Z</time>
      </trkpt>
      <trkpt lat="47.24027" lon="-2.26733">
        <ele>16.799999237061</ele>
        <time>2022-02-20T08:51:43.000Z</time>
      </trkpt>
      <trkpt lat="47.24046" lon="-2.26722">
        <ele>16.799999237061</ele>
        <time>2022-02-20T08:51:49.000Z</time>
      </trkpt>
      <trkpt lat="47.24055" lon="-2.26711">
        <ele>17.200000762939</ele>
        <time>2022-02-20T08:51:53.000Z</time>
      </trkpt>
      <trkpt lat="47.24058" lon="-2.26709">
        <ele>17.60000038147</ele>
        <time>2022-02-20T08:51:54.000Z</time>
      </trkpt>
      <trkpt lat="47.2406" lon="-2.26706">
        <ele>18.200000762939</ele>
        <time>2022-02-20T08:51:55.000Z</time>
      </trkpt>
      <trkpt lat="47.24061" lon="-2.26703">
        <ele>18.60000038147</ele>
        <time>2022-02-20T08:51:56.000Z</time>
      </trkpt>
      <trkpt lat="47.24063" lon="-2.26701">
        <ele>19</ele>
        <time>2022-02-20T08:51:57.000Z</time>
      </trkpt>
      <trkpt lat="47.24067" lon="-2.26695">
        <ele>19.39999961853</ele>
        <time>2022-02-20T08:51:59.000Z</time>
      </trkpt>
      <trkpt lat="47.24069" lon="-2.26692">
        <ele>19.799999237061</ele>
        <time>2022-02-20T08:52:00.000Z</time>
      </trkpt>
      <trkpt lat="47.2407" lon="-2.26688">
        <ele>20.200000762939</ele>
        <time>2022-02-20T08:52:01.000Z</time>
      </trkpt>
      <trkpt lat="47.24072" lon="-2.26685">
        <ele>20.799999237061</ele>
        <time>2022-02-20T08:52:02.000Z</time>
      </trkpt>
      <trkpt lat="47.24074" lon="-2.26681">
        <ele>21.200000762939</ele>
        <time>2022-02-20T08:52:03.000Z</time>
      </trkpt>
      <trkpt lat="47.24084" lon="-2.26659">
        <ele>21.200000762939</ele>
        <time>2022-02-20T08:52:09.000Z</time>
      </trkpt>
      <trkpt lat="47.24093" lon="-2.26649">
        <ele>21.200000762939</ele>
        <time>2022-02-20T08:52:13.000Z</time>
      </trkpt>
      <trkpt lat="47.24104" lon="-2.26649">
        <ele>21.200000762939</ele>
        <time>2022-02-20T08:52:18.000Z</time>
      </trkpt>
      <trkpt lat="47.2411" lon="-2.2664">
        <ele>21.200000762939</ele>
        <time>2022-02-20T08:52:22.000Z</time>
      </trkpt>
      <trkpt lat="47.24111" lon="-2.26638">
        <ele>21.200000762939</ele>
        <time>2022-02-20T08:52:23.000Z</time>
      </trkpt>
      <trkpt lat="47.24114" lon="-2.26636">
        <ele>21.200000762939</ele>
        <time>2022-02-20T08:52:25.000Z</time>
      </trkpt>
      <trkpt lat="47.24117" lon="-2.26638">
        <ele>21.200000762939</ele>
        <time>2022-02-20T08:52:27.000Z</time>
      </trkpt>
      <trkpt lat="47.24122" lon="-2.26629">
        <ele>21.200000762939</ele>
        <time>2022-02-20T08:52:30.000Z</time>
      </trkpt>
      <trkpt lat="47.24124" lon="-2.26625">
        <ele>21.200000762939</ele>
        <time>2022-02-20T08:52:31.000Z</time>
      </trkpt>
      <trkpt lat="47.24131" lon="-2.26605">
        <ele>20.799999237061</ele>
        <time>2022-02-20T08:52:35.000Z</time>
      </trkpt>
      <trkpt lat="47.24132" lon="-2.266">
        <ele>20.200000762939</ele>
        <time>2022-02-20T08:52:36.000Z</time>
      </trkpt>
      <trkpt lat="47.24134" lon="-2.26597">
        <ele>19.799999237061</ele>
        <time>2022-02-20T08:52:37.000Z</time>
      </trkpt>
      <trkpt lat="47.24136" lon="-2.26594">
        <ele>19.39999961853</ele>
        <time>2022-02-20T08:52:38.000Z</time>
      </trkpt>
      <trkpt lat="47.24137" lon="-2.26591">
        <ele>19</ele>
        <time>2022-02-20T08:52:39.000Z</time>
      </trkpt>
      <trkpt lat="47.24139" lon="-2.26578">
        <ele>19</ele>
        <time>2022-02-20T08:52:43.000Z</time>
      </trkpt>
      <trkpt lat="47.24141" lon="-2.26576">
        <ele>18.60000038147</ele>
        <time>2022-02-20T08:52:44.000Z</time>
      </trkpt>
      <trkpt lat="47.24143" lon="-2.26576">
        <ele>18.200000762939</ele>
        <time>2022-02-20T08:52:45.000Z</time>
      </trkpt>
      <trkpt lat="47.24145" lon="-2.26576">
        <ele>17.799999237061</ele>
        <time>2022-02-20T08:52:46.000Z</time>
      </trkpt>
      <trkpt lat="47.24147" lon="-2.26576">
        <ele>17.39999961853</ele>
        <time>2022-02-20T08:52:47.000Z</time>
      </trkpt>
      <trkpt lat="47.2415" lon="-2.26577">
        <ele>17</ele>
        <time>2022-02-20T08:52:48.000Z</time>
      </trkpt>
      <trkpt lat="47.24155" lon="-2.26577">
        <ele>17</ele>
        <time>2022-02-20T08:52:51.000Z</time>
      </trkpt>
      <trkpt lat="47.24157" lon="-2.26578">
        <ele>17.39999961853</ele>
        <time>2022-02-20T08:52:52.000Z</time>
      </trkpt>
      <trkpt lat="47.24159" lon="-2.26579">
        <ele>17.799999237061</ele>
        <time>2022-02-20T08:52:53.000Z</time>
      </trkpt>
      <trkpt lat="47.2416" lon="-2.26581">
        <ele>18.200000762939</ele>
        <time>2022-02-20T08:52:54.000Z</time>
      </trkpt>
      <trkpt lat="47.2416" lon="-2.26584">
        <ele>18.60000038147</ele>
        <time>2022-02-20T08:52:55.000Z</time>
      </trkpt>
      <trkpt lat="47.2416" lon="-2.26587">
        <ele>19</ele>
        <time>2022-02-20T08:52:56.000Z</time>
      </trkpt>
      <trkpt lat="47.24159" lon="-2.26591">
        <ele>19</ele>
        <time>2022-02-20T08:52:57.000Z</time>
      </trkpt>
      <trkpt lat="47.24158" lon="-2.26598">
        <ele>19.39999961853</ele>
        <time>2022-02-20T08:52:59.000Z</time>
      </trkpt>
      <trkpt lat="47.24157" lon="-2.26602">
        <ele>20</ele>
        <time>2022-02-20T08:53:00.000Z</time>
      </trkpt>
      <trkpt lat="47.24156" lon="-2.26604">
        <ele>20.39999961853</ele>
        <time>2022-02-20T08:53:01.000Z</time>
      </trkpt>
      <trkpt lat="47.24155" lon="-2.26607">
        <ele>20.799999237061</ele>
        <time>2022-02-20T08:53:02.000Z</time>
      </trkpt>
      <trkpt lat="47.24155" lon="-2.2661">
        <ele>21.200000762939</ele>
        <time>2022-02-20T08:53:03.000Z</time>
      </trkpt>
      <trkpt lat="47.24155" lon="-2.26612">
        <ele>21.200000762939</ele>
        <time>2022-02-20T08:53:04.000Z</time>
      </trkpt>
      <trkpt lat="47.24162" lon="-2.26612">
        <ele>21.200000762939</ele>
        <time>2022-02-20T08:53:07.000Z</time>
      </trkpt>
      <trkpt lat="47.24172" lon="-2.26614">
        <ele>21.60000038147</ele>
        <time>2022-02-20T08:53:10.000Z</time>
      </trkpt>
      <trkpt lat="47.24176" lon="-2.26615">
        <ele>22</ele>
        <time>2022-02-20T08:53:11.000Z</time>
      </trkpt>
      <trkpt lat="47.24179" lon="-2.26616">
        <ele>22.39999961853</ele>
        <time>2022-02-20T08:53:12.000Z</time>
      </trkpt>
      <trkpt lat="47.24183" lon="-2.26617">
        <ele>23.200000762939</ele>
        <time>2022-02-20T08:53:13.000Z</time>
      </trkpt>
      <trkpt lat="47.24202" lon="-2.26623">
        <ele>23.200000762939</ele>
        <time>2022-02-20T08:53:19.000Z</time>
      </trkpt>
      <trkpt lat="47.24218" lon="-2.26627">
        <ele>23.200000762939</ele>
        <time>2022-02-20T08:53:24.000Z</time>
      </trkpt>
      <trkpt lat="47.24221" lon="-2.26625">
        <ele>23.200000762939</ele>
        <time>2022-02-20T08:53:25.000Z</time>
      </trkpt>
      <trkpt lat="47.24242" lon="-2.26603">
        <ele>23.200000762939</ele>
        <time>2022-02-20T08:53:31.000Z</time>
      </trkpt>
      <trkpt lat="47.24268" lon="-2.2658">
        <ele>23.200000762939</ele>
        <time>2022-02-20T08:53:37.000Z</time>
      </trkpt>
      <trkpt lat="47.24272" lon="-2.26576">
        <ele>23.200000762939</ele>
        <time>2022-02-20T08:53:38.000Z</time>
      </trkpt>
      <trkpt lat="47.24309" lon="-2.2654">
        <ele>23.200000762939</ele>
        <time>2022-02-20T08:53:46.000Z</time>
      </trkpt>
      <trkpt lat="47.24353" lon="-2.26502">
        <ele>23.200000762939</ele>
        <time>2022-02-20T08:53:55.000Z</time>
      </trkpt>
      <trkpt lat="47.24381" lon="-2.26478">
        <ele>23.200000762939</ele>
        <time>2022-02-20T08:54:01.000Z</time>
      </trkpt>
      <trkpt lat="47.24391" lon="-2.26471">
        <ele>23.200000762939</ele>
        <time>2022-02-20T08:54:03.000Z</time>
      </trkpt>
      <trkpt lat="47.24406" lon="-2.26462">
        <ele>23.200000762939</ele>
        <time>2022-02-20T08:54:06.000Z</time>
      </trkpt>
      <trkpt lat="47.24448" lon="-2.26435">
        <ele>23.200000762939</ele>
        <time>2022-02-20T08:54:14.000Z</time>
      </trkpt>
      <trkpt lat="47.24482" lon="-2.26416">
        <ele>23.200000762939</ele>
        <time>2022-02-20T08:54:21.000Z</time>
      </trkpt>
      <trkpt lat="47.24497" lon="-2.26408">
        <ele>23.200000762939</ele>
        <time>2022-02-20T08:54:24.000Z</time>
      </trkpt>
      <trkpt lat="47.24512" lon="-2.264">
        <ele>23.200000762939</ele>
        <time>2022-02-20T08:54:27.000Z</time>
      </trkpt>
      <trkpt lat="47.24551" lon="-2.26385">
        <ele>23.200000762939</ele>
        <time>2022-02-20T08:54:34.000Z</time>
      </trkpt>
      <trkpt lat="47.24563" lon="-2.26381">
        <ele>23.200000762939</ele>
        <time>2022-02-20T08:54:36.000Z</time>
      </trkpt>
      <trkpt lat="47.2458" lon="-2.26376">
        <ele>23.200000762939</ele>
        <time>2022-02-20T08:54:39.000Z</time>
      </trkpt>
      <trkpt lat="47.24586" lon="-2.26375">
        <ele>23.200000762939</ele>
        <time>2022-02-20T08:54:40.000Z</time>
      </trkpt>
      <trkpt lat="47.24603" lon="-2.26373">
        <ele>23.200000762939</ele>
        <time>2022-02-20T08:54:43.000Z</time>
      </trkpt>
      <trkpt lat="47.24609" lon="-2.26373">
        <ele>23.200000762939</ele>
        <time>2022-02-20T08:54:44.000Z</time>
      </trkpt>
      <trkpt lat="47.24627" lon="-2.26376">
        <ele>23.200000762939</ele>
        <time>2022-02-20T08:54:47.000Z</time>
      </trkpt>
      <trkpt lat="47.24637" lon="-2.26379">
        <ele>23.200000762939</ele>
        <time>2022-02-20T08:54:49.000Z</time>
      </trkpt>
      <trkpt lat="47.24668" lon="-2.26392">
        <ele>23.200000762939</ele>
        <time>2022-02-20T08:54:56.000Z</time>
      </trkpt>
      <trkpt lat="47.24685" lon="-2.26399">
        <ele>23.200000762939</ele>
        <time>2022-02-20T08:55:00.000Z</time>
      </trkpt>
      <trkpt lat="47.24698" lon="-2.26406">
        <ele>23.200000762939</ele>
        <time>2022-02-20T08:55:03.000Z</time>
      </trkpt>
      <trkpt lat="47.24726" lon="-2.26419">
        <ele>23.200000762939</ele>
        <time>2022-02-20T08:55:09.000Z</time>
      </trkpt>
      <trkpt lat="47.24745" lon="-2.26429">
        <ele>23.60000038147</ele>
        <time>2022-02-20T08:55:13.000Z</time>
      </trkpt>
      <trkpt lat="47.24749" lon="-2.26431">
        <ele>24</ele>
        <time>2022-02-20T08:55:14.000Z</time>
      </trkpt>
      <trkpt lat="47.24754" lon="-2.26434">
        <ele>24.39999961853</ele>
        <time>2022-02-20T08:55:15.000Z</time>
      </trkpt>
      <trkpt lat="47.24758" lon="-2.26436">
        <ele>24.799999237061</ele>
        <time>2022-02-20T08:55:16.000Z</time>
      </trkpt>
      <trkpt lat="47.24763" lon="-2.26439">
        <ele>25.200000762939</ele>
        <time>2022-02-20T08:55:17.000Z</time>
      </trkpt>
      <trkpt lat="47.24793" lon="-2.26453">
        <ele>25.200000762939</ele>
        <time>2022-02-20T08:55:23.000Z</time>
      </trkpt>
      <trkpt lat="47.24799" lon="-2.26455">
        <ele>25.200000762939</ele>
        <time>2022-02-20T08:55:24.000Z</time>
      </trkpt>
      <trkpt lat="47.2482" lon="-2.26454">
        <ele>25.200000762939</ele>
        <time>2022-02-20T08:55:28.000Z</time>
      </trkpt>
      <trkpt lat="47.24825" lon="-2.26454">
        <ele>25.200000762939</ele>
        <time>2022-02-20T08:55:29.000Z</time>
      </trkpt>
      <trkpt lat="47.24857" lon="-2.26449">
        <ele>25.200000762939</ele>
        <time>2022-02-20T08:55:35.000Z</time>
      </trkpt>
      <trkpt lat="47.24882" lon="-2.26443">
        <ele>25.799999237061</ele>
        <time>2022-02-20T08:55:40.000Z</time>
      </trkpt>
      <trkpt lat="47.24886" lon="-2.26441">
        <ele>26.60000038147</ele>
        <time>2022-02-20T08:55:41.000Z</time>
      </trkpt>
      <trkpt lat="47.24891" lon="-2.26439">
        <ele>27</ele>
        <time>2022-02-20T08:55:42.000Z</time>
      </trkpt>
      <trkpt lat="47.24896" lon="-2.26438">
        <ele>27.39999961853</ele>
        <time>2022-02-20T08:55:43.000Z</time>
      </trkpt>
      <trkpt lat="47.2493" lon="-2.26424">
        <ele>27.39999961853</ele>
        <time>2022-02-20T08:55:50.000Z</time>
      </trkpt>
      <trkpt lat="47.24935" lon="-2.26422">
        <ele>27.39999961853</ele>
        <time>2022-02-20T08:55:51.000Z</time>
      </trkpt>
      <trkpt lat="47.2495" lon="-2.26423">
        <ele>27.39999961853</ele>
        <time>2022-02-20T08:55:54.000Z</time>
      </trkpt>
      <trkpt lat="47.24962" lon="-2.26412">
        <ele>27.39999961853</ele>
        <time>2022-02-20T08:55:57.000Z</time>
      </trkpt>
      <trkpt lat="47.24975" lon="-2.26389">
        <ele>27.39999961853</ele>
        <time>2022-02-20T08:56:01.000Z</time>
      </trkpt>
      <trkpt lat="47.24985" lon="-2.26379">
        <ele>27.39999961853</ele>
        <time>2022-02-20T08:56:03.000Z</time>
      </trkpt>
      <trkpt lat="47.2499" lon="-2.26375">
        <ele>27.39999961853</ele>
        <time>2022-02-20T08:56:04.000Z</time>
      </trkpt>
      <trkpt lat="47.25002" lon="-2.26367">
        <ele>26.39999961853</ele>
        <time>2022-02-20T08:56:06.000Z</time>
      </trkpt>
      <trkpt lat="47.25009" lon="-2.26364">
        <ele>26</ele>
        <time>2022-02-20T08:56:07.000Z</time>
      </trkpt>
      <trkpt lat="47.25015" lon="-2.26361">
        <ele>25.60000038147</ele>
        <time>2022-02-20T08:56:08.000Z</time>
      </trkpt>
      <trkpt lat="47.25022" lon="-2.26358">
        <ele>25</ele>
        <time>2022-02-20T08:56:09.000Z</time>
      </trkpt>
      <trkpt lat="47.25036" lon="-2.26351">
        <ele>25</ele>
        <time>2022-02-20T08:56:11.000Z</time>
      </trkpt>
      <trkpt lat="47.25043" lon="-2.26346">
        <ele>25</ele>
        <time>2022-02-20T08:56:12.000Z</time>
      </trkpt>
      <trkpt lat="47.25054" lon="-2.2633">
        <ele>25</ele>
        <time>2022-02-20T08:56:14.000Z</time>
      </trkpt>
      <trkpt lat="47.25057" lon="-2.26299">
        <ele>25</ele>
        <time>2022-02-20T08:56:17.000Z</time>
      </trkpt>
      <trkpt lat="47.25063" lon="-2.26261">
        <ele>24.60000038147</ele>
        <time>2022-02-20T08:56:21.000Z</time>
      </trkpt>
      <trkpt lat="47.25066" lon="-2.26252">
        <ele>24.200000762939</ele>
        <time>2022-02-20T08:56:22.000Z</time>
      </trkpt>
      <trkpt lat="47.25069" lon="-2.26244">
        <ele>23.799999237061</ele>
        <time>2022-02-20T08:56:23.000Z</time>
      </trkpt>
      <trkpt lat="47.25072" lon="-2.26236">
        <ele>23.39999961853</ele>
        <time>2022-02-20T08:56:24.000Z</time>
      </trkpt>
      <trkpt lat="47.25075" lon="-2.26229">
        <ele>23</ele>
        <time>2022-02-20T08:56:25.000Z</time>
      </trkpt>
      <trkpt lat="47.25079" lon="-2.26214">
        <ele>23</ele>
        <time>2022-02-20T08:56:27.000Z</time>
      </trkpt>
      <trkpt lat="47.25081" lon="-2.26196">
        <ele>23</ele>
        <time>2022-02-20T08:56:29.000Z</time>
      </trkpt>
      <trkpt lat="47.25081" lon="-2.26161">
        <ele>23</ele>
        <time>2022-02-20T08:56:33.000Z</time>
      </trkpt>
      <trkpt lat="47.25079" lon="-2.26145">
        <ele>23</ele>
        <time>2022-02-20T08:56:36.000Z</time>
      </trkpt>
      <trkpt lat="47.2507" lon="-2.26148">
        <ele>23</ele>
        <time>2022-02-20T08:56:39.000Z</time>
      </trkpt>
      <trkpt lat="47.25067" lon="-2.26148">
        <ele>22.60000038147</ele>
        <time>2022-02-20T08:56:42.000Z</time>
      </trkpt>
      <trkpt lat="47.25068" lon="-2.26147">
        <ele>22.200000762939</ele>
        <time>2022-02-20T08:56:43.000Z</time>
      </trkpt>
      <trkpt lat="47.2507" lon="-2.26146">
        <ele>21.60000038147</ele>
        <time>2022-02-20T08:56:44.000Z</time>
      </trkpt>
      <trkpt lat="47.25071" lon="-2.26142">
        <ele>21.200000762939</ele>
        <time>2022-02-20T08:56:45.000Z</time>
      </trkpt>
      <trkpt lat="47.25073" lon="-2.26138">
        <ele>20.799999237061</ele>
        <time>2022-02-20T08:56:46.000Z</time>
      </trkpt>
      <trkpt lat="47.25075" lon="-2.2613">
        <ele>20.799999237061</ele>
        <time>2022-02-20T08:56:47.000Z</time>
      </trkpt>
      <trkpt lat="47.25076" lon="-2.26122">
        <ele>20.39999961853</ele>
        <time>2022-02-20T08:56:48.000Z</time>
      </trkpt>
      <trkpt lat="47.25076" lon="-2.26108">
        <ele>19.799999237061</ele>
        <time>2022-02-20T08:56:49.000Z</time>
      </trkpt>
      <trkpt lat="47.25077" lon="-2.26095">
        <ele>19.39999961853</ele>
        <time>2022-02-20T08:56:50.000Z</time>
      </trkpt>
      <trkpt lat="47.25077" lon="-2.26085">
        <ele>19</ele>
        <time>2022-02-20T08:56:51.000Z</time>
      </trkpt>
      <trkpt lat="47.25078" lon="-2.26075">
        <ele>18.60000038147</ele>
        <time>2022-02-20T08:56:52.000Z</time>
      </trkpt>
      <trkpt lat="47.25078" lon="-2.26064">
        <ele>18.200000762939</ele>
        <time>2022-02-20T08:56:53.000Z</time>
      </trkpt>
      <trkpt lat="47.25077" lon="-2.26053">
        <ele>17.799999237061</ele>
        <time>2022-02-20T08:56:54.000Z</time>
      </trkpt>
      <trkpt lat="47.25076" lon="-2.26043">
        <ele>17</ele>
        <time>2022-02-20T08:56:55.000Z</time>
      </trkpt>
      <trkpt lat="47.25075" lon="-2.26031">
        <ele>16.60000038147</ele>
        <time>2022-02-20T08:56:56.000Z</time>
      </trkpt>
      <trkpt lat="47.25074" lon="-2.26021">
        <ele>16</ele>
        <time>2022-02-20T08:56:57.000Z</time>
      </trkpt>
      <trkpt lat="47.25074" lon="-2.26011">
        <ele>15.60000038147</ele>
        <time>2022-02-20T08:56:58.000Z</time>
      </trkpt>
      <trkpt lat="47.25074" lon="-2.26003">
        <ele>15.199999809265</ele>
        <time>2022-02-20T08:56:59.000Z</time>
      </trkpt>
      <trkpt lat="47.25074" lon="-2.25996">
        <ele>14.800000190735</ele>
        <time>2022-02-20T08:57:00.000Z</time>
      </trkpt>
      <trkpt lat="47.25074" lon="-2.25991">
        <ele>14.39999961853</ele>
        <time>2022-02-20T08:57:01.000Z</time>
      </trkpt>
      <trkpt lat="47.25072" lon="-2.25981">
        <ele>14.39999961853</ele>
        <time>2022-02-20T08:57:03.000Z</time>
      </trkpt>
      <trkpt lat="47.25068" lon="-2.25976">
        <ele>14.39999961853</ele>
        <time>2022-02-20T08:57:05.000Z</time>
      </trkpt>
      <trkpt lat="47.25064" lon="-2.25972">
        <ele>14.39999961853</ele>
        <time>2022-02-20T08:57:07.000Z</time>
      </trkpt>
      <trkpt lat="47.25058" lon="-2.2597">
        <ele>14.39999961853</ele>
        <time>2022-02-20T08:57:10.000Z</time>
      </trkpt>
      <trkpt lat="47.25048" lon="-2.25963">
        <ele>15.800000190735</ele>
        <time>2022-02-20T08:57:19.000Z</time>
      </trkpt>
      <trkpt lat="47.25046" lon="-2.25963">
        <ele>16.60000038147</ele>
        <time>2022-02-20T08:57:20.000Z</time>
      </trkpt>
      <trkpt lat="47.25045" lon="-2.25962">
        <ele>16.60000038147</ele>
        <time>2022-02-20T08:57:21.000Z</time>
      </trkpt>
      <trkpt lat="47.25032" lon="-2.25957">
        <ele>16.60000038147</ele>
        <time>2022-02-20T08:57:33.000Z</time>
      </trkpt>
      <trkpt lat="47.25033" lon="-2.25938">
        <ele>16.60000038147</ele>
        <time>2022-02-20T08:57:37.000Z</time>
      </trkpt>
      <trkpt lat="47.25038" lon="-2.25904">
        <ele>16.60000038147</ele>
        <time>2022-02-20T08:57:42.000Z</time>
      </trkpt>
      <trkpt lat="47.2504" lon="-2.25893">
        <ele>16.200000762939</ele>
        <time>2022-02-20T08:57:44.000Z</time>
      </trkpt>
      <trkpt lat="47.25042" lon="-2.25887">
        <ele>15.39999961853</ele>
        <time>2022-02-20T08:57:45.000Z</time>
      </trkpt>
      <trkpt lat="47.25044" lon="-2.25881">
        <ele>15</ele>
        <time>2022-02-20T08:57:46.000Z</time>
      </trkpt>
      <trkpt lat="47.25047" lon="-2.25876">
        <ele>14.60000038147</ele>
        <time>2022-02-20T08:57:47.000Z</time>
      </trkpt>
      <trkpt lat="47.25049" lon="-2.2587">
        <ele>14.60000038147</ele>
        <time>2022-02-20T08:57:48.000Z</time>
      </trkpt>
      <trkpt lat="47.25055" lon="-2.25851">
        <ele>14</ele>
        <time>2022-02-20T08:57:51.000Z</time>
      </trkpt>
      <trkpt lat="47.25057" lon="-2.25844">
        <ele>13.60000038147</ele>
        <time>2022-02-20T08:57:52.000Z</time>
      </trkpt>
      <trkpt lat="47.25059" lon="-2.25836">
        <ele>13.199999809265</ele>
        <time>2022-02-20T08:57:53.000Z</time>
      </trkpt>
      <trkpt lat="47.25061" lon="-2.2583">
        <ele>12.60000038147</ele>
        <time>2022-02-20T08:57:54.000Z</time>
      </trkpt>
      <trkpt lat="47.25063" lon="-2.25825">
        <ele>12</ele>
        <time>2022-02-20T08:57:55.000Z</time>
      </trkpt>
      <trkpt lat="47.25066" lon="-2.25823">
        <ele>11.39999961853</ele>
        <time>2022-02-20T08:57:56.000Z</time>
      </trkpt>
      <trkpt lat="47.25067" lon="-2.25824">
        <ele>10.800000190735</ele>
        <time>2022-02-20T08:57:57.000Z</time>
      </trkpt>
      <trkpt lat="47.2507" lon="-2.25826">
        <ele>10.39999961853</ele>
        <time>2022-02-20T08:57:58.000Z</time>
      </trkpt>
      <trkpt lat="47.25071" lon="-2.25828">
        <ele>9.8000001907349</ele>
        <time>2022-02-20T08:57:59.000Z</time>
      </trkpt>
      <trkpt lat="47.25073" lon="-2.25829">
        <ele>9.3999996185303</ele>
        <time>2022-02-20T08:58:00.000Z</time>
      </trkpt>
      <trkpt lat="47.25075" lon="-2.25829">
        <ele>9</ele>
        <time>2022-02-20T08:58:01.000Z</time>
      </trkpt>
      <trkpt lat="47.25076" lon="-2.25829">
        <ele>8.6000003814697</ele>
        <time>2022-02-20T08:58:02.000Z</time>
      </trkpt>
      <trkpt lat="47.25077" lon="-2.25829">
        <ele>8.1999998092651</ele>
        <time>2022-02-20T08:58:03.000Z</time>
      </trkpt>
      <trkpt lat="47.2508" lon="-2.25816">
        <ele>8.1999998092651</ele>
        <time>2022-02-20T08:58:07.000Z</time>
      </trkpt>
      <trkpt lat="47.25083" lon="-2.25799">
        <ele>7.8000001907349</ele>
        <time>2022-02-20T08:58:11.000Z</time>
      </trkpt>
      <trkpt lat="47.25083" lon="-2.25793">
        <ele>7.4000000953674</ele>
        <time>2022-02-20T08:58:12.000Z</time>
      </trkpt>
      <trkpt lat="47.25082" lon="-2.25787">
        <ele>7</ele>
        <time>2022-02-20T08:58:13.000Z</time>
      </trkpt>
      <trkpt lat="47.25082" lon="-2.25779">
        <ele>6.5999999046326</ele>
        <time>2022-02-20T08:58:14.000Z</time>
      </trkpt>
      <trkpt lat="47.25082" lon="-2.25771">
        <ele>6.1999998092651</ele>
        <time>2022-02-20T08:58:15.000Z</time>
      </trkpt>
      <trkpt lat="47.25081" lon="-2.25755">
        <ele>6.1999998092651</ele>
        <time>2022-02-20T08:58:17.000Z</time>
      </trkpt>
      <trkpt lat="47.25081" lon="-2.25729">
        <ele>5.8000001907349</ele>
        <time>2022-02-20T08:58:20.000Z</time>
      </trkpt>
      <trkpt lat="47.25083" lon="-2.2572">
        <ele>5.4000000953674</ele>
        <time>2022-02-20T08:58:21.000Z</time>
      </trkpt>
      <trkpt lat="47.25084" lon="-2.25711">
        <ele>5</ele>
        <time>2022-02-20T08:58:22.000Z</time>
      </trkpt>
      <trkpt lat="47.25084" lon="-2.25703">
        <ele>4.4000000953674</ele>
        <time>2022-02-20T08:58:23.000Z</time>
      </trkpt>
      <trkpt lat="47.25085" lon="-2.25696">
        <ele>4</ele>
        <time>2022-02-20T08:58:24.000Z</time>
      </trkpt>
      <trkpt lat="47.25086" lon="-2.25691">
        <ele>3.5999999046326</ele>
        <time>2022-02-20T08:58:25.000Z</time>
      </trkpt>
      <trkpt lat="47.25087" lon="-2.25685">
        <ele>3.2000000476837</ele>
        <time>2022-02-20T08:58:26.000Z</time>
      </trkpt>
      <trkpt lat="47.25088" lon="-2.2568">
        <ele>2.7999999523163</ele>
        <time>2022-02-20T08:58:27.000Z</time>
      </trkpt>
      <trkpt lat="47.25088" lon="-2.25673">
        <ele>2.4000000953674</ele>
        <time>2022-02-20T08:58:28.000Z</time>
      </trkpt>
      <trkpt lat="47.25087" lon="-2.25667">
        <ele>2</ele>
        <time>2022-02-20T08:58:29.000Z</time>
      </trkpt>
      <trkpt lat="47.25089" lon="-2.25652">
        <ele>2</ele>
        <time>2022-02-20T08:58:31.000Z</time>
      </trkpt>
      <trkpt lat="47.25091" lon="-2.25629">
        <ele>1.2000000476837</ele>
        <time>2022-02-20T08:58:34.000Z</time>
      </trkpt>
      <trkpt lat="47.2509" lon="-2.25623">
        <ele>0.80000001192093</ele>
        <time>2022-02-20T08:58:35.000Z</time>
      </trkpt>
      <trkpt lat="47.25088" lon="-2.25617">
        <ele>0.20000000298023</ele>
        <time>2022-02-20T08:58:36.000Z</time>
      </trkpt>
      <trkpt lat="47.25086" lon="-2.25609">
        <ele>-0.40000000596046</ele>
        <time>2022-02-20T08:58:37.000Z</time>
      </trkpt>
      <trkpt lat="47.25085" lon="-2.25604">
        <ele>-1</ele>
        <time>2022-02-20T08:58:38.000Z</time>
      </trkpt>
      <trkpt lat="47.25085" lon="-2.25602">
        <ele>-1.6000000238419</ele>
        <time>2022-02-20T08:58:39.000Z</time>
      </trkpt>
      <trkpt lat="47.25085" lon="-2.25599">
        <ele>-2.2000000476837</ele>
        <time>2022-02-20T08:58:40.000Z</time>
      </trkpt>
      <trkpt lat="47.25084" lon="-2.25597">
        <ele>-2.2000000476837</ele>
        <time>2022-02-20T08:58:41.000Z</time>
      </trkpt>
      <trkpt lat="47.25084" lon="-2.25593">
        <ele>-2.2000000476837</ele>
        <time>2022-02-20T08:58:43.000Z</time>
      </trkpt>
      <trkpt lat="47.25083" lon="-2.25594">
        <ele>-2.2000000476837</ele>
        <time>2022-02-20T09:00:37.000Z</time>
      </trkpt>
      <trkpt lat="47.25083" lon="-2.25601">
        <ele>-1.7999999523163</ele>
        <time>2022-02-20T09:00:40.000Z</time>
      </trkpt>
      <trkpt lat="47.25084" lon="-2.25604">
        <ele>-1.3999999761581</ele>
        <time>2022-02-20T09:00:41.000Z</time>
      </trkpt>
      <trkpt lat="47.25085" lon="-2.25609">
        <ele>-1</ele>
        <time>2022-02-20T09:00:42.000Z</time>
      </trkpt>
      <trkpt lat="47.25086" lon="-2.25614">
        <ele>-0.60000002384186</ele>
        <time>2022-02-20T09:00:43.000Z</time>
      </trkpt>
      <trkpt lat="47.25088" lon="-2.25616">
        <ele>-0.20000000298023</ele>
        <time>2022-02-20T09:00:45.000Z</time>
      </trkpt>
      <trkpt lat="47.2509" lon="-2.25615">
        <ele>-0.20000000298023</ele>
        <time>2022-02-20T09:00:46.000Z</time>
      </trkpt>
      <trkpt lat="47.25092" lon="-2.25614">
        <ele>-0.60000002384186</ele>
        <time>2022-02-20T09:00:47.000Z</time>
      </trkpt>
      <trkpt lat="47.25094" lon="-2.25613">
        <ele>-1</ele>
        <time>2022-02-20T09:00:48.000Z</time>
      </trkpt>
      <trkpt lat="47.25095" lon="-2.25611">
        <ele>-1.3999999761581</ele>
        <time>2022-02-20T09:00:49.000Z</time>
      </trkpt>
      <trkpt lat="47.25097" lon="-2.25608">
        <ele>-1.7999999523163</ele>
        <time>2022-02-20T09:00:50.000Z</time>
      </trkpt>
      <trkpt lat="47.25098" lon="-2.25606">
        <ele>-2.2000000476837</ele>
        <time>2022-02-20T09:00:51.000Z</time>
      </trkpt>
      <trkpt lat="47.25099" lon="-2.25605">
        <ele>-2.2000000476837</ele>
        <time>2022-02-20T09:00:52.000Z</time>
      </trkpt>
      <trkpt lat="47.25104" lon="-2.25602">
        <ele>-2.2000000476837</ele>
        <time>2022-02-20T09:00:55.000Z</time>
      </trkpt>
      <trkpt lat="47.25106" lon="-2.25604">
        <ele>-2.2000000476837</ele>
        <time>2022-02-20T09:00:57.000Z</time>
      </trkpt>
      <trkpt lat="47.25105" lon="-2.25611">
        <ele>-2.2000000476837</ele>
        <time>2022-02-20T09:01:02.000Z</time>
      </trkpt>
      <trkpt lat="47.25105" lon="-2.25611">
        <ele>-2.2000000476837</ele>
        <time>2022-02-20T09:01:03.000Z</time>
      </trkpt>
      <trkpt lat="47.251" lon="-2.25615">
        <ele>-2.2000000476837</ele>
        <time>2022-02-20T09:01:09.000Z</time>
      </trkpt>
      <trkpt lat="47.25098" lon="-2.25618">
        <ele>-2.2000000476837</ele>
        <time>2022-02-20T09:01:11.000Z</time>
      </trkpt>
      <trkpt lat="47.25094" lon="-2.25629">
        <ele>-2.2000000476837</ele>
        <time>2022-02-20T09:01:17.000Z</time>
      </trkpt>
      <trkpt lat="47.2509" lon="-2.25645">
        <ele>-2.2000000476837</ele>
        <time>2022-02-20T09:01:25.000Z</time>
      </trkpt>
      <trkpt lat="47.2509" lon="-2.25647">
        <ele>-1.7999999523163</ele>
        <time>2022-02-20T09:01:26.000Z</time>
      </trkpt>
      <trkpt lat="47.25089" lon="-2.2565">
        <ele>-1.3999999761581</ele>
        <time>2022-02-20T09:01:27.000Z</time>
      </trkpt>
      <trkpt lat="47.25089" lon="-2.25652">
        <ele>-1</ele>
        <time>2022-02-20T09:01:28.000Z</time>
      </trkpt>
      <trkpt lat="47.25089" lon="-2.25655">
        <ele>-0.60000002384186</ele>
        <time>2022-02-20T09:01:29.000Z</time>
      </trkpt>
      <trkpt lat="47.25089" lon="-2.25657">
        <ele>8.6</ele>
        <time>2022-02-20T09:01:30.000Z</time>
      </trkpt>
      <trkpt lat="47.2509" lon="-2.2566">
        <ele>8.8</ele>
        <time>2022-02-20T09:01:31.000Z</time>
      </trkpt>
      <trkpt lat="47.25093" lon="-2.25672">
        <ele>10.1</ele>
        <time>2022-02-20T09:01:36.000Z</time>
      </trkpt>
      <trkpt lat="47.25096" lon="-2.25681">
        <ele>11.1</ele>
        <time>2022-02-20T09:01:39.000Z</time>
      </trkpt>
      <trkpt lat="47.25096" lon="-2.25692">
        <ele>11.7</ele>
        <time>2022-02-20T09:01:43.000Z</time>
      </trkpt>
      <trkpt lat="47.25095" lon="-2.25702">
        <ele>0.40000000596046</ele>
        <time>2022-02-20T09:01:46.000Z</time>
      </trkpt>
      <trkpt lat="47.25095" lon="-2.25705">
        <ele>0.80000001192093</ele>
        <time>2022-02-20T09:01:47.000Z</time>
      </trkpt>
      <trkpt lat="47.25095" lon="-2.25709">
        <ele>1.2000000476837</ele>
        <time>2022-02-20T09:01:48.000Z</time>
      </trkpt>
      <trkpt lat="47.25094" lon="-2.25713">
        <ele>1.6000000238419</ele>
        <time>2022-02-20T09:01:49.000Z</time>
      </trkpt>
      <trkpt lat="47.25094" lon="-2.25716">
        <ele>2</ele>
        <time>2022-02-20T09:01:50.000Z</time>
      </trkpt>
      <trkpt lat="47.25094" lon="-2.25734">
        <ele>2</ele>
        <time>2022-02-20T09:01:55.000Z</time>
      </trkpt>
      <trkpt lat="47.25095" lon="-2.25748">
        <ele>2.4000000953674</ele>
        <time>2022-02-20T09:01:59.000Z</time>
      </trkpt>
      <trkpt lat="47.25095" lon="-2.25751">
        <ele>2.7999999523163</ele>
        <time>2022-02-20T09:02:00.000Z</time>
      </trkpt>
      <trkpt lat="47.25095" lon="-2.25755">
        <ele>3.2000000476837</ele>
        <time>2022-02-20T09:02:01.000Z</time>
      </trkpt>
      <trkpt lat="47.25095" lon="-2.25759">
        <ele>3.5999999046326</ele>
        <time>2022-02-20T09:02:02.000Z</time>
      </trkpt>
      <trkpt lat="47.25095" lon="-2.25762">
        <ele>4.1999998092651</ele>
        <time>2022-02-20T09:02:03.000Z</time>
      </trkpt>
      <trkpt lat="47.25093" lon="-2.2579">
        <ele>4.1999998092651</ele>
        <time>2022-02-20T09:02:10.000Z</time>
      </trkpt>
      <trkpt lat="47.25092" lon="-2.25797">
        <ele>4.5999999046326</ele>
        <time>2022-02-20T09:02:12.000Z</time>
      </trkpt>
      <trkpt lat="47.25092" lon="-2.25801">
        <ele>5</ele>
        <time>2022-02-20T09:02:13.000Z</time>
      </trkpt>
      <trkpt lat="47.25092" lon="-2.25803">
        <ele>5.4000000953674</ele>
        <time>2022-02-20T09:02:14.000Z</time>
      </trkpt>
      <trkpt lat="47.25092" lon="-2.25806">
        <ele>5.8000001907349</ele>
        <time>2022-02-20T09:02:15.000Z</time>
      </trkpt>
      <trkpt lat="47.25091" lon="-2.25809">
        <ele>6.1999998092651</ele>
        <time>2022-02-20T09:02:16.000Z</time>
      </trkpt>
      <trkpt lat="47.25089" lon="-2.25811">
        <ele>6.1999998092651</ele>
        <time>2022-02-20T09:02:17.000Z</time>
      </trkpt>
      <trkpt lat="47.2508" lon="-2.25834">
        <ele>6.1999998092651</ele>
        <time>2022-02-20T09:02:24.000Z</time>
      </trkpt>
      <trkpt lat="47.25077" lon="-2.25853">
        <ele>6.5999999046326</ele>
        <time>2022-02-20T09:02:28.000Z</time>
      </trkpt>
      <trkpt lat="47.25076" lon="-2.25857">
        <ele>7</ele>
        <time>2022-02-20T09:02:29.000Z</time>
      </trkpt>
      <trkpt lat="47.25076" lon="-2.25862">
        <ele>7.4000000953674</ele>
        <time>2022-02-20T09:02:30.000Z</time>
      </trkpt>
      <trkpt lat="47.25076" lon="-2.25867">
        <ele>7.8000001907349</ele>
        <time>2022-02-20T09:02:31.000Z</time>
      </trkpt>
      <trkpt lat="47.25075" lon="-2.25871">
        <ele>8.1999998092651</ele>
        <time>2022-02-20T09:02:32.000Z</time>
      </trkpt>
      <trkpt lat="47.25073" lon="-2.25885">
        <ele>8.1999998092651</ele>
        <time>2022-02-20T09:02:35.000Z</time>
      </trkpt>
      <trkpt lat="47.25069" lon="-2.25902">
        <ele>8.6000003814697</ele>
        <time>2022-02-20T09:02:39.000Z</time>
      </trkpt>
      <trkpt lat="47.25068" lon="-2.25907">
        <ele>9.6000003814697</ele>
        <time>2022-02-20T09:02:40.000Z</time>
      </trkpt>
      <trkpt lat="47.25066" lon="-2.25911">
        <ele>10</ele>
        <time>2022-02-20T09:02:41.000Z</time>
      </trkpt>
      <trkpt lat="47.25065" lon="-2.25916">
        <ele>10.39999961853</ele>
        <time>2022-02-20T09:02:42.000Z</time>
      </trkpt>
      <trkpt lat="47.25062" lon="-2.25949">
        <ele>10.800000190735</ele>
        <time>2022-02-20T09:02:48.000Z</time>
      </trkpt>
      <trkpt lat="47.25062" lon="-2.25954">
        <ele>11.199999809265</ele>
        <time>2022-02-20T09:02:49.000Z</time>
      </trkpt>
      <trkpt lat="47.25061" lon="-2.25959">
        <ele>11.60000038147</ele>
        <time>2022-02-20T09:02:50.000Z</time>
      </trkpt>
      <trkpt lat="47.25061" lon="-2.25964">
        <ele>12.199999809265</ele>
        <time>2022-02-20T09:02:51.000Z</time>
      </trkpt>
      <trkpt lat="47.25061" lon="-2.25969">
        <ele>12.60000038147</ele>
        <time>2022-02-20T09:02:52.000Z</time>
      </trkpt>
      <trkpt lat="47.2506" lon="-2.25997">
        <ele>12.60000038147</ele>
        <time>2022-02-20T09:02:58.000Z</time>
      </trkpt>
      <trkpt lat="47.2506" lon="-2.26005">
        <ele>13</ele>
        <time>2022-02-20T09:03:00.000Z</time>
      </trkpt>
      <trkpt lat="47.2506" lon="-2.26008">
        <ele>13.39999961853</ele>
        <time>2022-02-20T09:03:01.000Z</time>
      </trkpt>
      <trkpt lat="47.25061" lon="-2.26012">
        <ele>13.800000190735</ele>
        <time>2022-02-20T09:03:02.000Z</time>
      </trkpt>
      <trkpt lat="47.25061" lon="-2.26016">
        <ele>14.199999809265</ele>
        <time>2022-02-20T09:03:03.000Z</time>
      </trkpt>
      <trkpt lat="47.25061" lon="-2.26021">
        <ele>14.60000038147</ele>
        <time>2022-02-20T09:03:04.000Z</time>
      </trkpt>
      <trkpt lat="47.2506" lon="-2.2603">
        <ele>14.60000038147</ele>
        <time>2022-02-20T09:03:06.000Z</time>
      </trkpt>
      <trkpt lat="47.2506" lon="-2.26035">
        <ele>15</ele>
        <time>2022-02-20T09:03:07.000Z</time>
      </trkpt>
      <trkpt lat="47.2506" lon="-2.26039">
        <ele>15.39999961853</ele>
        <time>2022-02-20T09:03:08.000Z</time>
      </trkpt>
      <trkpt lat="47.25059" lon="-2.26043">
        <ele>15.800000190735</ele>
        <time>2022-02-20T09:03:09.000Z</time>
      </trkpt>
      <trkpt lat="47.25058" lon="-2.26048">
        <ele>16.39999961853</ele>
        <time>2022-02-20T09:03:10.000Z</time>
      </trkpt>
      <trkpt lat="47.25058" lon="-2.26052">
        <ele>16.799999237061</ele>
        <time>2022-02-20T09:03:11.000Z</time>
      </trkpt>
      <trkpt lat="47.25056" lon="-2.26061">
        <ele>16.799999237061</ele>
        <time>2022-02-20T09:03:13.000Z</time>
      </trkpt>
      <trkpt lat="47.25054" lon="-2.26084">
        <ele>17.200000762939</ele>
        <time>2022-02-20T09:03:18.000Z</time>
      </trkpt>
      <trkpt lat="47.25054" lon="-2.26088">
        <ele>17.60000038147</ele>
        <time>2022-02-20T09:03:19.000Z</time>
      </trkpt>
      <trkpt lat="47.25053" lon="-2.26093">
        <ele>18</ele>
        <time>2022-02-20T09:03:20.000Z</time>
      </trkpt>
      <trkpt lat="47.25053" lon="-2.26097">
        <ele>18.39999961853</ele>
        <time>2022-02-20T09:03:21.000Z</time>
      </trkpt>
      <trkpt lat="47.25053" lon="-2.26102">
        <ele>18.799999237061</ele>
        <time>2022-02-20T09:03:22.000Z</time>
      </trkpt>
      <trkpt lat="47.25057" lon="-2.26106">
        <ele>18.799999237061</ele>
        <time>2022-02-20T09:03:25.000Z</time>
      </trkpt>
      <trkpt lat="47.25061" lon="-2.26106">
        <ele>19.39999961853</ele>
        <time>2022-02-20T09:03:27.000Z</time>
      </trkpt>
      <trkpt lat="47.25064" lon="-2.26107">
        <ele>19.799999237061</ele>
        <time>2022-02-20T09:03:28.000Z</time>
      </trkpt>
      <trkpt lat="47.25067" lon="-2.26108">
        <ele>20.60000038147</ele>
        <time>2022-02-20T09:03:29.000Z</time>
      </trkpt>
      <trkpt lat="47.25069" lon="-2.26108">
        <ele>21.200000762939</ele>
        <time>2022-02-20T09:03:30.000Z</time>
      </trkpt>
      <trkpt lat="47.25072" lon="-2.26108">
        <ele>21.200000762939</ele>
        <time>2022-02-20T09:03:31.000Z</time>
      </trkpt>
      <trkpt lat="47.25079" lon="-2.26109">
        <ele>21.60000038147</ele>
        <time>2022-02-20T09:03:34.000Z</time>
      </trkpt>
      <trkpt lat="47.25081" lon="-2.26108">
        <ele>22</ele>
        <time>2022-02-20T09:03:35.000Z</time>
      </trkpt>
      <trkpt lat="47.25083" lon="-2.26107">
        <ele>22.39999961853</ele>
        <time>2022-02-20T09:03:36.000Z</time>
      </trkpt>
      <trkpt lat="47.25084" lon="-2.26105">
        <ele>22.799999237061</ele>
        <time>2022-02-20T09:03:37.000Z</time>
      </trkpt>
      <trkpt lat="47.25084" lon="-2.26103">
        <ele>23.200000762939</ele>
        <time>2022-02-20T09:03:38.000Z</time>
      </trkpt>
      <trkpt lat="47.25087" lon="-2.2608">
        <ele>23.200000762939</ele>
        <time>2022-02-20T09:03:45.000Z</time>
      </trkpt>
      <trkpt lat="47.25091" lon="-2.26059">
        <ele>23.200000762939</ele>
        <time>2022-02-20T09:03:50.000Z</time>
      </trkpt>
      <trkpt lat="47.25093" lon="-2.26048">
        <ele>23.200000762939</ele>
        <time>2022-02-20T09:03:52.000Z</time>
      </trkpt>
      <trkpt lat="47.25096" lon="-2.26027">
        <ele>23.200000762939</ele>
        <time>2022-02-20T09:03:55.000Z</time>
      </trkpt>
      <trkpt lat="47.25098" lon="-2.26012">
        <ele>22.799999237061</ele>
        <time>2022-02-20T09:03:57.000Z</time>
      </trkpt>
      <trkpt lat="47.25099" lon="-2.26004">
        <ele>22.39999961853</ele>
        <time>2022-02-20T09:03:58.000Z</time>
      </trkpt>
      <trkpt lat="47.25101" lon="-2.25997">
        <ele>22</ele>
        <time>2022-02-20T09:03:59.000Z</time>
      </trkpt>
      <trkpt lat="47.25103" lon="-2.25989">
        <ele>21.39999961853</ele>
        <time>2022-02-20T09:04:00.000Z</time>
      </trkpt>
      <trkpt lat="47.25105" lon="-2.25982">
        <ele>21</ele>
        <time>2022-02-20T09:04:01.000Z</time>
      </trkpt>
      <trkpt lat="47.2511" lon="-2.25969">
        <ele>21</ele>
        <time>2022-02-20T09:04:03.000Z</time>
      </trkpt>
      <trkpt lat="47.25118" lon="-2.25953">
        <ele>21</ele>
        <time>2022-02-20T09:04:06.000Z</time>
      </trkpt>
      <trkpt lat="47.25133" lon="-2.2593">
        <ele>21</ele>
        <time>2022-02-20T09:04:12.000Z</time>
      </trkpt>
      <trkpt lat="47.25143" lon="-2.25918">
        <ele>21</ele>
        <time>2022-02-20T09:04:16.000Z</time>
      </trkpt>
      <trkpt lat="47.25147" lon="-2.25918">
        <ele>21</ele>
        <time>2022-02-20T09:04:17.000Z</time>
      </trkpt>
      <trkpt lat="47.25164" lon="-2.25917">
        <ele>21</ele>
        <time>2022-02-20T09:04:21.000Z</time>
      </trkpt>
      <trkpt lat="47.25169" lon="-2.25915">
        <ele>21</ele>
        <time>2022-02-20T09:04:23.000Z</time>
      </trkpt>
      <trkpt lat="47.25171" lon="-2.25914">
        <ele>21</ele>
        <time>2022-02-20T09:04:24.000Z</time>
      </trkpt>
      <trkpt lat="47.2518" lon="-2.25915">
        <ele>21</ele>
        <time>2022-02-20T09:04:29.000Z</time>
      </trkpt>
      <trkpt lat="47.25191" lon="-2.25917">
        <ele>21</ele>
        <time>2022-02-20T09:04:36.000Z</time>
      </trkpt>
      <trkpt lat="47.25201" lon="-2.25915">
        <ele>21</ele>
        <time>2022-02-20T09:04:44.000Z</time>
      </trkpt>
      <trkpt lat="47.25205" lon="-2.25922">
        <ele>21</ele>
        <time>2022-02-20T09:04:48.000Z</time>
      </trkpt>
      <trkpt lat="47.25205" lon="-2.25924">
        <ele>21</ele>
        <time>2022-02-20T09:04:49.000Z</time>
      </trkpt>
      <trkpt lat="47.2521" lon="-2.2593">
        <ele>21.39999961853</ele>
        <time>2022-02-20T09:04:54.000Z</time>
      </trkpt>
      <trkpt lat="47.25211" lon="-2.25931">
        <ele>21.799999237061</ele>
        <time>2022-02-20T09:04:55.000Z</time>
      </trkpt>
      <trkpt lat="47.25212" lon="-2.25933">
        <ele>22.200000762939</ele>
        <time>2022-02-20T09:04:56.000Z</time>
      </trkpt>
      <trkpt lat="47.25213" lon="-2.25934">
        <ele>22.60000038147</ele>
        <time>2022-02-20T09:04:57.000Z</time>
      </trkpt>
      <trkpt lat="47.25214" lon="-2.25936">
        <ele>23</ele>
        <time>2022-02-20T09:04:58.000Z</time>
      </trkpt>
      <trkpt lat="47.25216" lon="-2.25946">
        <ele>23</ele>
        <time>2022-02-20T09:05:04.000Z</time>
      </trkpt>
      <trkpt lat="47.2522" lon="-2.25959">
        <ele>23</ele>
        <time>2022-02-20T09:05:11.000Z</time>
      </trkpt>
      <trkpt lat="47.25221" lon="-2.25976">
        <ele>23</ele>
        <time>2022-02-20T09:05:19.000Z</time>
      </trkpt>
      <trkpt lat="47.25228" lon="-2.25989">
        <ele>23</ele>
        <time>2022-02-20T09:05:26.000Z</time>
      </trkpt>
      <trkpt lat="47.25237" lon="-2.26001">
        <ele>23</ele>
        <time>2022-02-20T09:05:34.000Z</time>
      </trkpt>
      <trkpt lat="47.25245" lon="-2.26008">
        <ele>23</ele>
        <time>2022-02-20T09:05:41.000Z</time>
      </trkpt>
      <trkpt lat="47.2525" lon="-2.26021">
        <ele>23</ele>
        <time>2022-02-20T09:05:47.000Z</time>
      </trkpt>
      <trkpt lat="47.25251" lon="-2.26023">
        <ele>23</ele>
        <time>2022-02-20T09:05:48.000Z</time>
      </trkpt>
      <trkpt lat="47.25258" lon="-2.26029">
        <ele>23</ele>
        <time>2022-02-20T09:05:52.000Z</time>
      </trkpt>
      <trkpt lat="47.25265" lon="-2.26029">
        <ele>23</ele>
        <time>2022-02-20T09:05:54.000Z</time>
      </trkpt>
      <trkpt lat="47.25272" lon="-2.26027">
        <ele>23</ele>
        <time>2022-02-20T09:05:57.000Z</time>
      </trkpt>
      <trkpt lat="47.25284" lon="-2.26025">
        <ele>23</ele>
        <time>2022-02-20T09:06:02.000Z</time>
      </trkpt>
      <trkpt lat="47.25295" lon="-2.26023">
        <ele>23</ele>
        <time>2022-02-20T09:06:08.000Z</time>
      </trkpt>
      <trkpt lat="47.25299" lon="-2.26023">
        <ele>23</ele>
        <time>2022-02-20T09:06:10.000Z</time>
      </trkpt>
      <trkpt lat="47.25305" lon="-2.26027">
        <ele>23</ele>
        <time>2022-02-20T09:06:13.000Z</time>
      </trkpt>
      <trkpt lat="47.25313" lon="-2.26029">
        <ele>23</ele>
        <time>2022-02-20T09:06:18.000Z</time>
      </trkpt>
      <trkpt lat="47.25316" lon="-2.2603">
        <ele>23</ele>
        <time>2022-02-20T09:06:20.000Z</time>
      </trkpt>
      <trkpt lat="47.25324" lon="-2.26031">
        <ele>23</ele>
        <time>2022-02-20T09:06:25.000Z</time>
      </trkpt>
      <trkpt lat="47.2533" lon="-2.26031">
        <ele>23</ele>
        <time>2022-02-20T09:06:28.000Z</time>
      </trkpt>
      <trkpt lat="47.25332" lon="-2.26029">
        <ele>22.60000038147</ele>
        <time>2022-02-20T09:06:29.000Z</time>
      </trkpt>
      <trkpt lat="47.25333" lon="-2.26026">
        <ele>22.200000762939</ele>
        <time>2022-02-20T09:06:30.000Z</time>
      </trkpt>
      <trkpt lat="47.25335" lon="-2.26024">
        <ele>21.799999237061</ele>
        <time>2022-02-20T09:06:31.000Z</time>
      </trkpt>
      <trkpt lat="47.25337" lon="-2.26022">
        <ele>21.39999961853</ele>
        <time>2022-02-20T09:06:32.000Z</time>
      </trkpt>
      <trkpt lat="47.25338" lon="-2.26018">
        <ele>21</ele>
        <time>2022-02-20T09:06:33.000Z</time>
      </trkpt>
      <trkpt lat="47.2534" lon="-2.2601">
        <ele>21</ele>
        <time>2022-02-20T09:06:35.000Z</time>
      </trkpt>
      <trkpt lat="47.25344" lon="-2.26">
        <ele>20.60000038147</ele>
        <time>2022-02-20T09:06:39.000Z</time>
      </trkpt>
      <trkpt lat="47.25345" lon="-2.25999">
        <ele>20</ele>
        <time>2022-02-20T09:06:40.000Z</time>
      </trkpt>
      <trkpt lat="47.25346" lon="-2.25998">
        <ele>19.60000038147</ele>
        <time>2022-02-20T09:06:41.000Z</time>
      </trkpt>
      <trkpt lat="47.25347" lon="-2.25998">
        <ele>19.200000762939</ele>
        <time>2022-02-20T09:06:42.000Z</time>
      </trkpt>
      <trkpt lat="47.2535" lon="-2.25988">
        <ele>18.60000038147</ele>
        <time>2022-02-20T09:07:46.000Z</time>
      </trkpt>
      <trkpt lat="47.25349" lon="-2.25984">
        <ele>18.60000038147</ele>
        <time>2022-02-20T09:07:47.000Z</time>
      </trkpt>
      <trkpt lat="47.25344" lon="-2.25961">
        <ele>18.60000038147</ele>
        <time>2022-02-20T09:07:52.000Z</time>
      </trkpt>
      <trkpt lat="47.25341" lon="-2.25932">
        <ele>18.60000038147</ele>
        <time>2022-02-20T09:07:58.000Z</time>
      </trkpt>
      <trkpt lat="47.25334" lon="-2.25907">
        <ele>18.60000038147</ele>
        <time>2022-02-20T09:08:05.000Z</time>
      </trkpt>
      <trkpt lat="47.25333" lon="-2.25892">
        <ele>18.60000038147</ele>
        <time>2022-02-20T09:08:10.000Z</time>
      </trkpt>
      <trkpt lat="47.25335" lon="-2.25868">
        <ele>18.60000038147</ele>
        <time>2022-02-20T09:08:15.000Z</time>
      </trkpt>
      <trkpt lat="47.25338" lon="-2.25842">
        <ele>18.200000762939</ele>
        <time>2022-02-20T09:08:20.000Z</time>
      </trkpt>
      <trkpt lat="47.25339" lon="-2.25836">
        <ele>17.60000038147</ele>
        <time>2022-02-20T09:08:21.000Z</time>
      </trkpt>
      <trkpt lat="47.2534" lon="-2.25828">
        <ele>17.200000762939</ele>
        <time>2022-02-20T09:08:22.000Z</time>
      </trkpt>
      <trkpt lat="47.25341" lon="-2.25821">
        <ele>16.799999237061</ele>
        <time>2022-02-20T09:08:23.000Z</time>
      </trkpt>
      <trkpt lat="47.25342" lon="-2.25814">
        <ele>16.200000762939</ele>
        <time>2022-02-20T09:08:24.000Z</time>
      </trkpt>
      <trkpt lat="47.25345" lon="-2.25795">
        <ele>15.800000190735</ele>
        <time>2022-02-20T09:08:27.000Z</time>
      </trkpt>
      <trkpt lat="47.25346" lon="-2.25791">
        <ele>15.39999961853</ele>
        <time>2022-02-20T09:08:28.000Z</time>
      </trkpt>
      <trkpt lat="47.25347" lon="-2.25785">
        <ele>15</ele>
        <time>2022-02-20T09:08:29.000Z</time>
      </trkpt>
      <trkpt lat="47.25348" lon="-2.2578">
        <ele>14.60000038147</ele>
        <time>2022-02-20T09:08:30.000Z</time>
      </trkpt>
      <trkpt lat="47.25349" lon="-2.25776">
        <ele>14</ele>
        <time>2022-02-20T09:08:31.000Z</time>
      </trkpt>
      <trkpt lat="47.25349" lon="-2.25772">
        <ele>14</ele>
        <time>2022-02-20T09:08:32.000Z</time>
      </trkpt>
      <trkpt lat="47.2535" lon="-2.2575">
        <ele>14</ele>
        <time>2022-02-20T09:08:37.000Z</time>
      </trkpt>
      <trkpt lat="47.2535" lon="-2.25719">
        <ele>14</ele>
        <time>2022-02-20T09:08:42.000Z</time>
      </trkpt>
      <trkpt lat="47.2535" lon="-2.25689">
        <ele>14</ele>
        <time>2022-02-20T09:08:47.000Z</time>
      </trkpt>
      <trkpt lat="47.25346" lon="-2.25661">
        <ele>14</ele>
        <time>2022-02-20T09:08:52.000Z</time>
      </trkpt>
      <trkpt lat="47.25339" lon="-2.25632">
        <ele>14</ele>
        <time>2022-02-20T09:08:58.000Z</time>
      </trkpt>
      <trkpt lat="47.25336" lon="-2.25604">
        <ele>14</ele>
        <time>2022-02-20T09:09:04.000Z</time>
      </trkpt>
      <trkpt lat="47.25335" lon="-2.25575">
        <ele>14</ele>
        <time>2022-02-20T09:09:10.000Z</time>
      </trkpt>
      <trkpt lat="47.25335" lon="-2.25571">
        <ele>13.60000038147</ele>
        <time>2022-02-20T09:09:11.000Z</time>
      </trkpt>
      <trkpt lat="47.25335" lon="-2.25566">
        <ele>13.199999809265</ele>
        <time>2022-02-20T09:09:12.000Z</time>
      </trkpt>
      <trkpt lat="47.25335" lon="-2.25563">
        <ele>12.800000190735</ele>
        <time>2022-02-20T09:09:13.000Z</time>
      </trkpt>
      <trkpt lat="47.25335" lon="-2.25561">
        <ele>12.39999961853</ele>
        <time>2022-02-20T09:09:14.000Z</time>
      </trkpt>
      <trkpt lat="47.25335" lon="-2.25558">
        <ele>12</ele>
        <time>2022-02-20T09:09:15.000Z</time>
      </trkpt>
      <trkpt lat="47.25333" lon="-2.25541">
        <ele>12</ele>
        <time>2022-02-20T09:09:21.000Z</time>
      </trkpt>
      <trkpt lat="47.25332" lon="-2.25532">
        <ele>11.60000038147</ele>
        <time>2022-02-20T09:09:25.000Z</time>
      </trkpt>
      <trkpt lat="47.25333" lon="-2.25531">
        <ele>11.199999809265</ele>
        <time>2022-02-20T09:09:26.000Z</time>
      </trkpt>
      <trkpt lat="47.25333" lon="-2.25529">
        <ele>10.800000190735</ele>
        <time>2022-02-20T09:09:27.000Z</time>
      </trkpt>
      <trkpt lat="47.25333" lon="-2.25526">
        <ele>10.39999961853</ele>
        <time>2022-02-20T09:09:28.000Z</time>
      </trkpt>
      <trkpt lat="47.25333" lon="-2.25524">
        <ele>10</ele>
        <time>2022-02-20T09:09:29.000Z</time>
      </trkpt>
      <trkpt lat="47.25332" lon="-2.25499">
        <ele>10</ele>
        <time>2022-02-20T09:09:34.000Z</time>
      </trkpt>
      <trkpt lat="47.2533" lon="-2.25487">
        <ele>9.6000003814697</ele>
        <time>2022-02-20T09:09:36.000Z</time>
      </trkpt>
      <trkpt lat="47.25329" lon="-2.25482">
        <ele>9.1999998092651</ele>
        <time>2022-02-20T09:09:37.000Z</time>
      </trkpt>
      <trkpt lat="47.25329" lon="-2.25475">
        <ele>8.6000003814697</ele>
        <time>2022-02-20T09:09:38.000Z</time>
      </trkpt>
      <trkpt lat="47.25329" lon="-2.25468">
        <ele>7.8000001907349</ele>
        <time>2022-02-20T09:09:39.000Z</time>
      </trkpt>
      <trkpt lat="47.25328" lon="-2.25462">
        <ele>7.4000000953674</ele>
        <time>2022-02-20T09:09:40.000Z</time>
      </trkpt>
      <trkpt lat="47.25327" lon="-2.25457">
        <ele>7</ele>
        <time>2022-02-20T09:09:41.000Z</time>
      </trkpt>
      <trkpt lat="47.25327" lon="-2.25452">
        <ele>6.5999999046326</ele>
        <time>2022-02-20T09:09:42.000Z</time>
      </trkpt>
      <trkpt lat="47.25327" lon="-2.25448">
        <ele>6.1999998092651</ele>
        <time>2022-02-20T09:09:43.000Z</time>
      </trkpt>
      <trkpt lat="47.25328" lon="-2.25444">
        <ele>5.5999999046326</ele>
        <time>2022-02-20T09:09:44.000Z</time>
      </trkpt>
      <trkpt lat="47.2533" lon="-2.25439">
        <ele>5.1999998092651</ele>
        <time>2022-02-20T09:09:45.000Z</time>
      </trkpt>
      <trkpt lat="47.25332" lon="-2.25436">
        <ele>4.8000001907349</ele>
        <time>2022-02-20T09:09:46.000Z</time>
      </trkpt>
      <trkpt lat="47.25335" lon="-2.25435">
        <ele>4.4000000953674</ele>
        <time>2022-02-20T09:09:47.000Z</time>
      </trkpt>
      <trkpt lat="47.25339" lon="-2.25434">
        <ele>3.7999999523163</ele>
        <time>2022-02-20T09:09:48.000Z</time>
      </trkpt>
      <trkpt lat="47.2534" lon="-2.25435">
        <ele>3.2000000476837</ele>
        <time>2022-02-20T09:09:49.000Z</time>
      </trkpt>
      <trkpt lat="47.25341" lon="-2.25437">
        <ele>2.5999999046326</ele>
        <time>2022-02-20T09:09:50.000Z</time>
      </trkpt>
      <trkpt lat="47.25342" lon="-2.25439">
        <ele>2</ele>
        <time>2022-02-20T09:09:51.000Z</time>
      </trkpt>
      <trkpt lat="47.25343" lon="-2.25442">
        <ele>1.3999999761581</ele>
        <time>2022-02-20T09:09:52.000Z</time>
      </trkpt>
      <trkpt lat="47.25346" lon="-2.25452">
        <ele>1.3999999761581</ele>
        <time>2022-02-20T09:09:55.000Z</time>
      </trkpt>
      <trkpt lat="47.25349" lon="-2.25457">
        <ele>1.3999999761581</ele>
        <time>2022-02-20T09:09:57.000Z</time>
      </trkpt>
      <trkpt lat="47.25362" lon="-2.25471">
        <ele>1.3999999761581</ele>
        <time>2022-02-20T09:10:02.000Z</time>
      </trkpt>
      <trkpt lat="47.25378" lon="-2.25489">
        <ele>1.3999999761581</ele>
        <time>2022-02-20T09:10:08.000Z</time>
      </trkpt>
      <trkpt lat="47.25391" lon="-2.25497">
        <ele>1.3999999761581</ele>
        <time>2022-02-20T09:10:13.000Z</time>
      </trkpt>
      <trkpt lat="47.25401" lon="-2.25503">
        <ele>1.3999999761581</ele>
        <time>2022-02-20T09:10:19.000Z</time>
      </trkpt>
      <trkpt lat="47.25415" lon="-2.25511">
        <ele>1.3999999761581</ele>
        <time>2022-02-20T09:10:25.000Z</time>
      </trkpt>
      <trkpt lat="47.25421" lon="-2.25516">
        <ele>1.7999999523163</ele>
        <time>2022-02-20T09:10:29.000Z</time>
      </trkpt>
      <trkpt lat="47.25422" lon="-2.25517">
        <ele>2.2000000476837</ele>
        <time>2022-02-20T09:10:30.000Z</time>
      </trkpt>
      <trkpt lat="47.25423" lon="-2.25518">
        <ele>2.5999999046326</ele>
        <time>2022-02-20T09:10:31.000Z</time>
      </trkpt>
      <trkpt lat="47.25425" lon="-2.25519">
        <ele>3</ele>
        <time>2022-02-20T09:10:32.000Z</time>
      </trkpt>
      <trkpt lat="47.25426" lon="-2.25521">
        <ele>3.4000000953674</ele>
        <time>2022-02-20T09:10:33.000Z</time>
      </trkpt>
      <trkpt lat="47.25429" lon="-2.25528">
        <ele>3.4000000953674</ele>
        <time>2022-02-20T09:10:36.000Z</time>
      </trkpt>
      <trkpt lat="47.25429" lon="-2.2553">
        <ele>3.4000000953674</ele>
        <time>2022-02-20T09:10:38.000Z</time>
      </trkpt>
      <trkpt lat="47.25425" lon="-2.25537">
        <ele>3.4000000953674</ele>
        <time>2022-02-20T09:10:42.000Z</time>
      </trkpt>
      <trkpt lat="47.25423" lon="-2.25539">
        <ele>3.4000000953674</ele>
        <time>2022-02-20T09:10:43.000Z</time>
      </trkpt>
      <trkpt lat="47.2541" lon="-2.25553">
        <ele>3.4000000953674</ele>
        <time>2022-02-20T09:10:49.000Z</time>
      </trkpt>
      <trkpt lat="47.25404" lon="-2.25562">
        <ele>3</ele>
        <time>2022-02-20T09:10:53.000Z</time>
      </trkpt>
      <trkpt lat="47.25403" lon="-2.25565">
        <ele>2.2000000476837</ele>
        <time>2022-02-20T09:10:54.000Z</time>
      </trkpt>
      <trkpt lat="47.25402" lon="-2.25568">
        <ele>1.7999999523163</ele>
        <time>2022-02-20T09:10:55.000Z</time>
      </trkpt>
      <trkpt lat="47.25402" lon="-2.25572">
        <ele>1.3999999761581</ele>
        <time>2022-02-20T09:10:56.000Z</time>
      </trkpt>
      <trkpt lat="47.25402" lon="-2.25574">
        <ele>1.3999999761581</ele>
        <time>2022-02-20T09:10:59.000Z</time>
      </trkpt>
      <trkpt lat="47.25404" lon="-2.25574">
        <ele>1.3999999761581</ele>
        <time>2022-02-20T09:11:01.000Z</time>
      </trkpt>
      <trkpt lat="47.25407" lon="-2.25576">
        <ele>1.3999999761581</ele>
        <time>2022-02-20T09:11:02.000Z</time>
      </trkpt>
      <trkpt lat="47.25413" lon="-2.25584">
        <ele>1.3999999761581</ele>
        <time>2022-02-20T09:11:05.000Z</time>
      </trkpt>
      <trkpt lat="47.25415" lon="-2.25588">
        <ele>1.3999999761581</ele>
        <time>2022-02-20T09:11:07.000Z</time>
      </trkpt>
      <trkpt lat="47.25418" lon="-2.25594">
        <ele>1.7999999523163</ele>
        <time>2022-02-20T09:11:10.000Z</time>
      </trkpt>
      <trkpt lat="47.25419" lon="-2.25595">
        <ele>2.2000000476837</ele>
        <time>2022-02-20T09:11:11.000Z</time>
      </trkpt>
      <trkpt lat="47.2542" lon="-2.25597">
        <ele>2.7999999523163</ele>
        <time>2022-02-20T09:11:12.000Z</time>
      </trkpt>
      <trkpt lat="47.25421" lon="-2.25599">
        <ele>3.2000000476837</ele>
        <time>2022-02-20T09:11:13.000Z</time>
      </trkpt>
      <trkpt lat="47.25421" lon="-2.25599">
        <ele>3.5999999046326</ele>
        <time>2022-02-20T09:11:14.000Z</time>
      </trkpt>
      <trkpt lat="47.25423" lon="-2.25598">
        <ele>3.5999999046326</ele>
        <time>2022-02-20T09:11:16.000Z</time>
      </trkpt>
      <trkpt lat="47.25422" lon="-2.25596">
        <ele>3.5999999046326</ele>
        <time>2022-02-20T09:11:17.000Z</time>
      </trkpt>
      <trkpt lat="47.25428" lon="-2.2559">
        <ele>4</ele>
        <time>2022-02-20T09:11:21.000Z</time>
      </trkpt>
      <trkpt lat="47.2543" lon="-2.25592">
        <ele>4.4000000953674</ele>
        <time>2022-02-20T09:11:22.000Z</time>
      </trkpt>
      <trkpt lat="47.25431" lon="-2.25594">
        <ele>4.8000001907349</ele>
        <time>2022-02-20T09:11:23.000Z</time>
      </trkpt>
      <trkpt lat="47.25432" lon="-2.25594">
        <ele>5.1999998092651</ele>
        <time>2022-02-20T09:11:24.000Z</time>
      </trkpt>
      <trkpt lat="47.25434" lon="-2.25595">
        <ele>5.8000001907349</ele>
        <time>2022-02-20T09:11:25.000Z</time>
      </trkpt>
      <trkpt lat="47.25446" lon="-2.25605">
        <ele>5.8000001907349</ele>
        <time>2022-02-20T09:11:30.000Z</time>
      </trkpt>
      <trkpt lat="47.25444" lon="-2.25621">
        <ele>5.8000001907349</ele>
        <time>2022-02-20T09:11:35.000Z</time>
      </trkpt>
      <trkpt lat="47.25438" lon="-2.2563">
        <ele>5.8000001907349</ele>
        <time>2022-02-20T09:11:38.000Z</time>
      </trkpt>
      <trkpt lat="47.25432" lon="-2.25637">
        <ele>5.8000001907349</ele>
        <time>2022-02-20T09:11:40.000Z</time>
      </trkpt>
      <trkpt lat="47.25418" lon="-2.2565">
        <ele>5.8000001907349</ele>
        <time>2022-02-20T09:11:44.000Z</time>
      </trkpt>
      <trkpt lat="47.25415" lon="-2.25653">
        <ele>5.8000001907349</ele>
        <time>2022-02-20T09:11:45.000Z</time>
      </trkpt>
      <trkpt lat="47.25405" lon="-2.25663">
        <ele>5.1999998092651</ele>
        <time>2022-02-20T09:11:48.000Z</time>
      </trkpt>
      <trkpt lat="47.25402" lon="-2.25666">
        <ele>4.8000001907349</ele>
        <time>2022-02-20T09:11:49.000Z</time>
      </trkpt>
      <trkpt lat="47.25399" lon="-2.25669">
        <ele>4.4000000953674</ele>
        <time>2022-02-20T09:11:50.000Z</time>
      </trkpt>
      <trkpt lat="47.25397" lon="-2.25673">
        <ele>4</ele>
        <time>2022-02-20T09:11:51.000Z</time>
      </trkpt>
      <trkpt lat="47.25396" lon="-2.25677">
        <ele>3.5999999046326</ele>
        <time>2022-02-20T09:11:52.000Z</time>
      </trkpt>
      <trkpt lat="47.25395" lon="-2.25691">
        <ele>3.5999999046326</ele>
        <time>2022-02-20T09:11:55.000Z</time>
      </trkpt>
      <trkpt lat="47.25397" lon="-2.25693">
        <ele>3.5999999046326</ele>
        <time>2022-02-20T09:11:56.000Z</time>
      </trkpt>
      <trkpt lat="47.25406" lon="-2.25696">
        <ele>3.5999999046326</ele>
        <time>2022-02-20T09:11:59.000Z</time>
      </trkpt>
      <trkpt lat="47.2541" lon="-2.25696">
        <ele>3.5999999046326</ele>
        <time>2022-02-20T09:12:00.000Z</time>
      </trkpt>
      <trkpt lat="47.25423" lon="-2.25693">
        <ele>3.5999999046326</ele>
        <time>2022-02-20T09:12:04.000Z</time>
      </trkpt>
      <trkpt lat="47.2544" lon="-2.25692">
        <ele>3.5999999046326</ele>
        <time>2022-02-20T09:12:11.000Z</time>
      </trkpt>
      <trkpt lat="47.25444" lon="-2.25693">
        <ele>4</ele>
        <time>2022-02-20T09:12:13.000Z</time>
      </trkpt>
      <trkpt lat="47.25446" lon="-2.25694">
        <ele>4.4000000953674</ele>
        <time>2022-02-20T09:12:14.000Z</time>
      </trkpt>
      <trkpt lat="47.25447" lon="-2.25693">
        <ele>4.8000001907349</ele>
        <time>2022-02-20T09:12:15.000Z</time>
      </trkpt>
      <trkpt lat="47.25448" lon="-2.25694">
        <ele>5.1999998092651</ele>
        <time>2022-02-20T09:12:16.000Z</time>
      </trkpt>
      <trkpt lat="47.2545" lon="-2.25696">
        <ele>5.5999999046326</ele>
        <time>2022-02-20T09:12:17.000Z</time>
      </trkpt>
      <trkpt lat="47.25448" lon="-2.2571">
        <ele>5.5999999046326</ele>
        <time>2022-02-20T09:12:21.000Z</time>
      </trkpt>
      <trkpt lat="47.25448" lon="-2.25712">
        <ele>5.5999999046326</ele>
        <time>2022-02-20T09:12:22.000Z</time>
      </trkpt>
      <trkpt lat="47.25447" lon="-2.25718">
        <ele>6</ele>
        <time>2022-02-20T09:12:27.000Z</time>
      </trkpt>
      <trkpt lat="47.25446" lon="-2.25736">
        <ele>7.8000001907349</ele>
        <time>2022-02-20T09:12:37.000Z</time>
      </trkpt>
      <trkpt lat="47.25445" lon="-2.25755">
        <ele>7.8000001907349</ele>
        <time>2022-02-20T09:12:43.000Z</time>
      </trkpt>
      <trkpt lat="47.25444" lon="-2.25758">
        <ele>7.8000001907349</ele>
        <time>2022-02-20T09:12:44.000Z</time>
      </trkpt>
      <trkpt lat="47.25442" lon="-2.25781">
        <ele>7.8000001907349</ele>
        <time>2022-02-20T09:12:50.000Z</time>
      </trkpt>
      <trkpt lat="47.25442" lon="-2.25797">
        <ele>7.8000001907349</ele>
        <time>2022-02-20T09:12:56.000Z</time>
      </trkpt>
      <trkpt lat="47.25444" lon="-2.25818">
        <ele>7.8000001907349</ele>
        <time>2022-02-20T09:13:01.000Z</time>
      </trkpt>
      <trkpt lat="47.25446" lon="-2.25851">
        <ele>7.8000001907349</ele>
        <time>2022-02-20T09:13:07.000Z</time>
      </trkpt>
      <trkpt lat="47.25448" lon="-2.2588">
        <ele>7.8000001907349</ele>
        <time>2022-02-20T09:13:13.000Z</time>
      </trkpt>
      <trkpt lat="47.25447" lon="-2.25896">
        <ele>7.8000001907349</ele>
        <time>2022-02-20T09:13:19.000Z</time>
      </trkpt>
      <trkpt lat="47.25446" lon="-2.259">
        <ele>8.1999998092651</ele>
        <time>2022-02-20T09:13:20.000Z</time>
      </trkpt>
      <trkpt lat="47.25444" lon="-2.25904">
        <ele>8.6000003814697</ele>
        <time>2022-02-20T09:13:21.000Z</time>
      </trkpt>
      <trkpt lat="47.25443" lon="-2.25905">
        <ele>9.3999996185303</ele>
        <time>2022-02-20T09:13:22.000Z</time>
      </trkpt>
      <trkpt lat="47.25443" lon="-2.25908">
        <ele>9.8000001907349</ele>
        <time>2022-02-20T09:13:23.000Z</time>
      </trkpt>
      <trkpt lat="47.25437" lon="-2.25915">
        <ele>9.8000001907349</ele>
        <time>2022-02-20T09:13:24.000Z</time>
      </trkpt>
      <trkpt lat="47.25419" lon="-2.25939">
        <ele>9.8000001907349</ele>
        <time>2022-02-20T09:13:30.000Z</time>
      </trkpt>
      <trkpt lat="47.25418" lon="-2.25944">
        <ele>9.3999996185303</ele>
        <time>2022-02-20T09:13:31.000Z</time>
      </trkpt>
      <trkpt lat="47.25418" lon="-2.25948">
        <ele>9</ele>
        <time>2022-02-20T09:13:32.000Z</time>
      </trkpt>
      <trkpt lat="47.25417" lon="-2.25951">
        <ele>8.6000003814697</ele>
        <time>2022-02-20T09:13:33.000Z</time>
      </trkpt>
      <trkpt lat="47.25416" lon="-2.25955">
        <ele>8</ele>
        <time>2022-02-20T09:13:34.000Z</time>
      </trkpt>
      <trkpt lat="47.25413" lon="-2.2596">
        <ele>7.5999999046326</ele>
        <time>2022-02-20T09:13:35.000Z</time>
      </trkpt>
      <trkpt lat="47.25405" lon="-2.2598">
        <ele>7.5999999046326</ele>
        <time>2022-02-20T09:13:42.000Z</time>
      </trkpt>
      <trkpt lat="47.25399" lon="-2.25989">
        <ele>8</ele>
        <time>2022-02-20T09:13:45.000Z</time>
      </trkpt>
      <trkpt lat="47.25397" lon="-2.25991">
        <ele>8.3999996185303</ele>
        <time>2022-02-20T09:13:46.000Z</time>
      </trkpt>
      <trkpt lat="47.25396" lon="-2.25994">
        <ele>9.3999996185303</ele>
        <time>2022-02-20T09:13:47.000Z</time>
      </trkpt>
      <trkpt lat="47.25396" lon="-2.25997">
        <ele>9.8000001907349</ele>
        <time>2022-02-20T09:13:48.000Z</time>
      </trkpt>
      <trkpt lat="47.25395" lon="-2.26007">
        <ele>10.199999809265</ele>
        <time>2022-02-20T09:13:52.000Z</time>
      </trkpt>
      <trkpt lat="47.25395" lon="-2.26009">
        <ele>10.60000038147</ele>
        <time>2022-02-20T09:13:53.000Z</time>
      </trkpt>
      <trkpt lat="47.25395" lon="-2.26011">
        <ele>11.199999809265</ele>
        <time>2022-02-20T09:13:54.000Z</time>
      </trkpt>
      <trkpt lat="47.25395" lon="-2.26013">
        <ele>11.60000038147</ele>
        <time>2022-02-20T09:13:55.000Z</time>
      </trkpt>
      <trkpt lat="47.25394" lon="-2.26016">
        <ele>12</ele>
        <time>2022-02-20T09:13:56.000Z</time>
      </trkpt>
      <trkpt lat="47.25394" lon="-2.2602">
        <ele>12.39999961853</ele>
        <time>2022-02-20T09:13:58.000Z</time>
      </trkpt>
      <trkpt lat="47.25393" lon="-2.26022">
        <ele>13</ele>
        <time>2022-02-20T09:13:59.000Z</time>
      </trkpt>
      <trkpt lat="47.25393" lon="-2.26025">
        <ele>13.39999961853</ele>
        <time>2022-02-20T09:14:00.000Z</time>
      </trkpt>
      <trkpt lat="47.25393" lon="-2.26029">
        <ele>13.800000190735</ele>
        <time>2022-02-20T09:14:01.000Z</time>
      </trkpt>
      <trkpt lat="47.25393" lon="-2.26031">
        <ele>14.199999809265</ele>
        <time>2022-02-20T09:14:02.000Z</time>
      </trkpt>
      <trkpt lat="47.25392" lon="-2.26039">
        <ele>14.199999809265</ele>
        <time>2022-02-20T09:14:06.000Z</time>
      </trkpt>
      <trkpt lat="47.2539" lon="-2.26058">
        <ele>14.199999809265</ele>
        <time>2022-02-20T09:14:11.000Z</time>
      </trkpt>
      <trkpt lat="47.2539" lon="-2.26071">
        <ele>14.199999809265</ele>
        <time>2022-02-20T09:14:15.000Z</time>
      </trkpt>
      <trkpt lat="47.25392" lon="-2.26081">
        <ele>14.199999809265</ele>
        <time>2022-02-20T09:14:19.000Z</time>
      </trkpt>
      <trkpt lat="47.25395" lon="-2.26088">
        <ele>14.199999809265</ele>
        <time>2022-02-20T09:14:22.000Z</time>
      </trkpt>
      <trkpt lat="47.25394" lon="-2.26091">
        <ele>14.199999809265</ele>
        <time>2022-02-20T09:14:23.000Z</time>
      </trkpt>
      <trkpt lat="47.25394" lon="-2.26094">
        <ele>14.199999809265</ele>
        <time>2022-02-20T09:14:24.000Z</time>
      </trkpt>
      <trkpt lat="47.25392" lon="-2.26104">
        <ele>14.199999809265</ele>
        <time>2022-02-20T09:14:27.000Z</time>
      </trkpt>
      <trkpt lat="47.2539" lon="-2.26107">
        <ele>14.199999809265</ele>
        <time>2022-02-20T09:14:29.000Z</time>
      </trkpt>
      <trkpt lat="47.25388" lon="-2.26109">
        <ele>14.60000038147</ele>
        <time>2022-02-20T09:14:31.000Z</time>
      </trkpt>
      <trkpt lat="47.25387" lon="-2.26111">
        <ele>15.199999809265</ele>
        <time>2022-02-20T09:14:32.000Z</time>
      </trkpt>
      <trkpt lat="47.25387" lon="-2.26113">
        <ele>15.60000038147</ele>
        <time>2022-02-20T09:14:33.000Z</time>
      </trkpt>
      <trkpt lat="47.25387" lon="-2.26115">
        <ele>16</ele>
        <time>2022-02-20T09:14:34.000Z</time>
      </trkpt>
      <trkpt lat="47.25387" lon="-2.26119">
        <ele>16.39999961853</ele>
        <time>2022-02-20T09:14:35.000Z</time>
      </trkpt>
      <trkpt lat="47.25386" lon="-2.26122">
        <ele>16.39999961853</ele>
        <time>2022-02-20T09:14:36.000Z</time>
      </trkpt>
      <trkpt lat="47.25382" lon="-2.26139">
        <ele>16.799999237061</ele>
        <time>2022-02-20T09:14:41.000Z</time>
      </trkpt>
      <trkpt lat="47.25381" lon="-2.26142">
        <ele>17.200000762939</ele>
        <time>2022-02-20T09:14:42.000Z</time>
      </trkpt>
      <trkpt lat="47.25379" lon="-2.26146">
        <ele>17.799999237061</ele>
        <time>2022-02-20T09:14:43.000Z</time>
      </trkpt>
      <trkpt lat="47.25378" lon="-2.26149">
        <ele>18.200000762939</ele>
        <time>2022-02-20T09:14:44.000Z</time>
      </trkpt>
      <trkpt lat="47.25378" lon="-2.26153">
        <ele>18.60000038147</ele>
        <time>2022-02-20T09:14:45.000Z</time>
      </trkpt>
      <trkpt lat="47.25376" lon="-2.26163">
        <ele>18.60000038147</ele>
        <time>2022-02-20T09:14:48.000Z</time>
      </trkpt>
      <trkpt lat="47.25376" lon="-2.26169">
        <ele>19</ele>
        <time>2022-02-20T09:14:50.000Z</time>
      </trkpt>
      <trkpt lat="47.25376" lon="-2.26172">
        <ele>19.39999961853</ele>
        <time>2022-02-20T09:14:51.000Z</time>
      </trkpt>
      <trkpt lat="47.25377" lon="-2.26176">
        <ele>19.799999237061</ele>
        <time>2022-02-20T09:14:52.000Z</time>
      </trkpt>
      <trkpt lat="47.25378" lon="-2.26179">
        <ele>20.200000762939</ele>
        <time>2022-02-20T09:14:53.000Z</time>
      </trkpt>
      <trkpt lat="47.25379" lon="-2.26182">
        <ele>20.60000038147</ele>
        <time>2022-02-20T09:14:54.000Z</time>
      </trkpt>
      <trkpt lat="47.2538" lon="-2.26185">
        <ele>20.60000038147</ele>
        <time>2022-02-20T09:14:55.000Z</time>
      </trkpt>
      <trkpt lat="47.25388" lon="-2.26204">
        <ele>20.60000038147</ele>
        <time>2022-02-20T09:14:59.000Z</time>
      </trkpt>
      <trkpt lat="47.25402" lon="-2.26235">
        <ele>20.60000038147</ele>
        <time>2022-02-20T09:15:04.000Z</time>
      </trkpt>
      <trkpt lat="47.25404" lon="-2.26245">
        <ele>21.200000762939</ele>
        <time>2022-02-20T09:15:07.000Z</time>
      </trkpt>
      <trkpt lat="47.25405" lon="-2.26246">
        <ele>21.60000038147</ele>
        <time>2022-02-20T09:15:08.000Z</time>
      </trkpt>
      <trkpt lat="47.25405" lon="-2.26248">
        <ele>22</ele>
        <time>2022-02-20T09:15:09.000Z</time>
      </trkpt>
      <trkpt lat="47.25405" lon="-2.26251">
        <ele>22.39999961853</ele>
        <time>2022-02-20T09:15:10.000Z</time>
      </trkpt>
      <trkpt lat="47.25405" lon="-2.26254">
        <ele>23</ele>
        <time>2022-02-20T09:15:11.000Z</time>
      </trkpt>
      <trkpt lat="47.25407" lon="-2.26276">
        <ele>23</ele>
        <time>2022-02-20T09:15:16.000Z</time>
      </trkpt>
      <trkpt lat="47.25411" lon="-2.26294">
        <ele>23</ele>
        <time>2022-02-20T09:15:21.000Z</time>
      </trkpt>
      <trkpt lat="47.25417" lon="-2.26312">
        <ele>23</ele>
        <time>2022-02-20T09:15:25.000Z</time>
      </trkpt>
      <trkpt lat="47.25421" lon="-2.26336">
        <ele>23</ele>
        <time>2022-02-20T09:15:30.000Z</time>
      </trkpt>
      <trkpt lat="47.25426" lon="-2.26355">
        <ele>23</ele>
        <time>2022-02-20T09:15:33.000Z</time>
      </trkpt>
      <trkpt lat="47.2543" lon="-2.26369">
        <ele>22.60000038147</ele>
        <time>2022-02-20T09:15:35.000Z</time>
      </trkpt>
      <trkpt lat="47.25432" lon="-2.26377">
        <ele>22</ele>
        <time>2022-02-20T09:15:36.000Z</time>
      </trkpt>
      <trkpt lat="47.25434" lon="-2.26387">
        <ele>21.60000038147</ele>
        <time>2022-02-20T09:15:37.000Z</time>
      </trkpt>
      <trkpt lat="47.25435" lon="-2.26395">
        <ele>21.200000762939</ele>
        <time>2022-02-20T09:15:38.000Z</time>
      </trkpt>
      <trkpt lat="47.25436" lon="-2.26401">
        <ele>20.799999237061</ele>
        <time>2022-02-20T09:15:39.000Z</time>
      </trkpt>
      <trkpt lat="47.25436" lon="-2.26414">
        <ele>20.799999237061</ele>
        <time>2022-02-20T09:15:41.000Z</time>
      </trkpt>
      <trkpt lat="47.25431" lon="-2.26446">
        <ele>20.799999237061</ele>
        <time>2022-02-20T09:15:46.000Z</time>
      </trkpt>
      <trkpt lat="47.2543" lon="-2.26475">
        <ele>21.200000762939</ele>
        <time>2022-02-20T09:15:51.000Z</time>
      </trkpt>
      <trkpt lat="47.25429" lon="-2.2648">
        <ele>21.60000038147</ele>
        <time>2022-02-20T09:15:52.000Z</time>
      </trkpt>
      <trkpt lat="47.25428" lon="-2.26484">
        <ele>22</ele>
        <time>2022-02-20T09:15:53.000Z</time>
      </trkpt>
      <trkpt lat="47.25428" lon="-2.26488">
        <ele>22.39999961853</ele>
        <time>2022-02-20T09:15:54.000Z</time>
      </trkpt>
      <trkpt lat="47.25427" lon="-2.26492">
        <ele>23</ele>
        <time>2022-02-20T09:15:55.000Z</time>
      </trkpt>
      <trkpt lat="47.25427" lon="-2.26503">
        <ele>23.39999961853</ele>
        <time>2022-02-20T09:15:58.000Z</time>
      </trkpt>
      <trkpt lat="47.25427" lon="-2.26506">
        <ele>23.799999237061</ele>
        <time>2022-02-20T09:15:59.000Z</time>
      </trkpt>
      <trkpt lat="47.25427" lon="-2.26511">
        <ele>24.200000762939</ele>
        <time>2022-02-20T09:16:00.000Z</time>
      </trkpt>
      <trkpt lat="47.25427" lon="-2.26516">
        <ele>24.799999237061</ele>
        <time>2022-02-20T09:16:01.000Z</time>
      </trkpt>
      <trkpt lat="47.25426" lon="-2.26522">
        <ele>25.200000762939</ele>
        <time>2022-02-20T09:16:02.000Z</time>
      </trkpt>
      <trkpt lat="47.25425" lon="-2.26537">
        <ele>25.200000762939</ele>
        <time>2022-02-20T09:16:05.000Z</time>
      </trkpt>
      <trkpt lat="47.2543" lon="-2.26559">
        <ele>25.200000762939</ele>
        <time>2022-02-20T09:16:09.000Z</time>
      </trkpt>
      <trkpt lat="47.2544" lon="-2.26587">
        <ele>25.200000762939</ele>
        <time>2022-02-20T09:16:14.000Z</time>
      </trkpt>
      <trkpt lat="47.25442" lon="-2.26594">
        <ele>25.200000762939</ele>
        <time>2022-02-20T09:16:15.000Z</time>
      </trkpt>
      <trkpt lat="47.25444" lon="-2.26603">
        <ele>25.60000038147</ele>
        <time>2022-02-20T09:16:17.000Z</time>
      </trkpt>
      <trkpt lat="47.25445" lon="-2.26608">
        <ele>26</ele>
        <time>2022-02-20T09:16:18.000Z</time>
      </trkpt>
      <trkpt lat="47.25446" lon="-2.26612">
        <ele>26.39999961853</ele>
        <time>2022-02-20T09:16:19.000Z</time>
      </trkpt>
      <trkpt lat="47.25446" lon="-2.26617">
        <ele>27</ele>
        <time>2022-02-20T09:16:20.000Z</time>
      </trkpt>
      <trkpt lat="47.25445" lon="-2.26622">
        <ele>27.39999961853</ele>
        <time>2022-02-20T09:16:21.000Z</time>
      </trkpt>
      <trkpt lat="47.25447" lon="-2.26639">
        <ele>27.39999961853</ele>
        <time>2022-02-20T09:16:25.000Z</time>
      </trkpt>
      <trkpt lat="47.25452" lon="-2.26656">
        <ele>27.799999237061</ele>
        <time>2022-02-20T09:16:29.000Z</time>
      </trkpt>
      <trkpt lat="47.25454" lon="-2.2666">
        <ele>28.200000762939</ele>
        <time>2022-02-20T09:16:30.000Z</time>
      </trkpt>
      <trkpt lat="47.25455" lon="-2.26664">
        <ele>28.60000038147</ele>
        <time>2022-02-20T09:16:31.000Z</time>
      </trkpt>
      <trkpt lat="47.25457" lon="-2.26668">
        <ele>29</ele>
        <time>2022-02-20T09:16:32.000Z</time>
      </trkpt>
      <trkpt lat="47.2546" lon="-2.26672">
        <ele>29.39999961853</ele>
        <time>2022-02-20T09:16:33.000Z</time>
      </trkpt>
      <trkpt lat="47.25468" lon="-2.26685">
        <ele>29.39999961853</ele>
        <time>2022-02-20T09:16:36.000Z</time>
      </trkpt>
      <trkpt lat="47.25472" lon="-2.2669">
        <ele>29.39999961853</ele>
        <time>2022-02-20T09:16:37.000Z</time>
      </trkpt>
      <trkpt lat="47.25478" lon="-2.26712">
        <ele>29.39999961853</ele>
        <time>2022-02-20T09:16:42.000Z</time>
      </trkpt>
      <trkpt lat="47.25471" lon="-2.26725">
        <ele>29.39999961853</ele>
        <time>2022-02-20T09:16:46.000Z</time>
      </trkpt>
      <trkpt lat="47.25456" lon="-2.26747">
        <ele>29.39999961853</ele>
        <time>2022-02-20T09:16:52.000Z</time>
      </trkpt>
      <trkpt lat="47.25453" lon="-2.26747">
        <ele>29.39999961853</ele>
        <time>2022-02-20T09:16:53.000Z</time>
      </trkpt>
      <trkpt lat="47.2545" lon="-2.26748">
        <ele>29.39999961853</ele>
        <time>2022-02-20T09:16:55.000Z</time>
      </trkpt>
      <trkpt lat="47.25449" lon="-2.26747">
        <ele>29.39999961853</ele>
        <time>2022-02-20T09:16:56.000Z</time>
      </trkpt>
      <trkpt lat="47.25449" lon="-2.26747">
        <ele>29.799999237061</ele>
        <time>2022-02-20T09:16:57.000Z</time>
      </trkpt>
      <trkpt lat="47.25448" lon="-2.26747">
        <ele>30.200000762939</ele>
        <time>2022-02-20T09:16:58.000Z</time>
      </trkpt>
      <trkpt lat="47.25447" lon="-2.26746">
        <ele>30.60000038147</ele>
        <time>2022-02-20T09:16:59.000Z</time>
      </trkpt>
      <trkpt lat="47.25447" lon="-2.26747">
        <ele>31</ele>
        <time>2022-02-20T09:17:00.000Z</time>
      </trkpt>
      <trkpt lat="47.25445" lon="-2.26746">
        <ele>31.39999961853</ele>
        <time>2022-02-20T09:17:44.000Z</time>
      </trkpt>
      <trkpt lat="47.25439" lon="-2.26745">
        <ele>31.39999961853</ele>
        <time>2022-02-20T09:17:46.000Z</time>
      </trkpt>
      <trkpt lat="47.25416" lon="-2.26738">
        <ele>31.39999961853</ele>
        <time>2022-02-20T09:17:53.000Z</time>
      </trkpt>
      <trkpt lat="47.25388" lon="-2.26735">
        <ele>31.39999961853</ele>
        <time>2022-02-20T09:18:01.000Z</time>
      </trkpt>
      <trkpt lat="47.25365" lon="-2.26733">
        <ele>31.39999961853</ele>
        <time>2022-02-20T09:18:07.000Z</time>
      </trkpt>
      <trkpt lat="47.25354" lon="-2.26731">
        <ele>32</ele>
        <time>2022-02-20T09:18:10.000Z</time>
      </trkpt>
      <trkpt lat="47.2535" lon="-2.2673">
        <ele>32.400001525879</ele>
        <time>2022-02-20T09:18:11.000Z</time>
      </trkpt>
      <trkpt lat="47.25346" lon="-2.2673">
        <ele>32.799999237061</ele>
        <time>2022-02-20T09:18:12.000Z</time>
      </trkpt>
      <trkpt lat="47.25343" lon="-2.26728">
        <ele>33.200000762939</ele>
        <time>2022-02-20T09:18:13.000Z</time>
      </trkpt>
      <trkpt lat="47.25339" lon="-2.26728">
        <ele>33.599998474121</ele>
        <time>2022-02-20T09:18:14.000Z</time>
      </trkpt>
      <trkpt lat="47.25335" lon="-2.26726">
        <ele>33.599998474121</ele>
        <time>2022-02-20T09:18:15.000Z</time>
      </trkpt>
      <trkpt lat="47.25326" lon="-2.26723">
        <ele>33.599998474121</ele>
        <time>2022-02-20T09:18:17.000Z</time>
      </trkpt>
      <trkpt lat="47.25313" lon="-2.26721">
        <ele>33.599998474121</ele>
        <time>2022-02-20T09:18:20.000Z</time>
      </trkpt>
      <trkpt lat="47.25275" lon="-2.26722">
        <ele>33.599998474121</ele>
        <time>2022-02-20T09:18:28.000Z</time>
      </trkpt>
      <trkpt lat="47.25266" lon="-2.26725">
        <ele>33.599998474121</ele>
        <time>2022-02-20T09:18:30.000Z</time>
      </trkpt>
      <trkpt lat="47.25249" lon="-2.26734">
        <ele>33.599998474121</ele>
        <time>2022-02-20T09:18:34.000Z</time>
      </trkpt>
      <trkpt lat="47.25226" lon="-2.26754">
        <ele>33.599998474121</ele>
        <time>2022-02-20T09:18:40.000Z</time>
      </trkpt>
      <trkpt lat="47.25204" lon="-2.26772">
        <ele>33.599998474121</ele>
        <time>2022-02-20T09:18:46.000Z</time>
      </trkpt>
      <trkpt lat="47.25184" lon="-2.26785">
        <ele>33.599998474121</ele>
        <time>2022-02-20T09:18:51.000Z</time>
      </trkpt>
      <trkpt lat="47.25172" lon="-2.26802">
        <ele>33.599998474121</ele>
        <time>2022-02-20T09:18:55.000Z</time>
      </trkpt>
      <trkpt lat="47.2517" lon="-2.26806">
        <ele>33.599998474121</ele>
        <time>2022-02-20T09:18:56.000Z</time>
      </trkpt>
      <trkpt lat="47.25164" lon="-2.26826">
        <ele>33.599998474121</ele>
        <time>2022-02-20T09:19:00.000Z</time>
      </trkpt>
      <trkpt lat="47.2516" lon="-2.26843">
        <ele>34</ele>
        <time>2022-02-20T09:19:03.000Z</time>
      </trkpt>
      <trkpt lat="47.25158" lon="-2.26848">
        <ele>34.400001525879</ele>
        <time>2022-02-20T09:19:04.000Z</time>
      </trkpt>
      <trkpt lat="47.25156" lon="-2.26853">
        <ele>34.799999237061</ele>
        <time>2022-02-20T09:19:05.000Z</time>
      </trkpt>
      <trkpt lat="47.25153" lon="-2.26858">
        <ele>35.200000762939</ele>
        <time>2022-02-20T09:19:06.000Z</time>
      </trkpt>
      <trkpt lat="47.25152" lon="-2.26864">
        <ele>35.599998474121</ele>
        <time>2022-02-20T09:19:07.000Z</time>
      </trkpt>
      <trkpt lat="47.2515" lon="-2.26883">
        <ele>35.599998474121</ele>
        <time>2022-02-20T09:19:10.000Z</time>
      </trkpt>
      <trkpt lat="47.2515" lon="-2.26889">
        <ele>35.599998474121</ele>
        <time>2022-02-20T09:19:11.000Z</time>
      </trkpt>
      <trkpt lat="47.25151" lon="-2.26901">
        <ele>35.599998474121</ele>
        <time>2022-02-20T09:19:13.000Z</time>
      </trkpt>
      <trkpt lat="47.25149" lon="-2.26919">
        <ele>35.599998474121</ele>
        <time>2022-02-20T09:19:16.000Z</time>
      </trkpt>
      <trkpt lat="47.25153" lon="-2.2695">
        <ele>35.599998474121</ele>
        <time>2022-02-20T09:19:22.000Z</time>
      </trkpt>
      <trkpt lat="47.25162" lon="-2.26968">
        <ele>35.599998474121</ele>
        <time>2022-02-20T09:19:28.000Z</time>
      </trkpt>
      <trkpt lat="47.2517" lon="-2.26974">
        <ele>35.599998474121</ele>
        <time>2022-02-20T09:19:33.000Z</time>
      </trkpt>
      <trkpt lat="47.25171" lon="-2.26974">
        <ele>35.599998474121</ele>
        <time>2022-02-20T09:19:34.000Z</time>
      </trkpt>
      <trkpt lat="47.25177" lon="-2.26981">
        <ele>35.599998474121</ele>
        <time>2022-02-20T09:19:37.000Z</time>
      </trkpt>
      <trkpt lat="47.25178" lon="-2.26997">
        <ele>35.599998474121</ele>
        <time>2022-02-20T09:19:40.000Z</time>
      </trkpt>
      <trkpt lat="47.25179" lon="-2.27004">
        <ele>35.599998474121</ele>
        <time>2022-02-20T09:19:41.000Z</time>
      </trkpt>
      <trkpt lat="47.2518" lon="-2.27009">
        <ele>35.599998474121</ele>
        <time>2022-02-20T09:19:42.000Z</time>
      </trkpt>
      <trkpt lat="47.25189" lon="-2.27025">
        <ele>35.599998474121</ele>
        <time>2022-02-20T09:19:45.000Z</time>
      </trkpt>
      <trkpt lat="47.25198" lon="-2.27041">
        <ele>35.599998474121</ele>
        <time>2022-02-20T09:19:48.000Z</time>
      </trkpt>
      <trkpt lat="47.25204" lon="-2.27054">
        <ele>35.599998474121</ele>
        <time>2022-02-20T09:19:50.000Z</time>
      </trkpt>
      <trkpt lat="47.25211" lon="-2.27066">
        <ele>35.200000762939</ele>
        <time>2022-02-20T09:19:52.000Z</time>
      </trkpt>
      <trkpt lat="47.25215" lon="-2.27073">
        <ele>34.599998474121</ele>
        <time>2022-02-20T09:19:53.000Z</time>
      </trkpt>
      <trkpt lat="47.25218" lon="-2.27079">
        <ele>34.200000762939</ele>
        <time>2022-02-20T09:19:54.000Z</time>
      </trkpt>
      <trkpt lat="47.25221" lon="-2.27085">
        <ele>33.799999237061</ele>
        <time>2022-02-20T09:19:55.000Z</time>
      </trkpt>
      <trkpt lat="47.25224" lon="-2.27091">
        <ele>33.400001525879</ele>
        <time>2022-02-20T09:19:56.000Z</time>
      </trkpt>
      <trkpt lat="47.2523" lon="-2.27103">
        <ele>33.400001525879</ele>
        <time>2022-02-20T09:19:58.000Z</time>
      </trkpt>
      <trkpt lat="47.25236" lon="-2.27114">
        <ele>33.400001525879</ele>
        <time>2022-02-20T09:20:00.000Z</time>
      </trkpt>
      <trkpt lat="47.25253" lon="-2.27141">
        <ele>33.400001525879</ele>
        <time>2022-02-20T09:20:05.000Z</time>
      </trkpt>
      <trkpt lat="47.25268" lon="-2.27162">
        <ele>33.400001525879</ele>
        <time>2022-02-20T09:20:10.000Z</time>
      </trkpt>
      <trkpt lat="47.25289" lon="-2.27199">
        <ele>33.400001525879</ele>
        <time>2022-02-20T09:20:18.000Z</time>
      </trkpt>
      <trkpt lat="47.25299" lon="-2.27228">
        <ele>33.400001525879</ele>
        <time>2022-02-20T09:20:23.000Z</time>
      </trkpt>
      <trkpt lat="47.25305" lon="-2.27239">
        <ele>33.400001525879</ele>
        <time>2022-02-20T09:20:25.000Z</time>
      </trkpt>
      <trkpt lat="47.25316" lon="-2.27258">
        <ele>33.400001525879</ele>
        <time>2022-02-20T09:20:29.000Z</time>
      </trkpt>
      <trkpt lat="47.25323" lon="-2.27265">
        <ele>33.400001525879</ele>
        <time>2022-02-20T09:20:31.000Z</time>
      </trkpt>
      <trkpt lat="47.25332" lon="-2.27275">
        <ele>33.799999237061</ele>
        <time>2022-02-20T09:20:34.000Z</time>
      </trkpt>
      <trkpt lat="47.25334" lon="-2.27279">
        <ele>34.200000762939</ele>
        <time>2022-02-20T09:20:35.000Z</time>
      </trkpt>
      <trkpt lat="47.25336" lon="-2.27284">
        <ele>34.799999237061</ele>
        <time>2022-02-20T09:20:36.000Z</time>
      </trkpt>
      <trkpt lat="47.25339" lon="-2.2729">
        <ele>35.200000762939</ele>
        <time>2022-02-20T09:20:37.000Z</time>
      </trkpt>
      <trkpt lat="47.2534" lon="-2.27297">
        <ele>35.599998474121</ele>
        <time>2022-02-20T09:20:38.000Z</time>
      </trkpt>
      <trkpt lat="47.25346" lon="-2.27317">
        <ele>35.599998474121</ele>
        <time>2022-02-20T09:20:41.000Z</time>
      </trkpt>
      <trkpt lat="47.25349" lon="-2.27322">
        <ele>35.599998474121</ele>
        <time>2022-02-20T09:20:42.000Z</time>
      </trkpt>
      <trkpt lat="47.25361" lon="-2.27341">
        <ele>35.599998474121</ele>
        <time>2022-02-20T09:20:47.000Z</time>
      </trkpt>
      <trkpt lat="47.25369" lon="-2.27356">
        <ele>35.599998474121</ele>
        <time>2022-02-20T09:20:52.000Z</time>
      </trkpt>
      <trkpt lat="47.25385" lon="-2.27372">
        <ele>35.599998474121</ele>
        <time>2022-02-20T09:20:57.000Z</time>
      </trkpt>
      <trkpt lat="47.25392" lon="-2.27385">
        <ele>35.599998474121</ele>
        <time>2022-02-20T09:21:00.000Z</time>
      </trkpt>
      <trkpt lat="47.25394" lon="-2.27391">
        <ele>35.599998474121</ele>
        <time>2022-02-20T09:21:01.000Z</time>
      </trkpt>
      <trkpt lat="47.25407" lon="-2.27435">
        <ele>35.599998474121</ele>
        <time>2022-02-20T09:21:07.000Z</time>
      </trkpt>
      <trkpt lat="47.2542" lon="-2.27471">
        <ele>34.799999237061</ele>
        <time>2022-02-20T09:21:12.000Z</time>
      </trkpt>
      <trkpt lat="47.25422" lon="-2.27478">
        <ele>34.400001525879</ele>
        <time>2022-02-20T09:21:13.000Z</time>
      </trkpt>
      <trkpt lat="47.25425" lon="-2.27484">
        <ele>34</ele>
        <time>2022-02-20T09:21:14.000Z</time>
      </trkpt>
      <trkpt lat="47.25428" lon="-2.2749">
        <ele>33.599998474121</ele>
        <time>2022-02-20T09:21:15.000Z</time>
      </trkpt>
      <trkpt lat="47.25438" lon="-2.27503">
        <ele>33.599998474121</ele>
        <time>2022-02-20T09:21:18.000Z</time>
      </trkpt>
      <trkpt lat="47.25443" lon="-2.27512">
        <ele>33.599998474121</ele>
        <time>2022-02-20T09:21:21.000Z</time>
      </trkpt>
      <trkpt lat="47.25447" lon="-2.27525">
        <ele>33.599998474121</ele>
        <time>2022-02-20T09:21:25.000Z</time>
      </trkpt>
      <trkpt lat="47.25449" lon="-2.2753">
        <ele>33.599998474121</ele>
        <time>2022-02-20T09:21:26.000Z</time>
      </trkpt>
      <trkpt lat="47.25457" lon="-2.27557">
        <ele>33.599998474121</ele>
        <time>2022-02-20T09:21:31.000Z</time>
      </trkpt>
      <trkpt lat="47.25458" lon="-2.27563">
        <ele>33.599998474121</ele>
        <time>2022-02-20T09:21:32.000Z</time>
      </trkpt>
      <trkpt lat="47.25465" lon="-2.2759">
        <ele>33.599998474121</ele>
        <time>2022-02-20T09:21:37.000Z</time>
      </trkpt>
      <trkpt lat="47.25476" lon="-2.2761">
        <ele>33.599998474121</ele>
        <time>2022-02-20T09:21:42.000Z</time>
      </trkpt>
      <trkpt lat="47.25486" lon="-2.27634">
        <ele>33.599998474121</ele>
        <time>2022-02-20T09:21:47.000Z</time>
      </trkpt>
      <trkpt lat="47.25495" lon="-2.27682">
        <ele>33.599998474121</ele>
        <time>2022-02-20T09:21:54.000Z</time>
      </trkpt>
      <trkpt lat="47.25505" lon="-2.27728">
        <ele>33.599998474121</ele>
        <time>2022-02-20T09:22:00.000Z</time>
      </trkpt>
      <trkpt lat="47.25511" lon="-2.27748">
        <ele>33.599998474121</ele>
        <time>2022-02-20T09:22:03.000Z</time>
      </trkpt>
      <trkpt lat="47.25519" lon="-2.27766">
        <ele>33.599998474121</ele>
        <time>2022-02-20T09:22:06.000Z</time>
      </trkpt>
      <trkpt lat="47.25522" lon="-2.27771">
        <ele>33.599998474121</ele>
        <time>2022-02-20T09:22:07.000Z</time>
      </trkpt>
      <trkpt lat="47.25539" lon="-2.27797">
        <ele>34</ele>
        <time>2022-02-20T09:22:12.000Z</time>
      </trkpt>
      <trkpt lat="47.25542" lon="-2.27802">
        <ele>34.400001525879</ele>
        <time>2022-02-20T09:22:13.000Z</time>
      </trkpt>
      <trkpt lat="47.25546" lon="-2.27808">
        <ele>34.799999237061</ele>
        <time>2022-02-20T09:22:14.000Z</time>
      </trkpt>
      <trkpt lat="47.25549" lon="-2.27813">
        <ele>35.200000762939</ele>
        <time>2022-02-20T09:22:15.000Z</time>
      </trkpt>
      <trkpt lat="47.25553" lon="-2.27818">
        <ele>35.599998474121</ele>
        <time>2022-02-20T09:22:16.000Z</time>
      </trkpt>
      <trkpt lat="47.25563" lon="-2.27834">
        <ele>35.599998474121</ele>
        <time>2022-02-20T09:22:19.000Z</time>
      </trkpt>
      <trkpt lat="47.25588" lon="-2.27865">
        <ele>35.599998474121</ele>
        <time>2022-02-20T09:22:26.000Z</time>
      </trkpt>
      <trkpt lat="47.256" lon="-2.27879">
        <ele>36</ele>
        <time>2022-02-20T09:22:30.000Z</time>
      </trkpt>
      <trkpt lat="47.25604" lon="-2.27883">
        <ele>36.400001525879</ele>
        <time>2022-02-20T09:22:31.000Z</time>
      </trkpt>
      <trkpt lat="47.25608" lon="-2.27886">
        <ele>36.799999237061</ele>
        <time>2022-02-20T09:22:32.000Z</time>
      </trkpt>
      <trkpt lat="47.25611" lon="-2.27889">
        <ele>37.200000762939</ele>
        <time>2022-02-20T09:22:33.000Z</time>
      </trkpt>
      <trkpt lat="47.25615" lon="-2.27892">
        <ele>37.599998474121</ele>
        <time>2022-02-20T09:22:34.000Z</time>
      </trkpt>
      <trkpt lat="47.2564" lon="-2.27913">
        <ele>37.599998474121</ele>
        <time>2022-02-20T09:22:41.000Z</time>
      </trkpt>
      <trkpt lat="47.25643" lon="-2.27917">
        <ele>37.599998474121</ele>
        <time>2022-02-20T09:22:42.000Z</time>
      </trkpt>
      <trkpt lat="47.25655" lon="-2.27936">
        <ele>37.599998474121</ele>
        <time>2022-02-20T09:22:46.000Z</time>
      </trkpt>
      <trkpt lat="47.25675" lon="-2.27975">
        <ele>37.599998474121</ele>
        <time>2022-02-20T09:22:53.000Z</time>
      </trkpt>
      <trkpt lat="47.25693" lon="-2.27998">
        <ele>37.599998474121</ele>
        <time>2022-02-20T09:22:59.000Z</time>
      </trkpt>
      <trkpt lat="47.25703" lon="-2.2801">
        <ele>37.599998474121</ele>
        <time>2022-02-20T09:23:02.000Z</time>
      </trkpt>
      <trkpt lat="47.25714" lon="-2.28024">
        <ele>37.599998474121</ele>
        <time>2022-02-20T09:23:05.000Z</time>
      </trkpt>
      <trkpt lat="47.25725" lon="-2.28038">
        <ele>37.599998474121</ele>
        <time>2022-02-20T09:23:08.000Z</time>
      </trkpt>
      <trkpt lat="47.25737" lon="-2.28051">
        <ele>37.599998474121</ele>
        <time>2022-02-20T09:23:11.000Z</time>
      </trkpt>
      <trkpt lat="47.25742" lon="-2.28055">
        <ele>37.599998474121</ele>
        <time>2022-02-20T09:23:12.000Z</time>
      </trkpt>
      <trkpt lat="47.25769" lon="-2.28079">
        <ele>37.599998474121</ele>
        <time>2022-02-20T09:23:18.000Z</time>
      </trkpt>
      <trkpt lat="47.25778" lon="-2.28087">
        <ele>37.599998474121</ele>
        <time>2022-02-20T09:23:20.000Z</time>
      </trkpt>
      <trkpt lat="47.25798" lon="-2.28104">
        <ele>37.599998474121</ele>
        <time>2022-02-20T09:23:24.000Z</time>
      </trkpt>
      <trkpt lat="47.25803" lon="-2.28109">
        <ele>37.599998474121</ele>
        <time>2022-02-20T09:23:25.000Z</time>
      </trkpt>
      <trkpt lat="47.25827" lon="-2.28132">
        <ele>37.599998474121</ele>
        <time>2022-02-20T09:23:30.000Z</time>
      </trkpt>
      <trkpt lat="47.25836" lon="-2.28141">
        <ele>38.200000762939</ele>
        <time>2022-02-20T09:23:32.000Z</time>
      </trkpt>
      <trkpt lat="47.25841" lon="-2.28145">
        <ele>38.599998474121</ele>
        <time>2022-02-20T09:23:33.000Z</time>
      </trkpt>
      <trkpt lat="47.25846" lon="-2.2815">
        <ele>39</ele>
        <time>2022-02-20T09:23:34.000Z</time>
      </trkpt>
      <trkpt lat="47.2585" lon="-2.28154">
        <ele>39.400001525879</ele>
        <time>2022-02-20T09:23:35.000Z</time>
      </trkpt>
      <trkpt lat="47.25854" lon="-2.28158">
        <ele>39.799999237061</ele>
        <time>2022-02-20T09:23:36.000Z</time>
      </trkpt>
      <trkpt lat="47.25862" lon="-2.28167">
        <ele>39.799999237061</ele>
        <time>2022-02-20T09:23:38.000Z</time>
      </trkpt>
      <trkpt lat="47.25871" lon="-2.28174">
        <ele>39.799999237061</ele>
        <time>2022-02-20T09:23:40.000Z</time>
      </trkpt>
      <trkpt lat="47.25884" lon="-2.2818">
        <ele>39.799999237061</ele>
        <time>2022-02-20T09:23:43.000Z</time>
      </trkpt>
      <trkpt lat="47.25889" lon="-2.28181">
        <ele>39.799999237061</ele>
        <time>2022-02-20T09:23:44.000Z</time>
      </trkpt>
      <trkpt lat="47.25908" lon="-2.28184">
        <ele>39.799999237061</ele>
        <time>2022-02-20T09:23:48.000Z</time>
      </trkpt>
      <trkpt lat="47.25913" lon="-2.28184">
        <ele>39.799999237061</ele>
        <time>2022-02-20T09:23:49.000Z</time>
      </trkpt>
      <trkpt lat="47.25932" lon="-2.28176">
        <ele>39.799999237061</ele>
        <time>2022-02-20T09:23:53.000Z</time>
      </trkpt>
      <trkpt lat="47.25937" lon="-2.28175">
        <ele>39.799999237061</ele>
        <time>2022-02-20T09:23:54.000Z</time>
      </trkpt>
      <trkpt lat="47.25947" lon="-2.28177">
        <ele>39.799999237061</ele>
        <time>2022-02-20T09:23:56.000Z</time>
      </trkpt>
      <trkpt lat="47.25965" lon="-2.28193">
        <ele>39.799999237061</ele>
        <time>2022-02-20T09:24:00.000Z</time>
      </trkpt>
      <trkpt lat="47.25974" lon="-2.28221">
        <ele>39.799999237061</ele>
        <time>2022-02-20T09:24:04.000Z</time>
      </trkpt>
      <trkpt lat="47.25985" lon="-2.28234">
        <ele>39.799999237061</ele>
        <time>2022-02-20T09:24:07.000Z</time>
      </trkpt>
      <trkpt lat="47.26006" lon="-2.28242">
        <ele>39.799999237061</ele>
        <time>2022-02-20T09:24:11.000Z</time>
      </trkpt>
      <trkpt lat="47.26017" lon="-2.28248">
        <ele>39.799999237061</ele>
        <time>2022-02-20T09:24:13.000Z</time>
      </trkpt>
      <trkpt lat="47.26034" lon="-2.28259">
        <ele>39.799999237061</ele>
        <time>2022-02-20T09:24:16.000Z</time>
      </trkpt>
      <trkpt lat="47.26071" lon="-2.28289">
        <ele>39.799999237061</ele>
        <time>2022-02-20T09:24:23.000Z</time>
      </trkpt>
      <trkpt lat="47.26108" lon="-2.28324">
        <ele>38.799999237061</ele>
        <time>2022-02-20T09:24:30.000Z</time>
      </trkpt>
      <trkpt lat="47.26113" lon="-2.28329">
        <ele>38.400001525879</ele>
        <time>2022-02-20T09:24:31.000Z</time>
      </trkpt>
      <trkpt lat="47.26119" lon="-2.28334">
        <ele>38</ele>
        <time>2022-02-20T09:24:32.000Z</time>
      </trkpt>
      <trkpt lat="47.26124" lon="-2.28339">
        <ele>37.599998474121</ele>
        <time>2022-02-20T09:24:33.000Z</time>
      </trkpt>
      <trkpt lat="47.26162" lon="-2.28376">
        <ele>37.599998474121</ele>
        <time>2022-02-20T09:24:40.000Z</time>
      </trkpt>
      <trkpt lat="47.26193" lon="-2.28407">
        <ele>37.599998474121</ele>
        <time>2022-02-20T09:24:46.000Z</time>
      </trkpt>
      <trkpt lat="47.26231" lon="-2.28437">
        <ele>37.599998474121</ele>
        <time>2022-02-20T09:24:53.000Z</time>
      </trkpt>
      <trkpt lat="47.26242" lon="-2.28446">
        <ele>37.599998474121</ele>
        <time>2022-02-20T09:24:55.000Z</time>
      </trkpt>
      <trkpt lat="47.26257" lon="-2.28459">
        <ele>37.200000762939</ele>
        <time>2022-02-20T09:24:58.000Z</time>
      </trkpt>
      <trkpt lat="47.26262" lon="-2.28462">
        <ele>36.799999237061</ele>
        <time>2022-02-20T09:24:59.000Z</time>
      </trkpt>
      <trkpt lat="47.26268" lon="-2.28466">
        <ele>36.400001525879</ele>
        <time>2022-02-20T09:25:00.000Z</time>
      </trkpt>
      <trkpt lat="47.26273" lon="-2.28469">
        <ele>36</ele>
        <time>2022-02-20T09:25:01.000Z</time>
      </trkpt>
      <trkpt lat="47.26279" lon="-2.28473">
        <ele>35.599998474121</ele>
        <time>2022-02-20T09:25:02.000Z</time>
      </trkpt>
      <trkpt lat="47.26296" lon="-2.28484">
        <ele>35.599998474121</ele>
        <time>2022-02-20T09:25:05.000Z</time>
      </trkpt>
      <trkpt lat="47.26311" lon="-2.28494">
        <ele>35.599998474121</ele>
        <time>2022-02-20T09:25:08.000Z</time>
      </trkpt>
      <trkpt lat="47.2633" lon="-2.28511">
        <ele>35.599998474121</ele>
        <time>2022-02-20T09:25:12.000Z</time>
      </trkpt>
      <trkpt lat="47.26373" lon="-2.28541">
        <ele>35.599998474121</ele>
        <time>2022-02-20T09:25:20.000Z</time>
      </trkpt>
      <trkpt lat="47.26409" lon="-2.28567">
        <ele>35.599998474121</ele>
        <time>2022-02-20T09:25:27.000Z</time>
      </trkpt>
      <trkpt lat="47.26443" lon="-2.28585">
        <ele>35.200000762939</ele>
        <time>2022-02-20T09:25:34.000Z</time>
      </trkpt>
      <trkpt lat="47.26449" lon="-2.28587">
        <ele>34.599998474121</ele>
        <time>2022-02-20T09:25:35.000Z</time>
      </trkpt>
      <trkpt lat="47.26455" lon="-2.28589">
        <ele>34.200000762939</ele>
        <time>2022-02-20T09:25:36.000Z</time>
      </trkpt>
      <trkpt lat="47.2646" lon="-2.28591">
        <ele>33.799999237061</ele>
        <time>2022-02-20T09:25:37.000Z</time>
      </trkpt>
      <trkpt lat="47.26465" lon="-2.28593">
        <ele>33.400001525879</ele>
        <time>2022-02-20T09:25:38.000Z</time>
      </trkpt>
      <trkpt lat="47.26491" lon="-2.28608">
        <ele>33.400001525879</ele>
        <time>2022-02-20T09:25:43.000Z</time>
      </trkpt>
      <trkpt lat="47.26502" lon="-2.28616">
        <ele>33.400001525879</ele>
        <time>2022-02-20T09:25:45.000Z</time>
      </trkpt>
      <trkpt lat="47.26516" lon="-2.28631">
        <ele>33.400001525879</ele>
        <time>2022-02-20T09:25:48.000Z</time>
      </trkpt>
      <trkpt lat="47.26543" lon="-2.28668">
        <ele>33.400001525879</ele>
        <time>2022-02-20T09:25:54.000Z</time>
      </trkpt>
      <trkpt lat="47.26558" lon="-2.28685">
        <ele>33</ele>
        <time>2022-02-20T09:25:57.000Z</time>
      </trkpt>
      <trkpt lat="47.26564" lon="-2.2869">
        <ele>32.599998474121</ele>
        <time>2022-02-20T09:25:58.000Z</time>
      </trkpt>
      <trkpt lat="47.26569" lon="-2.28696">
        <ele>32.200000762939</ele>
        <time>2022-02-20T09:25:59.000Z</time>
      </trkpt>
      <trkpt lat="47.26573" lon="-2.28702">
        <ele>31.799999237061</ele>
        <time>2022-02-20T09:26:00.000Z</time>
      </trkpt>
      <trkpt lat="47.26578" lon="-2.28707">
        <ele>31.39999961853</ele>
        <time>2022-02-20T09:26:01.000Z</time>
      </trkpt>
      <trkpt lat="47.26587" lon="-2.28717">
        <ele>31.39999961853</ele>
        <time>2022-02-20T09:26:03.000Z</time>
      </trkpt>
      <trkpt lat="47.26596" lon="-2.28727">
        <ele>31.39999961853</ele>
        <time>2022-02-20T09:26:05.000Z</time>
      </trkpt>
      <trkpt lat="47.26609" lon="-2.28743">
        <ele>31.39999961853</ele>
        <time>2022-02-20T09:26:08.000Z</time>
      </trkpt>
      <trkpt lat="47.26618" lon="-2.28753">
        <ele>31</ele>
        <time>2022-02-20T09:26:10.000Z</time>
      </trkpt>
      <trkpt lat="47.26624" lon="-2.28758">
        <ele>30.60000038147</ele>
        <time>2022-02-20T09:26:11.000Z</time>
      </trkpt>
      <trkpt lat="47.26629" lon="-2.28762">
        <ele>30.200000762939</ele>
        <time>2022-02-20T09:26:12.000Z</time>
      </trkpt>
      <trkpt lat="47.26635" lon="-2.28767">
        <ele>29.799999237061</ele>
        <time>2022-02-20T09:26:13.000Z</time>
      </trkpt>
      <trkpt lat="47.26641" lon="-2.28772">
        <ele>29.39999961853</ele>
        <time>2022-02-20T09:26:14.000Z</time>
      </trkpt>
      <trkpt lat="47.26658" lon="-2.28786">
        <ele>29.39999961853</ele>
        <time>2022-02-20T09:26:17.000Z</time>
      </trkpt>
      <trkpt lat="47.26695" lon="-2.28824">
        <ele>29.39999961853</ele>
        <time>2022-02-20T09:26:24.000Z</time>
      </trkpt>
      <trkpt lat="47.26733" lon="-2.28858">
        <ele>29.39999961853</ele>
        <time>2022-02-20T09:26:31.000Z</time>
      </trkpt>
      <trkpt lat="47.26744" lon="-2.28867">
        <ele>29</ele>
        <time>2022-02-20T09:26:33.000Z</time>
      </trkpt>
      <trkpt lat="47.2675" lon="-2.28872">
        <ele>28.39999961853</ele>
        <time>2022-02-20T09:26:34.000Z</time>
      </trkpt>
      <trkpt lat="47.26755" lon="-2.28876">
        <ele>28</ele>
        <time>2022-02-20T09:26:35.000Z</time>
      </trkpt>
      <trkpt lat="47.2676" lon="-2.28882">
        <ele>27.60000038147</ele>
        <time>2022-02-20T09:26:36.000Z</time>
      </trkpt>
      <trkpt lat="47.26765" lon="-2.28887">
        <ele>27.200000762939</ele>
        <time>2022-02-20T09:26:37.000Z</time>
      </trkpt>
      <trkpt lat="47.26799" lon="-2.2891">
        <ele>27.200000762939</ele>
        <time>2022-02-20T09:26:43.000Z</time>
      </trkpt>
      <trkpt lat="47.26839" lon="-2.28933">
        <ele>27.200000762939</ele>
        <time>2022-02-20T09:26:50.000Z</time>
      </trkpt>
      <trkpt lat="47.26874" lon="-2.28953">
        <ele>27.200000762939</ele>
        <time>2022-02-20T09:26:56.000Z</time>
      </trkpt>
      <trkpt lat="47.26885" lon="-2.28958">
        <ele>26.39999961853</ele>
        <time>2022-02-20T09:26:58.000Z</time>
      </trkpt>
      <trkpt lat="47.26891" lon="-2.28961">
        <ele>26</ele>
        <time>2022-02-20T09:26:59.000Z</time>
      </trkpt>
      <trkpt lat="47.26896" lon="-2.28963">
        <ele>25.60000038147</ele>
        <time>2022-02-20T09:27:00.000Z</time>
      </trkpt>
      <trkpt lat="47.26901" lon="-2.28965">
        <ele>25.200000762939</ele>
        <time>2022-02-20T09:27:01.000Z</time>
      </trkpt>
      <trkpt lat="47.26911" lon="-2.28969">
        <ele>25.200000762939</ele>
        <time>2022-02-20T09:27:03.000Z</time>
      </trkpt>
      <trkpt lat="47.2692" lon="-2.28975">
        <ele>25.200000762939</ele>
        <time>2022-02-20T09:27:05.000Z</time>
      </trkpt>
      <trkpt lat="47.26938" lon="-2.28986">
        <ele>25.200000762939</ele>
        <time>2022-02-20T09:27:10.000Z</time>
      </trkpt>
      <trkpt lat="47.26948" lon="-2.28988">
        <ele>25.200000762939</ele>
        <time>2022-02-20T09:27:12.000Z</time>
      </trkpt>
      <trkpt lat="47.26963" lon="-2.28992">
        <ele>25.200000762939</ele>
        <time>2022-02-20T09:27:15.000Z</time>
      </trkpt>
      <trkpt lat="47.27" lon="-2.29003">
        <ele>25.200000762939</ele>
        <time>2022-02-20T09:27:22.000Z</time>
      </trkpt>
      <trkpt lat="47.27018" lon="-2.29007">
        <ele>25.200000762939</ele>
        <time>2022-02-20T09:27:26.000Z</time>
      </trkpt>
      <trkpt lat="47.27023" lon="-2.29008">
        <ele>25.200000762939</ele>
        <time>2022-02-20T09:27:27.000Z</time>
      </trkpt>
      <trkpt lat="47.2703" lon="-2.2901">
        <ele>25.200000762939</ele>
        <time>2022-02-20T09:27:30.000Z</time>
      </trkpt>
      <trkpt lat="47.27032" lon="-2.29011">
        <ele>25.200000762939</ele>
        <time>2022-02-20T09:27:32.000Z</time>
      </trkpt>
      <trkpt lat="47.27034" lon="-2.29012">
        <ele>23.200000762939</ele>
        <time>2022-02-20T09:27:40.000Z</time>
      </trkpt>
      <trkpt lat="47.27035" lon="-2.29013">
        <ele>23.200000762939</ele>
        <time>2022-02-20T09:27:41.000Z</time>
      </trkpt>
      <trkpt lat="47.27045" lon="-2.29025">
        <ele>23.200000762939</ele>
        <time>2022-02-20T09:27:46.000Z</time>
      </trkpt>
      <trkpt lat="47.27053" lon="-2.29046">
        <ele>23.200000762939</ele>
        <time>2022-02-20T09:27:50.000Z</time>
      </trkpt>
      <trkpt lat="47.27057" lon="-2.29049">
        <ele>23.200000762939</ele>
        <time>2022-02-20T09:27:51.000Z</time>
      </trkpt>
      <trkpt lat="47.27075" lon="-2.29057">
        <ele>23.200000762939</ele>
        <time>2022-02-20T09:27:55.000Z</time>
      </trkpt>
      <trkpt lat="47.27111" lon="-2.29075">
        <ele>23.200000762939</ele>
        <time>2022-02-20T09:28:02.000Z</time>
      </trkpt>
      <trkpt lat="47.27123" lon="-2.2908">
        <ele>23.200000762939</ele>
        <time>2022-02-20T09:28:04.000Z</time>
      </trkpt>
      <trkpt lat="47.27134" lon="-2.29086">
        <ele>23.200000762939</ele>
        <time>2022-02-20T09:28:06.000Z</time>
      </trkpt>
      <trkpt lat="47.27162" lon="-2.29101">
        <ele>23.200000762939</ele>
        <time>2022-02-20T09:28:12.000Z</time>
      </trkpt>
      <trkpt lat="47.27184" lon="-2.2911">
        <ele>23.200000762939</ele>
        <time>2022-02-20T09:28:17.000Z</time>
      </trkpt>
      <trkpt lat="47.27189" lon="-2.29109">
        <ele>23.200000762939</ele>
        <time>2022-02-20T09:28:18.000Z</time>
      </trkpt>
      <trkpt lat="47.27202" lon="-2.29097">
        <ele>23.200000762939</ele>
        <time>2022-02-20T09:28:21.000Z</time>
      </trkpt>
      <trkpt lat="47.27213" lon="-2.29085">
        <ele>23.200000762939</ele>
        <time>2022-02-20T09:28:24.000Z</time>
      </trkpt>
      <trkpt lat="47.27221" lon="-2.29076">
        <ele>23.200000762939</ele>
        <time>2022-02-20T09:28:26.000Z</time>
      </trkpt>
      <trkpt lat="47.27228" lon="-2.29068">
        <ele>23.200000762939</ele>
        <time>2022-02-20T09:28:28.000Z</time>
      </trkpt>
      <trkpt lat="47.27242" lon="-2.29058">
        <ele>23.200000762939</ele>
        <time>2022-02-20T09:28:31.000Z</time>
      </trkpt>
      <trkpt lat="47.27254" lon="-2.29044">
        <ele>23.200000762939</ele>
        <time>2022-02-20T09:28:34.000Z</time>
      </trkpt>
      <trkpt lat="47.27257" lon="-2.29039">
        <ele>23.200000762939</ele>
        <time>2022-02-20T09:28:35.000Z</time>
      </trkpt>
      <trkpt lat="47.27265" lon="-2.29027">
        <ele>23.200000762939</ele>
        <time>2022-02-20T09:28:37.000Z</time>
      </trkpt>
      <trkpt lat="47.27271" lon="-2.29013">
        <ele>23.200000762939</ele>
        <time>2022-02-20T09:28:39.000Z</time>
      </trkpt>
      <trkpt lat="47.27276" lon="-2.29002">
        <ele>23.200000762939</ele>
        <time>2022-02-20T09:28:41.000Z</time>
      </trkpt>
      <trkpt lat="47.27282" lon="-2.28991">
        <ele>23.200000762939</ele>
        <time>2022-02-20T09:28:43.000Z</time>
      </trkpt>
      <trkpt lat="47.27293" lon="-2.28975">
        <ele>22.799999237061</ele>
        <time>2022-02-20T09:28:47.000Z</time>
      </trkpt>
      <trkpt lat="47.27294" lon="-2.28973">
        <ele>22.39999961853</ele>
        <time>2022-02-20T09:28:48.000Z</time>
      </trkpt>
      <trkpt lat="47.27296" lon="-2.28971">
        <ele>22</ele>
        <time>2022-02-20T09:28:49.000Z</time>
      </trkpt>
      <trkpt lat="47.27298" lon="-2.28968">
        <ele>21.60000038147</ele>
        <time>2022-02-20T09:28:50.000Z</time>
      </trkpt>
      <trkpt lat="47.27299" lon="-2.28965">
        <ele>21</ele>
        <time>2022-02-20T09:28:51.000Z</time>
      </trkpt>
      <trkpt lat="47.27301" lon="-2.28958">
        <ele>21</ele>
        <time>2022-02-20T09:28:53.000Z</time>
      </trkpt>
      <trkpt lat="47.27306" lon="-2.28951">
        <ele>21</ele>
        <time>2022-02-20T09:28:55.000Z</time>
      </trkpt>
      <trkpt lat="47.27313" lon="-2.2895">
        <ele>21</ele>
        <time>2022-02-20T09:28:57.000Z</time>
      </trkpt>
      <trkpt lat="47.27324" lon="-2.28957">
        <ele>21</ele>
        <time>2022-02-20T09:29:00.000Z</time>
      </trkpt>
      <trkpt lat="47.27328" lon="-2.28957">
        <ele>21</ele>
        <time>2022-02-20T09:29:01.000Z</time>
      </trkpt>
      <trkpt lat="47.27335" lon="-2.28945">
        <ele>21</ele>
        <time>2022-02-20T09:29:04.000Z</time>
      </trkpt>
      <trkpt lat="47.27343" lon="-2.28912">
        <ele>21</ele>
        <time>2022-02-20T09:29:09.000Z</time>
      </trkpt>
      <trkpt lat="47.27345" lon="-2.2889">
        <ele>21</ele>
        <time>2022-02-20T09:29:12.000Z</time>
      </trkpt>
      <trkpt lat="47.27347" lon="-2.28865">
        <ele>21</ele>
        <time>2022-02-20T09:29:16.000Z</time>
      </trkpt>
      <trkpt lat="47.27348" lon="-2.28859">
        <ele>21</ele>
        <time>2022-02-20T09:29:17.000Z</time>
      </trkpt>
      <trkpt lat="47.27355" lon="-2.28837">
        <ele>21</ele>
        <time>2022-02-20T09:29:20.000Z</time>
      </trkpt>
      <trkpt lat="47.27357" lon="-2.28829">
        <ele>21</ele>
        <time>2022-02-20T09:29:21.000Z</time>
      </trkpt>
      <trkpt lat="47.2736" lon="-2.2882">
        <ele>21</ele>
        <time>2022-02-20T09:29:22.000Z</time>
      </trkpt>
      <trkpt lat="47.2737" lon="-2.28799">
        <ele>21</ele>
        <time>2022-02-20T09:29:25.000Z</time>
      </trkpt>
      <trkpt lat="47.27389" lon="-2.28756">
        <ele>21</ele>
        <time>2022-02-20T09:29:31.000Z</time>
      </trkpt>
      <trkpt lat="47.27392" lon="-2.28748">
        <ele>21</ele>
        <time>2022-02-20T09:29:32.000Z</time>
      </trkpt>
      <trkpt lat="47.27397" lon="-2.28735">
        <ele>21</ele>
        <time>2022-02-20T09:29:34.000Z</time>
      </trkpt>
      <trkpt lat="47.27404" lon="-2.2872">
        <ele>21</ele>
        <time>2022-02-20T09:29:36.000Z</time>
      </trkpt>
      <trkpt lat="47.27422" lon="-2.28688">
        <ele>21</ele>
        <time>2022-02-20T09:29:41.000Z</time>
      </trkpt>
      <trkpt lat="47.27451" lon="-2.28635">
        <ele>21</ele>
        <time>2022-02-20T09:29:49.000Z</time>
      </trkpt>
      <trkpt lat="47.2747" lon="-2.28592">
        <ele>21</ele>
        <time>2022-02-20T09:29:55.000Z</time>
      </trkpt>
      <trkpt lat="47.27479" lon="-2.2857">
        <ele>21</ele>
        <time>2022-02-20T09:29:58.000Z</time>
      </trkpt>
      <trkpt lat="47.27487" lon="-2.28547">
        <ele>21</ele>
        <time>2022-02-20T09:30:01.000Z</time>
      </trkpt>
      <trkpt lat="47.2749" lon="-2.2854">
        <ele>21</ele>
        <time>2022-02-20T09:30:02.000Z</time>
      </trkpt>
      <trkpt lat="47.27501" lon="-2.28515">
        <ele>21</ele>
        <time>2022-02-20T09:30:06.000Z</time>
      </trkpt>
      <trkpt lat="47.27512" lon="-2.28487">
        <ele>21</ele>
        <time>2022-02-20T09:30:10.000Z</time>
      </trkpt>
      <trkpt lat="47.27514" lon="-2.28481">
        <ele>21</ele>
        <time>2022-02-20T09:30:11.000Z</time>
      </trkpt>
      <trkpt lat="47.27531" lon="-2.2844">
        <ele>21</ele>
        <time>2022-02-20T09:30:17.000Z</time>
      </trkpt>
      <trkpt lat="47.27535" lon="-2.28434">
        <ele>21</ele>
        <time>2022-02-20T09:30:18.000Z</time>
      </trkpt>
      <trkpt lat="47.27542" lon="-2.28422">
        <ele>21</ele>
        <time>2022-02-20T09:30:20.000Z</time>
      </trkpt>
      <trkpt lat="47.27549" lon="-2.28411">
        <ele>21</ele>
        <time>2022-02-20T09:30:22.000Z</time>
      </trkpt>
      <trkpt lat="47.27581" lon="-2.28371">
        <ele>21</ele>
        <time>2022-02-20T09:30:30.000Z</time>
      </trkpt>
      <trkpt lat="47.27585" lon="-2.28366">
        <ele>21</ele>
        <time>2022-02-20T09:30:31.000Z</time>
      </trkpt>
      <trkpt lat="47.27604" lon="-2.28342">
        <ele>21</ele>
        <time>2022-02-20T09:30:35.000Z</time>
      </trkpt>
      <trkpt lat="47.2763" lon="-2.28313">
        <ele>21</ele>
        <time>2022-02-20T09:30:41.000Z</time>
      </trkpt>
      <trkpt lat="47.27649" lon="-2.28295">
        <ele>21</ele>
        <time>2022-02-20T09:30:46.000Z</time>
      </trkpt>
      <trkpt lat="47.27665" lon="-2.28273">
        <ele>21</ele>
        <time>2022-02-20T09:30:52.000Z</time>
      </trkpt>
      <trkpt lat="47.27676" lon="-2.28256">
        <ele>21</ele>
        <time>2022-02-20T09:30:56.000Z</time>
      </trkpt>
      <trkpt lat="47.2768" lon="-2.28252">
        <ele>21</ele>
        <time>2022-02-20T09:30:57.000Z</time>
      </trkpt>
      <trkpt lat="47.27693" lon="-2.28235">
        <ele>21</ele>
        <time>2022-02-20T09:31:01.000Z</time>
      </trkpt>
      <trkpt lat="47.27698" lon="-2.28226">
        <ele>21</ele>
        <time>2022-02-20T09:31:03.000Z</time>
      </trkpt>
      <trkpt lat="47.27712" lon="-2.28202">
        <ele>21</ele>
        <time>2022-02-20T09:31:09.000Z</time>
      </trkpt>
      <trkpt lat="47.2772" lon="-2.28182">
        <ele>21</ele>
        <time>2022-02-20T09:31:15.000Z</time>
      </trkpt>
      <trkpt lat="47.27728" lon="-2.28153">
        <ele>21</ele>
        <time>2022-02-20T09:31:21.000Z</time>
      </trkpt>
      <trkpt lat="47.2774" lon="-2.28099">
        <ele>21</ele>
        <time>2022-02-20T09:31:29.000Z</time>
      </trkpt>
      <trkpt lat="47.27747" lon="-2.28045">
        <ele>21</ele>
        <time>2022-02-20T09:31:37.000Z</time>
      </trkpt>
      <trkpt lat="47.27753" lon="-2.28004">
        <ele>21</ele>
        <time>2022-02-20T09:31:43.000Z</time>
      </trkpt>
      <trkpt lat="47.27764" lon="-2.27955">
        <ele>21</ele>
        <time>2022-02-20T09:31:50.000Z</time>
      </trkpt>
      <trkpt lat="47.27773" lon="-2.27916">
        <ele>21</ele>
        <time>2022-02-20T09:31:56.000Z</time>
      </trkpt>
      <trkpt lat="47.27792" lon="-2.27873">
        <ele>21</ele>
        <time>2022-02-20T09:32:03.000Z</time>
      </trkpt>
      <trkpt lat="47.27816" lon="-2.27826">
        <ele>21</ele>
        <time>2022-02-20T09:32:11.000Z</time>
      </trkpt>
      <trkpt lat="47.27833" lon="-2.27789">
        <ele>21</ele>
        <time>2022-02-20T09:32:17.000Z</time>
      </trkpt>
      <trkpt lat="47.27858" lon="-2.27737">
        <ele>21</ele>
        <time>2022-02-20T09:32:24.000Z</time>
      </trkpt>
      <trkpt lat="47.27887" lon="-2.27675">
        <ele>21</ele>
        <time>2022-02-20T09:32:32.000Z</time>
      </trkpt>
      <trkpt lat="47.27893" lon="-2.27659">
        <ele>21</ele>
        <time>2022-02-20T09:32:34.000Z</time>
      </trkpt>
      <trkpt lat="47.27901" lon="-2.27625">
        <ele>21</ele>
        <time>2022-02-20T09:32:38.000Z</time>
      </trkpt>
      <trkpt lat="47.27916" lon="-2.27581">
        <ele>20.60000038147</ele>
        <time>2022-02-20T09:32:44.000Z</time>
      </trkpt>
      <trkpt lat="47.2792" lon="-2.27575">
        <ele>20.200000762939</ele>
        <time>2022-02-20T09:32:45.000Z</time>
      </trkpt>
      <trkpt lat="47.27924" lon="-2.27569">
        <ele>19.799999237061</ele>
        <time>2022-02-20T09:32:46.000Z</time>
      </trkpt>
      <trkpt lat="47.27929" lon="-2.27566">
        <ele>19.39999961853</ele>
        <time>2022-02-20T09:32:47.000Z</time>
      </trkpt>
      <trkpt lat="47.27933" lon="-2.27563">
        <ele>19</ele>
        <time>2022-02-20T09:32:48.000Z</time>
      </trkpt>
      <trkpt lat="47.27937" lon="-2.27561">
        <ele>19</ele>
        <time>2022-02-20T09:32:49.000Z</time>
      </trkpt>
      <trkpt lat="47.27945" lon="-2.27556">
        <ele>19</ele>
        <time>2022-02-20T09:32:51.000Z</time>
      </trkpt>
      <trkpt lat="47.27954" lon="-2.27552">
        <ele>19</ele>
        <time>2022-02-20T09:32:54.000Z</time>
      </trkpt>
      <trkpt lat="47.27963" lon="-2.27552">
        <ele>19</ele>
        <time>2022-02-20T09:32:56.000Z</time>
      </trkpt>
      <trkpt lat="47.27972" lon="-2.27553">
        <ele>19</ele>
        <time>2022-02-20T09:32:58.000Z</time>
      </trkpt>
      <trkpt lat="47.27977" lon="-2.27553">
        <ele>19</ele>
        <time>2022-02-20T09:32:59.000Z</time>
      </trkpt>
      <trkpt lat="47.27996" lon="-2.27555">
        <ele>19.39999961853</ele>
        <time>2022-02-20T09:33:03.000Z</time>
      </trkpt>
      <trkpt lat="47.28001" lon="-2.27555">
        <ele>19.799999237061</ele>
        <time>2022-02-20T09:33:04.000Z</time>
      </trkpt>
      <trkpt lat="47.28006" lon="-2.27556">
        <ele>20.200000762939</ele>
        <time>2022-02-20T09:33:05.000Z</time>
      </trkpt>
      <trkpt lat="47.2801" lon="-2.27556">
        <ele>20.60000038147</ele>
        <time>2022-02-20T09:33:06.000Z</time>
      </trkpt>
      <trkpt lat="47.28014" lon="-2.27556">
        <ele>21</ele>
        <time>2022-02-20T09:33:07.000Z</time>
      </trkpt>
      <trkpt lat="47.28033" lon="-2.27554">
        <ele>21.39999961853</ele>
        <time>2022-02-20T09:33:11.000Z</time>
      </trkpt>
      <trkpt lat="47.28037" lon="-2.27553">
        <ele>22</ele>
        <time>2022-02-20T09:33:12.000Z</time>
      </trkpt>
      <trkpt lat="47.28041" lon="-2.27552">
        <ele>22.39999961853</ele>
        <time>2022-02-20T09:33:13.000Z</time>
      </trkpt>
      <trkpt lat="47.28045" lon="-2.2755">
        <ele>22.799999237061</ele>
        <time>2022-02-20T09:33:14.000Z</time>
      </trkpt>
      <trkpt lat="47.2805" lon="-2.27547">
        <ele>23.200000762939</ele>
        <time>2022-02-20T09:33:15.000Z</time>
      </trkpt>
      <trkpt lat="47.28054" lon="-2.27544">
        <ele>23.200000762939</ele>
        <time>2022-02-20T09:33:16.000Z</time>
      </trkpt>
      <trkpt lat="47.28063" lon="-2.27534">
        <ele>23.200000762939</ele>
        <time>2022-02-20T09:33:19.000Z</time>
      </trkpt>
      <trkpt lat="47.28069" lon="-2.27524">
        <ele>23.200000762939</ele>
        <time>2022-02-20T09:33:21.000Z</time>
      </trkpt>
      <trkpt lat="47.28071" lon="-2.27518">
        <ele>23.60000038147</ele>
        <time>2022-02-20T09:33:22.000Z</time>
      </trkpt>
      <trkpt lat="47.28074" lon="-2.27512">
        <ele>24</ele>
        <time>2022-02-20T09:33:23.000Z</time>
      </trkpt>
      <trkpt lat="47.28076" lon="-2.27507">
        <ele>24.39999961853</ele>
        <time>2022-02-20T09:33:24.000Z</time>
      </trkpt>
      <trkpt lat="47.28079" lon="-2.27501">
        <ele>25</ele>
        <time>2022-02-20T09:33:25.000Z</time>
      </trkpt>
      <trkpt lat="47.28081" lon="-2.27494">
        <ele>25.39999961853</ele>
        <time>2022-02-20T09:33:26.000Z</time>
      </trkpt>
      <trkpt lat="47.28083" lon="-2.27488">
        <ele>25.39999961853</ele>
        <time>2022-02-20T09:33:27.000Z</time>
      </trkpt>
      <trkpt lat="47.28088" lon="-2.27477">
        <ele>25.799999237061</ele>
        <time>2022-02-20T09:33:29.000Z</time>
      </trkpt>
      <trkpt lat="47.2809" lon="-2.27471">
        <ele>26.200000762939</ele>
        <time>2022-02-20T09:33:30.000Z</time>
      </trkpt>
      <trkpt lat="47.28092" lon="-2.27465">
        <ele>26.60000038147</ele>
        <time>2022-02-20T09:33:31.000Z</time>
      </trkpt>
      <trkpt lat="47.28094" lon="-2.27459">
        <ele>27</ele>
        <time>2022-02-20T09:33:32.000Z</time>
      </trkpt>
      <trkpt lat="47.28097" lon="-2.27454">
        <ele>27.39999961853</ele>
        <time>2022-02-20T09:33:33.000Z</time>
      </trkpt>
      <trkpt lat="47.28099" lon="-2.27448">
        <ele>27.39999961853</ele>
        <time>2022-02-20T09:33:34.000Z</time>
      </trkpt>
      <trkpt lat="47.28106" lon="-2.2743">
        <ele>27.799999237061</ele>
        <time>2022-02-20T09:33:38.000Z</time>
      </trkpt>
      <trkpt lat="47.28108" lon="-2.27424">
        <ele>28.200000762939</ele>
        <time>2022-02-20T09:33:39.000Z</time>
      </trkpt>
      <trkpt lat="47.2811" lon="-2.27418">
        <ele>28.799999237061</ele>
        <time>2022-02-20T09:33:40.000Z</time>
      </trkpt>
      <trkpt lat="47.28112" lon="-2.27412">
        <ele>29.200000762939</ele>
        <time>2022-02-20T09:33:41.000Z</time>
      </trkpt>
      <trkpt lat="47.28115" lon="-2.27406">
        <ele>29.60000038147</ele>
        <time>2022-02-20T09:33:42.000Z</time>
      </trkpt>
      <trkpt lat="47.28132" lon="-2.27373">
        <ele>29.60000038147</ele>
        <time>2022-02-20T09:33:49.000Z</time>
      </trkpt>
      <trkpt lat="47.28155" lon="-2.27367">
        <ele>29.60000038147</ele>
        <time>2022-02-20T09:33:54.000Z</time>
      </trkpt>
      <trkpt lat="47.28189" lon="-2.2736">
        <ele>29.60000038147</ele>
        <time>2022-02-20T09:34:01.000Z</time>
      </trkpt>
      <trkpt lat="47.28194" lon="-2.27359">
        <ele>29.60000038147</ele>
        <time>2022-02-20T09:34:02.000Z</time>
      </trkpt>
      <trkpt lat="47.28222" lon="-2.27354">
        <ele>29.60000038147</ele>
        <time>2022-02-20T09:34:07.000Z</time>
      </trkpt>
      <trkpt lat="47.2826" lon="-2.27347">
        <ele>29.60000038147</ele>
        <time>2022-02-20T09:34:13.000Z</time>
      </trkpt>
      <trkpt lat="47.28305" lon="-2.27347">
        <ele>29.60000038147</ele>
        <time>2022-02-20T09:34:19.000Z</time>
      </trkpt>
      <trkpt lat="47.28322" lon="-2.27347">
        <ele>29</ele>
        <time>2022-02-20T09:34:21.000Z</time>
      </trkpt>
      <trkpt lat="47.2833" lon="-2.27346">
        <ele>28.60000038147</ele>
        <time>2022-02-20T09:34:22.000Z</time>
      </trkpt>
      <trkpt lat="47.28339" lon="-2.27346">
        <ele>28</ele>
        <time>2022-02-20T09:34:23.000Z</time>
      </trkpt>
      <trkpt lat="47.28347" lon="-2.27346">
        <ele>27</ele>
        <time>2022-02-20T09:34:24.000Z</time>
      </trkpt>
      <trkpt lat="47.28355" lon="-2.27346">
        <ele>26.39999961853</ele>
        <time>2022-02-20T09:34:25.000Z</time>
      </trkpt>
      <trkpt lat="47.28361" lon="-2.27347">
        <ele>25.799999237061</ele>
        <time>2022-02-20T09:34:26.000Z</time>
      </trkpt>
      <trkpt lat="47.28368" lon="-2.27348">
        <ele>25</ele>
        <time>2022-02-20T09:34:27.000Z</time>
      </trkpt>
      <trkpt lat="47.28373" lon="-2.27349">
        <ele>24.39999961853</ele>
        <time>2022-02-20T09:34:28.000Z</time>
      </trkpt>
      <trkpt lat="47.28377" lon="-2.27351">
        <ele>23.60000038147</ele>
        <time>2022-02-20T09:34:29.000Z</time>
      </trkpt>
      <trkpt lat="47.2838" lon="-2.27355">
        <ele>22.799999237061</ele>
        <time>2022-02-20T09:34:30.000Z</time>
      </trkpt>
      <trkpt lat="47.28382" lon="-2.27361">
        <ele>22</ele>
        <time>2022-02-20T09:34:31.000Z</time>
      </trkpt>
      <trkpt lat="47.28384" lon="-2.27367">
        <ele>21.39999961853</ele>
        <time>2022-02-20T09:34:32.000Z</time>
      </trkpt>
      <trkpt lat="47.28383" lon="-2.27372">
        <ele>20.60000038147</ele>
        <time>2022-02-20T09:34:33.000Z</time>
      </trkpt>
      <trkpt lat="47.28382" lon="-2.27378">
        <ele>19.799999237061</ele>
        <time>2022-02-20T09:34:34.000Z</time>
      </trkpt>
      <trkpt lat="47.2838" lon="-2.27382">
        <ele>19.799999237061</ele>
        <time>2022-02-20T09:34:35.000Z</time>
      </trkpt>
      <trkpt lat="47.28376" lon="-2.27412">
        <ele>20.39999961853</ele>
        <time>2022-02-20T09:34:41.000Z</time>
      </trkpt>
      <trkpt lat="47.28375" lon="-2.27417">
        <ele>20.799999237061</ele>
        <time>2022-02-20T09:34:42.000Z</time>
      </trkpt>
      <trkpt lat="47.28375" lon="-2.27422">
        <ele>21.200000762939</ele>
        <time>2022-02-20T09:34:43.000Z</time>
      </trkpt>
      <trkpt lat="47.28374" lon="-2.27428">
        <ele>21.799999237061</ele>
        <time>2022-02-20T09:34:44.000Z</time>
      </trkpt>
      <trkpt lat="47.28373" lon="-2.27434">
        <ele>22.200000762939</ele>
        <time>2022-02-20T09:34:45.000Z</time>
      </trkpt>
      <trkpt lat="47.2837" lon="-2.27459">
        <ele>22.60000038147</ele>
        <time>2022-02-20T09:34:49.000Z</time>
      </trkpt>
      <trkpt lat="47.28369" lon="-2.27465">
        <ele>23</ele>
        <time>2022-02-20T09:34:50.000Z</time>
      </trkpt>
      <trkpt lat="47.28368" lon="-2.27471">
        <ele>23.39999961853</ele>
        <time>2022-02-20T09:34:51.000Z</time>
      </trkpt>
      <trkpt lat="47.28367" lon="-2.27478">
        <ele>23.799999237061</ele>
        <time>2022-02-20T09:34:52.000Z</time>
      </trkpt>
      <trkpt lat="47.28366" lon="-2.27484">
        <ele>24.200000762939</ele>
        <time>2022-02-20T09:34:53.000Z</time>
      </trkpt>
      <trkpt lat="47.28363" lon="-2.27503">
        <ele>24.200000762939</ele>
        <time>2022-02-20T09:34:56.000Z</time>
      </trkpt>
      <trkpt lat="47.28356" lon="-2.27548">
        <ele>24.200000762939</ele>
        <time>2022-02-20T09:35:03.000Z</time>
      </trkpt>
      <trkpt lat="47.28352" lon="-2.27573">
        <ele>24.200000762939</ele>
        <time>2022-02-20T09:35:07.000Z</time>
      </trkpt>
      <trkpt lat="47.2835" lon="-2.27586">
        <ele>24.200000762939</ele>
        <time>2022-02-20T09:35:09.000Z</time>
      </trkpt>
      <trkpt lat="47.2835" lon="-2.27614">
        <ele>24.200000762939</ele>
        <time>2022-02-20T09:35:14.000Z</time>
      </trkpt>
      <trkpt lat="47.28347" lon="-2.27652">
        <ele>24.200000762939</ele>
        <time>2022-02-20T09:35:20.000Z</time>
      </trkpt>
      <trkpt lat="47.28345" lon="-2.27665">
        <ele>24.200000762939</ele>
        <time>2022-02-20T09:35:22.000Z</time>
      </trkpt>
      <trkpt lat="47.28341" lon="-2.27708">
        <ele>24.200000762939</ele>
        <time>2022-02-20T09:35:28.000Z</time>
      </trkpt>
      <trkpt lat="47.2834" lon="-2.2773">
        <ele>23.799999237061</ele>
        <time>2022-02-20T09:35:31.000Z</time>
      </trkpt>
      <trkpt lat="47.2834" lon="-2.27737">
        <ele>23.39999961853</ele>
        <time>2022-02-20T09:35:32.000Z</time>
      </trkpt>
      <trkpt lat="47.28339" lon="-2.27744">
        <ele>23</ele>
        <time>2022-02-20T09:35:33.000Z</time>
      </trkpt>
      <trkpt lat="47.28339" lon="-2.2775">
        <ele>22.60000038147</ele>
        <time>2022-02-20T09:35:34.000Z</time>
      </trkpt>
      <trkpt lat="47.28338" lon="-2.27757">
        <ele>22.200000762939</ele>
        <time>2022-02-20T09:35:35.000Z</time>
      </trkpt>
      <trkpt lat="47.28335" lon="-2.27795">
        <ele>22.200000762939</ele>
        <time>2022-02-20T09:35:41.000Z</time>
      </trkpt>
      <trkpt lat="47.28335" lon="-2.27801">
        <ele>22.200000762939</ele>
        <time>2022-02-20T09:35:42.000Z</time>
      </trkpt>
      <trkpt lat="47.28331" lon="-2.27832">
        <ele>22.200000762939</ele>
        <time>2022-02-20T09:35:47.000Z</time>
      </trkpt>
      <trkpt lat="47.2833" lon="-2.27838">
        <ele>22.200000762939</ele>
        <time>2022-02-20T09:35:48.000Z</time>
      </trkpt>
      <trkpt lat="47.28327" lon="-2.27883">
        <ele>22.200000762939</ele>
        <time>2022-02-20T09:35:55.000Z</time>
      </trkpt>
      <trkpt lat="47.28323" lon="-2.27938">
        <ele>22.200000762939</ele>
        <time>2022-02-20T09:36:03.000Z</time>
      </trkpt>
      <trkpt lat="47.28323" lon="-2.27971">
        <ele>22.200000762939</ele>
        <time>2022-02-20T09:36:08.000Z</time>
      </trkpt>
      <trkpt lat="47.28321" lon="-2.27975">
        <ele>22.200000762939</ele>
        <time>2022-02-20T09:36:09.000Z</time>
      </trkpt>
      <trkpt lat="47.28322" lon="-2.27998">
        <ele>22.200000762939</ele>
        <time>2022-02-20T09:36:13.000Z</time>
      </trkpt>
      <trkpt lat="47.28327" lon="-2.28009">
        <ele>22.200000762939</ele>
        <time>2022-02-20T09:36:15.000Z</time>
      </trkpt>
      <trkpt lat="47.28328" lon="-2.28016">
        <ele>22.200000762939</ele>
        <time>2022-02-20T09:36:16.000Z</time>
      </trkpt>
      <trkpt lat="47.28329" lon="-2.28031">
        <ele>21.60000038147</ele>
        <time>2022-02-20T09:36:18.000Z</time>
      </trkpt>
      <trkpt lat="47.2833" lon="-2.28039">
        <ele>21.200000762939</ele>
        <time>2022-02-20T09:36:19.000Z</time>
      </trkpt>
      <trkpt lat="47.28331" lon="-2.28048">
        <ele>20.799999237061</ele>
        <time>2022-02-20T09:36:20.000Z</time>
      </trkpt>
      <trkpt lat="47.28331" lon="-2.28057">
        <ele>20.200000762939</ele>
        <time>2022-02-20T09:36:21.000Z</time>
      </trkpt>
      <trkpt lat="47.28331" lon="-2.28065">
        <ele>19.799999237061</ele>
        <time>2022-02-20T09:36:22.000Z</time>
      </trkpt>
      <trkpt lat="47.28331" lon="-2.28072">
        <ele>19.200000762939</ele>
        <time>2022-02-20T09:36:23.000Z</time>
      </trkpt>
      <trkpt lat="47.28331" lon="-2.28078">
        <ele>18.60000038147</ele>
        <time>2022-02-20T09:36:24.000Z</time>
      </trkpt>
      <trkpt lat="47.2833" lon="-2.28081">
        <ele>18</ele>
        <time>2022-02-20T09:36:25.000Z</time>
      </trkpt>
      <trkpt lat="47.28331" lon="-2.28083">
        <ele>17.60000038147</ele>
        <time>2022-02-20T09:36:26.000Z</time>
      </trkpt>
      <trkpt lat="47.28331" lon="-2.28085">
        <ele>17</ele>
        <time>2022-02-20T09:36:27.000Z</time>
      </trkpt>
      <trkpt lat="47.28331" lon="-2.28086">
        <ele>16.200000762939</ele>
        <time>2022-02-20T09:36:28.000Z</time>
      </trkpt>
      <trkpt lat="47.28331" lon="-2.28087">
        <ele>15.800000190735</ele>
        <time>2022-02-20T09:36:29.000Z</time>
      </trkpt>
      <trkpt lat="47.28342" lon="-2.28092">
        <ele>15.39999961853</ele>
        <time>2022-02-20T09:37:09.000Z</time>
      </trkpt>
      <trkpt lat="47.28344" lon="-2.28093">
        <ele>15.39999961853</ele>
        <time>2022-02-20T09:37:10.000Z</time>
      </trkpt>
      <trkpt lat="47.28346" lon="-2.28092">
        <ele>15.39999961853</ele>
        <time>2022-02-20T09:37:13.000Z</time>
      </trkpt>
      <trkpt lat="47.28354" lon="-2.28079">
        <ele>15.39999961853</ele>
        <time>2022-02-20T09:37:17.000Z</time>
      </trkpt>
      <trkpt lat="47.2836" lon="-2.28063">
        <ele>15.800000190735</ele>
        <time>2022-02-20T09:37:22.000Z</time>
      </trkpt>
      <trkpt lat="47.28362" lon="-2.28061">
        <ele>16.200000762939</ele>
        <time>2022-02-20T09:37:23.000Z</time>
      </trkpt>
      <trkpt lat="47.28364" lon="-2.2806">
        <ele>16.60000038147</ele>
        <time>2022-02-20T09:37:24.000Z</time>
      </trkpt>
      <trkpt lat="47.28365" lon="-2.2806">
        <ele>17.200000762939</ele>
        <time>2022-02-20T09:37:25.000Z</time>
      </trkpt>
      <trkpt lat="47.28366" lon="-2.28061">
        <ele>17.60000038147</ele>
        <time>2022-02-20T09:37:26.000Z</time>
      </trkpt>
      <trkpt lat="47.28367" lon="-2.28062">
        <ele>17.60000038147</ele>
        <time>2022-02-20T09:37:27.000Z</time>
      </trkpt>
      <trkpt lat="47.28367" lon="-2.2807">
        <ele>17.60000038147</ele>
        <time>2022-02-20T09:37:31.000Z</time>
      </trkpt>
      <trkpt lat="47.28367" lon="-2.28072">
        <ele>17.60000038147</ele>
        <time>2022-02-20T09:37:32.000Z</time>
      </trkpt>
      <trkpt lat="47.28368" lon="-2.28074">
        <ele>17.60000038147</ele>
        <time>2022-02-20T09:37:33.000Z</time>
      </trkpt>
      <trkpt lat="47.28371" lon="-2.28077">
        <ele>17.60000038147</ele>
        <time>2022-02-20T09:37:37.000Z</time>
      </trkpt>
      <trkpt lat="47.28375" lon="-2.28079">
        <ele>17.60000038147</ele>
        <time>2022-02-20T09:37:40.000Z</time>
      </trkpt>
      <trkpt lat="47.28382" lon="-2.28077">
        <ele>17.60000038147</ele>
        <time>2022-02-20T09:37:43.000Z</time>
      </trkpt>
      <trkpt lat="47.28393" lon="-2.28079">
        <ele>17.60000038147</ele>
        <time>2022-02-20T09:37:47.000Z</time>
      </trkpt>
      <trkpt lat="47.28396" lon="-2.28079">
        <ele>17.60000038147</ele>
        <time>2022-02-20T09:37:48.000Z</time>
      </trkpt>
      <trkpt lat="47.28409" lon="-2.28082">
        <ele>17.60000038147</ele>
        <time>2022-02-20T09:37:53.000Z</time>
      </trkpt>
      <trkpt lat="47.28414" lon="-2.28083">
        <ele>17.60000038147</ele>
        <time>2022-02-20T09:37:56.000Z</time>
      </trkpt>
      <trkpt lat="47.28423" lon="-2.28083">
        <ele>17.60000038147</ele>
        <time>2022-02-20T09:38:00.000Z</time>
      </trkpt>
      <trkpt lat="47.28429" lon="-2.28082">
        <ele>17.60000038147</ele>
        <time>2022-02-20T09:38:04.000Z</time>
      </trkpt>
      <trkpt lat="47.28435" lon="-2.28087">
        <ele>17.60000038147</ele>
        <time>2022-02-20T09:38:35.000Z</time>
      </trkpt>
      <trkpt lat="47.28444" lon="-2.28092">
        <ele>17.60000038147</ele>
        <time>2022-02-20T09:38:39.000Z</time>
      </trkpt>
      <trkpt lat="47.28457" lon="-2.28096">
        <ele>17.60000038147</ele>
        <time>2022-02-20T09:38:43.000Z</time>
      </trkpt>
      <trkpt lat="47.2846" lon="-2.28095">
        <ele>17.60000038147</ele>
        <time>2022-02-20T09:38:44.000Z</time>
      </trkpt>
      <trkpt lat="47.28467" lon="-2.28094">
        <ele>17.60000038147</ele>
        <time>2022-02-20T09:38:47.000Z</time>
      </trkpt>
      <trkpt lat="47.28474" lon="-2.28091">
        <ele>17.60000038147</ele>
        <time>2022-02-20T09:38:50.000Z</time>
      </trkpt>
      <trkpt lat="47.28479" lon="-2.28086">
        <ele>17.60000038147</ele>
        <time>2022-02-20T09:38:52.000Z</time>
      </trkpt>
      <trkpt lat="47.2848" lon="-2.28079">
        <ele>17.60000038147</ele>
        <time>2022-02-20T09:38:54.000Z</time>
      </trkpt>
      <trkpt lat="47.28476" lon="-2.28071">
        <ele>17.60000038147</ele>
        <time>2022-02-20T09:38:58.000Z</time>
      </trkpt>
      <trkpt lat="47.28473" lon="-2.28067">
        <ele>17.60000038147</ele>
        <time>2022-02-20T09:39:00.000Z</time>
      </trkpt>
      <trkpt lat="47.2847" lon="-2.28058">
        <ele>18</ele>
        <time>2022-02-20T09:39:03.000Z</time>
      </trkpt>
      <trkpt lat="47.2847" lon="-2.28055">
        <ele>18.39999961853</ele>
        <time>2022-02-20T09:39:04.000Z</time>
      </trkpt>
      <trkpt lat="47.28471" lon="-2.28053">
        <ele>18.799999237061</ele>
        <time>2022-02-20T09:39:05.000Z</time>
      </trkpt>
      <trkpt lat="47.28473" lon="-2.28051">
        <ele>19.200000762939</ele>
        <time>2022-02-20T09:39:06.000Z</time>
      </trkpt>
      <trkpt lat="47.28474" lon="-2.28049">
        <ele>19.60000038147</ele>
        <time>2022-02-20T09:39:07.000Z</time>
      </trkpt>
      <trkpt lat="47.28484" lon="-2.28043">
        <ele>19.60000038147</ele>
        <time>2022-02-20T09:39:12.000Z</time>
      </trkpt>
      <trkpt lat="47.28495" lon="-2.28051">
        <ele>19.60000038147</ele>
        <time>2022-02-20T09:39:16.000Z</time>
      </trkpt>
      <trkpt lat="47.28497" lon="-2.28052">
        <ele>19.60000038147</ele>
        <time>2022-02-20T09:39:17.000Z</time>
      </trkpt>
      <trkpt lat="47.28511" lon="-2.28054">
        <ele>18.60000038147</ele>
        <time>2022-02-20T09:39:21.000Z</time>
      </trkpt>
      <trkpt lat="47.28515" lon="-2.28054">
        <ele>18.200000762939</ele>
        <time>2022-02-20T09:39:22.000Z</time>
      </trkpt>
      <trkpt lat="47.28519" lon="-2.28054">
        <ele>17.799999237061</ele>
        <time>2022-02-20T09:39:23.000Z</time>
      </trkpt>
      <trkpt lat="47.28523" lon="-2.28055">
        <ele>17.39999961853</ele>
        <time>2022-02-20T09:39:24.000Z</time>
      </trkpt>
      <trkpt lat="47.28525" lon="-2.28055">
        <ele>16.799999237061</ele>
        <time>2022-02-20T09:39:25.000Z</time>
      </trkpt>
      <trkpt lat="47.28528" lon="-2.28054">
        <ele>16.39999961853</ele>
        <time>2022-02-20T09:39:26.000Z</time>
      </trkpt>
      <trkpt lat="47.28531" lon="-2.28054">
        <ele>15.800000190735</ele>
        <time>2022-02-20T09:39:27.000Z</time>
      </trkpt>
      <trkpt lat="47.28533" lon="-2.28056">
        <ele>15.39999961853</ele>
        <time>2022-02-20T09:39:28.000Z</time>
      </trkpt>
      <trkpt lat="47.28535" lon="-2.28057">
        <ele>14.800000190735</ele>
        <time>2022-02-20T09:39:29.000Z</time>
      </trkpt>
      <trkpt lat="47.28542" lon="-2.28057">
        <ele>14.39999961853</ele>
        <time>2022-02-20T09:39:31.000Z</time>
      </trkpt>
      <trkpt lat="47.28546" lon="-2.28055">
        <ele>14</ele>
        <time>2022-02-20T09:39:32.000Z</time>
      </trkpt>
      <trkpt lat="47.2855" lon="-2.28053">
        <ele>13.60000038147</ele>
        <time>2022-02-20T09:39:33.000Z</time>
      </trkpt>
      <trkpt lat="47.28554" lon="-2.28052">
        <ele>13.199999809265</ele>
        <time>2022-02-20T09:39:34.000Z</time>
      </trkpt>
      <trkpt lat="47.28557" lon="-2.28052">
        <ele>12.800000190735</ele>
        <time>2022-02-20T09:39:35.000Z</time>
      </trkpt>
      <trkpt lat="47.28563" lon="-2.28049">
        <ele>12.800000190735</ele>
        <time>2022-02-20T09:39:37.000Z</time>
      </trkpt>
      <trkpt lat="47.28581" lon="-2.28029">
        <ele>12.800000190735</ele>
        <time>2022-02-20T09:39:44.000Z</time>
      </trkpt>
      <trkpt lat="47.2859" lon="-2.28006">
        <ele>12.800000190735</ele>
        <time>2022-02-20T09:39:49.000Z</time>
      </trkpt>
      <trkpt lat="47.28594" lon="-2.27981">
        <ele>12.800000190735</ele>
        <time>2022-02-20T09:39:54.000Z</time>
      </trkpt>
      <trkpt lat="47.28596" lon="-2.27976">
        <ele>12.39999961853</ele>
        <time>2022-02-20T09:39:55.000Z</time>
      </trkpt>
      <trkpt lat="47.28598" lon="-2.27971">
        <ele>12</ele>
        <time>2022-02-20T09:39:56.000Z</time>
      </trkpt>
      <trkpt lat="47.286" lon="-2.27967">
        <ele>11.60000038147</ele>
        <time>2022-02-20T09:39:57.000Z</time>
      </trkpt>
      <trkpt lat="47.28603" lon="-2.27964">
        <ele>11.199999809265</ele>
        <time>2022-02-20T09:39:58.000Z</time>
      </trkpt>
      <trkpt lat="47.28606" lon="-2.27961">
        <ele>10.800000190735</ele>
        <time>2022-02-20T09:39:59.000Z</time>
      </trkpt>
      <trkpt lat="47.28608" lon="-2.27959">
        <ele>10.800000190735</ele>
        <time>2022-02-20T09:40:00.000Z</time>
      </trkpt>
      <trkpt lat="47.28611" lon="-2.27958">
        <ele>10.800000190735</ele>
        <time>2022-02-20T09:40:03.000Z</time>
      </trkpt>
      <trkpt lat="47.2862" lon="-2.27949">
        <ele>10.800000190735</ele>
        <time>2022-02-20T09:41:58.000Z</time>
      </trkpt>
      <trkpt lat="47.28623" lon="-2.27927">
        <ele>10.800000190735</ele>
        <time>2022-02-20T09:42:02.000Z</time>
      </trkpt>
      <trkpt lat="47.28628" lon="-2.27906">
        <ele>10.800000190735</ele>
        <time>2022-02-20T09:42:05.000Z</time>
      </trkpt>
      <trkpt lat="47.28634" lon="-2.2788">
        <ele>10.800000190735</ele>
        <time>2022-02-20T09:42:09.000Z</time>
      </trkpt>
      <trkpt lat="47.2864" lon="-2.27843">
        <ele>10.800000190735</ele>
        <time>2022-02-20T09:42:15.000Z</time>
      </trkpt>
      <trkpt lat="47.28647" lon="-2.27808">
        <ele>10.39999961853</ele>
        <time>2022-02-20T09:42:20.000Z</time>
      </trkpt>
      <trkpt lat="47.28648" lon="-2.27801">
        <ele>10</ele>
        <time>2022-02-20T09:42:21.000Z</time>
      </trkpt>
      <trkpt lat="47.28649" lon="-2.27795">
        <ele>9.6000003814697</ele>
        <time>2022-02-20T09:42:22.000Z</time>
      </trkpt>
      <trkpt lat="47.28651" lon="-2.27788">
        <ele>9.1999998092651</ele>
        <time>2022-02-20T09:42:23.000Z</time>
      </trkpt>
      <trkpt lat="47.28652" lon="-2.27781">
        <ele>8.6000003814697</ele>
        <time>2022-02-20T09:42:24.000Z</time>
      </trkpt>
      <trkpt lat="47.2866" lon="-2.27754">
        <ele>8.6000003814697</ele>
        <time>2022-02-20T09:42:28.000Z</time>
      </trkpt>
      <trkpt lat="47.28666" lon="-2.27742">
        <ele>8.6000003814697</ele>
        <time>2022-02-20T09:42:30.000Z</time>
      </trkpt>
      <trkpt lat="47.28673" lon="-2.27731">
        <ele>8.6000003814697</ele>
        <time>2022-02-20T09:42:32.000Z</time>
      </trkpt>
      <trkpt lat="47.2869" lon="-2.27702">
        <ele>8.6000003814697</ele>
        <time>2022-02-20T09:42:37.000Z</time>
      </trkpt>
      <trkpt lat="47.28722" lon="-2.27649">
        <ele>8.6000003814697</ele>
        <time>2022-02-20T09:42:46.000Z</time>
      </trkpt>
      <trkpt lat="47.28744" lon="-2.27614">
        <ele>8.6000003814697</ele>
        <time>2022-02-20T09:42:52.000Z</time>
      </trkpt>
      <trkpt lat="47.28757" lon="-2.27596">
        <ele>8.6000003814697</ele>
        <time>2022-02-20T09:42:55.000Z</time>
      </trkpt>
      <trkpt lat="47.28767" lon="-2.27584">
        <ele>8.6000003814697</ele>
        <time>2022-02-20T09:42:57.000Z</time>
      </trkpt>
      <trkpt lat="47.28771" lon="-2.27578">
        <ele>8.6000003814697</ele>
        <time>2022-02-20T09:42:58.000Z</time>
      </trkpt>
      <trkpt lat="47.28776" lon="-2.27572">
        <ele>8.1999998092651</ele>
        <time>2022-02-20T09:42:59.000Z</time>
      </trkpt>
      <trkpt lat="47.28782" lon="-2.27566">
        <ele>7.8000001907349</ele>
        <time>2022-02-20T09:43:00.000Z</time>
      </trkpt>
      <trkpt lat="47.28787" lon="-2.2756">
        <ele>7.4000000953674</ele>
        <time>2022-02-20T09:43:01.000Z</time>
      </trkpt>
      <trkpt lat="47.28792" lon="-2.27553">
        <ele>7</ele>
        <time>2022-02-20T09:43:02.000Z</time>
      </trkpt>
      <trkpt lat="47.28796" lon="-2.27546">
        <ele>6.5999999046326</ele>
        <time>2022-02-20T09:43:03.000Z</time>
      </trkpt>
      <trkpt lat="47.28801" lon="-2.27541">
        <ele>6.5999999046326</ele>
        <time>2022-02-20T09:43:04.000Z</time>
      </trkpt>
      <trkpt lat="47.28819" lon="-2.27534">
        <ele>6.5999999046326</ele>
        <time>2022-02-20T09:43:07.000Z</time>
      </trkpt>
      <trkpt lat="47.28825" lon="-2.27533">
        <ele>6.5999999046326</ele>
        <time>2022-02-20T09:43:08.000Z</time>
      </trkpt>
      <trkpt lat="47.28862" lon="-2.2753">
        <ele>6.5999999046326</ele>
        <time>2022-02-20T09:43:14.000Z</time>
      </trkpt>
      <trkpt lat="47.28898" lon="-2.27525">
        <ele>6.5999999046326</ele>
        <time>2022-02-20T09:43:20.000Z</time>
      </trkpt>
      <trkpt lat="47.28936" lon="-2.27522">
        <ele>6.5999999046326</ele>
        <time>2022-02-20T09:43:26.000Z</time>
      </trkpt>
      <trkpt lat="47.28984" lon="-2.27523">
        <ele>6.5999999046326</ele>
        <time>2022-02-20T09:43:34.000Z</time>
      </trkpt>
      <trkpt lat="47.29039" lon="-2.27522">
        <ele>6.5999999046326</ele>
        <time>2022-02-20T09:43:43.000Z</time>
      </trkpt>
      <trkpt lat="47.29078" lon="-2.27528">
        <ele>6.5999999046326</ele>
        <time>2022-02-20T09:43:50.000Z</time>
      </trkpt>
      <trkpt lat="47.29104" lon="-2.27524">
        <ele>6.5999999046326</ele>
        <time>2022-02-20T09:43:56.000Z</time>
      </trkpt>
      <trkpt lat="47.29104" lon="-2.27509">
        <ele>6.5999999046326</ele>
        <time>2022-02-20T09:43:59.000Z</time>
      </trkpt>
      <trkpt lat="47.29106" lon="-2.27468">
        <ele>6.5999999046326</ele>
        <time>2022-02-20T09:44:05.000Z</time>
      </trkpt>
      <trkpt lat="47.29109" lon="-2.27417">
        <ele>6.5999999046326</ele>
        <time>2022-02-20T09:44:11.000Z</time>
      </trkpt>
      <trkpt lat="47.29108" lon="-2.27409">
        <ele>6.5999999046326</ele>
        <time>2022-02-20T09:44:12.000Z</time>
      </trkpt>
      <trkpt lat="47.29102" lon="-2.27384">
        <ele>6.5999999046326</ele>
        <time>2022-02-20T09:44:15.000Z</time>
      </trkpt>
      <trkpt lat="47.29099" lon="-2.2737">
        <ele>6.5999999046326</ele>
        <time>2022-02-20T09:44:17.000Z</time>
      </trkpt>
      <trkpt lat="47.29097" lon="-2.2736">
        <ele>6.1999998092651</ele>
        <time>2022-02-20T09:44:19.000Z</time>
      </trkpt>
      <trkpt lat="47.29094" lon="-2.27358">
        <ele>5.8000001907349</ele>
        <time>2022-02-20T09:44:20.000Z</time>
      </trkpt>
      <trkpt lat="47.29093" lon="-2.27356">
        <ele>5.4000000953674</ele>
        <time>2022-02-20T09:44:21.000Z</time>
      </trkpt>
      <trkpt lat="47.29091" lon="-2.27352">
        <ele>5</ele>
        <time>2022-02-20T09:44:22.000Z</time>
      </trkpt>
      <trkpt lat="47.29091" lon="-2.27348">
        <ele>4.5999999046326</ele>
        <time>2022-02-20T09:44:23.000Z</time>
      </trkpt>
      <trkpt lat="47.29091" lon="-2.27344">
        <ele>4.5999999046326</ele>
        <time>2022-02-20T09:44:24.000Z</time>
      </trkpt>
      <trkpt lat="47.29092" lon="-2.2733">
        <ele>4.5999999046326</ele>
        <time>2022-02-20T09:44:27.000Z</time>
      </trkpt>
      <trkpt lat="47.29094" lon="-2.27319">
        <ele>4.5999999046326</ele>
        <time>2022-02-20T09:44:29.000Z</time>
      </trkpt>
      <trkpt lat="47.29096" lon="-2.27315">
        <ele>4.5999999046326</ele>
        <time>2022-02-20T09:44:30.000Z</time>
      </trkpt>
      <trkpt lat="47.29097" lon="-2.27305">
        <ele>4.5999999046326</ele>
        <time>2022-02-20T09:44:32.000Z</time>
      </trkpt>
      <trkpt lat="47.29099" lon="-2.27287">
        <ele>4.5999999046326</ele>
        <time>2022-02-20T09:44:35.000Z</time>
      </trkpt>
      <trkpt lat="47.29101" lon="-2.27282">
        <ele>4.5999999046326</ele>
        <time>2022-02-20T09:44:36.000Z</time>
      </trkpt>
      <trkpt lat="47.29102" lon="-2.27266">
        <ele>4.5999999046326</ele>
        <time>2022-02-20T09:44:40.000Z</time>
      </trkpt>
      <trkpt lat="47.29107" lon="-2.27239">
        <ele>4.5999999046326</ele>
        <time>2022-02-20T09:44:45.000Z</time>
      </trkpt>
      <trkpt lat="47.29113" lon="-2.27222">
        <ele>4.5999999046326</ele>
        <time>2022-02-20T09:44:50.000Z</time>
      </trkpt>
      <trkpt lat="47.29116" lon="-2.2721">
        <ele>4.5999999046326</ele>
        <time>2022-02-20T09:44:56.000Z</time>
      </trkpt>
      <trkpt lat="47.29114" lon="-2.27209">
        <ele>4.5999999046326</ele>
        <time>2022-02-20T09:44:57.000Z</time>
      </trkpt>
      <trkpt lat="47.29109" lon="-2.27205">
        <ele>4.5999999046326</ele>
        <time>2022-02-20T09:45:00.000Z</time>
      </trkpt>
      <trkpt lat="47.29107" lon="-2.27203">
        <ele>4.5999999046326</ele>
        <time>2022-02-20T09:45:04.000Z</time>
      </trkpt>
      <trkpt lat="47.29104" lon="-2.27203">
        <ele>4.5999999046326</ele>
        <time>2022-02-20T09:45:17.000Z</time>
      </trkpt>
      <trkpt lat="47.29102" lon="-2.27204">
        <ele>4.5999999046326</ele>
        <time>2022-02-20T09:45:19.000Z</time>
      </trkpt>
      <trkpt lat="47.29099" lon="-2.27202">
        <ele>4.5999999046326</ele>
        <time>2022-02-20T09:45:20.000Z</time>
      </trkpt>
      <trkpt lat="47.29094" lon="-2.27202">
        <ele>4.5999999046326</ele>
        <time>2022-02-20T09:45:22.000Z</time>
      </trkpt>
      <trkpt lat="47.29083" lon="-2.27193">
        <ele>4.5999999046326</ele>
        <time>2022-02-20T09:45:25.000Z</time>
      </trkpt>
      <trkpt lat="47.29079" lon="-2.27191">
        <ele>4.5999999046326</ele>
        <time>2022-02-20T09:45:26.000Z</time>
      </trkpt>
      <trkpt lat="47.29072" lon="-2.27182">
        <ele>4.5999999046326</ele>
        <time>2022-02-20T09:45:29.000Z</time>
      </trkpt>
      <trkpt lat="47.29071" lon="-2.27177">
        <ele>5</ele>
        <time>2022-02-20T09:45:30.000Z</time>
      </trkpt>
      <trkpt lat="47.29069" lon="-2.27173">
        <ele>5.5999999046326</ele>
        <time>2022-02-20T09:45:31.000Z</time>
      </trkpt>
      <trkpt lat="47.29067" lon="-2.27168">
        <ele>6.4000000953674</ele>
        <time>2022-02-20T09:45:32.000Z</time>
      </trkpt>
      <trkpt lat="47.29064" lon="-2.27163">
        <ele>6.8000001907349</ele>
        <time>2022-02-20T09:45:33.000Z</time>
      </trkpt>
      <trkpt lat="47.29055" lon="-2.2715">
        <ele>6.8000001907349</ele>
        <time>2022-02-20T09:45:36.000Z</time>
      </trkpt>
      <trkpt lat="47.29033" lon="-2.27129">
        <ele>6.8000001907349</ele>
        <time>2022-02-20T09:45:42.000Z</time>
      </trkpt>
      <trkpt lat="47.29027" lon="-2.27116">
        <ele>6.8000001907349</ele>
        <time>2022-02-20T09:45:45.000Z</time>
      </trkpt>
      <trkpt lat="47.29027" lon="-2.2711">
        <ele>6.8000001907349</ele>
        <time>2022-02-20T09:45:46.000Z</time>
      </trkpt>
      <trkpt lat="47.29035" lon="-2.271">
        <ele>6.8000001907349</ele>
        <time>2022-02-20T09:45:49.000Z</time>
      </trkpt>
      <trkpt lat="47.29041" lon="-2.27099">
        <ele>6.8000001907349</ele>
        <time>2022-02-20T09:45:51.000Z</time>
      </trkpt>
      <trkpt lat="47.29047" lon="-2.27095">
        <ele>6.8000001907349</ele>
        <time>2022-02-20T09:45:53.000Z</time>
      </trkpt>
      <trkpt lat="47.29057" lon="-2.27074">
        <ele>6.8000001907349</ele>
        <time>2022-02-20T09:45:57.000Z</time>
      </trkpt>
      <trkpt lat="47.29062" lon="-2.27045">
        <ele>6.8000001907349</ele>
        <time>2022-02-20T09:46:01.000Z</time>
      </trkpt>
      <trkpt lat="47.29062" lon="-2.27039">
        <ele>6.8000001907349</ele>
        <time>2022-02-20T09:46:02.000Z</time>
      </trkpt>
      <trkpt lat="47.29057" lon="-2.2702">
        <ele>6.4000000953674</ele>
        <time>2022-02-20T09:46:05.000Z</time>
      </trkpt>
      <trkpt lat="47.29056" lon="-2.27013">
        <ele>6</ele>
        <time>2022-02-20T09:46:06.000Z</time>
      </trkpt>
      <trkpt lat="47.29056" lon="-2.27006">
        <ele>5.5999999046326</ele>
        <time>2022-02-20T09:46:07.000Z</time>
      </trkpt>
      <trkpt lat="47.29056" lon="-2.26999">
        <ele>5.1999998092651</ele>
        <time>2022-02-20T09:46:08.000Z</time>
      </trkpt>
      <trkpt lat="47.29056" lon="-2.26991">
        <ele>4.8000001907349</ele>
        <time>2022-02-20T09:46:09.000Z</time>
      </trkpt>
      <trkpt lat="47.29059" lon="-2.26975">
        <ele>4.8000001907349</ele>
        <time>2022-02-20T09:46:11.000Z</time>
      </trkpt>
      <trkpt lat="47.29059" lon="-2.26934">
        <ele>4.8000001907349</ele>
        <time>2022-02-20T09:46:16.000Z</time>
      </trkpt>
      <trkpt lat="47.29061" lon="-2.26876">
        <ele>4.8000001907349</ele>
        <time>2022-02-20T09:46:23.000Z</time>
      </trkpt>
      <trkpt lat="47.29063" lon="-2.26824">
        <ele>4.8000001907349</ele>
        <time>2022-02-20T09:46:29.000Z</time>
      </trkpt>
      <trkpt lat="47.29063" lon="-2.26775">
        <ele>4.8000001907349</ele>
        <time>2022-02-20T09:46:35.000Z</time>
      </trkpt>
      <trkpt lat="47.29062" lon="-2.26768">
        <ele>4.8000001907349</ele>
        <time>2022-02-20T09:46:36.000Z</time>
      </trkpt>
      <trkpt lat="47.29061" lon="-2.26761">
        <ele>4.8000001907349</ele>
        <time>2022-02-20T09:46:37.000Z</time>
      </trkpt>
      <trkpt lat="47.29057" lon="-2.26735">
        <ele>5.1999998092651</ele>
        <time>2022-02-20T09:46:41.000Z</time>
      </trkpt>
      <trkpt lat="47.29056" lon="-2.26728">
        <ele>5.8000001907349</ele>
        <time>2022-02-20T09:46:42.000Z</time>
      </trkpt>
      <trkpt lat="47.29055" lon="-2.26722">
        <ele>6.1999998092651</ele>
        <time>2022-02-20T09:46:43.000Z</time>
      </trkpt>
      <trkpt lat="47.29054" lon="-2.26715">
        <ele>6.5999999046326</ele>
        <time>2022-02-20T09:46:44.000Z</time>
      </trkpt>
      <trkpt lat="47.29053" lon="-2.26708">
        <ele>7</ele>
        <time>2022-02-20T09:46:45.000Z</time>
      </trkpt>
      <trkpt lat="47.29051" lon="-2.26696">
        <ele>7</ele>
        <time>2022-02-20T09:46:47.000Z</time>
      </trkpt>
      <trkpt lat="47.29049" lon="-2.26683">
        <ele>7.4000000953674</ele>
        <time>2022-02-20T09:46:49.000Z</time>
      </trkpt>
      <trkpt lat="47.29049" lon="-2.26677">
        <ele>8</ele>
        <time>2022-02-20T09:46:50.000Z</time>
      </trkpt>
      <trkpt lat="47.29048" lon="-2.2667">
        <ele>8.3999996185303</ele>
        <time>2022-02-20T09:46:51.000Z</time>
      </trkpt>
      <trkpt lat="47.29049" lon="-2.26664">
        <ele>8.8000001907349</ele>
        <time>2022-02-20T09:46:52.000Z</time>
      </trkpt>
      <trkpt lat="47.29048" lon="-2.26658">
        <ele>9.1999998092651</ele>
        <time>2022-02-20T09:46:53.000Z</time>
      </trkpt>
      <trkpt lat="47.29047" lon="-2.26647">
        <ele>9.1999998092651</ele>
        <time>2022-02-20T09:46:55.000Z</time>
      </trkpt>
      <trkpt lat="47.29047" lon="-2.26635">
        <ele>9.8000001907349</ele>
        <time>2022-02-20T09:46:57.000Z</time>
      </trkpt>
      <trkpt lat="47.29047" lon="-2.26629">
        <ele>10.199999809265</ele>
        <time>2022-02-20T09:46:58.000Z</time>
      </trkpt>
      <trkpt lat="47.29046" lon="-2.26623">
        <ele>10.60000038147</ele>
        <time>2022-02-20T09:46:59.000Z</time>
      </trkpt>
      <trkpt lat="47.29047" lon="-2.26618">
        <ele>11</ele>
        <time>2022-02-20T09:47:00.000Z</time>
      </trkpt>
      <trkpt lat="47.29046" lon="-2.26612">
        <ele>11.39999961853</ele>
        <time>2022-02-20T09:47:01.000Z</time>
      </trkpt>
      <trkpt lat="47.29043" lon="-2.26581">
        <ele>11.39999961853</ele>
        <time>2022-02-20T09:47:08.000Z</time>
      </trkpt>
      <trkpt lat="47.29037" lon="-2.26554">
        <ele>11.39999961853</ele>
        <time>2022-02-20T09:47:13.000Z</time>
      </trkpt>
      <trkpt lat="47.29027" lon="-2.26512">
        <ele>11.39999961853</ele>
        <time>2022-02-20T09:47:19.000Z</time>
      </trkpt>
      <trkpt lat="47.29022" lon="-2.2649">
        <ele>11.39999961853</ele>
        <time>2022-02-20T09:47:22.000Z</time>
      </trkpt>
      <trkpt lat="47.2902" lon="-2.26475">
        <ele>11.39999961853</ele>
        <time>2022-02-20T09:47:24.000Z</time>
      </trkpt>
      <trkpt lat="47.29014" lon="-2.26419">
        <ele>11.39999961853</ele>
        <time>2022-02-20T09:47:32.000Z</time>
      </trkpt>
      <trkpt lat="47.29013" lon="-2.26413">
        <ele>11.800000190735</ele>
        <time>2022-02-20T09:47:33.000Z</time>
      </trkpt>
      <trkpt lat="47.29013" lon="-2.26408">
        <ele>12.199999809265</ele>
        <time>2022-02-20T09:47:34.000Z</time>
      </trkpt>
      <trkpt lat="47.29013" lon="-2.26401">
        <ele>12.800000190735</ele>
        <time>2022-02-20T09:47:35.000Z</time>
      </trkpt>
      <trkpt lat="47.29013" lon="-2.26396">
        <ele>13.60000038147</ele>
        <time>2022-02-20T09:47:36.000Z</time>
      </trkpt>
      <trkpt lat="47.29013" lon="-2.2639">
        <ele>14</ele>
        <time>2022-02-20T09:47:37.000Z</time>
      </trkpt>
      <trkpt lat="47.29014" lon="-2.26384">
        <ele>14.60000038147</ele>
        <time>2022-02-20T09:47:38.000Z</time>
      </trkpt>
      <trkpt lat="47.29014" lon="-2.26378">
        <ele>15</ele>
        <time>2022-02-20T09:47:39.000Z</time>
      </trkpt>
      <trkpt lat="47.29016" lon="-2.26372">
        <ele>15.39999961853</ele>
        <time>2022-02-20T09:47:40.000Z</time>
      </trkpt>
      <trkpt lat="47.29018" lon="-2.26367">
        <ele>15.800000190735</ele>
        <time>2022-02-20T09:47:41.000Z</time>
      </trkpt>
      <trkpt lat="47.29024" lon="-2.26358">
        <ele>15.800000190735</ele>
        <time>2022-02-20T09:47:43.000Z</time>
      </trkpt>
      <trkpt lat="47.29037" lon="-2.26348">
        <ele>15.800000190735</ele>
        <time>2022-02-20T09:47:46.000Z</time>
      </trkpt>
      <trkpt lat="47.29049" lon="-2.26338">
        <ele>15.800000190735</ele>
        <time>2022-02-20T09:47:49.000Z</time>
      </trkpt>
      <trkpt lat="47.29058" lon="-2.26329">
        <ele>15.800000190735</ele>
        <time>2022-02-20T09:47:51.000Z</time>
      </trkpt>
      <trkpt lat="47.29067" lon="-2.26311">
        <ele>15.800000190735</ele>
        <time>2022-02-20T09:47:54.000Z</time>
      </trkpt>
      <trkpt lat="47.29075" lon="-2.2628">
        <ele>15.800000190735</ele>
        <time>2022-02-20T09:47:58.000Z</time>
      </trkpt>
      <trkpt lat="47.29077" lon="-2.26272">
        <ele>15.800000190735</ele>
        <time>2022-02-20T09:47:59.000Z</time>
      </trkpt>
      <trkpt lat="47.29087" lon="-2.26217">
        <ele>15.800000190735</ele>
        <time>2022-02-20T09:48:06.000Z</time>
      </trkpt>
      <trkpt lat="47.29095" lon="-2.26164">
        <ele>15.800000190735</ele>
        <time>2022-02-20T09:48:13.000Z</time>
      </trkpt>
      <trkpt lat="47.29102" lon="-2.26123">
        <ele>15.800000190735</ele>
        <time>2022-02-20T09:48:19.000Z</time>
      </trkpt>
      <trkpt lat="47.29105" lon="-2.26118">
        <ele>15.39999961853</ele>
        <time>2022-02-20T09:48:20.000Z</time>
      </trkpt>
      <trkpt lat="47.29107" lon="-2.26113">
        <ele>15</ele>
        <time>2022-02-20T09:48:21.000Z</time>
      </trkpt>
      <trkpt lat="47.29108" lon="-2.26107">
        <ele>14.60000038147</ele>
        <time>2022-02-20T09:48:22.000Z</time>
      </trkpt>
      <trkpt lat="47.29107" lon="-2.26102">
        <ele>14.199999809265</ele>
        <time>2022-02-20T09:48:23.000Z</time>
      </trkpt>
      <trkpt lat="47.29106" lon="-2.26096">
        <ele>13.800000190735</ele>
        <time>2022-02-20T09:48:24.000Z</time>
      </trkpt>
      <trkpt lat="47.29106" lon="-2.26067">
        <ele>13.800000190735</ele>
        <time>2022-02-20T09:48:29.000Z</time>
      </trkpt>
      <trkpt lat="47.29101" lon="-2.26046">
        <ele>13.800000190735</ele>
        <time>2022-02-20T09:48:33.000Z</time>
      </trkpt>
      <trkpt lat="47.29099" lon="-2.26041">
        <ele>13.800000190735</ele>
        <time>2022-02-20T09:48:34.000Z</time>
      </trkpt>
      <trkpt lat="47.29093" lon="-2.26018">
        <ele>13.800000190735</ele>
        <time>2022-02-20T09:48:39.000Z</time>
      </trkpt>
      <trkpt lat="47.2909" lon="-2.25988">
        <ele>13.800000190735</ele>
        <time>2022-02-20T09:48:45.000Z</time>
      </trkpt>
      <trkpt lat="47.291" lon="-2.2598">
        <ele>13.800000190735</ele>
        <time>2022-02-20T09:48:48.000Z</time>
      </trkpt>
      <trkpt lat="47.29101" lon="-2.25979">
        <ele>13.800000190735</ele>
        <time>2022-02-20T09:48:49.000Z</time>
      </trkpt>
      <trkpt lat="47.29103" lon="-2.25978">
        <ele>13.800000190735</ele>
        <time>2022-02-20T09:48:51.000Z</time>
      </trkpt>
      <trkpt lat="47.29107" lon="-2.25975">
        <ele>13.39999961853</ele>
        <time>2022-02-20T09:48:53.000Z</time>
      </trkpt>
      <trkpt lat="47.2911" lon="-2.25975">
        <ele>13</ele>
        <time>2022-02-20T09:48:54.000Z</time>
      </trkpt>
      <trkpt lat="47.29114" lon="-2.25975">
        <ele>12.60000038147</ele>
        <time>2022-02-20T09:48:55.000Z</time>
      </trkpt>
      <trkpt lat="47.29118" lon="-2.25974">
        <ele>12.199999809265</ele>
        <time>2022-02-20T09:48:56.000Z</time>
      </trkpt>
      <trkpt lat="47.29121" lon="-2.25974">
        <ele>11.800000190735</ele>
        <time>2022-02-20T09:48:57.000Z</time>
      </trkpt>
      <trkpt lat="47.29134" lon="-2.25975">
        <ele>11.800000190735</ele>
        <time>2022-02-20T09:49:00.000Z</time>
      </trkpt>
      <trkpt lat="47.29139" lon="-2.25977">
        <ele>11.800000190735</ele>
        <time>2022-02-20T09:49:01.000Z</time>
      </trkpt>
      <trkpt lat="47.29169" lon="-2.25981">
        <ele>11.800000190735</ele>
        <time>2022-02-20T09:49:08.000Z</time>
      </trkpt>
      <trkpt lat="47.2918" lon="-2.25987">
        <ele>11.800000190735</ele>
        <time>2022-02-20T09:49:12.000Z</time>
      </trkpt>
      <trkpt lat="47.29182" lon="-2.25986">
        <ele>11.800000190735</ele>
        <time>2022-02-20T09:49:15.000Z</time>
      </trkpt>
      <trkpt lat="47.2919" lon="-2.25977">
        <ele>13.800000190735</ele>
        <time>2022-02-20T10:01:59.000Z</time>
      </trkpt>
      <trkpt lat="47.29203" lon="-2.25974">
        <ele>13.800000190735</ele>
        <time>2022-02-20T10:02:04.000Z</time>
      </trkpt>
      <trkpt lat="47.29219" lon="-2.25967">
        <ele>13.800000190735</ele>
        <time>2022-02-20T10:02:09.000Z</time>
      </trkpt>
      <trkpt lat="47.29242" lon="-2.25955">
        <ele>13.800000190735</ele>
        <time>2022-02-20T10:02:15.000Z</time>
      </trkpt>
      <trkpt lat="47.29262" lon="-2.25946">
        <ele>13.800000190735</ele>
        <time>2022-02-20T10:02:21.000Z</time>
      </trkpt>
      <trkpt lat="47.29278" lon="-2.25938">
        <ele>13.800000190735</ele>
        <time>2022-02-20T10:02:27.000Z</time>
      </trkpt>
      <trkpt lat="47.29295" lon="-2.25929">
        <ele>13.800000190735</ele>
        <time>2022-02-20T10:02:33.000Z</time>
      </trkpt>
      <trkpt lat="47.29305" lon="-2.25915">
        <ele>13.800000190735</ele>
        <time>2022-02-20T10:02:38.000Z</time>
      </trkpt>
      <trkpt lat="47.29309" lon="-2.25908">
        <ele>13.39999961853</ele>
        <time>2022-02-20T10:02:40.000Z</time>
      </trkpt>
      <trkpt lat="47.29309" lon="-2.25905">
        <ele>13</ele>
        <time>2022-02-20T10:02:41.000Z</time>
      </trkpt>
      <trkpt lat="47.2931" lon="-2.25903">
        <ele>12.60000038147</ele>
        <time>2022-02-20T10:02:42.000Z</time>
      </trkpt>
      <trkpt lat="47.29309" lon="-2.25902">
        <ele>12.199999809265</ele>
        <time>2022-02-20T10:02:43.000Z</time>
      </trkpt>
      <trkpt lat="47.29309" lon="-2.25899">
        <ele>11.800000190735</ele>
        <time>2022-02-20T10:02:44.000Z</time>
      </trkpt>
      <trkpt lat="47.29301" lon="-2.25881">
        <ele>11.800000190735</ele>
        <time>2022-02-20T10:02:50.000Z</time>
      </trkpt>
      <trkpt lat="47.29291" lon="-2.25866">
        <ele>11.800000190735</ele>
        <time>2022-02-20T10:02:55.000Z</time>
      </trkpt>
      <trkpt lat="47.2929" lon="-2.25863">
        <ele>11.800000190735</ele>
        <time>2022-02-20T10:02:56.000Z</time>
      </trkpt>
      <trkpt lat="47.29294" lon="-2.25862">
        <ele>11.800000190735</ele>
        <time>2022-02-20T10:02:58.000Z</time>
      </trkpt>
      <trkpt lat="47.29305" lon="-2.25873">
        <ele>11.800000190735</ele>
        <time>2022-02-20T10:03:02.000Z</time>
      </trkpt>
      <trkpt lat="47.29313" lon="-2.25883">
        <ele>11.800000190735</ele>
        <time>2022-02-20T10:03:06.000Z</time>
      </trkpt>
      <trkpt lat="47.29318" lon="-2.25884">
        <ele>11.800000190735</ele>
        <time>2022-02-20T10:03:11.000Z</time>
      </trkpt>
      <trkpt lat="47.29316" lon="-2.25874">
        <ele>11.800000190735</ele>
        <time>2022-02-20T10:03:16.000Z</time>
      </trkpt>
      <trkpt lat="47.29306" lon="-2.25861">
        <ele>11.800000190735</ele>
        <time>2022-02-20T10:03:21.000Z</time>
      </trkpt>
      <trkpt lat="47.29305" lon="-2.25855">
        <ele>11.800000190735</ele>
        <time>2022-02-20T10:03:23.000Z</time>
      </trkpt>
      <trkpt lat="47.29307" lon="-2.2585">
        <ele>11.800000190735</ele>
        <time>2022-02-20T10:03:25.000Z</time>
      </trkpt>
      <trkpt lat="47.29316" lon="-2.2585">
        <ele>11.800000190735</ele>
        <time>2022-02-20T10:03:28.000Z</time>
      </trkpt>
      <trkpt lat="47.29319" lon="-2.2585">
        <ele>11.800000190735</ele>
        <time>2022-02-20T10:03:29.000Z</time>
      </trkpt>
      <trkpt lat="47.29327" lon="-2.25858">
        <ele>11.800000190735</ele>
        <time>2022-02-20T10:03:34.000Z</time>
      </trkpt>
      <trkpt lat="47.29331" lon="-2.25874">
        <ele>11.800000190735</ele>
        <time>2022-02-20T10:03:38.000Z</time>
      </trkpt>
      <trkpt lat="47.29335" lon="-2.25882">
        <ele>11.800000190735</ele>
        <time>2022-02-20T10:03:42.000Z</time>
      </trkpt>
      <trkpt lat="47.29335" lon="-2.25883">
        <ele>11.800000190735</ele>
        <time>2022-02-20T10:03:43.000Z</time>
      </trkpt>
      <trkpt lat="47.29345" lon="-2.25877">
        <ele>11.800000190735</ele>
        <time>2022-02-20T10:03:53.000Z</time>
      </trkpt>
      <trkpt lat="47.29349" lon="-2.25874">
        <ele>11.800000190735</ele>
        <time>2022-02-20T10:03:55.000Z</time>
      </trkpt>
      <trkpt lat="47.29359" lon="-2.25867">
        <ele>11.800000190735</ele>
        <time>2022-02-20T10:04:00.000Z</time>
      </trkpt>
      <trkpt lat="47.29357" lon="-2.25859">
        <ele>11.800000190735</ele>
        <time>2022-02-20T10:04:05.000Z</time>
      </trkpt>
      <trkpt lat="47.29356" lon="-2.25857">
        <ele>11.800000190735</ele>
        <time>2022-02-20T10:04:06.000Z</time>
      </trkpt>
      <trkpt lat="47.29355" lon="-2.25852">
        <ele>11.800000190735</ele>
        <time>2022-02-20T10:04:08.000Z</time>
      </trkpt>
      <trkpt lat="47.29354" lon="-2.25844">
        <ele>11.800000190735</ele>
        <time>2022-02-20T10:04:11.000Z</time>
      </trkpt>
      <trkpt lat="47.2935" lon="-2.25821">
        <ele>11.800000190735</ele>
        <time>2022-02-20T10:04:18.000Z</time>
      </trkpt>
      <trkpt lat="47.29347" lon="-2.25808">
        <ele>11.800000190735</ele>
        <time>2022-02-20T10:04:23.000Z</time>
      </trkpt>
      <trkpt lat="47.29347" lon="-2.25803">
        <ele>11.800000190735</ele>
        <time>2022-02-20T10:04:24.000Z</time>
      </trkpt>
      <trkpt lat="47.2935" lon="-2.25784">
        <ele>11.800000190735</ele>
        <time>2022-02-20T10:04:30.000Z</time>
      </trkpt>
      <trkpt lat="47.29351" lon="-2.25782">
        <ele>11.800000190735</ele>
        <time>2022-02-20T10:04:31.000Z</time>
      </trkpt>
      <trkpt lat="47.29365" lon="-2.25771">
        <ele>11.800000190735</ele>
        <time>2022-02-20T10:04:38.000Z</time>
      </trkpt>
      <trkpt lat="47.29372" lon="-2.25764">
        <ele>11.800000190735</ele>
        <time>2022-02-20T10:04:40.000Z</time>
      </trkpt>
      <trkpt lat="47.29381" lon="-2.25761">
        <ele>11.800000190735</ele>
        <time>2022-02-20T10:04:43.000Z</time>
      </trkpt>
      <trkpt lat="47.29384" lon="-2.25761">
        <ele>11.800000190735</ele>
        <time>2022-02-20T10:04:44.000Z</time>
      </trkpt>
      <trkpt lat="47.29392" lon="-2.2576">
        <ele>11.800000190735</ele>
        <time>2022-02-20T10:04:47.000Z</time>
      </trkpt>
      <trkpt lat="47.29398" lon="-2.25761">
        <ele>11.800000190735</ele>
        <time>2022-02-20T10:04:49.000Z</time>
      </trkpt>
      <trkpt lat="47.29403" lon="-2.25767">
        <ele>11.39999961853</ele>
        <time>2022-02-20T10:04:51.000Z</time>
      </trkpt>
      <trkpt lat="47.29405" lon="-2.2577">
        <ele>11</ele>
        <time>2022-02-20T10:04:52.000Z</time>
      </trkpt>
      <trkpt lat="47.29407" lon="-2.25771">
        <ele>10.60000038147</ele>
        <time>2022-02-20T10:04:53.000Z</time>
      </trkpt>
      <trkpt lat="47.29409" lon="-2.25773">
        <ele>10.199999809265</ele>
        <time>2022-02-20T10:04:54.000Z</time>
      </trkpt>
      <trkpt lat="47.29413" lon="-2.25774">
        <ele>9.8000001907349</ele>
        <time>2022-02-20T10:04:55.000Z</time>
      </trkpt>
      <trkpt lat="47.29423" lon="-2.25782">
        <ele>9.8000001907349</ele>
        <time>2022-02-20T10:04:58.000Z</time>
      </trkpt>
      <trkpt lat="47.29423" lon="-2.25784">
        <ele>9.8000001907349</ele>
        <time>2022-02-20T10:04:59.000Z</time>
      </trkpt>
      <trkpt lat="47.29426" lon="-2.25793">
        <ele>9.8000001907349</ele>
        <time>2022-02-20T10:05:03.000Z</time>
      </trkpt>
      <trkpt lat="47.29427" lon="-2.25794">
        <ele>9.8000001907349</ele>
        <time>2022-02-20T10:05:04.000Z</time>
      </trkpt>
      <trkpt lat="47.2943" lon="-2.25798">
        <ele>9.8000001907349</ele>
        <time>2022-02-20T10:05:15.000Z</time>
      </trkpt>
      <trkpt lat="47.29434" lon="-2.25805">
        <ele>9.8000001907349</ele>
        <time>2022-02-20T10:05:17.000Z</time>
      </trkpt>
      <trkpt lat="47.29435" lon="-2.25814">
        <ele>9.8000001907349</ele>
        <time>2022-02-20T10:05:20.000Z</time>
      </trkpt>
      <trkpt lat="47.29435" lon="-2.25817">
        <ele>9.8000001907349</ele>
        <time>2022-02-20T10:05:21.000Z</time>
      </trkpt>
      <trkpt lat="47.29429" lon="-2.2584">
        <ele>9.8000001907349</ele>
        <time>2022-02-20T10:05:26.000Z</time>
      </trkpt>
      <trkpt lat="47.29426" lon="-2.25851">
        <ele>9.8000001907349</ele>
        <time>2022-02-20T10:05:29.000Z</time>
      </trkpt>
      <trkpt lat="47.29428" lon="-2.25854">
        <ele>9.8000001907349</ele>
        <time>2022-02-20T10:05:30.000Z</time>
      </trkpt>
      <trkpt lat="47.29432" lon="-2.25863">
        <ele>9.8000001907349</ele>
        <time>2022-02-20T10:05:33.000Z</time>
      </trkpt>
      <trkpt lat="47.29434" lon="-2.2587">
        <ele>9.8000001907349</ele>
        <time>2022-02-20T10:05:35.000Z</time>
      </trkpt>
      <trkpt lat="47.29436" lon="-2.25873">
        <ele>9.8000001907349</ele>
        <time>2022-02-20T10:05:38.000Z</time>
      </trkpt>
      <trkpt lat="47.2944" lon="-2.25899">
        <ele>9.8000001907349</ele>
        <time>2022-02-20T10:05:54.000Z</time>
      </trkpt>
      <trkpt lat="47.29441" lon="-2.259">
        <ele>9.8000001907349</ele>
        <time>2022-02-20T10:05:55.000Z</time>
      </trkpt>
      <trkpt lat="47.29444" lon="-2.25917">
        <ele>9.8000001907349</ele>
        <time>2022-02-20T10:06:00.000Z</time>
      </trkpt>
      <trkpt lat="47.29444" lon="-2.25929">
        <ele>9.8000001907349</ele>
        <time>2022-02-20T10:06:03.000Z</time>
      </trkpt>
      <trkpt lat="47.29444" lon="-2.25932">
        <ele>9.8000001907349</ele>
        <time>2022-02-20T10:06:04.000Z</time>
      </trkpt>
      <trkpt lat="47.29432" lon="-2.25942">
        <ele>9.8000001907349</ele>
        <time>2022-02-20T10:06:08.000Z</time>
      </trkpt>
      <trkpt lat="47.29429" lon="-2.25946">
        <ele>9.8000001907349</ele>
        <time>2022-02-20T10:06:09.000Z</time>
      </trkpt>
      <trkpt lat="47.29417" lon="-2.25953">
        <ele>9.8000001907349</ele>
        <time>2022-02-20T10:06:12.000Z</time>
      </trkpt>
      <trkpt lat="47.29402" lon="-2.25958">
        <ele>9.8000001907349</ele>
        <time>2022-02-20T10:06:17.000Z</time>
      </trkpt>
      <trkpt lat="47.29392" lon="-2.25955">
        <ele>9.8000001907349</ele>
        <time>2022-02-20T10:06:21.000Z</time>
      </trkpt>
      <trkpt lat="47.29393" lon="-2.25967">
        <ele>9.8000001907349</ele>
        <time>2022-02-20T10:06:25.000Z</time>
      </trkpt>
      <trkpt lat="47.29393" lon="-2.25994">
        <ele>9.8000001907349</ele>
        <time>2022-02-20T10:06:30.000Z</time>
      </trkpt>
      <trkpt lat="47.29393" lon="-2.25999">
        <ele>9.8000001907349</ele>
        <time>2022-02-20T10:06:31.000Z</time>
      </trkpt>
      <trkpt lat="47.29392" lon="-2.26024">
        <ele>9.8000001907349</ele>
        <time>2022-02-20T10:06:36.000Z</time>
      </trkpt>
      <trkpt lat="47.29393" lon="-2.2603">
        <ele>9.8000001907349</ele>
        <time>2022-02-20T10:06:38.000Z</time>
      </trkpt>
      <trkpt lat="47.29398" lon="-2.2604">
        <ele>9.8000001907349</ele>
        <time>2022-02-20T10:06:41.000Z</time>
      </trkpt>
      <trkpt lat="47.29411" lon="-2.26061">
        <ele>9.8000001907349</ele>
        <time>2022-02-20T10:06:47.000Z</time>
      </trkpt>
      <trkpt lat="47.29418" lon="-2.26077">
        <ele>9.8000001907349</ele>
        <time>2022-02-20T10:06:52.000Z</time>
      </trkpt>
      <trkpt lat="47.29423" lon="-2.26107">
        <ele>9.8000001907349</ele>
        <time>2022-02-20T10:06:58.000Z</time>
      </trkpt>
      <trkpt lat="47.29417" lon="-2.26138">
        <ele>9.8000001907349</ele>
        <time>2022-02-20T10:07:04.000Z</time>
      </trkpt>
      <trkpt lat="47.29421" lon="-2.2615">
        <ele>9.8000001907349</ele>
        <time>2022-02-20T10:07:07.000Z</time>
      </trkpt>
      <trkpt lat="47.29424" lon="-2.26152">
        <ele>9.8000001907349</ele>
        <time>2022-02-20T10:07:08.000Z</time>
      </trkpt>
      <trkpt lat="47.29433" lon="-2.26159">
        <ele>9.8000001907349</ele>
        <time>2022-02-20T10:07:11.000Z</time>
      </trkpt>
      <trkpt lat="47.29442" lon="-2.26168">
        <ele>9.8000001907349</ele>
        <time>2022-02-20T10:07:14.000Z</time>
      </trkpt>
      <trkpt lat="47.29453" lon="-2.26177">
        <ele>9.8000001907349</ele>
        <time>2022-02-20T10:07:19.000Z</time>
      </trkpt>
      <trkpt lat="47.29474" lon="-2.26179">
        <ele>9.8000001907349</ele>
        <time>2022-02-20T10:07:24.000Z</time>
      </trkpt>
      <trkpt lat="47.295" lon="-2.2619">
        <ele>9.8000001907349</ele>
        <time>2022-02-20T10:07:30.000Z</time>
      </trkpt>
      <trkpt lat="47.29513" lon="-2.26197">
        <ele>9.8000001907349</ele>
        <time>2022-02-20T10:07:33.000Z</time>
      </trkpt>
      <trkpt lat="47.29523" lon="-2.26199">
        <ele>9.1999998092651</ele>
        <time>2022-02-20T10:07:35.000Z</time>
      </trkpt>
      <trkpt lat="47.29529" lon="-2.262">
        <ele>8.8000001907349</ele>
        <time>2022-02-20T10:07:36.000Z</time>
      </trkpt>
      <trkpt lat="47.29534" lon="-2.26201">
        <ele>8.1999998092651</ele>
        <time>2022-02-20T10:07:37.000Z</time>
      </trkpt>
      <trkpt lat="47.29538" lon="-2.26203">
        <ele>7.8000001907349</ele>
        <time>2022-02-20T10:07:38.000Z</time>
      </trkpt>
      <trkpt lat="47.29543" lon="-2.26204">
        <ele>7.4000000953674</ele>
        <time>2022-02-20T10:07:39.000Z</time>
      </trkpt>
      <trkpt lat="47.2955" lon="-2.26204">
        <ele>7.4000000953674</ele>
        <time>2022-02-20T10:07:41.000Z</time>
      </trkpt>
      <trkpt lat="47.29553" lon="-2.26206">
        <ele>7</ele>
        <time>2022-02-20T10:07:42.000Z</time>
      </trkpt>
      <trkpt lat="47.29555" lon="-2.26208">
        <ele>6.5999999046326</ele>
        <time>2022-02-20T10:07:43.000Z</time>
      </trkpt>
      <trkpt lat="47.29556" lon="-2.26211">
        <ele>6.1999998092651</ele>
        <time>2022-02-20T10:07:44.000Z</time>
      </trkpt>
      <trkpt lat="47.29556" lon="-2.26214">
        <ele>5.5999999046326</ele>
        <time>2022-02-20T10:07:45.000Z</time>
      </trkpt>
      <trkpt lat="47.29554" lon="-2.26216">
        <ele>5.1999998092651</ele>
        <time>2022-02-20T10:07:46.000Z</time>
      </trkpt>
      <trkpt lat="47.29552" lon="-2.26219">
        <ele>5.1999998092651</ele>
        <time>2022-02-20T10:07:47.000Z</time>
      </trkpt>
      <trkpt lat="47.29537" lon="-2.26242">
        <ele>5.1999998092651</ele>
        <time>2022-02-20T10:07:54.000Z</time>
      </trkpt>
      <trkpt lat="47.29544" lon="-2.2625">
        <ele>5.1999998092651</ele>
        <time>2022-02-20T10:07:57.000Z</time>
      </trkpt>
      <trkpt lat="47.29553" lon="-2.26251">
        <ele>5.1999998092651</ele>
        <time>2022-02-20T10:07:59.000Z</time>
      </trkpt>
      <trkpt lat="47.29569" lon="-2.26251">
        <ele>5.1999998092651</ele>
        <time>2022-02-20T10:08:02.000Z</time>
      </trkpt>
      <trkpt lat="47.29575" lon="-2.26251">
        <ele>4.8000001907349</ele>
        <time>2022-02-20T10:08:03.000Z</time>
      </trkpt>
      <trkpt lat="47.29582" lon="-2.26251">
        <ele>4.4000000953674</ele>
        <time>2022-02-20T10:08:04.000Z</time>
      </trkpt>
      <trkpt lat="47.29588" lon="-2.26252">
        <ele>4</ele>
        <time>2022-02-20T10:08:05.000Z</time>
      </trkpt>
      <trkpt lat="47.29595" lon="-2.26252">
        <ele>3.5999999046326</ele>
        <time>2022-02-20T10:08:06.000Z</time>
      </trkpt>
      <trkpt lat="47.29602" lon="-2.26253">
        <ele>3.2000000476837</ele>
        <time>2022-02-20T10:08:07.000Z</time>
      </trkpt>
      <trkpt lat="47.2963" lon="-2.26252">
        <ele>2.7999999523163</ele>
        <time>2022-02-20T10:08:11.000Z</time>
      </trkpt>
      <trkpt lat="47.29637" lon="-2.26251">
        <ele>2.2000000476837</ele>
        <time>2022-02-20T10:08:12.000Z</time>
      </trkpt>
      <trkpt lat="47.29644" lon="-2.26249">
        <ele>1.7999999523163</ele>
        <time>2022-02-20T10:08:13.000Z</time>
      </trkpt>
      <trkpt lat="47.29651" lon="-2.26247">
        <ele>1.3999999761581</ele>
        <time>2022-02-20T10:08:14.000Z</time>
      </trkpt>
      <trkpt lat="47.29658" lon="-2.26243">
        <ele>0.80000001192093</ele>
        <time>2022-02-20T10:08:15.000Z</time>
      </trkpt>
      <trkpt lat="47.29672" lon="-2.26235">
        <ele>0.40000000596046</ele>
        <time>2022-02-20T10:08:17.000Z</time>
      </trkpt>
      <trkpt lat="47.29678" lon="-2.2623">
        <ele>-0.20000000298023</ele>
        <time>2022-02-20T10:08:18.000Z</time>
      </trkpt>
      <trkpt lat="47.29684" lon="-2.26226">
        <ele>-0.80000001192093</ele>
        <time>2022-02-20T10:08:19.000Z</time>
      </trkpt>
      <trkpt lat="47.29691" lon="-2.26221">
        <ele>-1.7999999523163</ele>
        <time>2022-02-20T10:08:20.000Z</time>
      </trkpt>
      <trkpt lat="47.2971" lon="-2.26209">
        <ele>-1.7999999523163</ele>
        <time>2022-02-20T10:08:23.000Z</time>
      </trkpt>
      <trkpt lat="47.29717" lon="-2.26207">
        <ele>-1.7999999523163</ele>
        <time>2022-02-20T10:08:24.000Z</time>
      </trkpt>
      <trkpt lat="47.29736" lon="-2.26208">
        <ele>-1.7999999523163</ele>
        <time>2022-02-20T10:08:27.000Z</time>
      </trkpt>
      <trkpt lat="47.29742" lon="-2.2621">
        <ele>-1.7999999523163</ele>
        <time>2022-02-20T10:08:28.000Z</time>
      </trkpt>
      <trkpt lat="47.29764" lon="-2.2622">
        <ele>-1.7999999523163</ele>
        <time>2022-02-20T10:08:32.000Z</time>
      </trkpt>
      <trkpt lat="47.29774" lon="-2.26227">
        <ele>-1.7999999523163</ele>
        <time>2022-02-20T10:08:34.000Z</time>
      </trkpt>
      <trkpt lat="47.29804" lon="-2.26258">
        <ele>-1.7999999523163</ele>
        <time>2022-02-20T10:08:41.000Z</time>
      </trkpt>
      <trkpt lat="47.29821" lon="-2.26271">
        <ele>-1.7999999523163</ele>
        <time>2022-02-20T10:08:45.000Z</time>
      </trkpt>
      <trkpt lat="47.29831" lon="-2.26275">
        <ele>-1.7999999523163</ele>
        <time>2022-02-20T10:08:47.000Z</time>
      </trkpt>
      <trkpt lat="47.29836" lon="-2.26277">
        <ele>-1.7999999523163</ele>
        <time>2022-02-20T10:08:48.000Z</time>
      </trkpt>
      <trkpt lat="47.29856" lon="-2.26279">
        <ele>-1.7999999523163</ele>
        <time>2022-02-20T10:08:52.000Z</time>
      </trkpt>
      <trkpt lat="47.29861" lon="-2.2628">
        <ele>-1.7999999523163</ele>
        <time>2022-02-20T10:08:53.000Z</time>
      </trkpt>
      <trkpt lat="47.29886" lon="-2.26278">
        <ele>-1.7999999523163</ele>
        <time>2022-02-20T10:08:58.000Z</time>
      </trkpt>
      <trkpt lat="47.29912" lon="-2.26277">
        <ele>-1.7999999523163</ele>
        <time>2022-02-20T10:09:02.000Z</time>
      </trkpt>
      <trkpt lat="47.29959" lon="-2.26275">
        <ele>-1.7999999523163</ele>
        <time>2022-02-20T10:09:09.000Z</time>
      </trkpt>
      <trkpt lat="47.29965" lon="-2.26277">
        <ele>-1.7999999523163</ele>
        <time>2022-02-20T10:09:10.000Z</time>
      </trkpt>
      <trkpt lat="47.29988" lon="-2.26294">
        <ele>-1.7999999523163</ele>
        <time>2022-02-20T10:09:14.000Z</time>
      </trkpt>
      <trkpt lat="47.29993" lon="-2.263">
        <ele>-1.7999999523163</ele>
        <time>2022-02-20T10:09:15.000Z</time>
      </trkpt>
      <trkpt lat="47.30033" lon="-2.26345">
        <ele>-1.7999999523163</ele>
        <time>2022-02-20T10:09:23.000Z</time>
      </trkpt>
      <trkpt lat="47.30059" lon="-2.26381">
        <ele>-1.7999999523163</ele>
        <time>2022-02-20T10:09:29.000Z</time>
      </trkpt>
      <trkpt lat="47.30087" lon="-2.26433">
        <ele>-1.7999999523163</ele>
        <time>2022-02-20T10:09:37.000Z</time>
      </trkpt>
      <trkpt lat="47.30108" lon="-2.26479">
        <ele>-1.7999999523163</ele>
        <time>2022-02-20T10:09:44.000Z</time>
      </trkpt>
      <trkpt lat="47.30132" lon="-2.26532">
        <ele>-1.7999999523163</ele>
        <time>2022-02-20T10:09:52.000Z</time>
      </trkpt>
      <trkpt lat="47.30138" lon="-2.26545">
        <ele>-1.3999999761581</ele>
        <time>2022-02-20T10:09:54.000Z</time>
      </trkpt>
      <trkpt lat="47.30141" lon="-2.26551">
        <ele>-1</ele>
        <time>2022-02-20T10:09:55.000Z</time>
      </trkpt>
      <trkpt lat="47.30144" lon="-2.26558">
        <ele>-0.60000002384186</ele>
        <time>2022-02-20T10:09:56.000Z</time>
      </trkpt>
      <trkpt lat="47.30147" lon="-2.26564">
        <ele>-0.20000000298023</ele>
        <time>2022-02-20T10:09:57.000Z</time>
      </trkpt>
      <trkpt lat="47.3015" lon="-2.26571">
        <ele>0.20000000298023</ele>
        <time>2022-02-20T10:09:58.000Z</time>
      </trkpt>
      <trkpt lat="47.30158" lon="-2.26591">
        <ele>0.20000000298023</ele>
        <time>2022-02-20T10:10:01.000Z</time>
      </trkpt>
      <trkpt lat="47.30176" lon="-2.26628">
        <ele>0.20000000298023</ele>
        <time>2022-02-20T10:10:07.000Z</time>
      </trkpt>
      <trkpt lat="47.30189" lon="-2.26651">
        <ele>0.80000001192093</ele>
        <time>2022-02-20T10:10:11.000Z</time>
      </trkpt>
      <trkpt lat="47.30193" lon="-2.26656">
        <ele>1.2000000476837</ele>
        <time>2022-02-20T10:10:12.000Z</time>
      </trkpt>
      <trkpt lat="47.30196" lon="-2.26662">
        <ele>1.7999999523163</ele>
        <time>2022-02-20T10:10:13.000Z</time>
      </trkpt>
      <trkpt lat="47.30199" lon="-2.26668">
        <ele>2.2000000476837</ele>
        <time>2022-02-20T10:10:14.000Z</time>
      </trkpt>
      <trkpt lat="47.30202" lon="-2.26674">
        <ele>2.7999999523163</ele>
        <time>2022-02-20T10:10:15.000Z</time>
      </trkpt>
      <trkpt lat="47.30214" lon="-2.26699">
        <ele>2.7999999523163</ele>
        <time>2022-02-20T10:10:19.000Z</time>
      </trkpt>
      <trkpt lat="47.30216" lon="-2.26706">
        <ele>2.7999999523163</ele>
        <time>2022-02-20T10:10:20.000Z</time>
      </trkpt>
      <trkpt lat="47.30236" lon="-2.26758">
        <ele>2.7999999523163</ele>
        <time>2022-02-20T10:10:28.000Z</time>
      </trkpt>
      <trkpt lat="47.3025" lon="-2.26812">
        <ele>2.7999999523163</ele>
        <time>2022-02-20T10:10:35.000Z</time>
      </trkpt>
      <trkpt lat="47.3026" lon="-2.26869">
        <ele>2.7999999523163</ele>
        <time>2022-02-20T10:10:42.000Z</time>
      </trkpt>
      <trkpt lat="47.30273" lon="-2.26918">
        <ele>2.7999999523163</ele>
        <time>2022-02-20T10:10:48.000Z</time>
      </trkpt>
      <trkpt lat="47.30296" lon="-2.26965">
        <ele>2.7999999523163</ele>
        <time>2022-02-20T10:10:54.000Z</time>
      </trkpt>
      <trkpt lat="47.30325" lon="-2.27018">
        <ele>2.7999999523163</ele>
        <time>2022-02-20T10:11:01.000Z</time>
      </trkpt>
      <trkpt lat="47.30361" lon="-2.27086">
        <ele>2.7999999523163</ele>
        <time>2022-02-20T10:11:10.000Z</time>
      </trkpt>
      <trkpt lat="47.30372" lon="-2.27108">
        <ele>2</ele>
        <time>2022-02-20T10:11:13.000Z</time>
      </trkpt>
      <trkpt lat="47.30376" lon="-2.27116">
        <ele>1.6000000238419</ele>
        <time>2022-02-20T10:11:14.000Z</time>
      </trkpt>
      <trkpt lat="47.3038" lon="-2.27125">
        <ele>1.2000000476837</ele>
        <time>2022-02-20T10:11:15.000Z</time>
      </trkpt>
      <trkpt lat="47.30384" lon="-2.27132">
        <ele>0.80000001192093</ele>
        <time>2022-02-20T10:11:16.000Z</time>
      </trkpt>
      <trkpt lat="47.30388" lon="-2.27139">
        <ele>0.80000001192093</ele>
        <time>2022-02-20T10:11:17.000Z</time>
      </trkpt>
      <trkpt lat="47.3039" lon="-2.27147">
        <ele>0.80000001192093</ele>
        <time>2022-02-20T10:11:18.000Z</time>
      </trkpt>
      <trkpt lat="47.30388" lon="-2.27161">
        <ele>0.80000001192093</ele>
        <time>2022-02-20T10:11:20.000Z</time>
      </trkpt>
      <trkpt lat="47.30375" lon="-2.27169">
        <ele>0.80000001192093</ele>
        <time>2022-02-20T10:11:23.000Z</time>
      </trkpt>
      <trkpt lat="47.3037" lon="-2.2717">
        <ele>0.80000001192093</ele>
        <time>2022-02-20T10:11:24.000Z</time>
      </trkpt>
      <trkpt lat="47.30337" lon="-2.27176">
        <ele>0.80000001192093</ele>
        <time>2022-02-20T10:11:30.000Z</time>
      </trkpt>
      <trkpt lat="47.30312" lon="-2.27183">
        <ele>0.80000001192093</ele>
        <time>2022-02-20T10:11:35.000Z</time>
      </trkpt>
      <trkpt lat="47.30307" lon="-2.27183">
        <ele>0.80000001192093</ele>
        <time>2022-02-20T10:11:36.000Z</time>
      </trkpt>
      <trkpt lat="47.30277" lon="-2.27185">
        <ele>0.80000001192093</ele>
        <time>2022-02-20T10:11:42.000Z</time>
      </trkpt>
      <trkpt lat="47.30272" lon="-2.27184">
        <ele>0.80000001192093</ele>
        <time>2022-02-20T10:11:43.000Z</time>
      </trkpt>
      <trkpt lat="47.30249" lon="-2.27175">
        <ele>0.80000001192093</ele>
        <time>2022-02-20T10:11:48.000Z</time>
      </trkpt>
      <trkpt lat="47.30219" lon="-2.27158">
        <ele>0.80000001192093</ele>
        <time>2022-02-20T10:11:55.000Z</time>
      </trkpt>
      <trkpt lat="47.30205" lon="-2.27162">
        <ele>0.80000001192093</ele>
        <time>2022-02-20T10:11:58.000Z</time>
      </trkpt>
      <trkpt lat="47.30187" lon="-2.27184">
        <ele>0.80000001192093</ele>
        <time>2022-02-20T10:12:02.000Z</time>
      </trkpt>
      <trkpt lat="47.30155" lon="-2.27225">
        <ele>0.80000001192093</ele>
        <time>2022-02-20T10:12:09.000Z</time>
      </trkpt>
      <trkpt lat="47.3012" lon="-2.27272">
        <ele>0.80000001192093</ele>
        <time>2022-02-20T10:12:17.000Z</time>
      </trkpt>
      <trkpt lat="47.30108" lon="-2.27289">
        <ele>0.80000001192093</ele>
        <time>2022-02-20T10:12:20.000Z</time>
      </trkpt>
      <trkpt lat="47.30097" lon="-2.27308">
        <ele>0.80000001192093</ele>
        <time>2022-02-20T10:12:23.000Z</time>
      </trkpt>
      <trkpt lat="47.30078" lon="-2.27351">
        <ele>0.80000001192093</ele>
        <time>2022-02-20T10:12:29.000Z</time>
      </trkpt>
      <trkpt lat="47.30056" lon="-2.27398">
        <ele>0.80000001192093</ele>
        <time>2022-02-20T10:12:36.000Z</time>
      </trkpt>
      <trkpt lat="47.30027" lon="-2.27439">
        <ele>0.80000001192093</ele>
        <time>2022-02-20T10:12:43.000Z</time>
      </trkpt>
      <trkpt lat="47.30014" lon="-2.27457">
        <ele>0.80000001192093</ele>
        <time>2022-02-20T10:12:46.000Z</time>
      </trkpt>
      <trkpt lat="47.30004" lon="-2.27478">
        <ele>0.80000001192093</ele>
        <time>2022-02-20T10:12:49.000Z</time>
      </trkpt>
      <trkpt lat="47.29999" lon="-2.27493">
        <ele>0.80000001192093</ele>
        <time>2022-02-20T10:12:51.000Z</time>
      </trkpt>
      <trkpt lat="47.29993" lon="-2.27516">
        <ele>0.80000001192093</ele>
        <time>2022-02-20T10:12:54.000Z</time>
      </trkpt>
      <trkpt lat="47.2999" lon="-2.27531">
        <ele>0.80000001192093</ele>
        <time>2022-02-20T10:12:56.000Z</time>
      </trkpt>
      <trkpt lat="47.29984" lon="-2.27554">
        <ele>0.80000001192093</ele>
        <time>2022-02-20T10:12:59.000Z</time>
      </trkpt>
      <trkpt lat="47.29968" lon="-2.27604">
        <ele>0.80000001192093</ele>
        <time>2022-02-20T10:13:06.000Z</time>
      </trkpt>
      <trkpt lat="47.29965" lon="-2.27618">
        <ele>1.2000000476837</ele>
        <time>2022-02-20T10:13:08.000Z</time>
      </trkpt>
      <trkpt lat="47.29964" lon="-2.27626">
        <ele>1.6000000238419</ele>
        <time>2022-02-20T10:13:09.000Z</time>
      </trkpt>
      <trkpt lat="47.29963" lon="-2.27633">
        <ele>2</ele>
        <time>2022-02-20T10:13:10.000Z</time>
      </trkpt>
      <trkpt lat="47.29962" lon="-2.27641">
        <ele>2.4000000953674</ele>
        <time>2022-02-20T10:13:11.000Z</time>
      </trkpt>
      <trkpt lat="47.29961" lon="-2.27648">
        <ele>2.7999999523163</ele>
        <time>2022-02-20T10:13:12.000Z</time>
      </trkpt>
      <trkpt lat="47.29955" lon="-2.27703">
        <ele>2.7999999523163</ele>
        <time>2022-02-20T10:13:19.000Z</time>
      </trkpt>
      <trkpt lat="47.29952" lon="-2.2775">
        <ele>2.7999999523163</ele>
        <time>2022-02-20T10:13:25.000Z</time>
      </trkpt>
      <trkpt lat="47.29951" lon="-2.27758">
        <ele>2.7999999523163</ele>
        <time>2022-02-20T10:13:26.000Z</time>
      </trkpt>
      <trkpt lat="47.29948" lon="-2.27781">
        <ele>3.2000000476837</ele>
        <time>2022-02-20T10:13:29.000Z</time>
      </trkpt>
      <trkpt lat="47.29947" lon="-2.27789">
        <ele>3.7999999523163</ele>
        <time>2022-02-20T10:13:30.000Z</time>
      </trkpt>
      <trkpt lat="47.29947" lon="-2.27796">
        <ele>4.1999998092651</ele>
        <time>2022-02-20T10:13:31.000Z</time>
      </trkpt>
      <trkpt lat="47.29946" lon="-2.27804">
        <ele>4.5999999046326</ele>
        <time>2022-02-20T10:13:32.000Z</time>
      </trkpt>
      <trkpt lat="47.29946" lon="-2.27811">
        <ele>5</ele>
        <time>2022-02-20T10:13:33.000Z</time>
      </trkpt>
      <trkpt lat="47.2994" lon="-2.27876">
        <ele>5</ele>
        <time>2022-02-20T10:13:41.000Z</time>
      </trkpt>
      <trkpt lat="47.29935" lon="-2.27942">
        <ele>5</ele>
        <time>2022-02-20T10:13:49.000Z</time>
      </trkpt>
      <trkpt lat="47.29933" lon="-2.27968">
        <ele>5</ele>
        <time>2022-02-20T10:13:52.000Z</time>
      </trkpt>
      <trkpt lat="47.29934" lon="-2.27992">
        <ele>5</ele>
        <time>2022-02-20T10:13:55.000Z</time>
      </trkpt>
      <trkpt lat="47.29939" lon="-2.28022">
        <ele>5</ele>
        <time>2022-02-20T10:13:59.000Z</time>
      </trkpt>
      <trkpt lat="47.29942" lon="-2.28028">
        <ele>5</ele>
        <time>2022-02-20T10:14:00.000Z</time>
      </trkpt>
      <trkpt lat="47.29956" lon="-2.28046">
        <ele>5</ele>
        <time>2022-02-20T10:14:04.000Z</time>
      </trkpt>
      <trkpt lat="47.2997" lon="-2.28041">
        <ele>5</ele>
        <time>2022-02-20T10:14:07.000Z</time>
      </trkpt>
      <trkpt lat="47.29975" lon="-2.28039">
        <ele>5</ele>
        <time>2022-02-20T10:14:08.000Z</time>
      </trkpt>
      <trkpt lat="47.29989" lon="-2.28034">
        <ele>5</ele>
        <time>2022-02-20T10:14:12.000Z</time>
      </trkpt>
      <trkpt lat="47.29992" lon="-2.28036">
        <ele>5</ele>
        <time>2022-02-20T10:14:13.000Z</time>
      </trkpt>
      <trkpt lat="47.29992" lon="-2.28045">
        <ele>5</ele>
        <time>2022-02-20T10:14:15.000Z</time>
      </trkpt>
      <trkpt lat="47.29983" lon="-2.28072">
        <ele>5</ele>
        <time>2022-02-20T10:14:20.000Z</time>
      </trkpt>
      <trkpt lat="47.2997" lon="-2.28119">
        <ele>5</ele>
        <time>2022-02-20T10:14:27.000Z</time>
      </trkpt>
      <trkpt lat="47.29957" lon="-2.28161">
        <ele>5</ele>
        <time>2022-02-20T10:14:33.000Z</time>
      </trkpt>
      <trkpt lat="47.29948" lon="-2.28191">
        <ele>5</ele>
        <time>2022-02-20T10:14:37.000Z</time>
      </trkpt>
      <trkpt lat="47.29947" lon="-2.28198">
        <ele>5</ele>
        <time>2022-02-20T10:14:38.000Z</time>
      </trkpt>
      <trkpt lat="47.29948" lon="-2.2822">
        <ele>5</ele>
        <time>2022-02-20T10:14:41.000Z</time>
      </trkpt>
      <trkpt lat="47.29949" lon="-2.28228">
        <ele>5</ele>
        <time>2022-02-20T10:14:42.000Z</time>
      </trkpt>
      <trkpt lat="47.29954" lon="-2.28274">
        <ele>5</ele>
        <time>2022-02-20T10:14:48.000Z</time>
      </trkpt>
      <trkpt lat="47.29954" lon="-2.28308">
        <ele>5</ele>
        <time>2022-02-20T10:14:53.000Z</time>
      </trkpt>
      <trkpt lat="47.29953" lon="-2.28328">
        <ele>5</ele>
        <time>2022-02-20T10:14:56.000Z</time>
      </trkpt>
      <trkpt lat="47.29952" lon="-2.28335">
        <ele>5</ele>
        <time>2022-02-20T10:14:57.000Z</time>
      </trkpt>
      <trkpt lat="47.29951" lon="-2.28357">
        <ele>5</ele>
        <time>2022-02-20T10:15:00.000Z</time>
      </trkpt>
      <trkpt lat="47.2995" lon="-2.28372">
        <ele>5</ele>
        <time>2022-02-20T10:15:02.000Z</time>
      </trkpt>
      <trkpt lat="47.2995" lon="-2.2838">
        <ele>5</ele>
        <time>2022-02-20T10:15:03.000Z</time>
      </trkpt>
      <trkpt lat="47.29952" lon="-2.28405">
        <ele>5</ele>
        <time>2022-02-20T10:15:06.000Z</time>
      </trkpt>
      <trkpt lat="47.29945" lon="-2.28425">
        <ele>5</ele>
        <time>2022-02-20T10:15:09.000Z</time>
      </trkpt>
      <trkpt lat="47.29939" lon="-2.28444">
        <ele>5</ele>
        <time>2022-02-20T10:15:12.000Z</time>
      </trkpt>
      <trkpt lat="47.29938" lon="-2.2846">
        <ele>5</ele>
        <time>2022-02-20T10:15:14.000Z</time>
      </trkpt>
      <trkpt lat="47.29938" lon="-2.28477">
        <ele>5</ele>
        <time>2022-02-20T10:15:16.000Z</time>
      </trkpt>
      <trkpt lat="47.29939" lon="-2.28485">
        <ele>5</ele>
        <time>2022-02-20T10:15:17.000Z</time>
      </trkpt>
      <trkpt lat="47.29939" lon="-2.28492">
        <ele>5</ele>
        <time>2022-02-20T10:15:18.000Z</time>
      </trkpt>
      <trkpt lat="47.29934" lon="-2.28513">
        <ele>5</ele>
        <time>2022-02-20T10:15:21.000Z</time>
      </trkpt>
      <trkpt lat="47.29931" lon="-2.2852">
        <ele>5</ele>
        <time>2022-02-20T10:15:22.000Z</time>
      </trkpt>
      <trkpt lat="47.29928" lon="-2.28534">
        <ele>5</ele>
        <time>2022-02-20T10:15:24.000Z</time>
      </trkpt>
      <trkpt lat="47.2993" lon="-2.2855">
        <ele>5</ele>
        <time>2022-02-20T10:15:26.000Z</time>
      </trkpt>
      <trkpt lat="47.2994" lon="-2.28564">
        <ele>5</ele>
        <time>2022-02-20T10:15:29.000Z</time>
      </trkpt>
      <trkpt lat="47.29941" lon="-2.28576">
        <ele>5</ele>
        <time>2022-02-20T10:15:31.000Z</time>
      </trkpt>
      <trkpt lat="47.29939" lon="-2.28588">
        <ele>5</ele>
        <time>2022-02-20T10:15:33.000Z</time>
      </trkpt>
      <trkpt lat="47.29936" lon="-2.28608">
        <ele>5</ele>
        <time>2022-02-20T10:15:36.000Z</time>
      </trkpt>
      <trkpt lat="47.29934" lon="-2.28622">
        <ele>5</ele>
        <time>2022-02-20T10:15:38.000Z</time>
      </trkpt>
      <trkpt lat="47.29929" lon="-2.28641">
        <ele>5</ele>
        <time>2022-02-20T10:15:41.000Z</time>
      </trkpt>
      <trkpt lat="47.29928" lon="-2.28648">
        <ele>5</ele>
        <time>2022-02-20T10:15:42.000Z</time>
      </trkpt>
      <trkpt lat="47.29926" lon="-2.28654">
        <ele>5</ele>
        <time>2022-02-20T10:15:43.000Z</time>
      </trkpt>
      <trkpt lat="47.29918" lon="-2.28676">
        <ele>5</ele>
        <time>2022-02-20T10:15:47.000Z</time>
      </trkpt>
      <trkpt lat="47.29917" lon="-2.28687">
        <ele>4.5999999046326</ele>
        <time>2022-02-20T10:15:49.000Z</time>
      </trkpt>
      <trkpt lat="47.29915" lon="-2.28694">
        <ele>4.1999998092651</ele>
        <time>2022-02-20T10:15:50.000Z</time>
      </trkpt>
      <trkpt lat="47.29914" lon="-2.28701">
        <ele>3.7999999523163</ele>
        <time>2022-02-20T10:15:51.000Z</time>
      </trkpt>
      <trkpt lat="47.29912" lon="-2.28708">
        <ele>3.4000000953674</ele>
        <time>2022-02-20T10:15:52.000Z</time>
      </trkpt>
      <trkpt lat="47.29911" lon="-2.28716">
        <ele>2.7999999523163</ele>
        <time>2022-02-20T10:15:53.000Z</time>
      </trkpt>
      <trkpt lat="47.29908" lon="-2.28731">
        <ele>2.7999999523163</ele>
        <time>2022-02-20T10:15:55.000Z</time>
      </trkpt>
      <trkpt lat="47.29906" lon="-2.28739">
        <ele>2.7999999523163</ele>
        <time>2022-02-20T10:15:56.000Z</time>
      </trkpt>
      <trkpt lat="47.29904" lon="-2.28753">
        <ele>2.7999999523163</ele>
        <time>2022-02-20T10:15:58.000Z</time>
      </trkpt>
      <trkpt lat="47.29901" lon="-2.2878">
        <ele>2.7999999523163</ele>
        <time>2022-02-20T10:16:02.000Z</time>
      </trkpt>
      <trkpt lat="47.29897" lon="-2.28802">
        <ele>2.7999999523163</ele>
        <time>2022-02-20T10:16:05.000Z</time>
      </trkpt>
      <trkpt lat="47.29895" lon="-2.28816">
        <ele>2.7999999523163</ele>
        <time>2022-02-20T10:16:07.000Z</time>
      </trkpt>
      <trkpt lat="47.29893" lon="-2.28831">
        <ele>2.7999999523163</ele>
        <time>2022-02-20T10:16:09.000Z</time>
      </trkpt>
      <trkpt lat="47.29886" lon="-2.28863">
        <ele>2.7999999523163</ele>
        <time>2022-02-20T10:16:13.000Z</time>
      </trkpt>
      <trkpt lat="47.29882" lon="-2.28884">
        <ele>2.7999999523163</ele>
        <time>2022-02-20T10:16:16.000Z</time>
      </trkpt>
      <trkpt lat="47.29877" lon="-2.28896">
        <ele>2.7999999523163</ele>
        <time>2022-02-20T10:16:18.000Z</time>
      </trkpt>
      <trkpt lat="47.29874" lon="-2.28918">
        <ele>2.7999999523163</ele>
        <time>2022-02-20T10:16:21.000Z</time>
      </trkpt>
      <trkpt lat="47.29874" lon="-2.28926">
        <ele>2.7999999523163</ele>
        <time>2022-02-20T10:16:22.000Z</time>
      </trkpt>
      <trkpt lat="47.29881" lon="-2.28942">
        <ele>2.7999999523163</ele>
        <time>2022-02-20T10:16:25.000Z</time>
      </trkpt>
      <trkpt lat="47.29886" lon="-2.28943">
        <ele>2.4000000953674</ele>
        <time>2022-02-20T10:16:26.000Z</time>
      </trkpt>
      <trkpt lat="47.29891" lon="-2.28944">
        <ele>2</ele>
        <time>2022-02-20T10:16:27.000Z</time>
      </trkpt>
      <trkpt lat="47.29896" lon="-2.28945">
        <ele>1.6000000238419</ele>
        <time>2022-02-20T10:16:28.000Z</time>
      </trkpt>
      <trkpt lat="47.29902" lon="-2.28946">
        <ele>1.2000000476837</ele>
        <time>2022-02-20T10:16:29.000Z</time>
      </trkpt>
      <trkpt lat="47.29908" lon="-2.28947">
        <ele>0.80000001192093</ele>
        <time>2022-02-20T10:16:30.000Z</time>
      </trkpt>
      <trkpt lat="47.29918" lon="-2.2895">
        <ele>0.80000001192093</ele>
        <time>2022-02-20T10:16:32.000Z</time>
      </trkpt>
      <trkpt lat="47.29923" lon="-2.28954">
        <ele>0.80000001192093</ele>
        <time>2022-02-20T10:16:33.000Z</time>
      </trkpt>
      <trkpt lat="47.29932" lon="-2.28972">
        <ele>0.80000001192093</ele>
        <time>2022-02-20T10:16:36.000Z</time>
      </trkpt>
      <trkpt lat="47.29953" lon="-2.29009">
        <ele>0.80000001192093</ele>
        <time>2022-02-20T10:16:42.000Z</time>
      </trkpt>
      <trkpt lat="47.29968" lon="-2.29039">
        <ele>0.80000001192093</ele>
        <time>2022-02-20T10:16:46.000Z</time>
      </trkpt>
      <trkpt lat="47.2998" lon="-2.29058">
        <ele>0.80000001192093</ele>
        <time>2022-02-20T10:16:49.000Z</time>
      </trkpt>
      <trkpt lat="47.29987" lon="-2.29073">
        <ele>0.80000001192093</ele>
        <time>2022-02-20T10:16:51.000Z</time>
      </trkpt>
      <trkpt lat="47.29994" lon="-2.29087">
        <ele>0.80000001192093</ele>
        <time>2022-02-20T10:16:53.000Z</time>
      </trkpt>
      <trkpt lat="47.29999" lon="-2.29092">
        <ele>0.80000001192093</ele>
        <time>2022-02-20T10:16:54.000Z</time>
      </trkpt>
      <trkpt lat="47.3003" lon="-2.29117">
        <ele>0.80000001192093</ele>
        <time>2022-02-20T10:17:00.000Z</time>
      </trkpt>
      <trkpt lat="47.30059" lon="-2.29136">
        <ele>0.80000001192093</ele>
        <time>2022-02-20T10:17:06.000Z</time>
      </trkpt>
      <trkpt lat="47.30062" lon="-2.2914">
        <ele>0.80000001192093</ele>
        <time>2022-02-20T10:17:07.000Z</time>
      </trkpt>
      <trkpt lat="47.30073" lon="-2.29157">
        <ele>0.40000000596046</ele>
        <time>2022-02-20T10:17:11.000Z</time>
      </trkpt>
      <trkpt lat="47.30077" lon="-2.29162">
        <ele>5.1</ele>
        <time>2022-02-20T10:17:12.000Z</time>
      </trkpt>
      <trkpt lat="47.3008" lon="-2.29168">
        <ele>-0.40000000596046</ele>
        <time>2022-02-20T10:17:13.000Z</time>
      </trkpt>
      <trkpt lat="47.30084" lon="-2.29174">
        <ele>-0.80000001192093</ele>
        <time>2022-02-20T10:17:14.000Z</time>
      </trkpt>
      <trkpt lat="47.30088" lon="-2.2918">
        <ele>-1.2000000476837</ele>
        <time>2022-02-20T10:17:15.000Z</time>
      </trkpt>
      <trkpt lat="47.30101" lon="-2.29199">
        <ele>-1.2000000476837</ele>
        <time>2022-02-20T10:17:18.000Z</time>
      </trkpt>
      <trkpt lat="47.3013" lon="-2.29246">
        <ele>-1.2000000476837</ele>
        <time>2022-02-20T10:17:25.000Z</time>
      </trkpt>
      <trkpt lat="47.30171" lon="-2.29303">
        <ele>-1.2000000476837</ele>
        <time>2022-02-20T10:17:34.000Z</time>
      </trkpt>
      <trkpt lat="47.30195" lon="-2.29343">
        <ele>-1.2000000476837</ele>
        <time>2022-02-20T10:17:40.000Z</time>
      </trkpt>
      <trkpt lat="47.30215" lon="-2.29361">
        <ele>-1.6000000238419</ele>
        <time>2022-02-20T10:17:44.000Z</time>
      </trkpt>
      <trkpt lat="47.30221" lon="-2.29363">
        <ele>-2</ele>
        <time>2022-02-20T10:17:45.000Z</time>
      </trkpt>
      <trkpt lat="47.30227" lon="-2.29364">
        <ele>-2.7999999523163</ele>
        <time>2022-02-20T10:17:46.000Z</time>
      </trkpt>
      <trkpt lat="47.30232" lon="-2.29364">
        <ele>-3.2000000476837</ele>
        <time>2022-02-20T10:17:47.000Z</time>
      </trkpt>
      <trkpt lat="47.30238" lon="-2.29364">
        <ele>-3.2000000476837</ele>
        <time>2022-02-20T10:17:48.000Z</time>
      </trkpt>
      <trkpt lat="47.30252" lon="-2.29358">
        <ele>-3.2000000476837</ele>
        <time>2022-02-20T10:17:51.000Z</time>
      </trkpt>
      <trkpt lat="47.30255" lon="-2.29356">
        <ele>-3.2000000476837</ele>
        <time>2022-02-20T10:17:52.000Z</time>
      </trkpt>
      <trkpt lat="47.30277" lon="-2.29333">
        <ele>-3.2000000476837</ele>
        <time>2022-02-20T10:17:58.000Z</time>
      </trkpt>
      <trkpt lat="47.30298" lon="-2.29309">
        <ele>-3.2000000476837</ele>
        <time>2022-02-20T10:18:04.000Z</time>
      </trkpt>
      <trkpt lat="47.30302" lon="-2.29306">
        <ele>-3.2000000476837</ele>
        <time>2022-02-20T10:18:05.000Z</time>
      </trkpt>
      <trkpt lat="47.3032" lon="-2.29295">
        <ele>-3.2000000476837</ele>
        <time>2022-02-20T10:18:09.000Z</time>
      </trkpt>
      <trkpt lat="47.30324" lon="-2.29293">
        <ele>-3.2000000476837</ele>
        <time>2022-02-20T10:18:10.000Z</time>
      </trkpt>
      <trkpt lat="47.30339" lon="-2.29289">
        <ele>-3.2000000476837</ele>
        <time>2022-02-20T10:18:13.000Z</time>
      </trkpt>
      <trkpt lat="47.30349" lon="-2.29288">
        <ele>-3.2000000476837</ele>
        <time>2022-02-20T10:18:15.000Z</time>
      </trkpt>
      <trkpt lat="47.30379" lon="-2.29284">
        <ele>-3.2000000476837</ele>
        <time>2022-02-20T10:18:21.000Z</time>
      </trkpt>
      <trkpt lat="47.30396" lon="-2.29273">
        <ele>-3.2000000476837</ele>
        <time>2022-02-20T10:18:25.000Z</time>
      </trkpt>
      <trkpt lat="47.304" lon="-2.29269">
        <ele>-3.2000000476837</ele>
        <time>2022-02-20T10:18:26.000Z</time>
      </trkpt>
      <trkpt lat="47.30412" lon="-2.29254">
        <ele>-3.2000000476837</ele>
        <time>2022-02-20T10:18:29.000Z</time>
      </trkpt>
      <trkpt lat="47.30434" lon="-2.29224">
        <ele>-3.2000000476837</ele>
        <time>2022-02-20T10:18:35.000Z</time>
      </trkpt>
      <trkpt lat="47.30437" lon="-2.29219">
        <ele>-3.2000000476837</ele>
        <time>2022-02-20T10:18:36.000Z</time>
      </trkpt>
      <trkpt lat="47.30462" lon="-2.29184">
        <ele>-3.2000000476837</ele>
        <time>2022-02-20T10:18:43.000Z</time>
      </trkpt>
      <trkpt lat="47.30476" lon="-2.29164">
        <ele>-3.2000000476837</ele>
        <time>2022-02-20T10:18:47.000Z</time>
      </trkpt>
      <trkpt lat="47.30486" lon="-2.29147">
        <ele>-3.2000000476837</ele>
        <time>2022-02-20T10:18:50.000Z</time>
      </trkpt>
      <trkpt lat="47.30501" lon="-2.29107">
        <ele>-3.2000000476837</ele>
        <time>2022-02-20T10:18:56.000Z</time>
      </trkpt>
      <trkpt lat="47.30503" lon="-2.29099">
        <ele>-3.2000000476837</ele>
        <time>2022-02-20T10:18:57.000Z</time>
      </trkpt>
      <trkpt lat="47.30506" lon="-2.29076">
        <ele>-3.2000000476837</ele>
        <time>2022-02-20T10:19:00.000Z</time>
      </trkpt>
      <trkpt lat="47.30501" lon="-2.29039">
        <ele>-3.2000000476837</ele>
        <time>2022-02-20T10:19:05.000Z</time>
      </trkpt>
      <trkpt lat="47.30497" lon="-2.29019">
        <ele>-3.2000000476837</ele>
        <time>2022-02-20T10:19:08.000Z</time>
      </trkpt>
      <trkpt lat="47.30494" lon="-2.29001">
        <ele>-2.7999999523163</ele>
        <time>2022-02-20T10:19:11.000Z</time>
      </trkpt>
      <trkpt lat="47.30495" lon="-2.28995">
        <ele>-2.4000000953674</ele>
        <time>2022-02-20T10:19:12.000Z</time>
      </trkpt>
      <trkpt lat="47.30498" lon="-2.2899">
        <ele>-2</ele>
        <time>2022-02-20T10:19:13.000Z</time>
      </trkpt>
      <trkpt lat="47.30501" lon="-2.28985">
        <ele>-1.6000000238419</ele>
        <time>2022-02-20T10:19:14.000Z</time>
      </trkpt>
      <trkpt lat="47.30504" lon="-2.2898">
        <ele>-1.2000000476837</ele>
        <time>2022-02-20T10:19:15.000Z</time>
      </trkpt>
      <trkpt lat="47.3052" lon="-2.28964">
        <ele>-1.2000000476837</ele>
        <time>2022-02-20T10:19:19.000Z</time>
      </trkpt>
      <trkpt lat="47.30535" lon="-2.28956">
        <ele>-1.2000000476837</ele>
        <time>2022-02-20T10:19:22.000Z</time>
      </trkpt>
      <trkpt lat="47.30545" lon="-2.28949">
        <ele>-1.2000000476837</ele>
        <time>2022-02-20T10:19:24.000Z</time>
      </trkpt>
      <trkpt lat="47.30554" lon="-2.28942">
        <ele>-1.2000000476837</ele>
        <time>2022-02-20T10:19:26.000Z</time>
      </trkpt>
      <trkpt lat="47.30562" lon="-2.28933">
        <ele>-1.2000000476837</ele>
        <time>2022-02-20T10:19:28.000Z</time>
      </trkpt>
      <trkpt lat="47.3057" lon="-2.28925">
        <ele>-1.2000000476837</ele>
        <time>2022-02-20T10:19:30.000Z</time>
      </trkpt>
      <trkpt lat="47.30599" lon="-2.28905">
        <ele>-1.2000000476837</ele>
        <time>2022-02-20T10:19:36.000Z</time>
      </trkpt>
      <trkpt lat="47.30604" lon="-2.28901">
        <ele>-1.2000000476837</ele>
        <time>2022-02-20T10:19:37.000Z</time>
      </trkpt>
      <trkpt lat="47.30618" lon="-2.28892">
        <ele>-1.2000000476837</ele>
        <time>2022-02-20T10:19:40.000Z</time>
      </trkpt>
      <trkpt lat="47.30628" lon="-2.28886">
        <ele>-1.2000000476837</ele>
        <time>2022-02-20T10:19:42.000Z</time>
      </trkpt>
      <trkpt lat="47.30646" lon="-2.28876">
        <ele>-1.2000000476837</ele>
        <time>2022-02-20T10:19:46.000Z</time>
      </trkpt>
      <trkpt lat="47.3065" lon="-2.28873">
        <ele>-1.2000000476837</ele>
        <time>2022-02-20T10:19:47.000Z</time>
      </trkpt>
      <trkpt lat="47.3066" lon="-2.28868">
        <ele>-0.80000001192093</ele>
        <time>2022-02-20T10:19:49.000Z</time>
      </trkpt>
      <trkpt lat="47.30665" lon="-2.28865">
        <ele>7</ele>
        <time>2022-02-20T10:19:50.000Z</time>
      </trkpt>
      <trkpt lat="47.3067" lon="-2.28862">
        <ele>0.40000000596046</ele>
        <time>2022-02-20T10:19:51.000Z</time>
      </trkpt>
      <trkpt lat="47.30675" lon="-2.28858">
        <ele>0.80000001192093</ele>
        <time>2022-02-20T10:19:52.000Z</time>
      </trkpt>
      <trkpt lat="47.30693" lon="-2.28844">
        <ele>0.80000001192093</ele>
        <time>2022-02-20T10:19:56.000Z</time>
      </trkpt>
      <trkpt lat="47.30713" lon="-2.28832">
        <ele>0.80000001192093</ele>
        <time>2022-02-20T10:20:00.000Z</time>
      </trkpt>
      <trkpt lat="47.30729" lon="-2.28827">
        <ele>0.80000001192093</ele>
        <time>2022-02-20T10:20:03.000Z</time>
      </trkpt>
      <trkpt lat="47.30776" lon="-2.28817">
        <ele>0.80000001192093</ele>
        <time>2022-02-20T10:20:11.000Z</time>
      </trkpt>
      <trkpt lat="47.30823" lon="-2.28813">
        <ele>0.80000001192093</ele>
        <time>2022-02-20T10:20:18.000Z</time>
      </trkpt>
      <trkpt lat="47.30845" lon="-2.28816">
        <ele>0.40000000596046</ele>
        <time>2022-02-20T10:20:21.000Z</time>
      </trkpt>
      <trkpt lat="47.30853" lon="-2.28817">
        <ele>-0.20000000298023</ele>
        <time>2022-02-20T10:20:22.000Z</time>
      </trkpt>
      <trkpt lat="47.3086" lon="-2.28817">
        <ele>-0.60000002384186</ele>
        <time>2022-02-20T10:20:23.000Z</time>
      </trkpt>
      <trkpt lat="47.30867" lon="-2.28817">
        <ele>-1</ele>
        <time>2022-02-20T10:20:24.000Z</time>
      </trkpt>
      <trkpt lat="47.30875" lon="-2.28817">
        <ele>-1.6000000238419</ele>
        <time>2022-02-20T10:20:25.000Z</time>
      </trkpt>
      <trkpt lat="47.30924" lon="-2.28815">
        <ele>-1.6000000238419</ele>
        <time>2022-02-20T10:20:32.000Z</time>
      </trkpt>
      <trkpt lat="47.30952" lon="-2.28819">
        <ele>-1.6000000238419</ele>
        <time>2022-02-20T10:20:37.000Z</time>
      </trkpt>
      <trkpt lat="47.30957" lon="-2.28818">
        <ele>-1.6000000238419</ele>
        <time>2022-02-20T10:20:38.000Z</time>
      </trkpt>
      <trkpt lat="47.30965" lon="-2.28816">
        <ele>-1</ele>
        <time>2022-02-20T10:20:40.000Z</time>
      </trkpt>
      <trkpt lat="47.30969" lon="-2.28815">
        <ele>-0.60000002384186</ele>
        <time>2022-02-20T10:20:41.000Z</time>
      </trkpt>
      <trkpt lat="47.30973" lon="-2.28814">
        <ele>-0.20000000298023</ele>
        <time>2022-02-20T10:20:42.000Z</time>
      </trkpt>
      <trkpt lat="47.30977" lon="-2.28812">
        <ele>0.40000000596046</ele>
        <time>2022-02-20T10:20:43.000Z</time>
      </trkpt>
      <trkpt lat="47.30981" lon="-2.28811">
        <ele>0.80000001192093</ele>
        <time>2022-02-20T10:20:44.000Z</time>
      </trkpt>
      <trkpt lat="47.30997" lon="-2.28804">
        <ele>1.2000000476837</ele>
        <time>2022-02-20T10:20:48.000Z</time>
      </trkpt>
      <trkpt lat="47.31001" lon="-2.28803">
        <ele>1.6000000238419</ele>
        <time>2022-02-20T10:20:49.000Z</time>
      </trkpt>
      <trkpt lat="47.31006" lon="-2.28804">
        <ele>2.2000000476837</ele>
        <time>2022-02-20T10:20:50.000Z</time>
      </trkpt>
      <trkpt lat="47.3101" lon="-2.28806">
        <ele>2.5999999046326</ele>
        <time>2022-02-20T10:20:51.000Z</time>
      </trkpt>
      <trkpt lat="47.31014" lon="-2.28808">
        <ele>3</ele>
        <time>2022-02-20T10:20:52.000Z</time>
      </trkpt>
      <trkpt lat="47.31021" lon="-2.28814">
        <ele>3</ele>
        <time>2022-02-20T10:20:54.000Z</time>
      </trkpt>
      <trkpt lat="47.31034" lon="-2.28825">
        <ele>3</ele>
        <time>2022-02-20T10:20:57.000Z</time>
      </trkpt>
      <trkpt lat="47.31067" lon="-2.28851">
        <ele>3</ele>
        <time>2022-02-20T10:21:04.000Z</time>
      </trkpt>
      <trkpt lat="47.31105" lon="-2.28881">
        <ele>2.5999999046326</ele>
        <time>2022-02-20T10:21:11.000Z</time>
      </trkpt>
      <trkpt lat="47.31111" lon="-2.28886">
        <ele>2.2000000476837</ele>
        <time>2022-02-20T10:21:12.000Z</time>
      </trkpt>
      <trkpt lat="47.31116" lon="-2.28892">
        <ele>1.7999999523163</ele>
        <time>2022-02-20T10:21:13.000Z</time>
      </trkpt>
      <trkpt lat="47.31121" lon="-2.28898">
        <ele>1.3999999761581</ele>
        <time>2022-02-20T10:21:14.000Z</time>
      </trkpt>
      <trkpt lat="47.31127" lon="-2.28903">
        <ele>0.80000001192093</ele>
        <time>2022-02-20T10:21:15.000Z</time>
      </trkpt>
      <trkpt lat="47.31144" lon="-2.28902">
        <ele>0.80000001192093</ele>
        <time>2022-02-20T10:21:18.000Z</time>
      </trkpt>
      <trkpt lat="47.31149" lon="-2.289">
        <ele>0.80000001192093</ele>
        <time>2022-02-20T10:21:19.000Z</time>
      </trkpt>
      <trkpt lat="47.3116" lon="-2.28895">
        <ele>0.40000000596046</ele>
        <time>2022-02-20T10:21:21.000Z</time>
      </trkpt>
      <trkpt lat="47.31165" lon="-2.28892">
        <ele>4</ele>
        <time>2022-02-20T10:21:22.000Z</time>
      </trkpt>
      <trkpt lat="47.31171" lon="-2.2889">
        <ele>-0.40000000596046</ele>
        <time>2022-02-20T10:21:23.000Z</time>
      </trkpt>
      <trkpt lat="47.31176" lon="-2.28887">
        <ele>-0.80000001192093</ele>
        <time>2022-02-20T10:21:24.000Z</time>
      </trkpt>
      <trkpt lat="47.31182" lon="-2.28884">
        <ele>-1.2000000476837</ele>
        <time>2022-02-20T10:21:25.000Z</time>
      </trkpt>
      <trkpt lat="47.3121" lon="-2.28865">
        <ele>-1.2000000476837</ele>
        <time>2022-02-20T10:21:30.000Z</time>
      </trkpt>
      <trkpt lat="47.31249" lon="-2.28834">
        <ele>-1.2000000476837</ele>
        <time>2022-02-20T10:21:37.000Z</time>
      </trkpt>
      <trkpt lat="47.31288" lon="-2.28806">
        <ele>-1.2000000476837</ele>
        <time>2022-02-20T10:21:44.000Z</time>
      </trkpt>
      <trkpt lat="47.31326" lon="-2.28779">
        <ele>-1.2000000476837</ele>
        <time>2022-02-20T10:21:51.000Z</time>
      </trkpt>
      <trkpt lat="47.31342" lon="-2.28767">
        <ele>-1.2000000476837</ele>
        <time>2022-02-20T10:21:54.000Z</time>
      </trkpt>
      <trkpt lat="47.3136" lon="-2.28757">
        <ele>-0.60000002384186</ele>
        <time>2022-02-20T10:21:57.000Z</time>
      </trkpt>
      <trkpt lat="47.31366" lon="-2.28754">
        <ele>-0.20000000298023</ele>
        <time>2022-02-20T10:21:58.000Z</time>
      </trkpt>
      <trkpt lat="47.31372" lon="-2.28752">
        <ele>0.20000000298023</ele>
        <time>2022-02-20T10:21:59.000Z</time>
      </trkpt>
      <trkpt lat="47.31378" lon="-2.2875">
        <ele>0.60000002384186</ele>
        <time>2022-02-20T10:22:00.000Z</time>
      </trkpt>
      <trkpt lat="47.31384" lon="-2.28748">
        <ele>1</ele>
        <time>2022-02-20T10:22:01.000Z</time>
      </trkpt>
      <trkpt lat="47.31403" lon="-2.28743">
        <ele>1</ele>
        <time>2022-02-20T10:22:04.000Z</time>
      </trkpt>
      <trkpt lat="47.31454" lon="-2.28729">
        <ele>1</ele>
        <time>2022-02-20T10:22:12.000Z</time>
      </trkpt>
      <trkpt lat="47.31484" lon="-2.28719">
        <ele>0.60000002384186</ele>
        <time>2022-02-20T10:22:17.000Z</time>
      </trkpt>
      <trkpt lat="47.3149" lon="-2.28717">
        <ele>0.20000000298023</ele>
        <time>2022-02-20T10:22:18.000Z</time>
      </trkpt>
      <trkpt lat="47.31497" lon="-2.28716">
        <ele>-0.20000000298023</ele>
        <time>2022-02-20T10:22:19.000Z</time>
      </trkpt>
      <trkpt lat="47.31503" lon="-2.28716">
        <ele>-0.60000002384186</ele>
        <time>2022-02-20T10:22:20.000Z</time>
      </trkpt>
      <trkpt lat="47.31509" lon="-2.28718">
        <ele>-1</ele>
        <time>2022-02-20T10:22:21.000Z</time>
      </trkpt>
      <trkpt lat="47.31522" lon="-2.28724">
        <ele>-1</ele>
        <time>2022-02-20T10:22:23.000Z</time>
      </trkpt>
      <trkpt lat="47.31533" lon="-2.28732">
        <ele>-1</ele>
        <time>2022-02-20T10:22:25.000Z</time>
      </trkpt>
      <trkpt lat="47.31551" lon="-2.28741">
        <ele>-1</ele>
        <time>2022-02-20T10:22:28.000Z</time>
      </trkpt>
      <trkpt lat="47.31579" lon="-2.28741">
        <ele>-1</ele>
        <time>2022-02-20T10:22:33.000Z</time>
      </trkpt>
      <trkpt lat="47.31613" lon="-2.28736">
        <ele>-1</ele>
        <time>2022-02-20T10:22:39.000Z</time>
      </trkpt>
      <trkpt lat="47.31624" lon="-2.28737">
        <ele>-1</ele>
        <time>2022-02-20T10:22:42.000Z</time>
      </trkpt>
      <trkpt lat="47.31641" lon="-2.28741">
        <ele>-0.60000002384186</ele>
        <time>2022-02-20T10:22:45.000Z</time>
      </trkpt>
      <trkpt lat="47.31647" lon="-2.28743">
        <ele>-0.20000000298023</ele>
        <time>2022-02-20T10:22:46.000Z</time>
      </trkpt>
      <trkpt lat="47.31652" lon="-2.28746">
        <ele>0.20000000298023</ele>
        <time>2022-02-20T10:22:47.000Z</time>
      </trkpt>
      <trkpt lat="47.31658" lon="-2.28749">
        <ele>0.60000002384186</ele>
        <time>2022-02-20T10:22:48.000Z</time>
      </trkpt>
      <trkpt lat="47.31663" lon="-2.28752">
        <ele>1</ele>
        <time>2022-02-20T10:22:49.000Z</time>
      </trkpt>
      <trkpt lat="47.31681" lon="-2.28763">
        <ele>1</ele>
        <time>2022-02-20T10:22:52.000Z</time>
      </trkpt>
      <trkpt lat="47.31719" lon="-2.28789">
        <ele>1</ele>
        <time>2022-02-20T10:22:59.000Z</time>
      </trkpt>
      <trkpt lat="47.31758" lon="-2.28811">
        <ele>1</ele>
        <time>2022-02-20T10:23:06.000Z</time>
      </trkpt>
      <trkpt lat="47.31801" lon="-2.28823">
        <ele>1</ele>
        <time>2022-02-20T10:23:13.000Z</time>
      </trkpt>
      <trkpt lat="47.3184" lon="-2.28834">
        <ele>1</ele>
        <time>2022-02-20T10:23:20.000Z</time>
      </trkpt>
      <trkpt lat="47.31863" lon="-2.2884">
        <ele>1</ele>
        <time>2022-02-20T10:23:25.000Z</time>
      </trkpt>
      <trkpt lat="47.31866" lon="-2.28845">
        <ele>1</ele>
        <time>2022-02-20T10:23:26.000Z</time>
      </trkpt>
      <trkpt lat="47.31868" lon="-2.28863">
        <ele>1</ele>
        <time>2022-02-20T10:23:29.000Z</time>
      </trkpt>
      <trkpt lat="47.31868" lon="-2.28886">
        <ele>1</ele>
        <time>2022-02-20T10:23:32.000Z</time>
      </trkpt>
      <trkpt lat="47.31868" lon="-2.28901">
        <ele>1</ele>
        <time>2022-02-20T10:23:34.000Z</time>
      </trkpt>
      <trkpt lat="47.31866" lon="-2.28922">
        <ele>1</ele>
        <time>2022-02-20T10:23:37.000Z</time>
      </trkpt>
      <trkpt lat="47.31867" lon="-2.28934">
        <ele>1</ele>
        <time>2022-02-20T10:23:39.000Z</time>
      </trkpt>
      <trkpt lat="47.31872" lon="-2.28939">
        <ele>0.60000002384186</ele>
        <time>2022-02-20T10:23:41.000Z</time>
      </trkpt>
      <trkpt lat="47.31873" lon="-2.28939">
        <ele>0.20000000298023</ele>
        <time>2022-02-20T10:23:42.000Z</time>
      </trkpt>
      <trkpt lat="47.31875" lon="-2.28939">
        <ele>-0.20000000298023</ele>
        <time>2022-02-20T10:23:43.000Z</time>
      </trkpt>
      <trkpt lat="47.31877" lon="-2.28939">
        <ele>-0.60000002384186</ele>
        <time>2022-02-20T10:23:44.000Z</time>
      </trkpt>
      <trkpt lat="47.31879" lon="-2.28938">
        <ele>-1</ele>
        <time>2022-02-20T10:23:45.000Z</time>
      </trkpt>
      <trkpt lat="47.31887" lon="-2.28936">
        <ele>-1</ele>
        <time>2022-02-20T10:23:48.000Z</time>
      </trkpt>
      <trkpt lat="47.31906" lon="-2.28928">
        <ele>-1</ele>
        <time>2022-02-20T10:23:54.000Z</time>
      </trkpt>
      <trkpt lat="47.31917" lon="-2.28919">
        <ele>-1</ele>
        <time>2022-02-20T10:23:58.000Z</time>
      </trkpt>
      <trkpt lat="47.3193" lon="-2.28904">
        <ele>-1</ele>
        <time>2022-02-20T10:24:03.000Z</time>
      </trkpt>
      <trkpt lat="47.31952" lon="-2.28891">
        <ele>-1</ele>
        <time>2022-02-20T10:24:09.000Z</time>
      </trkpt>
      <trkpt lat="47.31973" lon="-2.28883">
        <ele>-1</ele>
        <time>2022-02-20T10:24:14.000Z</time>
      </trkpt>
      <trkpt lat="47.31988" lon="-2.28881">
        <ele>-1</ele>
        <time>2022-02-20T10:24:19.000Z</time>
      </trkpt>
      <trkpt lat="47.32" lon="-2.28878">
        <ele>-1</ele>
        <time>2022-02-20T10:24:27.000Z</time>
      </trkpt>
      <trkpt lat="47.32013" lon="-2.28872">
        <ele>-1</ele>
        <time>2022-02-20T10:24:32.000Z</time>
      </trkpt>
      <trkpt lat="47.32035" lon="-2.28868">
        <ele>-1</ele>
        <time>2022-02-20T10:24:38.000Z</time>
      </trkpt>
      <trkpt lat="47.32041" lon="-2.28884">
        <ele>-1</ele>
        <time>2022-02-20T10:24:41.000Z</time>
      </trkpt>
      <trkpt lat="47.32042" lon="-2.28898">
        <ele>-1</ele>
        <time>2022-02-20T10:24:43.000Z</time>
      </trkpt>
      <trkpt lat="47.32045" lon="-2.28919">
        <ele>-1</ele>
        <time>2022-02-20T10:24:46.000Z</time>
      </trkpt>
      <trkpt lat="47.32047" lon="-2.28932">
        <ele>-1</ele>
        <time>2022-02-20T10:24:48.000Z</time>
      </trkpt>
      <trkpt lat="47.32052" lon="-2.28941">
        <ele>-1</ele>
        <time>2022-02-20T10:24:50.000Z</time>
      </trkpt>
      <trkpt lat="47.32067" lon="-2.28954">
        <ele>-1</ele>
        <time>2022-02-20T10:24:54.000Z</time>
      </trkpt>
      <trkpt lat="47.32097" lon="-2.28972">
        <ele>-1</ele>
        <time>2022-02-20T10:25:01.000Z</time>
      </trkpt>
      <trkpt lat="47.32115" lon="-2.28995">
        <ele>-1</ele>
        <time>2022-02-20T10:25:07.000Z</time>
      </trkpt>
      <trkpt lat="47.32123" lon="-2.29016">
        <ele>-1</ele>
        <time>2022-02-20T10:25:12.000Z</time>
      </trkpt>
      <trkpt lat="47.32128" lon="-2.29028">
        <ele>-1</ele>
        <time>2022-02-20T10:25:15.000Z</time>
      </trkpt>
      <trkpt lat="47.3213" lon="-2.29037">
        <ele>-1</ele>
        <time>2022-02-20T10:25:17.000Z</time>
      </trkpt>
      <trkpt lat="47.32138" lon="-2.2906">
        <ele>-1</ele>
        <time>2022-02-20T10:25:23.000Z</time>
      </trkpt>
      <trkpt lat="47.3214" lon="-2.29068">
        <ele>-0.60000002384186</ele>
        <time>2022-02-20T10:25:25.000Z</time>
      </trkpt>
      <trkpt lat="47.32142" lon="-2.29072">
        <ele>-0.20000000298023</ele>
        <time>2022-02-20T10:25:26.000Z</time>
      </trkpt>
      <trkpt lat="47.32143" lon="-2.29076">
        <ele>0.20000000298023</ele>
        <time>2022-02-20T10:25:27.000Z</time>
      </trkpt>
      <trkpt lat="47.32144" lon="-2.29081">
        <ele>0.60000002384186</ele>
        <time>2022-02-20T10:25:28.000Z</time>
      </trkpt>
      <trkpt lat="47.32146" lon="-2.29085">
        <ele>1</ele>
        <time>2022-02-20T10:25:29.000Z</time>
      </trkpt>
      <trkpt lat="47.32148" lon="-2.29089">
        <ele>1</ele>
        <time>2022-02-20T10:25:30.000Z</time>
      </trkpt>
      <trkpt lat="47.32164" lon="-2.29114">
        <ele>1</ele>
        <time>2022-02-20T10:25:36.000Z</time>
      </trkpt>
      <trkpt lat="47.32189" lon="-2.29136">
        <ele>1</ele>
        <time>2022-02-20T10:25:42.000Z</time>
      </trkpt>
      <trkpt lat="47.32198" lon="-2.29143">
        <ele>1</ele>
        <time>2022-02-20T10:25:44.000Z</time>
      </trkpt>
      <trkpt lat="47.32208" lon="-2.29155">
        <ele>1</ele>
        <time>2022-02-20T10:25:47.000Z</time>
      </trkpt>
      <trkpt lat="47.3223" lon="-2.29186">
        <ele>1</ele>
        <time>2022-02-20T10:25:54.000Z</time>
      </trkpt>
      <trkpt lat="47.32243" lon="-2.29214">
        <ele>1</ele>
        <time>2022-02-20T10:26:00.000Z</time>
      </trkpt>
      <trkpt lat="47.32254" lon="-2.29222">
        <ele>1</ele>
        <time>2022-02-20T10:26:04.000Z</time>
      </trkpt>
      <trkpt lat="47.32275" lon="-2.29215">
        <ele>1</ele>
        <time>2022-02-20T10:26:09.000Z</time>
      </trkpt>
      <trkpt lat="47.32305" lon="-2.29206">
        <ele>1</ele>
        <time>2022-02-20T10:26:16.000Z</time>
      </trkpt>
      <trkpt lat="47.32314" lon="-2.29209">
        <ele>1</ele>
        <time>2022-02-20T10:26:18.000Z</time>
      </trkpt>
      <trkpt lat="47.32321" lon="-2.29217">
        <ele>1</ele>
        <time>2022-02-20T10:26:20.000Z</time>
      </trkpt>
      <trkpt lat="47.32329" lon="-2.29225">
        <ele>1</ele>
        <time>2022-02-20T10:26:22.000Z</time>
      </trkpt>
      <trkpt lat="47.32333" lon="-2.29228">
        <ele>1</ele>
        <time>2022-02-20T10:26:23.000Z</time>
      </trkpt>
      <trkpt lat="47.32343" lon="-2.29232">
        <ele>1</ele>
        <time>2022-02-20T10:26:25.000Z</time>
      </trkpt>
      <trkpt lat="47.32381" lon="-2.29253">
        <ele>1</ele>
        <time>2022-02-20T10:26:33.000Z</time>
      </trkpt>
      <trkpt lat="47.32386" lon="-2.29255">
        <ele>0.60000002384186</ele>
        <time>2022-02-20T10:26:34.000Z</time>
      </trkpt>
      <trkpt lat="47.3239" lon="-2.29258">
        <ele>0.20000000298023</ele>
        <time>2022-02-20T10:26:35.000Z</time>
      </trkpt>
      <trkpt lat="47.32395" lon="-2.29261">
        <ele>-0.20000000298023</ele>
        <time>2022-02-20T10:26:36.000Z</time>
      </trkpt>
      <trkpt lat="47.324" lon="-2.29264">
        <ele>-0.60000002384186</ele>
        <time>2022-02-20T10:26:37.000Z</time>
      </trkpt>
      <trkpt lat="47.32404" lon="-2.29268">
        <ele>-1</ele>
        <time>2022-02-20T10:26:38.000Z</time>
      </trkpt>
      <trkpt lat="47.32407" lon="-2.29274">
        <ele>-1</ele>
        <time>2022-02-20T10:26:39.000Z</time>
      </trkpt>
      <trkpt lat="47.32414" lon="-2.29293">
        <ele>-1</ele>
        <time>2022-02-20T10:26:42.000Z</time>
      </trkpt>
      <trkpt lat="47.32416" lon="-2.29301">
        <ele>-1</ele>
        <time>2022-02-20T10:26:43.000Z</time>
      </trkpt>
      <trkpt lat="47.32422" lon="-2.29342">
        <ele>-1</ele>
        <time>2022-02-20T10:26:49.000Z</time>
      </trkpt>
      <trkpt lat="47.32422" lon="-2.2935">
        <ele>-1</ele>
        <time>2022-02-20T10:26:50.000Z</time>
      </trkpt>
      <trkpt lat="47.32427" lon="-2.29385">
        <ele>-1</ele>
        <time>2022-02-20T10:26:55.000Z</time>
      </trkpt>
      <trkpt lat="47.32428" lon="-2.29391">
        <ele>-1</ele>
        <time>2022-02-20T10:26:56.000Z</time>
      </trkpt>
      <trkpt lat="47.32432" lon="-2.29404">
        <ele>-1</ele>
        <time>2022-02-20T10:26:58.000Z</time>
      </trkpt>
      <trkpt lat="47.32435" lon="-2.29422">
        <ele>-1</ele>
        <time>2022-02-20T10:27:01.000Z</time>
      </trkpt>
      <trkpt lat="47.32435" lon="-2.29428">
        <ele>-0.60000002384186</ele>
        <time>2022-02-20T10:27:02.000Z</time>
      </trkpt>
      <trkpt lat="47.32436" lon="-2.29434">
        <ele>-0.20000000298023</ele>
        <time>2022-02-20T10:27:03.000Z</time>
      </trkpt>
      <trkpt lat="47.32437" lon="-2.2944">
        <ele>0.20000000298023</ele>
        <time>2022-02-20T10:27:04.000Z</time>
      </trkpt>
      <trkpt lat="47.32437" lon="-2.29446">
        <ele>0.60000002384186</ele>
        <time>2022-02-20T10:27:05.000Z</time>
      </trkpt>
      <trkpt lat="47.32437" lon="-2.29453">
        <ele>1</ele>
        <time>2022-02-20T10:27:06.000Z</time>
      </trkpt>
      <trkpt lat="47.32439" lon="-2.29464">
        <ele>1</ele>
        <time>2022-02-20T10:27:08.000Z</time>
      </trkpt>
      <trkpt lat="47.32449" lon="-2.29496">
        <ele>1.3999999761581</ele>
        <time>2022-02-20T10:27:14.000Z</time>
      </trkpt>
      <trkpt lat="47.32451" lon="-2.29501">
        <ele>1.7999999523163</ele>
        <time>2022-02-20T10:27:15.000Z</time>
      </trkpt>
      <trkpt lat="47.32452" lon="-2.29506">
        <ele>2.2000000476837</ele>
        <time>2022-02-20T10:27:16.000Z</time>
      </trkpt>
      <trkpt lat="47.32454" lon="-2.2951">
        <ele>2.5999999046326</ele>
        <time>2022-02-20T10:27:17.000Z</time>
      </trkpt>
      <trkpt lat="47.32455" lon="-2.29515">
        <ele>3.2000000476837</ele>
        <time>2022-02-20T10:27:18.000Z</time>
      </trkpt>
      <trkpt lat="47.32459" lon="-2.29529">
        <ele>3.2000000476837</ele>
        <time>2022-02-20T10:27:21.000Z</time>
      </trkpt>
      <trkpt lat="47.32466" lon="-2.29549">
        <ele>3.5999999046326</ele>
        <time>2022-02-20T10:27:26.000Z</time>
      </trkpt>
      <trkpt lat="47.32467" lon="-2.29553">
        <ele>4</ele>
        <time>2022-02-20T10:27:27.000Z</time>
      </trkpt>
      <trkpt lat="47.32468" lon="-2.29558">
        <ele>4.4000000953674</ele>
        <time>2022-02-20T10:27:28.000Z</time>
      </trkpt>
      <trkpt lat="47.3247" lon="-2.29563">
        <ele>4.8000001907349</ele>
        <time>2022-02-20T10:27:29.000Z</time>
      </trkpt>
      <trkpt lat="47.32471" lon="-2.29567">
        <ele>5.1999998092651</ele>
        <time>2022-02-20T10:27:30.000Z</time>
      </trkpt>
      <trkpt lat="47.32474" lon="-2.29581">
        <ele>5.1999998092651</ele>
        <time>2022-02-20T10:27:34.000Z</time>
      </trkpt>
      <trkpt lat="47.32478" lon="-2.2959">
        <ele>5.5999999046326</ele>
        <time>2022-02-20T10:27:38.000Z</time>
      </trkpt>
      <trkpt lat="47.3248" lon="-2.29595">
        <ele>6</ele>
        <time>2022-02-20T10:27:39.000Z</time>
      </trkpt>
      <trkpt lat="47.32481" lon="-2.296">
        <ele>6.4000000953674</ele>
        <time>2022-02-20T10:27:40.000Z</time>
      </trkpt>
      <trkpt lat="47.32483" lon="-2.29604">
        <ele>6.8000001907349</ele>
        <time>2022-02-20T10:27:41.000Z</time>
      </trkpt>
      <trkpt lat="47.32485" lon="-2.2961">
        <ele>7.1999998092651</ele>
        <time>2022-02-20T10:27:42.000Z</time>
      </trkpt>
      <trkpt lat="47.32488" lon="-2.29619">
        <ele>7.1999998092651</ele>
        <time>2022-02-20T10:27:44.000Z</time>
      </trkpt>
      <trkpt lat="47.32493" lon="-2.29632">
        <ele>7.5999999046326</ele>
        <time>2022-02-20T10:27:47.000Z</time>
      </trkpt>
      <trkpt lat="47.32494" lon="-2.29637">
        <ele>8</ele>
        <time>2022-02-20T10:27:48.000Z</time>
      </trkpt>
      <trkpt lat="47.32495" lon="-2.29641">
        <ele>8.6000003814697</ele>
        <time>2022-02-20T10:27:49.000Z</time>
      </trkpt>
      <trkpt lat="47.32497" lon="-2.29646">
        <ele>9</ele>
        <time>2022-02-20T10:27:50.000Z</time>
      </trkpt>
      <trkpt lat="47.32498" lon="-2.29651">
        <ele>9.3999996185303</ele>
        <time>2022-02-20T10:27:51.000Z</time>
      </trkpt>
      <trkpt lat="47.32504" lon="-2.29678">
        <ele>9.3999996185303</ele>
        <time>2022-02-20T10:27:56.000Z</time>
      </trkpt>
      <trkpt lat="47.32507" lon="-2.29687">
        <ele>9.8000001907349</ele>
        <time>2022-02-20T10:27:58.000Z</time>
      </trkpt>
      <trkpt lat="47.32508" lon="-2.29692">
        <ele>10.199999809265</ele>
        <time>2022-02-20T10:27:59.000Z</time>
      </trkpt>
      <trkpt lat="47.32509" lon="-2.29697">
        <ele>10.60000038147</ele>
        <time>2022-02-20T10:28:00.000Z</time>
      </trkpt>
      <trkpt lat="47.32511" lon="-2.29702">
        <ele>11</ele>
        <time>2022-02-20T10:28:01.000Z</time>
      </trkpt>
      <trkpt lat="47.32512" lon="-2.29707">
        <ele>11.39999961853</ele>
        <time>2022-02-20T10:28:02.000Z</time>
      </trkpt>
      <trkpt lat="47.32513" lon="-2.29713">
        <ele>11.39999961853</ele>
        <time>2022-02-20T10:28:03.000Z</time>
      </trkpt>
      <trkpt lat="47.3252" lon="-2.29753">
        <ele>11.39999961853</ele>
        <time>2022-02-20T10:28:10.000Z</time>
      </trkpt>
      <trkpt lat="47.32526" lon="-2.2977">
        <ele>11.39999961853</ele>
        <time>2022-02-20T10:28:14.000Z</time>
      </trkpt>
      <trkpt lat="47.32524" lon="-2.29794">
        <ele>11.39999961853</ele>
        <time>2022-02-20T10:28:19.000Z</time>
      </trkpt>
      <trkpt lat="47.32518" lon="-2.29801">
        <ele>11.800000190735</ele>
        <time>2022-02-20T10:28:21.000Z</time>
      </trkpt>
      <trkpt lat="47.32515" lon="-2.29804">
        <ele>12.199999809265</ele>
        <time>2022-02-20T10:28:22.000Z</time>
      </trkpt>
      <trkpt lat="47.32512" lon="-2.29807">
        <ele>12.60000038147</ele>
        <time>2022-02-20T10:28:23.000Z</time>
      </trkpt>
      <trkpt lat="47.32509" lon="-2.2981">
        <ele>13.199999809265</ele>
        <time>2022-02-20T10:28:24.000Z</time>
      </trkpt>
      <trkpt lat="47.32505" lon="-2.29813">
        <ele>13.60000038147</ele>
        <time>2022-02-20T10:28:25.000Z</time>
      </trkpt>
      <trkpt lat="47.32489" lon="-2.2983">
        <ele>13.60000038147</ele>
        <time>2022-02-20T10:28:30.000Z</time>
      </trkpt>
      <trkpt lat="47.3246" lon="-2.29853">
        <ele>13.60000038147</ele>
        <time>2022-02-20T10:28:37.000Z</time>
      </trkpt>
      <trkpt lat="47.32435" lon="-2.29877">
        <ele>13.60000038147</ele>
        <time>2022-02-20T10:28:43.000Z</time>
      </trkpt>
      <trkpt lat="47.32404" lon="-2.29901">
        <ele>13.60000038147</ele>
        <time>2022-02-20T10:28:50.000Z</time>
      </trkpt>
      <trkpt lat="47.32385" lon="-2.29898">
        <ele>13.60000038147</ele>
        <time>2022-02-20T10:28:54.000Z</time>
      </trkpt>
      <trkpt lat="47.32377" lon="-2.29884">
        <ele>13.60000038147</ele>
        <time>2022-02-20T10:28:57.000Z</time>
      </trkpt>
      <trkpt lat="47.32374" lon="-2.29879">
        <ele>13.60000038147</ele>
        <time>2022-02-20T10:28:58.000Z</time>
      </trkpt>
      <trkpt lat="47.32358" lon="-2.29843">
        <ele>13.60000038147</ele>
        <time>2022-02-20T10:29:05.000Z</time>
      </trkpt>
      <trkpt lat="47.32343" lon="-2.29814">
        <ele>13.199999809265</ele>
        <time>2022-02-20T10:29:10.000Z</time>
      </trkpt>
      <trkpt lat="47.32339" lon="-2.29807">
        <ele>12.800000190735</ele>
        <time>2022-02-20T10:29:11.000Z</time>
      </trkpt>
      <trkpt lat="47.32336" lon="-2.29799">
        <ele>12.39999961853</ele>
        <time>2022-02-20T10:29:12.000Z</time>
      </trkpt>
      <trkpt lat="47.32332" lon="-2.29792">
        <ele>12</ele>
        <time>2022-02-20T10:29:13.000Z</time>
      </trkpt>
      <trkpt lat="47.32328" lon="-2.29784">
        <ele>11.39999961853</ele>
        <time>2022-02-20T10:29:14.000Z</time>
      </trkpt>
      <trkpt lat="47.32314" lon="-2.29759">
        <ele>11</ele>
        <time>2022-02-20T10:29:17.000Z</time>
      </trkpt>
      <trkpt lat="47.3231" lon="-2.29751">
        <ele>10.60000038147</ele>
        <time>2022-02-20T10:29:18.000Z</time>
      </trkpt>
      <trkpt lat="47.32305" lon="-2.29742">
        <ele>10.199999809265</ele>
        <time>2022-02-20T10:29:19.000Z</time>
      </trkpt>
      <trkpt lat="47.323" lon="-2.29734">
        <ele>9.8000001907349</ele>
        <time>2022-02-20T10:29:20.000Z</time>
      </trkpt>
      <trkpt lat="47.32295" lon="-2.29725">
        <ele>9.3999996185303</ele>
        <time>2022-02-20T10:29:21.000Z</time>
      </trkpt>
      <trkpt lat="47.32281" lon="-2.297">
        <ele>9.3999996185303</ele>
        <time>2022-02-20T10:29:24.000Z</time>
      </trkpt>
      <trkpt lat="47.32269" lon="-2.29676">
        <ele>8.8000001907349</ele>
        <time>2022-02-20T10:29:27.000Z</time>
      </trkpt>
      <trkpt lat="47.32264" lon="-2.29669">
        <ele>8.3999996185303</ele>
        <time>2022-02-20T10:29:28.000Z</time>
      </trkpt>
      <trkpt lat="47.32258" lon="-2.29666">
        <ele>8</ele>
        <time>2022-02-20T10:29:29.000Z</time>
      </trkpt>
      <trkpt lat="47.32253" lon="-2.29666">
        <ele>7.5999999046326</ele>
        <time>2022-02-20T10:29:30.000Z</time>
      </trkpt>
      <trkpt lat="47.32249" lon="-2.29669">
        <ele>7</ele>
        <time>2022-02-20T10:29:31.000Z</time>
      </trkpt>
      <trkpt lat="47.32244" lon="-2.29675">
        <ele>7</ele>
        <time>2022-02-20T10:29:32.000Z</time>
      </trkpt>
      <trkpt lat="47.3224" lon="-2.2968">
        <ele>7</ele>
        <time>2022-02-20T10:29:33.000Z</time>
      </trkpt>
      <trkpt lat="47.32231" lon="-2.2969">
        <ele>7</ele>
        <time>2022-02-20T10:29:35.000Z</time>
      </trkpt>
      <trkpt lat="47.32217" lon="-2.29707">
        <ele>6.5999999046326</ele>
        <time>2022-02-20T10:29:38.000Z</time>
      </trkpt>
      <trkpt lat="47.32212" lon="-2.29713">
        <ele>6.1999998092651</ele>
        <time>2022-02-20T10:29:39.000Z</time>
      </trkpt>
      <trkpt lat="47.32208" lon="-2.29718">
        <ele>5.4000000953674</ele>
        <time>2022-02-20T10:29:40.000Z</time>
      </trkpt>
      <trkpt lat="47.32204" lon="-2.29724">
        <ele>4.8000001907349</ele>
        <time>2022-02-20T10:29:41.000Z</time>
      </trkpt>
      <trkpt lat="47.3219" lon="-2.2974">
        <ele>4.8000001907349</ele>
        <time>2022-02-20T10:29:44.000Z</time>
      </trkpt>
      <trkpt lat="47.32182" lon="-2.29747">
        <ele>4.8000001907349</ele>
        <time>2022-02-20T10:29:46.000Z</time>
      </trkpt>
      <trkpt lat="47.32167" lon="-2.29758">
        <ele>4.8000001907349</ele>
        <time>2022-02-20T10:29:49.000Z</time>
      </trkpt>
      <trkpt lat="47.32149" lon="-2.29773">
        <ele>4.8000001907349</ele>
        <time>2022-02-20T10:29:53.000Z</time>
      </trkpt>
      <trkpt lat="47.32143" lon="-2.29781">
        <ele>4.8000001907349</ele>
        <time>2022-02-20T10:29:55.000Z</time>
      </trkpt>
      <trkpt lat="47.32139" lon="-2.29787">
        <ele>4.8000001907349</ele>
        <time>2022-02-20T10:29:57.000Z</time>
      </trkpt>
      <trkpt lat="47.32141" lon="-2.29794">
        <ele>4.8000001907349</ele>
        <time>2022-02-20T10:29:59.000Z</time>
      </trkpt>
      <trkpt lat="47.32145" lon="-2.29807">
        <ele>4.8000001907349</ele>
        <time>2022-02-20T10:30:02.000Z</time>
      </trkpt>
      <trkpt lat="47.32151" lon="-2.29819">
        <ele>4.8000001907349</ele>
        <time>2022-02-20T10:30:05.000Z</time>
      </trkpt>
      <trkpt lat="47.32154" lon="-2.29836">
        <ele>4.8000001907349</ele>
        <time>2022-02-20T10:30:09.000Z</time>
      </trkpt>
      <trkpt lat="47.32151" lon="-2.29849">
        <ele>4.8000001907349</ele>
        <time>2022-02-20T10:30:14.000Z</time>
      </trkpt>
      <trkpt lat="47.32141" lon="-2.29855">
        <ele>4.8000001907349</ele>
        <time>2022-02-20T10:30:18.000Z</time>
      </trkpt>
      <trkpt lat="47.32123" lon="-2.29855">
        <ele>4.8000001907349</ele>
        <time>2022-02-20T10:30:23.000Z</time>
      </trkpt>
      <trkpt lat="47.32109" lon="-2.29859">
        <ele>4.8000001907349</ele>
        <time>2022-02-20T10:30:26.000Z</time>
      </trkpt>
      <trkpt lat="47.32101" lon="-2.29867">
        <ele>4.8000001907349</ele>
        <time>2022-02-20T10:30:28.000Z</time>
      </trkpt>
      <trkpt lat="47.32086" lon="-2.29882">
        <ele>4.8000001907349</ele>
        <time>2022-02-20T10:30:32.000Z</time>
      </trkpt>
      <trkpt lat="47.32072" lon="-2.2989">
        <ele>4.8000001907349</ele>
        <time>2022-02-20T10:30:36.000Z</time>
      </trkpt>
      <trkpt lat="47.3207" lon="-2.29888">
        <ele>4.8000001907349</ele>
        <time>2022-02-20T10:30:37.000Z</time>
      </trkpt>
      <trkpt lat="47.32067" lon="-2.29874">
        <ele>4.8000001907349</ele>
        <time>2022-02-20T10:30:40.000Z</time>
      </trkpt>
      <trkpt lat="47.32066" lon="-2.29862">
        <ele>4.8000001907349</ele>
        <time>2022-02-20T10:30:42.000Z</time>
      </trkpt>
      <trkpt lat="47.32064" lon="-2.29855">
        <ele>4.8000001907349</ele>
        <time>2022-02-20T10:30:43.000Z</time>
      </trkpt>
      <trkpt lat="47.32059" lon="-2.29843">
        <ele>4.8000001907349</ele>
        <time>2022-02-20T10:30:45.000Z</time>
      </trkpt>
      <trkpt lat="47.3205" lon="-2.29827">
        <ele>4.8000001907349</ele>
        <time>2022-02-20T10:30:48.000Z</time>
      </trkpt>
      <trkpt lat="47.32048" lon="-2.29821">
        <ele>4.8000001907349</ele>
        <time>2022-02-20T10:30:49.000Z</time>
      </trkpt>
      <trkpt lat="47.32046" lon="-2.29815">
        <ele>4.8000001907349</ele>
        <time>2022-02-20T10:30:50.000Z</time>
      </trkpt>
      <trkpt lat="47.32042" lon="-2.29795">
        <ele>4.8000001907349</ele>
        <time>2022-02-20T10:30:53.000Z</time>
      </trkpt>
      <trkpt lat="47.32041" lon="-2.29781">
        <ele>4.8000001907349</ele>
        <time>2022-02-20T10:30:55.000Z</time>
      </trkpt>
      <trkpt lat="47.32038" lon="-2.29742">
        <ele>4.8000001907349</ele>
        <time>2022-02-20T10:31:01.000Z</time>
      </trkpt>
      <trkpt lat="47.32043" lon="-2.29727">
        <ele>4.8000001907349</ele>
        <time>2022-02-20T10:31:04.000Z</time>
      </trkpt>
      <trkpt lat="47.32047" lon="-2.29721">
        <ele>4.8000001907349</ele>
        <time>2022-02-20T10:31:05.000Z</time>
      </trkpt>
      <trkpt lat="47.32055" lon="-2.29711">
        <ele>4.8000001907349</ele>
        <time>2022-02-20T10:31:07.000Z</time>
      </trkpt>
      <trkpt lat="47.32069" lon="-2.29697">
        <ele>4.8000001907349</ele>
        <time>2022-02-20T10:31:10.000Z</time>
      </trkpt>
      <trkpt lat="47.32073" lon="-2.29691">
        <ele>4.8000001907349</ele>
        <time>2022-02-20T10:31:11.000Z</time>
      </trkpt>
      <trkpt lat="47.32075" lon="-2.29676">
        <ele>4.8000001907349</ele>
        <time>2022-02-20T10:31:13.000Z</time>
      </trkpt>
      <trkpt lat="47.32069" lon="-2.29656">
        <ele>4.8000001907349</ele>
        <time>2022-02-20T10:31:16.000Z</time>
      </trkpt>
      <trkpt lat="47.32047" lon="-2.29605">
        <ele>4.8000001907349</ele>
        <time>2022-02-20T10:31:24.000Z</time>
      </trkpt>
      <trkpt lat="47.32039" lon="-2.29584">
        <ele>5.4000000953674</ele>
        <time>2022-02-20T10:31:27.000Z</time>
      </trkpt>
      <trkpt lat="47.32036" lon="-2.29578">
        <ele>5.8000001907349</ele>
        <time>2022-02-20T10:31:28.000Z</time>
      </trkpt>
      <trkpt lat="47.32034" lon="-2.29572">
        <ele>6.1999998092651</ele>
        <time>2022-02-20T10:31:29.000Z</time>
      </trkpt>
      <trkpt lat="47.32031" lon="-2.29566">
        <ele>6.5999999046326</ele>
        <time>2022-02-20T10:31:30.000Z</time>
      </trkpt>
      <trkpt lat="47.32028" lon="-2.29559">
        <ele>7</ele>
        <time>2022-02-20T10:31:31.000Z</time>
      </trkpt>
      <trkpt lat="47.32015" lon="-2.29523">
        <ele>7</ele>
        <time>2022-02-20T10:31:36.000Z</time>
      </trkpt>
      <trkpt lat="47.32013" lon="-2.29507">
        <ele>7</ele>
        <time>2022-02-20T10:31:38.000Z</time>
      </trkpt>
      <trkpt lat="47.32014" lon="-2.29491">
        <ele>7</ele>
        <time>2022-02-20T10:31:40.000Z</time>
      </trkpt>
      <trkpt lat="47.32012" lon="-2.29471">
        <ele>7</ele>
        <time>2022-02-20T10:31:44.000Z</time>
      </trkpt>
      <trkpt lat="47.32005" lon="-2.2948">
        <ele>7</ele>
        <time>2022-02-20T10:31:47.000Z</time>
      </trkpt>
      <trkpt lat="47.32003" lon="-2.29483">
        <ele>6.5999999046326</ele>
        <time>2022-02-20T10:31:48.000Z</time>
      </trkpt>
      <trkpt lat="47.31999" lon="-2.29488">
        <ele>6</ele>
        <time>2022-02-20T10:31:49.000Z</time>
      </trkpt>
      <trkpt lat="47.31996" lon="-2.29491">
        <ele>5.5999999046326</ele>
        <time>2022-02-20T10:31:50.000Z</time>
      </trkpt>
      <trkpt lat="47.31992" lon="-2.29495">
        <ele>5.1999998092651</ele>
        <time>2022-02-20T10:31:51.000Z</time>
      </trkpt>
      <trkpt lat="47.31988" lon="-2.29498">
        <ele>4.8000001907349</ele>
        <time>2022-02-20T10:31:52.000Z</time>
      </trkpt>
      <trkpt lat="47.31963" lon="-2.29523">
        <ele>4.8000001907349</ele>
        <time>2022-02-20T10:31:59.000Z</time>
      </trkpt>
      <trkpt lat="47.31945" lon="-2.29539">
        <ele>5.1999998092651</ele>
        <time>2022-02-20T10:32:04.000Z</time>
      </trkpt>
      <trkpt lat="47.31942" lon="-2.29543">
        <ele>5.5999999046326</ele>
        <time>2022-02-20T10:32:05.000Z</time>
      </trkpt>
      <trkpt lat="47.31938" lon="-2.29546">
        <ele>6</ele>
        <time>2022-02-20T10:32:06.000Z</time>
      </trkpt>
      <trkpt lat="47.31934" lon="-2.2955">
        <ele>6.4000000953674</ele>
        <time>2022-02-20T10:32:07.000Z</time>
      </trkpt>
      <trkpt lat="47.3193" lon="-2.29554">
        <ele>6.8000001907349</ele>
        <time>2022-02-20T10:32:08.000Z</time>
      </trkpt>
      <trkpt lat="47.31905" lon="-2.29575">
        <ele>6.8000001907349</ele>
        <time>2022-02-20T10:32:15.000Z</time>
      </trkpt>
      <trkpt lat="47.31901" lon="-2.2958">
        <ele>6.8000001907349</ele>
        <time>2022-02-20T10:32:16.000Z</time>
      </trkpt>
      <trkpt lat="47.31891" lon="-2.2959">
        <ele>6.8000001907349</ele>
        <time>2022-02-20T10:32:19.000Z</time>
      </trkpt>
      <trkpt lat="47.31873" lon="-2.29607">
        <ele>6.8000001907349</ele>
        <time>2022-02-20T10:32:24.000Z</time>
      </trkpt>
      <trkpt lat="47.3187" lon="-2.29612">
        <ele>6.8000001907349</ele>
        <time>2022-02-20T10:32:25.000Z</time>
      </trkpt>
      <trkpt lat="47.31858" lon="-2.29632">
        <ele>7.1999998092651</ele>
        <time>2022-02-20T10:32:29.000Z</time>
      </trkpt>
      <trkpt lat="47.31855" lon="-2.29637">
        <ele>7.5999999046326</ele>
        <time>2022-02-20T10:32:30.000Z</time>
      </trkpt>
      <trkpt lat="47.31853" lon="-2.29642">
        <ele>8.1999998092651</ele>
        <time>2022-02-20T10:32:31.000Z</time>
      </trkpt>
      <trkpt lat="47.31851" lon="-2.29648">
        <ele>8.6000003814697</ele>
        <time>2022-02-20T10:32:32.000Z</time>
      </trkpt>
      <trkpt lat="47.31848" lon="-2.29653">
        <ele>9</ele>
        <time>2022-02-20T10:32:33.000Z</time>
      </trkpt>
      <trkpt lat="47.31842" lon="-2.29669">
        <ele>9</ele>
        <time>2022-02-20T10:32:36.000Z</time>
      </trkpt>
      <trkpt lat="47.31835" lon="-2.29687">
        <ele>9</ele>
        <time>2022-02-20T10:32:39.000Z</time>
      </trkpt>
      <trkpt lat="47.31828" lon="-2.29704">
        <ele>9</ele>
        <time>2022-02-20T10:32:42.000Z</time>
      </trkpt>
      <trkpt lat="47.31819" lon="-2.2972">
        <ele>9</ele>
        <time>2022-02-20T10:32:45.000Z</time>
      </trkpt>
      <trkpt lat="47.31802" lon="-2.29744">
        <ele>9</ele>
        <time>2022-02-20T10:32:50.000Z</time>
      </trkpt>
      <trkpt lat="47.31799" lon="-2.29748">
        <ele>9</ele>
        <time>2022-02-20T10:32:51.000Z</time>
      </trkpt>
      <trkpt lat="47.31775" lon="-2.29769">
        <ele>9</ele>
        <time>2022-02-20T10:32:57.000Z</time>
      </trkpt>
      <trkpt lat="47.31771" lon="-2.29773">
        <ele>9.3999996185303</ele>
        <time>2022-02-20T10:32:58.000Z</time>
      </trkpt>
      <trkpt lat="47.31767" lon="-2.29776">
        <ele>9.8000001907349</ele>
        <time>2022-02-20T10:32:59.000Z</time>
      </trkpt>
      <trkpt lat="47.31763" lon="-2.29781">
        <ele>10.199999809265</ele>
        <time>2022-02-20T10:33:00.000Z</time>
      </trkpt>
      <trkpt lat="47.3176" lon="-2.29785">
        <ele>10.60000038147</ele>
        <time>2022-02-20T10:33:01.000Z</time>
      </trkpt>
      <trkpt lat="47.31756" lon="-2.2979">
        <ele>11</ele>
        <time>2022-02-20T10:33:02.000Z</time>
      </trkpt>
      <trkpt lat="47.31752" lon="-2.29795">
        <ele>11</ele>
        <time>2022-02-20T10:33:03.000Z</time>
      </trkpt>
      <trkpt lat="47.31749" lon="-2.29801">
        <ele>11</ele>
        <time>2022-02-20T10:33:04.000Z</time>
      </trkpt>
      <trkpt lat="47.31744" lon="-2.29813">
        <ele>11</ele>
        <time>2022-02-20T10:33:06.000Z</time>
      </trkpt>
      <trkpt lat="47.31739" lon="-2.29827">
        <ele>11</ele>
        <time>2022-02-20T10:33:08.000Z</time>
      </trkpt>
      <trkpt lat="47.31737" lon="-2.29835">
        <ele>11</ele>
        <time>2022-02-20T10:33:09.000Z</time>
      </trkpt>
      <trkpt lat="47.31729" lon="-2.29872">
        <ele>11</ele>
        <time>2022-02-20T10:33:14.000Z</time>
      </trkpt>
      <trkpt lat="47.31719" lon="-2.29929">
        <ele>11</ele>
        <time>2022-02-20T10:33:22.000Z</time>
      </trkpt>
      <trkpt lat="47.31709" lon="-2.29977">
        <ele>11</ele>
        <time>2022-02-20T10:33:29.000Z</time>
      </trkpt>
      <trkpt lat="47.31698" lon="-2.30031">
        <ele>11</ele>
        <time>2022-02-20T10:33:37.000Z</time>
      </trkpt>
      <trkpt lat="47.31688" lon="-2.30057">
        <ele>11.39999961853</ele>
        <time>2022-02-20T10:33:41.000Z</time>
      </trkpt>
      <trkpt lat="47.31685" lon="-2.30062">
        <ele>11.800000190735</ele>
        <time>2022-02-20T10:33:42.000Z</time>
      </trkpt>
      <trkpt lat="47.31682" lon="-2.30068">
        <ele>12.39999961853</ele>
        <time>2022-02-20T10:33:43.000Z</time>
      </trkpt>
      <trkpt lat="47.31678" lon="-2.30073">
        <ele>12.800000190735</ele>
        <time>2022-02-20T10:33:44.000Z</time>
      </trkpt>
      <trkpt lat="47.31675" lon="-2.30079">
        <ele>13.199999809265</ele>
        <time>2022-02-20T10:33:45.000Z</time>
      </trkpt>
      <trkpt lat="47.31667" lon="-2.30089">
        <ele>13.199999809265</ele>
        <time>2022-02-20T10:33:47.000Z</time>
      </trkpt>
      <trkpt lat="47.31653" lon="-2.30109">
        <ele>13.199999809265</ele>
        <time>2022-02-20T10:33:51.000Z</time>
      </trkpt>
      <trkpt lat="47.31631" lon="-2.30142">
        <ele>13.199999809265</ele>
        <time>2022-02-20T10:33:57.000Z</time>
      </trkpt>
      <trkpt lat="47.31629" lon="-2.30149">
        <ele>13.199999809265</ele>
        <time>2022-02-20T10:33:58.000Z</time>
      </trkpt>
      <trkpt lat="47.3162" lon="-2.30176">
        <ele>13.199999809265</ele>
        <time>2022-02-20T10:34:02.000Z</time>
      </trkpt>
      <trkpt lat="47.31612" lon="-2.3022">
        <ele>13.199999809265</ele>
        <time>2022-02-20T10:34:08.000Z</time>
      </trkpt>
      <trkpt lat="47.31602" lon="-2.30265">
        <ele>13.199999809265</ele>
        <time>2022-02-20T10:34:14.000Z</time>
      </trkpt>
      <trkpt lat="47.31577" lon="-2.30327">
        <ele>13.199999809265</ele>
        <time>2022-02-20T10:34:23.000Z</time>
      </trkpt>
      <trkpt lat="47.31571" lon="-2.30341">
        <ele>12.800000190735</ele>
        <time>2022-02-20T10:34:25.000Z</time>
      </trkpt>
      <trkpt lat="47.31568" lon="-2.30347">
        <ele>12.39999961853</ele>
        <time>2022-02-20T10:34:26.000Z</time>
      </trkpt>
      <trkpt lat="47.31566" lon="-2.30354">
        <ele>12</ele>
        <time>2022-02-20T10:34:27.000Z</time>
      </trkpt>
      <trkpt lat="47.31563" lon="-2.30361">
        <ele>11.60000038147</ele>
        <time>2022-02-20T10:34:28.000Z</time>
      </trkpt>
      <trkpt lat="47.3156" lon="-2.30368">
        <ele>11.199999809265</ele>
        <time>2022-02-20T10:34:29.000Z</time>
      </trkpt>
      <trkpt lat="47.3154" lon="-2.30425">
        <ele>11.199999809265</ele>
        <time>2022-02-20T10:34:37.000Z</time>
      </trkpt>
      <trkpt lat="47.31522" lon="-2.30484">
        <ele>11.199999809265</ele>
        <time>2022-02-20T10:34:45.000Z</time>
      </trkpt>
      <trkpt lat="47.31507" lon="-2.30537">
        <ele>11.199999809265</ele>
        <time>2022-02-20T10:34:53.000Z</time>
      </trkpt>
      <trkpt lat="47.31493" lon="-2.30586">
        <ele>11.199999809265</ele>
        <time>2022-02-20T10:35:00.000Z</time>
      </trkpt>
      <trkpt lat="47.31486" lon="-2.30639">
        <ele>11.199999809265</ele>
        <time>2022-02-20T10:35:07.000Z</time>
      </trkpt>
      <trkpt lat="47.31482" lon="-2.30682">
        <ele>11.199999809265</ele>
        <time>2022-02-20T10:35:13.000Z</time>
      </trkpt>
      <trkpt lat="47.31473" lon="-2.30724">
        <ele>11.199999809265</ele>
        <time>2022-02-20T10:35:19.000Z</time>
      </trkpt>
      <trkpt lat="47.31462" lon="-2.30739">
        <ele>11.199999809265</ele>
        <time>2022-02-20T10:35:24.000Z</time>
      </trkpt>
      <trkpt lat="47.31462" lon="-2.30733">
        <ele>11.199999809265</ele>
        <time>2022-02-20T10:35:27.000Z</time>
      </trkpt>
      <trkpt lat="47.31461" lon="-2.30722">
        <ele>11.199999809265</ele>
        <time>2022-02-20T10:35:30.000Z</time>
      </trkpt>
      <trkpt lat="47.31455" lon="-2.30721">
        <ele>11.199999809265</ele>
        <time>2022-02-20T10:35:34.000Z</time>
      </trkpt>
      <trkpt lat="47.31456" lon="-2.30721">
        <ele>11.199999809265</ele>
        <time>2022-02-20T10:35:35.000Z</time>
      </trkpt>
      <trkpt lat="47.31459" lon="-2.30723">
        <ele>11.199999809265</ele>
        <time>2022-02-20T10:36:18.000Z</time>
      </trkpt>
      <trkpt lat="47.31461" lon="-2.30724">
        <ele>11.199999809265</ele>
        <time>2022-02-20T10:36:19.000Z</time>
      </trkpt>
      <trkpt lat="47.31463" lon="-2.3074">
        <ele>11.199999809265</ele>
        <time>2022-02-20T10:36:24.000Z</time>
      </trkpt>
      <trkpt lat="47.31458" lon="-2.3075">
        <ele>11.199999809265</ele>
        <time>2022-02-20T10:36:26.000Z</time>
      </trkpt>
      <trkpt lat="47.31455" lon="-2.30758">
        <ele>11.199999809265</ele>
        <time>2022-02-20T10:36:28.000Z</time>
      </trkpt>
      <trkpt lat="47.31443" lon="-2.3078">
        <ele>11.199999809265</ele>
        <time>2022-02-20T10:36:33.000Z</time>
      </trkpt>
      <trkpt lat="47.31437" lon="-2.30789">
        <ele>11.199999809265</ele>
        <time>2022-02-20T10:36:38.000Z</time>
      </trkpt>
      <trkpt lat="47.31436" lon="-2.30789">
        <ele>11.199999809265</ele>
        <time>2022-02-20T10:36:39.000Z</time>
      </trkpt>
      <trkpt lat="47.3143" lon="-2.30797">
        <ele>11.199999809265</ele>
        <time>2022-02-20T10:36:42.000Z</time>
      </trkpt>
      <trkpt lat="47.31428" lon="-2.30801">
        <ele>11.199999809265</ele>
        <time>2022-02-20T10:36:43.000Z</time>
      </trkpt>
      <trkpt lat="47.31416" lon="-2.30819">
        <ele>11.199999809265</ele>
        <time>2022-02-20T10:36:47.000Z</time>
      </trkpt>
      <trkpt lat="47.31395" lon="-2.30848">
        <ele>11.199999809265</ele>
        <time>2022-02-20T10:36:53.000Z</time>
      </trkpt>
      <trkpt lat="47.31378" lon="-2.30875">
        <ele>11.199999809265</ele>
        <time>2022-02-20T10:36:58.000Z</time>
      </trkpt>
      <trkpt lat="47.31371" lon="-2.30886">
        <ele>11.199999809265</ele>
        <time>2022-02-20T10:37:00.000Z</time>
      </trkpt>
      <trkpt lat="47.3135" lon="-2.30916">
        <ele>11.199999809265</ele>
        <time>2022-02-20T10:37:06.000Z</time>
      </trkpt>
      <trkpt lat="47.31331" lon="-2.30944">
        <ele>11.199999809265</ele>
        <time>2022-02-20T10:37:12.000Z</time>
      </trkpt>
      <trkpt lat="47.31325" lon="-2.30962">
        <ele>11.199999809265</ele>
        <time>2022-02-20T10:37:15.000Z</time>
      </trkpt>
      <trkpt lat="47.31323" lon="-2.30975">
        <ele>11.60000038147</ele>
        <time>2022-02-20T10:37:17.000Z</time>
      </trkpt>
      <trkpt lat="47.31323" lon="-2.30981">
        <ele>12</ele>
        <time>2022-02-20T10:37:18.000Z</time>
      </trkpt>
      <trkpt lat="47.31323" lon="-2.30988">
        <ele>12.39999961853</ele>
        <time>2022-02-20T10:37:19.000Z</time>
      </trkpt>
      <trkpt lat="47.31324" lon="-2.30995">
        <ele>12.800000190735</ele>
        <time>2022-02-20T10:37:20.000Z</time>
      </trkpt>
      <trkpt lat="47.31326" lon="-2.31001">
        <ele>13.199999809265</ele>
        <time>2022-02-20T10:37:21.000Z</time>
      </trkpt>
      <trkpt lat="47.31327" lon="-2.31008">
        <ele>13.199999809265</ele>
        <time>2022-02-20T10:37:22.000Z</time>
      </trkpt>
      <trkpt lat="47.31329" lon="-2.31014">
        <ele>13.199999809265</ele>
        <time>2022-02-20T10:37:23.000Z</time>
      </trkpt>
      <trkpt lat="47.31334" lon="-2.31033">
        <ele>13.199999809265</ele>
        <time>2022-02-20T10:37:26.000Z</time>
      </trkpt>
      <trkpt lat="47.31336" lon="-2.31038">
        <ele>13.199999809265</ele>
        <time>2022-02-20T10:37:27.000Z</time>
      </trkpt>
      <trkpt lat="47.31342" lon="-2.31058">
        <ele>13.199999809265</ele>
        <time>2022-02-20T10:37:31.000Z</time>
      </trkpt>
      <trkpt lat="47.3135" lon="-2.31091">
        <ele>13.199999809265</ele>
        <time>2022-02-20T10:37:38.000Z</time>
      </trkpt>
      <trkpt lat="47.31354" lon="-2.31107">
        <ele>13.199999809265</ele>
        <time>2022-02-20T10:37:42.000Z</time>
      </trkpt>
      <trkpt lat="47.31357" lon="-2.31129">
        <ele>13.199999809265</ele>
        <time>2022-02-20T10:37:48.000Z</time>
      </trkpt>
      <trkpt lat="47.31348" lon="-2.31138">
        <ele>13.60000038147</ele>
        <time>2022-02-20T10:37:52.000Z</time>
      </trkpt>
      <trkpt lat="47.31345" lon="-2.3114">
        <ele>14</ele>
        <time>2022-02-20T10:37:53.000Z</time>
      </trkpt>
      <trkpt lat="47.31343" lon="-2.31142">
        <ele>14.800000190735</ele>
        <time>2022-02-20T10:37:54.000Z</time>
      </trkpt>
      <trkpt lat="47.3134" lon="-2.31144">
        <ele>15.199999809265</ele>
        <time>2022-02-20T10:37:55.000Z</time>
      </trkpt>
      <trkpt lat="47.31327" lon="-2.3115">
        <ele>15.199999809265</ele>
        <time>2022-02-20T10:38:00.000Z</time>
      </trkpt>
      <trkpt lat="47.31315" lon="-2.31149">
        <ele>15.199999809265</ele>
        <time>2022-02-20T10:38:05.000Z</time>
      </trkpt>
      <trkpt lat="47.31294" lon="-2.3115">
        <ele>15.199999809265</ele>
        <time>2022-02-20T10:38:11.000Z</time>
      </trkpt>
      <trkpt lat="47.31266" lon="-2.31151">
        <ele>15.199999809265</ele>
        <time>2022-02-20T10:38:18.000Z</time>
      </trkpt>
      <trkpt lat="47.31233" lon="-2.31154">
        <ele>15.199999809265</ele>
        <time>2022-02-20T10:38:25.000Z</time>
      </trkpt>
      <trkpt lat="47.31219" lon="-2.3116">
        <ele>15.199999809265</ele>
        <time>2022-02-20T10:38:28.000Z</time>
      </trkpt>
      <trkpt lat="47.31207" lon="-2.31167">
        <ele>15.199999809265</ele>
        <time>2022-02-20T10:38:31.000Z</time>
      </trkpt>
      <trkpt lat="47.31178" lon="-2.31181">
        <ele>15.199999809265</ele>
        <time>2022-02-20T10:38:38.000Z</time>
      </trkpt>
      <trkpt lat="47.31166" lon="-2.31188">
        <ele>15.199999809265</ele>
        <time>2022-02-20T10:38:41.000Z</time>
      </trkpt>
      <trkpt lat="47.31162" lon="-2.31201">
        <ele>15.199999809265</ele>
        <time>2022-02-20T10:38:43.000Z</time>
      </trkpt>
      <trkpt lat="47.31156" lon="-2.31211">
        <ele>15.199999809265</ele>
        <time>2022-02-20T10:38:45.000Z</time>
      </trkpt>
      <trkpt lat="47.31141" lon="-2.31231">
        <ele>15.199999809265</ele>
        <time>2022-02-20T10:38:49.000Z</time>
      </trkpt>
      <trkpt lat="47.31134" lon="-2.31242">
        <ele>15.199999809265</ele>
        <time>2022-02-20T10:38:51.000Z</time>
      </trkpt>
      <trkpt lat="47.31121" lon="-2.31263">
        <ele>15.199999809265</ele>
        <time>2022-02-20T10:38:55.000Z</time>
      </trkpt>
      <trkpt lat="47.31107" lon="-2.3129">
        <ele>15.199999809265</ele>
        <time>2022-02-20T10:39:00.000Z</time>
      </trkpt>
      <trkpt lat="47.31102" lon="-2.31303">
        <ele>15.199999809265</ele>
        <time>2022-02-20T10:39:02.000Z</time>
      </trkpt>
      <trkpt lat="47.31079" lon="-2.31349">
        <ele>15.199999809265</ele>
        <time>2022-02-20T10:39:10.000Z</time>
      </trkpt>
      <trkpt lat="47.3107" lon="-2.31366">
        <ele>15.199999809265</ele>
        <time>2022-02-20T10:39:13.000Z</time>
      </trkpt>
      <trkpt lat="47.31058" lon="-2.31389">
        <ele>15.199999809265</ele>
        <time>2022-02-20T10:39:17.000Z</time>
      </trkpt>
      <trkpt lat="47.31044" lon="-2.31411">
        <ele>15.199999809265</ele>
        <time>2022-02-20T10:39:21.000Z</time>
      </trkpt>
      <trkpt lat="47.31036" lon="-2.3142">
        <ele>15.199999809265</ele>
        <time>2022-02-20T10:39:23.000Z</time>
      </trkpt>
      <trkpt lat="47.31032" lon="-2.31425">
        <ele>15.199999809265</ele>
        <time>2022-02-20T10:39:24.000Z</time>
      </trkpt>
      <trkpt lat="47.30998" lon="-2.31459">
        <ele>15.199999809265</ele>
        <time>2022-02-20T10:39:32.000Z</time>
      </trkpt>
      <trkpt lat="47.30975" lon="-2.31481">
        <ele>15.199999809265</ele>
        <time>2022-02-20T10:39:37.000Z</time>
      </trkpt>
      <trkpt lat="47.30948" lon="-2.31508">
        <ele>15.199999809265</ele>
        <time>2022-02-20T10:39:43.000Z</time>
      </trkpt>
      <trkpt lat="47.30923" lon="-2.31539">
        <ele>15.199999809265</ele>
        <time>2022-02-20T10:39:49.000Z</time>
      </trkpt>
      <trkpt lat="47.30919" lon="-2.31544">
        <ele>15.199999809265</ele>
        <time>2022-02-20T10:39:50.000Z</time>
      </trkpt>
      <trkpt lat="47.30884" lon="-2.31587">
        <ele>15.199999809265</ele>
        <time>2022-02-20T10:39:59.000Z</time>
      </trkpt>
      <trkpt lat="47.30853" lon="-2.31622">
        <ele>15.199999809265</ele>
        <time>2022-02-20T10:40:07.000Z</time>
      </trkpt>
      <trkpt lat="47.30845" lon="-2.31632">
        <ele>14.800000190735</ele>
        <time>2022-02-20T10:40:09.000Z</time>
      </trkpt>
      <trkpt lat="47.30841" lon="-2.31637">
        <ele>14.39999961853</ele>
        <time>2022-02-20T10:40:10.000Z</time>
      </trkpt>
      <trkpt lat="47.30837" lon="-2.31642">
        <ele>14</ele>
        <time>2022-02-20T10:40:11.000Z</time>
      </trkpt>
      <trkpt lat="47.30833" lon="-2.31647">
        <ele>13.39999961853</ele>
        <time>2022-02-20T10:40:12.000Z</time>
      </trkpt>
      <trkpt lat="47.30828" lon="-2.31652">
        <ele>13</ele>
        <time>2022-02-20T10:40:13.000Z</time>
      </trkpt>
      <trkpt lat="47.30798" lon="-2.31689">
        <ele>12.60000038147</ele>
        <time>2022-02-20T10:40:20.000Z</time>
      </trkpt>
      <trkpt lat="47.30794" lon="-2.31694">
        <ele>12.199999809265</ele>
        <time>2022-02-20T10:40:21.000Z</time>
      </trkpt>
      <trkpt lat="47.3079" lon="-2.31699">
        <ele>11.800000190735</ele>
        <time>2022-02-20T10:40:22.000Z</time>
      </trkpt>
      <trkpt lat="47.30786" lon="-2.31705">
        <ele>10.800000190735</ele>
        <time>2022-02-20T10:40:23.000Z</time>
      </trkpt>
      <trkpt lat="47.30767" lon="-2.31729">
        <ele>10.39999961853</ele>
        <time>2022-02-20T10:40:28.000Z</time>
      </trkpt>
      <trkpt lat="47.30763" lon="-2.31734">
        <ele>10</ele>
        <time>2022-02-20T10:40:29.000Z</time>
      </trkpt>
      <trkpt lat="47.3076" lon="-2.31739">
        <ele>9.6000003814697</ele>
        <time>2022-02-20T10:40:30.000Z</time>
      </trkpt>
      <trkpt lat="47.30757" lon="-2.31744">
        <ele>9.1999998092651</ele>
        <time>2022-02-20T10:40:31.000Z</time>
      </trkpt>
      <trkpt lat="47.30753" lon="-2.31749">
        <ele>8.8000001907349</ele>
        <time>2022-02-20T10:40:32.000Z</time>
      </trkpt>
      <trkpt lat="47.30735" lon="-2.31777">
        <ele>8.3999996185303</ele>
        <time>2022-02-20T10:40:37.000Z</time>
      </trkpt>
      <trkpt lat="47.30731" lon="-2.31784">
        <ele>8</ele>
        <time>2022-02-20T10:40:38.000Z</time>
      </trkpt>
      <trkpt lat="47.30727" lon="-2.31792">
        <ele>7.5999999046326</ele>
        <time>2022-02-20T10:40:39.000Z</time>
      </trkpt>
      <trkpt lat="47.30723" lon="-2.318">
        <ele>7.1999998092651</ele>
        <time>2022-02-20T10:40:40.000Z</time>
      </trkpt>
      <trkpt lat="47.3072" lon="-2.31809">
        <ele>6.5999999046326</ele>
        <time>2022-02-20T10:40:41.000Z</time>
      </trkpt>
      <trkpt lat="47.30714" lon="-2.31826">
        <ele>6.5999999046326</ele>
        <time>2022-02-20T10:40:43.000Z</time>
      </trkpt>
      <trkpt lat="47.30702" lon="-2.31858">
        <ele>6.1999998092651</ele>
        <time>2022-02-20T10:40:47.000Z</time>
      </trkpt>
      <trkpt lat="47.30699" lon="-2.31866">
        <ele>5.4000000953674</ele>
        <time>2022-02-20T10:40:48.000Z</time>
      </trkpt>
      <trkpt lat="47.30697" lon="-2.31873">
        <ele>4.8000001907349</ele>
        <time>2022-02-20T10:40:49.000Z</time>
      </trkpt>
      <trkpt lat="47.30694" lon="-2.31881">
        <ele>4.4000000953674</ele>
        <time>2022-02-20T10:40:50.000Z</time>
      </trkpt>
      <trkpt lat="47.30677" lon="-2.31926">
        <ele>4.4000000953674</ele>
        <time>2022-02-20T10:40:56.000Z</time>
      </trkpt>
      <trkpt lat="47.30661" lon="-2.31966">
        <ele>4.4000000953674</ele>
        <time>2022-02-20T10:41:02.000Z</time>
      </trkpt>
      <trkpt lat="47.30644" lon="-2.32009">
        <ele>4.4000000953674</ele>
        <time>2022-02-20T10:41:08.000Z</time>
      </trkpt>
      <trkpt lat="47.30631" lon="-2.32037">
        <ele>4</ele>
        <time>2022-02-20T10:41:12.000Z</time>
      </trkpt>
      <trkpt lat="47.30627" lon="-2.32043">
        <ele>3</ele>
        <time>2022-02-20T10:41:13.000Z</time>
      </trkpt>
      <trkpt lat="47.30623" lon="-2.32049">
        <ele>2.5999999046326</ele>
        <time>2022-02-20T10:41:14.000Z</time>
      </trkpt>
      <trkpt lat="47.30619" lon="-2.32055">
        <ele>2.2000000476837</ele>
        <time>2022-02-20T10:41:15.000Z</time>
      </trkpt>
      <trkpt lat="47.30611" lon="-2.32065">
        <ele>2.2000000476837</ele>
        <time>2022-02-20T10:41:17.000Z</time>
      </trkpt>
      <trkpt lat="47.30601" lon="-2.32073">
        <ele>2.2000000476837</ele>
        <time>2022-02-20T10:41:19.000Z</time>
      </trkpt>
      <trkpt lat="47.30583" lon="-2.32072">
        <ele>2.2000000476837</ele>
        <time>2022-02-20T10:41:22.000Z</time>
      </trkpt>
      <trkpt lat="47.30577" lon="-2.32071">
        <ele>2.2000000476837</ele>
        <time>2022-02-20T10:41:23.000Z</time>
      </trkpt>
      <trkpt lat="47.30548" lon="-2.32063">
        <ele>2.2000000476837</ele>
        <time>2022-02-20T10:41:28.000Z</time>
      </trkpt>
      <trkpt lat="47.30543" lon="-2.32061">
        <ele>2.2000000476837</ele>
        <time>2022-02-20T10:41:29.000Z</time>
      </trkpt>
      <trkpt lat="47.30523" lon="-2.32042">
        <ele>2.2000000476837</ele>
        <time>2022-02-20T10:41:33.000Z</time>
      </trkpt>
      <trkpt lat="47.3051" lon="-2.32015">
        <ele>2.2000000476837</ele>
        <time>2022-02-20T10:41:37.000Z</time>
      </trkpt>
      <trkpt lat="47.30498" lon="-2.31987">
        <ele>2.2000000476837</ele>
        <time>2022-02-20T10:41:41.000Z</time>
      </trkpt>
      <trkpt lat="47.30489" lon="-2.31976">
        <ele>2.2000000476837</ele>
        <time>2022-02-20T10:41:43.000Z</time>
      </trkpt>
      <trkpt lat="47.30476" lon="-2.31967">
        <ele>2.2000000476837</ele>
        <time>2022-02-20T10:41:46.000Z</time>
      </trkpt>
      <trkpt lat="47.30459" lon="-2.3197">
        <ele>2.2000000476837</ele>
        <time>2022-02-20T10:41:49.000Z</time>
      </trkpt>
      <trkpt lat="47.30453" lon="-2.31972">
        <ele>2.2000000476837</ele>
        <time>2022-02-20T10:41:50.000Z</time>
      </trkpt>
      <trkpt lat="47.30413" lon="-2.31985">
        <ele>2.2000000476837</ele>
        <time>2022-02-20T10:41:57.000Z</time>
      </trkpt>
      <trkpt lat="47.30376" lon="-2.31996">
        <ele>2.2000000476837</ele>
        <time>2022-02-20T10:42:04.000Z</time>
      </trkpt>
      <trkpt lat="47.3034" lon="-2.32011">
        <ele>2.2000000476837</ele>
        <time>2022-02-20T10:42:11.000Z</time>
      </trkpt>
      <trkpt lat="47.30321" lon="-2.32031">
        <ele>2.2000000476837</ele>
        <time>2022-02-20T10:42:16.000Z</time>
      </trkpt>
      <trkpt lat="47.303" lon="-2.32057">
        <ele>2.2000000476837</ele>
        <time>2022-02-20T10:42:22.000Z</time>
      </trkpt>
      <trkpt lat="47.30282" lon="-2.32075">
        <ele>2.2000000476837</ele>
        <time>2022-02-20T10:42:27.000Z</time>
      </trkpt>
      <trkpt lat="47.30277" lon="-2.32078">
        <ele>2.2000000476837</ele>
        <time>2022-02-20T10:42:28.000Z</time>
      </trkpt>
      <trkpt lat="47.30256" lon="-2.32081">
        <ele>2.2000000476837</ele>
        <time>2022-02-20T10:42:32.000Z</time>
      </trkpt>
      <trkpt lat="47.3025" lon="-2.32081">
        <ele>2.2000000476837</ele>
        <time>2022-02-20T10:42:33.000Z</time>
      </trkpt>
      <trkpt lat="47.30221" lon="-2.32079">
        <ele>2.5999999046326</ele>
        <time>2022-02-20T10:42:38.000Z</time>
      </trkpt>
      <trkpt lat="47.30215" lon="-2.32078">
        <ele>3</ele>
        <time>2022-02-20T10:42:39.000Z</time>
      </trkpt>
      <trkpt lat="47.3021" lon="-2.32077">
        <ele>3.4000000953674</ele>
        <time>2022-02-20T10:42:40.000Z</time>
      </trkpt>
      <trkpt lat="47.30205" lon="-2.32077">
        <ele>3.7999999523163</ele>
        <time>2022-02-20T10:42:41.000Z</time>
      </trkpt>
      <trkpt lat="47.30199" lon="-2.32076">
        <ele>4.1999998092651</ele>
        <time>2022-02-20T10:42:42.000Z</time>
      </trkpt>
      <trkpt lat="47.30177" lon="-2.32073">
        <ele>4.1999998092651</ele>
        <time>2022-02-20T10:42:46.000Z</time>
      </trkpt>
      <trkpt lat="47.30161" lon="-2.32073">
        <ele>4.1999998092651</ele>
        <time>2022-02-20T10:42:49.000Z</time>
      </trkpt>
      <trkpt lat="47.30146" lon="-2.32075">
        <ele>4.1999998092651</ele>
        <time>2022-02-20T10:42:52.000Z</time>
      </trkpt>
      <trkpt lat="47.30123" lon="-2.3208">
        <ele>4.1999998092651</ele>
        <time>2022-02-20T10:42:57.000Z</time>
      </trkpt>
      <trkpt lat="47.30119" lon="-2.32082">
        <ele>4.1999998092651</ele>
        <time>2022-02-20T10:42:58.000Z</time>
      </trkpt>
      <trkpt lat="47.30111" lon="-2.32085">
        <ele>4.5999999046326</ele>
        <time>2022-02-20T10:43:00.000Z</time>
      </trkpt>
      <trkpt lat="47.30106" lon="-2.32086">
        <ele>5</ele>
        <time>2022-02-20T10:43:01.000Z</time>
      </trkpt>
      <trkpt lat="47.30102" lon="-2.32088">
        <ele>5.5999999046326</ele>
        <time>2022-02-20T10:43:02.000Z</time>
      </trkpt>
      <trkpt lat="47.30098" lon="-2.32089">
        <ele>6</ele>
        <time>2022-02-20T10:43:03.000Z</time>
      </trkpt>
      <trkpt lat="47.30094" lon="-2.3209">
        <ele>6.4000000953674</ele>
        <time>2022-02-20T10:43:04.000Z</time>
      </trkpt>
      <trkpt lat="47.30089" lon="-2.32091">
        <ele>6.4000000953674</ele>
        <time>2022-02-20T10:43:05.000Z</time>
      </trkpt>
      <trkpt lat="47.30071" lon="-2.32097">
        <ele>6.4000000953674</ele>
        <time>2022-02-20T10:43:09.000Z</time>
      </trkpt>
      <trkpt lat="47.3005" lon="-2.32106">
        <ele>6.4000000953674</ele>
        <time>2022-02-20T10:43:14.000Z</time>
      </trkpt>
      <trkpt lat="47.30042" lon="-2.32112">
        <ele>7.1999998092651</ele>
        <time>2022-02-20T10:43:16.000Z</time>
      </trkpt>
      <trkpt lat="47.30039" lon="-2.32116">
        <ele>7.5999999046326</ele>
        <time>2022-02-20T10:43:17.000Z</time>
      </trkpt>
      <trkpt lat="47.30036" lon="-2.32119">
        <ele>8</ele>
        <time>2022-02-20T10:43:18.000Z</time>
      </trkpt>
      <trkpt lat="47.30033" lon="-2.32122">
        <ele>8.6000003814697</ele>
        <time>2022-02-20T10:43:19.000Z</time>
      </trkpt>
      <trkpt lat="47.30021" lon="-2.32137">
        <ele>9</ele>
        <time>2022-02-20T10:43:23.000Z</time>
      </trkpt>
      <trkpt lat="47.30017" lon="-2.32139">
        <ele>9.3999996185303</ele>
        <time>2022-02-20T10:43:24.000Z</time>
      </trkpt>
      <trkpt lat="47.30013" lon="-2.32141">
        <ele>9.8000001907349</ele>
        <time>2022-02-20T10:43:25.000Z</time>
      </trkpt>
      <trkpt lat="47.30009" lon="-2.32143">
        <ele>10.199999809265</ele>
        <time>2022-02-20T10:43:26.000Z</time>
      </trkpt>
      <trkpt lat="47.30006" lon="-2.32145">
        <ele>10.60000038147</ele>
        <time>2022-02-20T10:43:27.000Z</time>
      </trkpt>
      <trkpt lat="47.29995" lon="-2.32153">
        <ele>10.60000038147</ele>
        <time>2022-02-20T10:43:31.000Z</time>
      </trkpt>
      <trkpt lat="47.29979" lon="-2.32163">
        <ele>10.60000038147</ele>
        <time>2022-02-20T10:43:37.000Z</time>
      </trkpt>
      <trkpt lat="47.29971" lon="-2.32168">
        <ele>11</ele>
        <time>2022-02-20T10:43:40.000Z</time>
      </trkpt>
      <trkpt lat="47.29968" lon="-2.3217">
        <ele>12</ele>
        <time>2022-02-20T10:43:41.000Z</time>
      </trkpt>
      <trkpt lat="47.29966" lon="-2.32172">
        <ele>12.39999961853</ele>
        <time>2022-02-20T10:43:42.000Z</time>
      </trkpt>
      <trkpt lat="47.29963" lon="-2.32174">
        <ele>13</ele>
        <time>2022-02-20T10:43:43.000Z</time>
      </trkpt>
      <trkpt lat="47.29956" lon="-2.32178">
        <ele>13</ele>
        <time>2022-02-20T10:43:45.000Z</time>
      </trkpt>
      <trkpt lat="47.29939" lon="-2.3219">
        <ele>13.39999961853</ele>
        <time>2022-02-20T10:43:51.000Z</time>
      </trkpt>
      <trkpt lat="47.29936" lon="-2.32191">
        <ele>13.800000190735</ele>
        <time>2022-02-20T10:43:52.000Z</time>
      </trkpt>
      <trkpt lat="47.29934" lon="-2.32193">
        <ele>14.199999809265</ele>
        <time>2022-02-20T10:43:53.000Z</time>
      </trkpt>
      <trkpt lat="47.29931" lon="-2.32196">
        <ele>14.60000038147</ele>
        <time>2022-02-20T10:43:54.000Z</time>
      </trkpt>
      <trkpt lat="47.29929" lon="-2.32198">
        <ele>15</ele>
        <time>2022-02-20T10:43:55.000Z</time>
      </trkpt>
      <trkpt lat="47.29914" lon="-2.32212">
        <ele>15</ele>
        <time>2022-02-20T10:44:01.000Z</time>
      </trkpt>
      <trkpt lat="47.29907" lon="-2.3222">
        <ele>15.39999961853</ele>
        <time>2022-02-20T10:44:04.000Z</time>
      </trkpt>
      <trkpt lat="47.29905" lon="-2.32223">
        <ele>15.800000190735</ele>
        <time>2022-02-20T10:44:05.000Z</time>
      </trkpt>
      <trkpt lat="47.29903" lon="-2.32227">
        <ele>16.60000038147</ele>
        <time>2022-02-20T10:44:06.000Z</time>
      </trkpt>
      <trkpt lat="47.299" lon="-2.3223">
        <ele>17</ele>
        <time>2022-02-20T10:44:07.000Z</time>
      </trkpt>
      <trkpt lat="47.29898" lon="-2.32234">
        <ele>17</ele>
        <time>2022-02-20T10:44:08.000Z</time>
      </trkpt>
      <trkpt lat="47.29886" lon="-2.32254">
        <ele>17</ele>
        <time>2022-02-20T10:44:14.000Z</time>
      </trkpt>
      <trkpt lat="47.29881" lon="-2.32261">
        <ele>17.39999961853</ele>
        <time>2022-02-20T10:44:16.000Z</time>
      </trkpt>
      <trkpt lat="47.29879" lon="-2.32265">
        <ele>17.799999237061</ele>
        <time>2022-02-20T10:44:17.000Z</time>
      </trkpt>
      <trkpt lat="47.29877" lon="-2.32269">
        <ele>18.200000762939</ele>
        <time>2022-02-20T10:44:18.000Z</time>
      </trkpt>
      <trkpt lat="47.29874" lon="-2.32272">
        <ele>18.60000038147</ele>
        <time>2022-02-20T10:44:19.000Z</time>
      </trkpt>
      <trkpt lat="47.29872" lon="-2.32275">
        <ele>19.200000762939</ele>
        <time>2022-02-20T10:44:20.000Z</time>
      </trkpt>
      <trkpt lat="47.29869" lon="-2.32278">
        <ele>19.200000762939</ele>
        <time>2022-02-20T10:44:21.000Z</time>
      </trkpt>
      <trkpt lat="47.29847" lon="-2.32301">
        <ele>19.200000762939</ele>
        <time>2022-02-20T10:44:28.000Z</time>
      </trkpt>
      <trkpt lat="47.29823" lon="-2.32318">
        <ele>19.200000762939</ele>
        <time>2022-02-20T10:44:36.000Z</time>
      </trkpt>
      <trkpt lat="47.29804" lon="-2.32328">
        <ele>19.200000762939</ele>
        <time>2022-02-20T10:44:43.000Z</time>
      </trkpt>
      <trkpt lat="47.29781" lon="-2.32337">
        <ele>19.200000762939</ele>
        <time>2022-02-20T10:44:50.000Z</time>
      </trkpt>
      <trkpt lat="47.29757" lon="-2.32341">
        <ele>19.200000762939</ele>
        <time>2022-02-20T10:44:57.000Z</time>
      </trkpt>
      <trkpt lat="47.29735" lon="-2.32343">
        <ele>19.200000762939</ele>
        <time>2022-02-20T10:45:03.000Z</time>
      </trkpt>
      <trkpt lat="47.2971" lon="-2.32348">
        <ele>19.200000762939</ele>
        <time>2022-02-20T10:45:09.000Z</time>
      </trkpt>
      <trkpt lat="47.29682" lon="-2.32363">
        <ele>19.200000762939</ele>
        <time>2022-02-20T10:45:16.000Z</time>
      </trkpt>
      <trkpt lat="47.29652" lon="-2.32386">
        <ele>19.200000762939</ele>
        <time>2022-02-20T10:45:24.000Z</time>
      </trkpt>
      <trkpt lat="47.29649" lon="-2.32388">
        <ele>18.60000038147</ele>
        <time>2022-02-20T10:45:25.000Z</time>
      </trkpt>
      <trkpt lat="47.29645" lon="-2.32391">
        <ele>18.200000762939</ele>
        <time>2022-02-20T10:45:26.000Z</time>
      </trkpt>
      <trkpt lat="47.29641" lon="-2.32394">
        <ele>17.799999237061</ele>
        <time>2022-02-20T10:45:27.000Z</time>
      </trkpt>
      <trkpt lat="47.29637" lon="-2.32397">
        <ele>17.39999961853</ele>
        <time>2022-02-20T10:45:28.000Z</time>
      </trkpt>
      <trkpt lat="47.29633" lon="-2.324">
        <ele>17</ele>
        <time>2022-02-20T10:45:29.000Z</time>
      </trkpt>
      <trkpt lat="47.29625" lon="-2.32406">
        <ele>17</ele>
        <time>2022-02-20T10:45:31.000Z</time>
      </trkpt>
      <trkpt lat="47.29608" lon="-2.32417">
        <ele>16.60000038147</ele>
        <time>2022-02-20T10:45:35.000Z</time>
      </trkpt>
      <trkpt lat="47.29604" lon="-2.32419">
        <ele>16.200000762939</ele>
        <time>2022-02-20T10:45:36.000Z</time>
      </trkpt>
      <trkpt lat="47.296" lon="-2.32421">
        <ele>15.800000190735</ele>
        <time>2022-02-20T10:45:37.000Z</time>
      </trkpt>
      <trkpt lat="47.29596" lon="-2.32423">
        <ele>15.39999961853</ele>
        <time>2022-02-20T10:45:38.000Z</time>
      </trkpt>
      <trkpt lat="47.29593" lon="-2.32425">
        <ele>15</ele>
        <time>2022-02-20T10:45:39.000Z</time>
      </trkpt>
      <trkpt lat="47.2958" lon="-2.32434">
        <ele>15</ele>
        <time>2022-02-20T10:45:43.000Z</time>
      </trkpt>
      <trkpt lat="47.29563" lon="-2.32445">
        <ele>15</ele>
        <time>2022-02-20T10:45:49.000Z</time>
      </trkpt>
      <trkpt lat="47.29543" lon="-2.32463">
        <ele>15</ele>
        <time>2022-02-20T10:45:55.000Z</time>
      </trkpt>
      <trkpt lat="47.29521" lon="-2.32479">
        <ele>15</ele>
        <time>2022-02-20T10:46:01.000Z</time>
      </trkpt>
      <trkpt lat="47.29517" lon="-2.32482">
        <ele>15</ele>
        <time>2022-02-20T10:46:02.000Z</time>
      </trkpt>
      <trkpt lat="47.29503" lon="-2.32495">
        <ele>15</ele>
        <time>2022-02-20T10:46:06.000Z</time>
      </trkpt>
      <trkpt lat="47.29499" lon="-2.32498">
        <ele>15</ele>
        <time>2022-02-20T10:46:07.000Z</time>
      </trkpt>
      <trkpt lat="47.29481" lon="-2.32509">
        <ele>14.60000038147</ele>
        <time>2022-02-20T10:46:11.000Z</time>
      </trkpt>
      <trkpt lat="47.29477" lon="-2.32512">
        <ele>14</ele>
        <time>2022-02-20T10:46:12.000Z</time>
      </trkpt>
      <trkpt lat="47.29473" lon="-2.32515">
        <ele>13.60000038147</ele>
        <time>2022-02-20T10:46:13.000Z</time>
      </trkpt>
      <trkpt lat="47.29469" lon="-2.32518">
        <ele>13.199999809265</ele>
        <time>2022-02-20T10:46:14.000Z</time>
      </trkpt>
      <trkpt lat="47.29464" lon="-2.32521">
        <ele>12.800000190735</ele>
        <time>2022-02-20T10:46:15.000Z</time>
      </trkpt>
      <trkpt lat="47.29459" lon="-2.32524">
        <ele>12.800000190735</ele>
        <time>2022-02-20T10:46:16.000Z</time>
      </trkpt>
      <trkpt lat="47.2945" lon="-2.3253">
        <ele>12.800000190735</ele>
        <time>2022-02-20T10:46:18.000Z</time>
      </trkpt>
      <trkpt lat="47.29435" lon="-2.32543">
        <ele>12.800000190735</ele>
        <time>2022-02-20T10:46:22.000Z</time>
      </trkpt>
      <trkpt lat="47.29424" lon="-2.32558">
        <ele>12.800000190735</ele>
        <time>2022-02-20T10:46:25.000Z</time>
      </trkpt>
      <trkpt lat="47.29415" lon="-2.32581">
        <ele>12.800000190735</ele>
        <time>2022-02-20T10:46:29.000Z</time>
      </trkpt>
      <trkpt lat="47.29414" lon="-2.32587">
        <ele>12.800000190735</ele>
        <time>2022-02-20T10:46:30.000Z</time>
      </trkpt>
      <trkpt lat="47.2941" lon="-2.32619">
        <ele>12.800000190735</ele>
        <time>2022-02-20T10:46:35.000Z</time>
      </trkpt>
      <trkpt lat="47.29408" lon="-2.32633">
        <ele>12.800000190735</ele>
        <time>2022-02-20T10:46:37.000Z</time>
      </trkpt>
      <trkpt lat="47.29405" lon="-2.32662">
        <ele>12.800000190735</ele>
        <time>2022-02-20T10:46:41.000Z</time>
      </trkpt>
      <trkpt lat="47.29402" lon="-2.32675">
        <ele>12.800000190735</ele>
        <time>2022-02-20T10:46:43.000Z</time>
      </trkpt>
      <trkpt lat="47.29397" lon="-2.32688">
        <ele>12.800000190735</ele>
        <time>2022-02-20T10:46:45.000Z</time>
      </trkpt>
      <trkpt lat="47.29393" lon="-2.32693">
        <ele>12.800000190735</ele>
        <time>2022-02-20T10:46:46.000Z</time>
      </trkpt>
      <trkpt lat="47.29386" lon="-2.32703">
        <ele>12.800000190735</ele>
        <time>2022-02-20T10:46:48.000Z</time>
      </trkpt>
      <trkpt lat="47.29382" lon="-2.32707">
        <ele>12.39999961853</ele>
        <time>2022-02-20T10:46:49.000Z</time>
      </trkpt>
      <trkpt lat="47.29378" lon="-2.32711">
        <ele>12</ele>
        <time>2022-02-20T10:46:50.000Z</time>
      </trkpt>
      <trkpt lat="47.29374" lon="-2.32715">
        <ele>11.60000038147</ele>
        <time>2022-02-20T10:46:51.000Z</time>
      </trkpt>
      <trkpt lat="47.2937" lon="-2.32718">
        <ele>11.199999809265</ele>
        <time>2022-02-20T10:46:52.000Z</time>
      </trkpt>
      <trkpt lat="47.29366" lon="-2.32722">
        <ele>10.800000190735</ele>
        <time>2022-02-20T10:46:53.000Z</time>
      </trkpt>
      <trkpt lat="47.29361" lon="-2.32725">
        <ele>10.800000190735</ele>
        <time>2022-02-20T10:46:54.000Z</time>
      </trkpt>
      <trkpt lat="47.29357" lon="-2.32728">
        <ele>10.800000190735</ele>
        <time>2022-02-20T10:46:55.000Z</time>
      </trkpt>
      <trkpt lat="47.29337" lon="-2.32743">
        <ele>10.800000190735</ele>
        <time>2022-02-20T10:47:00.000Z</time>
      </trkpt>
      <trkpt lat="47.29312" lon="-2.32762">
        <ele>10.800000190735</ele>
        <time>2022-02-20T10:47:06.000Z</time>
      </trkpt>
      <trkpt lat="47.29291" lon="-2.32775">
        <ele>10.800000190735</ele>
        <time>2022-02-20T10:47:11.000Z</time>
      </trkpt>
      <trkpt lat="47.29279" lon="-2.32783">
        <ele>10.800000190735</ele>
        <time>2022-02-20T10:47:14.000Z</time>
      </trkpt>
      <trkpt lat="47.29275" lon="-2.32787">
        <ele>10.800000190735</ele>
        <time>2022-02-20T10:47:15.000Z</time>
      </trkpt>
      <trkpt lat="47.29253" lon="-2.3281">
        <ele>10.800000190735</ele>
        <time>2022-02-20T10:47:22.000Z</time>
      </trkpt>
      <trkpt lat="47.29239" lon="-2.32829">
        <ele>10.800000190735</ele>
        <time>2022-02-20T10:47:28.000Z</time>
      </trkpt>
      <trkpt lat="47.2923" lon="-2.32848">
        <ele>10.800000190735</ele>
        <time>2022-02-20T10:47:34.000Z</time>
      </trkpt>
      <trkpt lat="47.29221" lon="-2.32865">
        <ele>10.800000190735</ele>
        <time>2022-02-20T10:47:39.000Z</time>
      </trkpt>
      <trkpt lat="47.29209" lon="-2.32895">
        <ele>10.800000190735</ele>
        <time>2022-02-20T10:47:46.000Z</time>
      </trkpt>
      <trkpt lat="47.29192" lon="-2.32941">
        <ele>10.800000190735</ele>
        <time>2022-02-20T10:47:54.000Z</time>
      </trkpt>
      <trkpt lat="47.29187" lon="-2.32964">
        <ele>10.800000190735</ele>
        <time>2022-02-20T10:47:59.000Z</time>
      </trkpt>
      <trkpt lat="47.29183" lon="-2.3298">
        <ele>10.800000190735</ele>
        <time>2022-02-20T10:48:06.000Z</time>
      </trkpt>
      <trkpt lat="47.29177" lon="-2.32992">
        <ele>10.800000190735</ele>
        <time>2022-02-20T10:48:13.000Z</time>
      </trkpt>
      <trkpt lat="47.29177" lon="-2.32992">
        <ele>10.800000190735</ele>
        <time>2022-02-20T10:48:14.000Z</time>
      </trkpt>
      <trkpt lat="47.29174" lon="-2.32996">
        <ele>10.800000190735</ele>
        <time>2022-02-20T10:48:29.000Z</time>
      </trkpt>
      <trkpt lat="47.29172" lon="-2.32998">
        <ele>10.800000190735</ele>
        <time>2022-02-20T10:48:30.000Z</time>
      </trkpt>
      <trkpt lat="47.29162" lon="-2.33015">
        <ele>10.800000190735</ele>
        <time>2022-02-20T10:48:34.000Z</time>
      </trkpt>
      <trkpt lat="47.2914" lon="-2.33048">
        <ele>10.800000190735</ele>
        <time>2022-02-20T10:48:42.000Z</time>
      </trkpt>
      <trkpt lat="47.29135" lon="-2.33056">
        <ele>11.199999809265</ele>
        <time>2022-02-20T10:48:44.000Z</time>
      </trkpt>
      <trkpt lat="47.29132" lon="-2.3306">
        <ele>11.60000038147</ele>
        <time>2022-02-20T10:48:45.000Z</time>
      </trkpt>
      <trkpt lat="47.29129" lon="-2.33064">
        <ele>12</ele>
        <time>2022-02-20T10:48:46.000Z</time>
      </trkpt>
      <trkpt lat="47.29127" lon="-2.33068">
        <ele>12.39999961853</ele>
        <time>2022-02-20T10:48:47.000Z</time>
      </trkpt>
      <trkpt lat="47.29124" lon="-2.33071">
        <ele>12.800000190735</ele>
        <time>2022-02-20T10:48:48.000Z</time>
      </trkpt>
      <trkpt lat="47.29119" lon="-2.33079">
        <ele>12.800000190735</ele>
        <time>2022-02-20T10:48:50.000Z</time>
      </trkpt>
      <trkpt lat="47.29098" lon="-2.33108">
        <ele>12.800000190735</ele>
        <time>2022-02-20T10:48:57.000Z</time>
      </trkpt>
      <trkpt lat="47.29073" lon="-2.33135">
        <ele>12.800000190735</ele>
        <time>2022-02-20T10:49:04.000Z</time>
      </trkpt>
      <trkpt lat="47.29043" lon="-2.3316">
        <ele>12.800000190735</ele>
        <time>2022-02-20T10:49:11.000Z</time>
      </trkpt>
      <trkpt lat="47.29022" lon="-2.33177">
        <ele>12.800000190735</ele>
        <time>2022-02-20T10:49:16.000Z</time>
      </trkpt>
      <trkpt lat="47.29011" lon="-2.33185">
        <ele>12.800000190735</ele>
        <time>2022-02-20T10:49:19.000Z</time>
      </trkpt>
      <trkpt lat="47.29003" lon="-2.33189">
        <ele>12.800000190735</ele>
        <time>2022-02-20T10:49:21.000Z</time>
      </trkpt>
      <trkpt lat="47.28993" lon="-2.332">
        <ele>12.800000190735</ele>
        <time>2022-02-20T10:49:24.000Z</time>
      </trkpt>
      <trkpt lat="47.28975" lon="-2.33224">
        <ele>12.800000190735</ele>
        <time>2022-02-20T10:49:30.000Z</time>
      </trkpt>
      <trkpt lat="47.28957" lon="-2.33256">
        <ele>12.800000190735</ele>
        <time>2022-02-20T10:49:37.000Z</time>
      </trkpt>
      <trkpt lat="47.28952" lon="-2.33265">
        <ele>13.199999809265</ele>
        <time>2022-02-20T10:49:39.000Z</time>
      </trkpt>
      <trkpt lat="47.28951" lon="-2.33269">
        <ele>13.60000038147</ele>
        <time>2022-02-20T10:49:40.000Z</time>
      </trkpt>
      <trkpt lat="47.28949" lon="-2.33274">
        <ele>14</ele>
        <time>2022-02-20T10:49:41.000Z</time>
      </trkpt>
      <trkpt lat="47.28947" lon="-2.33278">
        <ele>14.39999961853</ele>
        <time>2022-02-20T10:49:42.000Z</time>
      </trkpt>
      <trkpt lat="47.28945" lon="-2.33283">
        <ele>14.800000190735</ele>
        <time>2022-02-20T10:49:43.000Z</time>
      </trkpt>
      <trkpt lat="47.2893" lon="-2.33317">
        <ele>14.800000190735</ele>
        <time>2022-02-20T10:49:50.000Z</time>
      </trkpt>
      <trkpt lat="47.28919" lon="-2.33349">
        <ele>14.800000190735</ele>
        <time>2022-02-20T10:49:56.000Z</time>
      </trkpt>
      <trkpt lat="47.28914" lon="-2.33383">
        <ele>14.800000190735</ele>
        <time>2022-02-20T10:50:02.000Z</time>
      </trkpt>
      <trkpt lat="47.28905" lon="-2.33418">
        <ele>14.800000190735</ele>
        <time>2022-02-20T10:50:09.000Z</time>
      </trkpt>
      <trkpt lat="47.28892" lon="-2.33444">
        <ele>14.800000190735</ele>
        <time>2022-02-20T10:50:15.000Z</time>
      </trkpt>
      <trkpt lat="47.28874" lon="-2.33462">
        <ele>14.800000190735</ele>
        <time>2022-02-20T10:50:21.000Z</time>
      </trkpt>
      <trkpt lat="47.28855" lon="-2.33468">
        <ele>15.199999809265</ele>
        <time>2022-02-20T10:50:26.000Z</time>
      </trkpt>
      <trkpt lat="47.28851" lon="-2.33469">
        <ele>15.60000038147</ele>
        <time>2022-02-20T10:50:27.000Z</time>
      </trkpt>
      <trkpt lat="47.28847" lon="-2.33469">
        <ele>16</ele>
        <time>2022-02-20T10:50:28.000Z</time>
      </trkpt>
      <trkpt lat="47.28843" lon="-2.3347">
        <ele>16.39999961853</ele>
        <time>2022-02-20T10:50:29.000Z</time>
      </trkpt>
      <trkpt lat="47.28838" lon="-2.3347">
        <ele>16.799999237061</ele>
        <time>2022-02-20T10:50:30.000Z</time>
      </trkpt>
      <trkpt lat="47.28826" lon="-2.33472">
        <ele>16.799999237061</ele>
        <time>2022-02-20T10:50:33.000Z</time>
      </trkpt>
      <trkpt lat="47.28796" lon="-2.33478">
        <ele>16.799999237061</ele>
        <time>2022-02-20T10:50:40.000Z</time>
      </trkpt>
      <trkpt lat="47.28766" lon="-2.33486">
        <ele>16.799999237061</ele>
        <time>2022-02-20T10:50:46.000Z</time>
      </trkpt>
      <trkpt lat="47.28739" lon="-2.33492">
        <ele>16.799999237061</ele>
        <time>2022-02-20T10:50:51.000Z</time>
      </trkpt>
      <trkpt lat="47.28729" lon="-2.33494">
        <ele>16.799999237061</ele>
        <time>2022-02-20T10:50:53.000Z</time>
      </trkpt>
      <trkpt lat="47.28725" lon="-2.33497">
        <ele>16.39999961853</ele>
        <time>2022-02-20T10:50:54.000Z</time>
      </trkpt>
      <trkpt lat="47.28721" lon="-2.33499">
        <ele>16</ele>
        <time>2022-02-20T10:50:55.000Z</time>
      </trkpt>
      <trkpt lat="47.28717" lon="-2.33502">
        <ele>15.60000038147</ele>
        <time>2022-02-20T10:50:56.000Z</time>
      </trkpt>
      <trkpt lat="47.28713" lon="-2.33502">
        <ele>15.199999809265</ele>
        <time>2022-02-20T10:50:57.000Z</time>
      </trkpt>
      <trkpt lat="47.28708" lon="-2.335">
        <ele>14.800000190735</ele>
        <time>2022-02-20T10:50:58.000Z</time>
      </trkpt>
      <trkpt lat="47.28704" lon="-2.33496">
        <ele>14.800000190735</ele>
        <time>2022-02-20T10:50:59.000Z</time>
      </trkpt>
      <trkpt lat="47.28696" lon="-2.33486">
        <ele>14.800000190735</ele>
        <time>2022-02-20T10:51:01.000Z</time>
      </trkpt>
      <trkpt lat="47.2868" lon="-2.33466">
        <ele>14.800000190735</ele>
        <time>2022-02-20T10:51:05.000Z</time>
      </trkpt>
      <trkpt lat="47.2865" lon="-2.33425">
        <ele>14.800000190735</ele>
        <time>2022-02-20T10:51:13.000Z</time>
      </trkpt>
      <trkpt lat="47.28629" lon="-2.33384">
        <ele>14.800000190735</ele>
        <time>2022-02-20T10:51:20.000Z</time>
      </trkpt>
      <trkpt lat="47.28614" lon="-2.33344">
        <ele>14.800000190735</ele>
        <time>2022-02-20T10:51:26.000Z</time>
      </trkpt>
      <trkpt lat="47.28611" lon="-2.33339">
        <ele>14.800000190735</ele>
        <time>2022-02-20T10:51:27.000Z</time>
      </trkpt>
      <trkpt lat="47.28598" lon="-2.3333">
        <ele>14.800000190735</ele>
        <time>2022-02-20T10:51:30.000Z</time>
      </trkpt>
      <trkpt lat="47.28583" lon="-2.33338">
        <ele>14.800000190735</ele>
        <time>2022-02-20T10:51:33.000Z</time>
      </trkpt>
      <trkpt lat="47.28579" lon="-2.33341">
        <ele>14.800000190735</ele>
        <time>2022-02-20T10:51:34.000Z</time>
      </trkpt>
      <trkpt lat="47.28562" lon="-2.33355">
        <ele>14.39999961853</ele>
        <time>2022-02-20T10:51:38.000Z</time>
      </trkpt>
      <trkpt lat="47.28558" lon="-2.33359">
        <ele>13.800000190735</ele>
        <time>2022-02-20T10:51:39.000Z</time>
      </trkpt>
      <trkpt lat="47.28554" lon="-2.33363">
        <ele>13.39999961853</ele>
        <time>2022-02-20T10:51:40.000Z</time>
      </trkpt>
      <trkpt lat="47.28549" lon="-2.33366">
        <ele>13</ele>
        <time>2022-02-20T10:51:41.000Z</time>
      </trkpt>
      <trkpt lat="47.28545" lon="-2.3337">
        <ele>12.60000038147</ele>
        <time>2022-02-20T10:51:42.000Z</time>
      </trkpt>
      <trkpt lat="47.28522" lon="-2.33388">
        <ele>12.60000038147</ele>
        <time>2022-02-20T10:51:47.000Z</time>
      </trkpt>
      <trkpt lat="47.28497" lon="-2.33411">
        <ele>12.60000038147</ele>
        <time>2022-02-20T10:51:53.000Z</time>
      </trkpt>
      <trkpt lat="47.28461" lon="-2.33443">
        <ele>12.60000038147</ele>
        <time>2022-02-20T10:52:01.000Z</time>
      </trkpt>
      <trkpt lat="47.2843" lon="-2.33469">
        <ele>12.60000038147</ele>
        <time>2022-02-20T10:52:08.000Z</time>
      </trkpt>
      <trkpt lat="47.28427" lon="-2.33473">
        <ele>12.60000038147</ele>
        <time>2022-02-20T10:52:09.000Z</time>
      </trkpt>
      <trkpt lat="47.28407" lon="-2.3349">
        <ele>12.60000038147</ele>
        <time>2022-02-20T10:52:15.000Z</time>
      </trkpt>
      <trkpt lat="47.2839" lon="-2.335">
        <ele>12.60000038147</ele>
        <time>2022-02-20T10:52:20.000Z</time>
      </trkpt>
      <trkpt lat="47.28386" lon="-2.33501">
        <ele>12.60000038147</ele>
        <time>2022-02-20T10:52:21.000Z</time>
      </trkpt>
      <trkpt lat="47.28368" lon="-2.33501">
        <ele>12.60000038147</ele>
        <time>2022-02-20T10:52:25.000Z</time>
      </trkpt>
      <trkpt lat="47.28359" lon="-2.33497">
        <ele>12.60000038147</ele>
        <time>2022-02-20T10:52:27.000Z</time>
      </trkpt>
      <trkpt lat="47.28329" lon="-2.33481">
        <ele>12.60000038147</ele>
        <time>2022-02-20T10:52:33.000Z</time>
      </trkpt>
      <trkpt lat="47.28319" lon="-2.33478">
        <ele>12.60000038147</ele>
        <time>2022-02-20T10:52:35.000Z</time>
      </trkpt>
      <trkpt lat="47.28304" lon="-2.33481">
        <ele>12.60000038147</ele>
        <time>2022-02-20T10:52:38.000Z</time>
      </trkpt>
      <trkpt lat="47.2829" lon="-2.3349">
        <ele>12.60000038147</ele>
        <time>2022-02-20T10:52:41.000Z</time>
      </trkpt>
      <trkpt lat="47.28277" lon="-2.33501">
        <ele>12.60000038147</ele>
        <time>2022-02-20T10:52:44.000Z</time>
      </trkpt>
      <trkpt lat="47.28235" lon="-2.33535">
        <ele>12.60000038147</ele>
        <time>2022-02-20T10:52:53.000Z</time>
      </trkpt>
      <trkpt lat="47.28199" lon="-2.33563">
        <ele>12.60000038147</ele>
        <time>2022-02-20T10:53:01.000Z</time>
      </trkpt>
      <trkpt lat="47.28195" lon="-2.33567">
        <ele>13</ele>
        <time>2022-02-20T10:53:02.000Z</time>
      </trkpt>
      <trkpt lat="47.28191" lon="-2.3357">
        <ele>13.60000038147</ele>
        <time>2022-02-20T10:53:03.000Z</time>
      </trkpt>
      <trkpt lat="47.28187" lon="-2.33573">
        <ele>14</ele>
        <time>2022-02-20T10:53:04.000Z</time>
      </trkpt>
      <trkpt lat="47.28184" lon="-2.33576">
        <ele>14.39999961853</ele>
        <time>2022-02-20T10:53:05.000Z</time>
      </trkpt>
      <trkpt lat="47.2818" lon="-2.3358">
        <ele>14.800000190735</ele>
        <time>2022-02-20T10:53:06.000Z</time>
      </trkpt>
      <trkpt lat="47.28172" lon="-2.33586">
        <ele>14.800000190735</ele>
        <time>2022-02-20T10:53:08.000Z</time>
      </trkpt>
      <trkpt lat="47.28142" lon="-2.33613">
        <ele>14.800000190735</ele>
        <time>2022-02-20T10:53:15.000Z</time>
      </trkpt>
      <trkpt lat="47.28113" lon="-2.33636">
        <ele>14.800000190735</ele>
        <time>2022-02-20T10:53:21.000Z</time>
      </trkpt>
      <trkpt lat="47.28108" lon="-2.3364">
        <ele>14.39999961853</ele>
        <time>2022-02-20T10:53:22.000Z</time>
      </trkpt>
      <trkpt lat="47.28102" lon="-2.33645">
        <ele>14</ele>
        <time>2022-02-20T10:53:23.000Z</time>
      </trkpt>
      <trkpt lat="47.28098" lon="-2.33649">
        <ele>13.60000038147</ele>
        <time>2022-02-20T10:53:24.000Z</time>
      </trkpt>
      <trkpt lat="47.28093" lon="-2.33653">
        <ele>13</ele>
        <time>2022-02-20T10:53:25.000Z</time>
      </trkpt>
      <trkpt lat="47.28088" lon="-2.33657">
        <ele>12.60000038147</ele>
        <time>2022-02-20T10:53:26.000Z</time>
      </trkpt>
      <trkpt lat="47.28084" lon="-2.33662">
        <ele>12.60000038147</ele>
        <time>2022-02-20T10:53:27.000Z</time>
      </trkpt>
      <trkpt lat="47.28076" lon="-2.3367">
        <ele>12.60000038147</ele>
        <time>2022-02-20T10:53:29.000Z</time>
      </trkpt>
      <trkpt lat="47.28064" lon="-2.33678">
        <ele>12.60000038147</ele>
        <time>2022-02-20T10:53:32.000Z</time>
      </trkpt>
      <trkpt lat="47.28057" lon="-2.33683">
        <ele>12.60000038147</ele>
        <time>2022-02-20T10:53:34.000Z</time>
      </trkpt>
      <trkpt lat="47.28039" lon="-2.33688">
        <ele>12.60000038147</ele>
        <time>2022-02-20T10:53:39.000Z</time>
      </trkpt>
      <trkpt lat="47.28031" lon="-2.33688">
        <ele>12.60000038147</ele>
        <time>2022-02-20T10:53:42.000Z</time>
      </trkpt>
      <trkpt lat="47.28029" lon="-2.33685">
        <ele>12.60000038147</ele>
        <time>2022-02-20T10:53:43.000Z</time>
      </trkpt>
      <trkpt lat="47.28027" lon="-2.33677">
        <ele>12.60000038147</ele>
        <time>2022-02-20T10:53:46.000Z</time>
      </trkpt>
      <trkpt lat="47.28027" lon="-2.33674">
        <ele>12.60000038147</ele>
        <time>2022-02-20T10:53:47.000Z</time>
      </trkpt>
      <trkpt lat="47.28026" lon="-2.33672">
        <ele>12.199999809265</ele>
        <time>2022-02-20T10:53:48.000Z</time>
      </trkpt>
      <trkpt lat="47.28026" lon="-2.3367">
        <ele>11.800000190735</ele>
        <time>2022-02-20T10:53:49.000Z</time>
      </trkpt>
      <trkpt lat="47.28026" lon="-2.33667">
        <ele>11.39999961853</ele>
        <time>2022-02-20T10:53:50.000Z</time>
      </trkpt>
      <trkpt lat="47.28026" lon="-2.33665">
        <ele>11</ele>
        <time>2022-02-20T10:53:51.000Z</time>
      </trkpt>
      <trkpt lat="47.28025" lon="-2.33663">
        <ele>10.60000038147</ele>
        <time>2022-02-20T10:53:52.000Z</time>
      </trkpt>
      <trkpt lat="47.28025" lon="-2.33658">
        <ele>10.60000038147</ele>
        <time>2022-02-20T10:53:54.000Z</time>
      </trkpt>
      <trkpt lat="47.28025" lon="-2.33639">
        <ele>10.60000038147</ele>
        <time>2022-02-20T10:53:58.000Z</time>
      </trkpt>
      <trkpt lat="47.28024" lon="-2.33633">
        <ele>10.60000038147</ele>
        <time>2022-02-20T10:53:59.000Z</time>
      </trkpt>
      <trkpt lat="47.28018" lon="-2.33604">
        <ele>10.60000038147</ele>
        <time>2022-02-20T10:54:03.000Z</time>
      </trkpt>
      <trkpt lat="47.28008" lon="-2.3357">
        <ele>10.60000038147</ele>
        <time>2022-02-20T10:54:08.000Z</time>
      </trkpt>
      <trkpt lat="47.28006" lon="-2.33563">
        <ele>10.60000038147</ele>
        <time>2022-02-20T10:54:09.000Z</time>
      </trkpt>
      <trkpt lat="47.28002" lon="-2.33552">
        <ele>10.60000038147</ele>
        <time>2022-02-20T10:54:11.000Z</time>
      </trkpt>
      <trkpt lat="47.27995" lon="-2.33547">
        <ele>10.60000038147</ele>
        <time>2022-02-20T10:54:13.000Z</time>
      </trkpt>
      <trkpt lat="47.27984" lon="-2.33553">
        <ele>10.60000038147</ele>
        <time>2022-02-20T10:54:16.000Z</time>
      </trkpt>
      <trkpt lat="47.27977" lon="-2.33559">
        <ele>10.60000038147</ele>
        <time>2022-02-20T10:54:18.000Z</time>
      </trkpt>
      <trkpt lat="47.2796" lon="-2.33569">
        <ele>10.60000038147</ele>
        <time>2022-02-20T10:54:22.000Z</time>
      </trkpt>
      <trkpt lat="47.27951" lon="-2.33573">
        <ele>10.60000038147</ele>
        <time>2022-02-20T10:54:24.000Z</time>
      </trkpt>
      <trkpt lat="47.27939" lon="-2.33578">
        <ele>10.60000038147</ele>
        <time>2022-02-20T10:54:27.000Z</time>
      </trkpt>
      <trkpt lat="47.27935" lon="-2.33581">
        <ele>10.60000038147</ele>
        <time>2022-02-20T10:54:28.000Z</time>
      </trkpt>
      <trkpt lat="47.27919" lon="-2.33593">
        <ele>10.60000038147</ele>
        <time>2022-02-20T10:54:32.000Z</time>
      </trkpt>
      <trkpt lat="47.27894" lon="-2.33606">
        <ele>11</ele>
        <time>2022-02-20T10:54:38.000Z</time>
      </trkpt>
      <trkpt lat="47.2789" lon="-2.33608">
        <ele>11.39999961853</ele>
        <time>2022-02-20T10:54:39.000Z</time>
      </trkpt>
      <trkpt lat="47.27886" lon="-2.33609">
        <ele>11.800000190735</ele>
        <time>2022-02-20T10:54:40.000Z</time>
      </trkpt>
      <trkpt lat="47.27882" lon="-2.33611">
        <ele>12.39999961853</ele>
        <time>2022-02-20T10:54:41.000Z</time>
      </trkpt>
      <trkpt lat="47.27878" lon="-2.33613">
        <ele>12.800000190735</ele>
        <time>2022-02-20T10:54:42.000Z</time>
      </trkpt>
      <trkpt lat="47.27869" lon="-2.33616">
        <ele>12.800000190735</ele>
        <time>2022-02-20T10:54:44.000Z</time>
      </trkpt>
      <trkpt lat="47.27853" lon="-2.33623">
        <ele>12.800000190735</ele>
        <time>2022-02-20T10:54:48.000Z</time>
      </trkpt>
      <trkpt lat="47.27845" lon="-2.33627">
        <ele>13.199999809265</ele>
        <time>2022-02-20T10:54:50.000Z</time>
      </trkpt>
      <trkpt lat="47.27841" lon="-2.33629">
        <ele>13.60000038147</ele>
        <time>2022-02-20T10:54:51.000Z</time>
      </trkpt>
      <trkpt lat="47.27837" lon="-2.33631">
        <ele>14</ele>
        <time>2022-02-20T10:54:52.000Z</time>
      </trkpt>
      <trkpt lat="47.27833" lon="-2.33632">
        <ele>14.39999961853</ele>
        <time>2022-02-20T10:54:53.000Z</time>
      </trkpt>
      <trkpt lat="47.27829" lon="-2.33634">
        <ele>15</ele>
        <time>2022-02-20T10:54:54.000Z</time>
      </trkpt>
      <trkpt lat="47.27801" lon="-2.33646">
        <ele>15</ele>
        <time>2022-02-20T10:55:01.000Z</time>
      </trkpt>
      <trkpt lat="47.27793" lon="-2.33648">
        <ele>15</ele>
        <time>2022-02-20T10:55:03.000Z</time>
      </trkpt>
      <trkpt lat="47.27782" lon="-2.33649">
        <ele>15.39999961853</ele>
        <time>2022-02-20T10:55:06.000Z</time>
      </trkpt>
      <trkpt lat="47.27778" lon="-2.3365">
        <ele>15.800000190735</ele>
        <time>2022-02-20T10:55:07.000Z</time>
      </trkpt>
      <trkpt lat="47.27775" lon="-2.33654">
        <ele>16.200000762939</ele>
        <time>2022-02-20T10:55:08.000Z</time>
      </trkpt>
      <trkpt lat="47.27772" lon="-2.3366">
        <ele>16.60000038147</ele>
        <time>2022-02-20T10:55:09.000Z</time>
      </trkpt>
      <trkpt lat="47.27769" lon="-2.33665">
        <ele>17</ele>
        <time>2022-02-20T10:55:10.000Z</time>
      </trkpt>
      <trkpt lat="47.27764" lon="-2.33675">
        <ele>17</ele>
        <time>2022-02-20T10:55:12.000Z</time>
      </trkpt>
      <trkpt lat="47.27754" lon="-2.33686">
        <ele>17</ele>
        <time>2022-02-20T10:55:15.000Z</time>
      </trkpt>
      <trkpt lat="47.2773" lon="-2.33709">
        <ele>17</ele>
        <time>2022-02-20T10:55:23.000Z</time>
      </trkpt>
      <trkpt lat="47.27727" lon="-2.33713">
        <ele>17</ele>
        <time>2022-02-20T10:55:24.000Z</time>
      </trkpt>
      <trkpt lat="47.27721" lon="-2.33735">
        <ele>17</ele>
        <time>2022-02-20T10:55:28.000Z</time>
      </trkpt>
      <trkpt lat="47.2771" lon="-2.33753">
        <ele>17</ele>
        <time>2022-02-20T10:55:32.000Z</time>
      </trkpt>
      <trkpt lat="47.27693" lon="-2.33755">
        <ele>17</ele>
        <time>2022-02-20T10:55:36.000Z</time>
      </trkpt>
      <trkpt lat="47.27685" lon="-2.33758">
        <ele>17.39999961853</ele>
        <time>2022-02-20T10:55:38.000Z</time>
      </trkpt>
      <trkpt lat="47.27681" lon="-2.33758">
        <ele>18.200000762939</ele>
        <time>2022-02-20T10:55:39.000Z</time>
      </trkpt>
      <trkpt lat="47.27678" lon="-2.33759">
        <ele>18.60000038147</ele>
        <time>2022-02-20T10:55:40.000Z</time>
      </trkpt>
      <trkpt lat="47.27673" lon="-2.33759">
        <ele>19</ele>
        <time>2022-02-20T10:55:41.000Z</time>
      </trkpt>
      <trkpt lat="47.27669" lon="-2.3376">
        <ele>19</ele>
        <time>2022-02-20T10:55:42.000Z</time>
      </trkpt>
      <trkpt lat="47.27661" lon="-2.33764">
        <ele>19</ele>
        <time>2022-02-20T10:55:44.000Z</time>
      </trkpt>
      <trkpt lat="47.27657" lon="-2.33767">
        <ele>19</ele>
        <time>2022-02-20T10:55:45.000Z</time>
      </trkpt>
      <trkpt lat="47.27631" lon="-2.33786">
        <ele>19</ele>
        <time>2022-02-20T10:55:52.000Z</time>
      </trkpt>
      <trkpt lat="47.27599" lon="-2.33803">
        <ele>19</ele>
        <time>2022-02-20T10:56:00.000Z</time>
      </trkpt>
      <trkpt lat="47.27595" lon="-2.33805">
        <ele>19</ele>
        <time>2022-02-20T10:56:01.000Z</time>
      </trkpt>
      <trkpt lat="47.27579" lon="-2.33816">
        <ele>19</ele>
        <time>2022-02-20T10:56:05.000Z</time>
      </trkpt>
      <trkpt lat="47.27575" lon="-2.33819">
        <ele>19</ele>
        <time>2022-02-20T10:56:06.000Z</time>
      </trkpt>
      <trkpt lat="47.2756" lon="-2.3383">
        <ele>19</ele>
        <time>2022-02-20T10:56:10.000Z</time>
      </trkpt>
      <trkpt lat="47.27545" lon="-2.33844">
        <ele>19</ele>
        <time>2022-02-20T10:56:14.000Z</time>
      </trkpt>
      <trkpt lat="47.27515" lon="-2.33868">
        <ele>19</ele>
        <time>2022-02-20T10:56:22.000Z</time>
      </trkpt>
      <trkpt lat="47.27512" lon="-2.33871">
        <ele>19</ele>
        <time>2022-02-20T10:56:23.000Z</time>
      </trkpt>
      <trkpt lat="47.27501" lon="-2.33883">
        <ele>19</ele>
        <time>2022-02-20T10:56:26.000Z</time>
      </trkpt>
      <trkpt lat="47.27494" lon="-2.33891">
        <ele>19</ele>
        <time>2022-02-20T10:56:28.000Z</time>
      </trkpt>
      <trkpt lat="47.27468" lon="-2.33921">
        <ele>19</ele>
        <time>2022-02-20T10:56:36.000Z</time>
      </trkpt>
      <trkpt lat="47.27449" lon="-2.33946">
        <ele>19</ele>
        <time>2022-02-20T10:56:42.000Z</time>
      </trkpt>
      <trkpt lat="47.27435" lon="-2.33968">
        <ele>19</ele>
        <time>2022-02-20T10:56:47.000Z</time>
      </trkpt>
      <trkpt lat="47.27431" lon="-2.33979">
        <ele>19</ele>
        <time>2022-02-20T10:56:49.000Z</time>
      </trkpt>
      <trkpt lat="47.27422" lon="-2.3399">
        <ele>19</ele>
        <time>2022-02-20T10:56:52.000Z</time>
      </trkpt>
      <trkpt lat="47.27418" lon="-2.33994">
        <ele>19</ele>
        <time>2022-02-20T10:56:53.000Z</time>
      </trkpt>
      <trkpt lat="47.27402" lon="-2.34014">
        <ele>19</ele>
        <time>2022-02-20T10:56:58.000Z</time>
      </trkpt>
      <trkpt lat="47.27402" lon="-2.3402">
        <ele>19</ele>
        <time>2022-02-20T10:56:59.000Z</time>
      </trkpt>
      <trkpt lat="47.27399" lon="-2.34028">
        <ele>19</ele>
        <time>2022-02-20T10:57:02.000Z</time>
      </trkpt>
      <trkpt lat="47.27396" lon="-2.34027">
        <ele>18.60000038147</ele>
        <time>2022-02-20T10:57:03.000Z</time>
      </trkpt>
      <trkpt lat="47.27395" lon="-2.34024">
        <ele>18.200000762939</ele>
        <time>2022-02-20T10:57:04.000Z</time>
      </trkpt>
      <trkpt lat="47.27394" lon="-2.3402">
        <ele>17.799999237061</ele>
        <time>2022-02-20T10:57:05.000Z</time>
      </trkpt>
      <trkpt lat="47.27394" lon="-2.34016">
        <ele>17.39999961853</ele>
        <time>2022-02-20T10:57:06.000Z</time>
      </trkpt>
      <trkpt lat="47.27394" lon="-2.34012">
        <ele>17</ele>
        <time>2022-02-20T10:57:07.000Z</time>
      </trkpt>
      <trkpt lat="47.27393" lon="-2.34005">
        <ele>17</ele>
        <time>2022-02-20T10:57:09.000Z</time>
      </trkpt>
      <trkpt lat="47.27392" lon="-2.34001">
        <ele>17</ele>
        <time>2022-02-20T10:57:10.000Z</time>
      </trkpt>
      <trkpt lat="47.27389" lon="-2.3397">
        <ele>17</ele>
        <time>2022-02-20T10:57:17.000Z</time>
      </trkpt>
      <trkpt lat="47.27385" lon="-2.33963">
        <ele>17</ele>
        <time>2022-02-20T10:57:19.000Z</time>
      </trkpt>
      <trkpt lat="47.27382" lon="-2.33961">
        <ele>17</ele>
        <time>2022-02-20T10:57:20.000Z</time>
      </trkpt>
      <trkpt lat="47.27374" lon="-2.3396">
        <ele>17</ele>
        <time>2022-02-20T10:57:22.000Z</time>
      </trkpt>
      <trkpt lat="47.27367" lon="-2.33961">
        <ele>17</ele>
        <time>2022-02-20T10:57:24.000Z</time>
      </trkpt>
      <trkpt lat="47.27356" lon="-2.33961">
        <ele>17</ele>
        <time>2022-02-20T10:57:27.000Z</time>
      </trkpt>
      <trkpt lat="47.27349" lon="-2.3396">
        <ele>17.39999961853</ele>
        <time>2022-02-20T10:57:29.000Z</time>
      </trkpt>
      <trkpt lat="47.27345" lon="-2.3396">
        <ele>17.799999237061</ele>
        <time>2022-02-20T10:57:30.000Z</time>
      </trkpt>
      <trkpt lat="47.27341" lon="-2.33959">
        <ele>18.200000762939</ele>
        <time>2022-02-20T10:57:31.000Z</time>
      </trkpt>
      <trkpt lat="47.27338" lon="-2.33958">
        <ele>18.60000038147</ele>
        <time>2022-02-20T10:57:32.000Z</time>
      </trkpt>
      <trkpt lat="47.27334" lon="-2.33956">
        <ele>19</ele>
        <time>2022-02-20T10:57:33.000Z</time>
      </trkpt>
      <trkpt lat="47.27325" lon="-2.33948">
        <ele>19</ele>
        <time>2022-02-20T10:57:36.000Z</time>
      </trkpt>
      <trkpt lat="47.27309" lon="-2.3393">
        <ele>19</ele>
        <time>2022-02-20T10:57:41.000Z</time>
      </trkpt>
      <trkpt lat="47.27306" lon="-2.33926">
        <ele>19</ele>
        <time>2022-02-20T10:57:42.000Z</time>
      </trkpt>
      <trkpt lat="47.27287" lon="-2.33905">
        <ele>19</ele>
        <time>2022-02-20T10:57:48.000Z</time>
      </trkpt>
      <trkpt lat="47.27267" lon="-2.33883">
        <ele>19</ele>
        <time>2022-02-20T10:57:54.000Z</time>
      </trkpt>
      <trkpt lat="47.27252" lon="-2.33867">
        <ele>19</ele>
        <time>2022-02-20T10:57:58.000Z</time>
      </trkpt>
      <trkpt lat="47.27245" lon="-2.33862">
        <ele>19</ele>
        <time>2022-02-20T10:58:00.000Z</time>
      </trkpt>
      <trkpt lat="47.27226" lon="-2.33853">
        <ele>19</ele>
        <time>2022-02-20T10:58:05.000Z</time>
      </trkpt>
      <trkpt lat="47.27213" lon="-2.33849">
        <ele>19</ele>
        <time>2022-02-20T10:58:08.000Z</time>
      </trkpt>
      <trkpt lat="47.27197" lon="-2.33847">
        <ele>19</ele>
        <time>2022-02-20T10:58:11.000Z</time>
      </trkpt>
      <trkpt lat="47.27192" lon="-2.33849">
        <ele>19</ele>
        <time>2022-02-20T10:58:12.000Z</time>
      </trkpt>
      <trkpt lat="47.27188" lon="-2.33853">
        <ele>18.60000038147</ele>
        <time>2022-02-20T10:58:13.000Z</time>
      </trkpt>
      <trkpt lat="47.27185" lon="-2.3386">
        <ele>18.200000762939</ele>
        <time>2022-02-20T10:58:14.000Z</time>
      </trkpt>
      <trkpt lat="47.27184" lon="-2.33867">
        <ele>17.799999237061</ele>
        <time>2022-02-20T10:58:15.000Z</time>
      </trkpt>
      <trkpt lat="47.27183" lon="-2.33873">
        <ele>17.39999961853</ele>
        <time>2022-02-20T10:58:16.000Z</time>
      </trkpt>
      <trkpt lat="47.27181" lon="-2.33879">
        <ele>17</ele>
        <time>2022-02-20T10:58:17.000Z</time>
      </trkpt>
      <trkpt lat="47.27175" lon="-2.33892">
        <ele>17</ele>
        <time>2022-02-20T10:58:19.000Z</time>
      </trkpt>
      <trkpt lat="47.27167" lon="-2.33904">
        <ele>17</ele>
        <time>2022-02-20T10:58:21.000Z</time>
      </trkpt>
      <trkpt lat="47.27154" lon="-2.33922">
        <ele>17</ele>
        <time>2022-02-20T10:58:24.000Z</time>
      </trkpt>
      <trkpt lat="47.27145" lon="-2.33933">
        <ele>17</ele>
        <time>2022-02-20T10:58:26.000Z</time>
      </trkpt>
      <trkpt lat="47.2714" lon="-2.33939">
        <ele>16.39999961853</ele>
        <time>2022-02-20T10:58:27.000Z</time>
      </trkpt>
      <trkpt lat="47.27135" lon="-2.33945">
        <ele>16</ele>
        <time>2022-02-20T10:58:28.000Z</time>
      </trkpt>
      <trkpt lat="47.27131" lon="-2.3395">
        <ele>15.60000038147</ele>
        <time>2022-02-20T10:58:29.000Z</time>
      </trkpt>
      <trkpt lat="47.27128" lon="-2.33954">
        <ele>15.199999809265</ele>
        <time>2022-02-20T10:58:30.000Z</time>
      </trkpt>
      <trkpt lat="47.27125" lon="-2.33957">
        <ele>14.60000038147</ele>
        <time>2022-02-20T10:58:31.000Z</time>
      </trkpt>
      <trkpt lat="47.2712" lon="-2.33958">
        <ele>14.199999809265</ele>
        <time>2022-02-20T10:58:32.000Z</time>
      </trkpt>
      <trkpt lat="47.27116" lon="-2.33956">
        <ele>13.199999809265</ele>
        <time>2022-02-20T10:58:33.000Z</time>
      </trkpt>
      <trkpt lat="47.27111" lon="-2.33952">
        <ele>12.60000038147</ele>
        <time>2022-02-20T10:58:34.000Z</time>
      </trkpt>
      <trkpt lat="47.27108" lon="-2.33948">
        <ele>12.199999809265</ele>
        <time>2022-02-20T10:58:35.000Z</time>
      </trkpt>
      <trkpt lat="47.27104" lon="-2.33943">
        <ele>12.199999809265</ele>
        <time>2022-02-20T10:58:36.000Z</time>
      </trkpt>
      <trkpt lat="47.27099" lon="-2.33939">
        <ele>12.199999809265</ele>
        <time>2022-02-20T10:58:37.000Z</time>
      </trkpt>
      <trkpt lat="47.27078" lon="-2.33919">
        <ele>11.60000038147</ele>
        <time>2022-02-20T10:58:41.000Z</time>
      </trkpt>
      <trkpt lat="47.27072" lon="-2.33913">
        <ele>11.199999809265</ele>
        <time>2022-02-20T10:58:42.000Z</time>
      </trkpt>
      <trkpt lat="47.27065" lon="-2.33907">
        <ele>10.800000190735</ele>
        <time>2022-02-20T10:58:43.000Z</time>
      </trkpt>
      <trkpt lat="47.27059" lon="-2.33901">
        <ele>10.39999961853</ele>
        <time>2022-02-20T10:58:44.000Z</time>
      </trkpt>
      <trkpt lat="47.27052" lon="-2.33894">
        <ele>9.8000001907349</ele>
        <time>2022-02-20T10:58:45.000Z</time>
      </trkpt>
      <trkpt lat="47.27039" lon="-2.33882">
        <ele>9.3999996185303</ele>
        <time>2022-02-20T10:58:47.000Z</time>
      </trkpt>
      <trkpt lat="47.27033" lon="-2.33875">
        <ele>8.8000001907349</ele>
        <time>2022-02-20T10:58:48.000Z</time>
      </trkpt>
      <trkpt lat="47.27026" lon="-2.3387">
        <ele>8.3999996185303</ele>
        <time>2022-02-20T10:58:49.000Z</time>
      </trkpt>
      <trkpt lat="47.2702" lon="-2.33865">
        <ele>7.8000001907349</ele>
        <time>2022-02-20T10:58:50.000Z</time>
      </trkpt>
      <trkpt lat="47.27013" lon="-2.3386">
        <ele>7.1999998092651</ele>
        <time>2022-02-20T10:58:51.000Z</time>
      </trkpt>
      <trkpt lat="47.26998" lon="-2.3385">
        <ele>6.8000001907349</ele>
        <time>2022-02-20T10:58:53.000Z</time>
      </trkpt>
      <trkpt lat="47.26991" lon="-2.33846">
        <ele>6.4000000953674</ele>
        <time>2022-02-20T10:58:54.000Z</time>
      </trkpt>
      <trkpt lat="47.26983" lon="-2.33842">
        <ele>6</ele>
        <time>2022-02-20T10:58:55.000Z</time>
      </trkpt>
      <trkpt lat="47.26975" lon="-2.33837">
        <ele>5.5999999046326</ele>
        <time>2022-02-20T10:58:56.000Z</time>
      </trkpt>
      <trkpt lat="47.26967" lon="-2.33832">
        <ele>5.1999998092651</ele>
        <time>2022-02-20T10:58:57.000Z</time>
      </trkpt>
      <trkpt lat="47.26958" lon="-2.33828">
        <ele>4.5999999046326</ele>
        <time>2022-02-20T10:58:58.000Z</time>
      </trkpt>
      <trkpt lat="47.2695" lon="-2.33824">
        <ele>4.1999998092651</ele>
        <time>2022-02-20T10:58:59.000Z</time>
      </trkpt>
      <trkpt lat="47.26942" lon="-2.3382">
        <ele>3.5999999046326</ele>
        <time>2022-02-20T10:59:00.000Z</time>
      </trkpt>
      <trkpt lat="47.26936" lon="-2.33815">
        <ele>3.2000000476837</ele>
        <time>2022-02-20T10:59:01.000Z</time>
      </trkpt>
      <trkpt lat="47.2693" lon="-2.33811">
        <ele>2.5999999046326</ele>
        <time>2022-02-20T10:59:02.000Z</time>
      </trkpt>
      <trkpt lat="47.26924" lon="-2.33804">
        <ele>2.2000000476837</ele>
        <time>2022-02-20T10:59:03.000Z</time>
      </trkpt>
      <trkpt lat="47.26922" lon="-2.33796">
        <ele>1.7999999523163</ele>
        <time>2022-02-20T10:59:04.000Z</time>
      </trkpt>
      <trkpt lat="47.26922" lon="-2.33787">
        <ele>1.2000000476837</ele>
        <time>2022-02-20T10:59:05.000Z</time>
      </trkpt>
      <trkpt lat="47.26923" lon="-2.33778">
        <ele>0.80000001192093</ele>
        <time>2022-02-20T10:59:06.000Z</time>
      </trkpt>
      <trkpt lat="47.26925" lon="-2.33771">
        <ele>0.40000000596046</ele>
        <time>2022-02-20T10:59:07.000Z</time>
      </trkpt>
      <trkpt lat="47.26926" lon="-2.33763">
        <ele>0.40000000596046</ele>
        <time>2022-02-20T10:59:08.000Z</time>
      </trkpt>
      <trkpt lat="47.26935" lon="-2.33725">
        <ele>0.40000000596046</ele>
        <time>2022-02-20T10:59:13.000Z</time>
      </trkpt>
      <trkpt lat="47.26936" lon="-2.3371">
        <ele>0.40000000596046</ele>
        <time>2022-02-20T10:59:15.000Z</time>
      </trkpt>
      <trkpt lat="47.26934" lon="-2.33694">
        <ele>0.40000000596046</ele>
        <time>2022-02-20T10:59:17.000Z</time>
      </trkpt>
      <trkpt lat="47.26923" lon="-2.33637">
        <ele>0.40000000596046</ele>
        <time>2022-02-20T10:59:24.000Z</time>
      </trkpt>
      <trkpt lat="47.26909" lon="-2.33587">
        <ele>0.40000000596046</ele>
        <time>2022-02-20T10:59:30.000Z</time>
      </trkpt>
      <trkpt lat="47.26906" lon="-2.33579">
        <ele>7.8</ele>
        <time>2022-02-20T10:59:31.000Z</time>
      </trkpt>
      <trkpt lat="47.26903" lon="-2.33571">
        <ele>-0.40000000596046</ele>
        <time>2022-02-20T10:59:32.000Z</time>
      </trkpt>
      <trkpt lat="47.26899" lon="-2.33564">
        <ele>-0.80000001192093</ele>
        <time>2022-02-20T10:59:33.000Z</time>
      </trkpt>
      <trkpt lat="47.26896" lon="-2.33556">
        <ele>-1.3999999761581</ele>
        <time>2022-02-20T10:59:34.000Z</time>
      </trkpt>
      <trkpt lat="47.26893" lon="-2.33549">
        <ele>-1.7999999523163</ele>
        <time>2022-02-20T10:59:35.000Z</time>
      </trkpt>
      <trkpt lat="47.26888" lon="-2.33542">
        <ele>-1.7999999523163</ele>
        <time>2022-02-20T10:59:36.000Z</time>
      </trkpt>
      <trkpt lat="47.26882" lon="-2.33536">
        <ele>-1.7999999523163</ele>
        <time>2022-02-20T10:59:37.000Z</time>
      </trkpt>
      <trkpt lat="47.26861" lon="-2.33536">
        <ele>-1.7999999523163</ele>
        <time>2022-02-20T10:59:40.000Z</time>
      </trkpt>
      <trkpt lat="47.26848" lon="-2.33541">
        <ele>-2.2000000476837</ele>
        <time>2022-02-20T10:59:42.000Z</time>
      </trkpt>
      <trkpt lat="47.26842" lon="-2.33544">
        <ele>-2.5999999046326</ele>
        <time>2022-02-20T10:59:43.000Z</time>
      </trkpt>
      <trkpt lat="47.26836" lon="-2.33547">
        <ele>-3</ele>
        <time>2022-02-20T10:59:44.000Z</time>
      </trkpt>
      <trkpt lat="47.2683" lon="-2.3355">
        <ele>-3.4000000953674</ele>
        <time>2022-02-20T10:59:45.000Z</time>
      </trkpt>
      <trkpt lat="47.26825" lon="-2.33553">
        <ele>-3.7999999523163</ele>
        <time>2022-02-20T10:59:46.000Z</time>
      </trkpt>
      <trkpt lat="47.26797" lon="-2.33563">
        <ele>-3.7999999523163</ele>
        <time>2022-02-20T10:59:51.000Z</time>
      </trkpt>
      <trkpt lat="47.26783" lon="-2.33571">
        <ele>-3.7999999523163</ele>
        <time>2022-02-20T10:59:54.000Z</time>
      </trkpt>
      <trkpt lat="47.2678" lon="-2.33576">
        <ele>-4.1999998092651</ele>
        <time>2022-02-20T10:59:55.000Z</time>
      </trkpt>
      <trkpt lat="47.26779" lon="-2.33581">
        <ele>-4.5999999046326</ele>
        <time>2022-02-20T10:59:56.000Z</time>
      </trkpt>
      <trkpt lat="47.26779" lon="-2.33587">
        <ele>-5</ele>
        <time>2022-02-20T10:59:57.000Z</time>
      </trkpt>
      <trkpt lat="47.26778" lon="-2.33593">
        <ele>-5.4000000953674</ele>
        <time>2022-02-20T10:59:58.000Z</time>
      </trkpt>
      <trkpt lat="47.26779" lon="-2.336">
        <ele>-6</ele>
        <time>2022-02-20T10:59:59.000Z</time>
      </trkpt>
      <trkpt lat="47.26779" lon="-2.33607">
        <ele>-6</ele>
        <time>2022-02-20T11:00:00.000Z</time>
      </trkpt>
      <trkpt lat="47.26779" lon="-2.33614">
        <ele>-6</ele>
        <time>2022-02-20T11:00:01.000Z</time>
      </trkpt>
      <trkpt lat="47.2678" lon="-2.33636">
        <ele>-6</ele>
        <time>2022-02-20T11:00:04.000Z</time>
      </trkpt>
      <trkpt lat="47.26778" lon="-2.33663">
        <ele>-6</ele>
        <time>2022-02-20T11:00:08.000Z</time>
      </trkpt>
      <trkpt lat="47.26777" lon="-2.33677">
        <ele>-6</ele>
        <time>2022-02-20T11:00:10.000Z</time>
      </trkpt>
      <trkpt lat="47.26776" lon="-2.33688">
        <ele>-5</ele>
        <time>2022-02-20T11:00:12.000Z</time>
      </trkpt>
      <trkpt lat="47.26775" lon="-2.33692">
        <ele>-4.5999999046326</ele>
        <time>2022-02-20T11:00:13.000Z</time>
      </trkpt>
      <trkpt lat="47.26775" lon="-2.33697">
        <ele>-4.1999998092651</ele>
        <time>2022-02-20T11:00:14.000Z</time>
      </trkpt>
      <trkpt lat="47.26773" lon="-2.337">
        <ele>-3.5999999046326</ele>
        <time>2022-02-20T11:00:15.000Z</time>
      </trkpt>
      <trkpt lat="47.26767" lon="-2.33704">
        <ele>-3.5999999046326</ele>
        <time>2022-02-20T11:00:17.000Z</time>
      </trkpt>
      <trkpt lat="47.26755" lon="-2.33703">
        <ele>-3.5999999046326</ele>
        <time>2022-02-20T11:00:20.000Z</time>
      </trkpt>
      <trkpt lat="47.26751" lon="-2.33701">
        <ele>-3.5999999046326</ele>
        <time>2022-02-20T11:00:21.000Z</time>
      </trkpt>
      <trkpt lat="47.26742" lon="-2.337">
        <ele>-3.5999999046326</ele>
        <time>2022-02-20T11:00:23.000Z</time>
      </trkpt>
      <trkpt lat="47.26722" lon="-2.337">
        <ele>-3.5999999046326</ele>
        <time>2022-02-20T11:00:27.000Z</time>
      </trkpt>
      <trkpt lat="47.26713" lon="-2.337">
        <ele>-3.5999999046326</ele>
        <time>2022-02-20T11:00:29.000Z</time>
      </trkpt>
      <trkpt lat="47.26699" lon="-2.337">
        <ele>-3.5999999046326</ele>
        <time>2022-02-20T11:00:32.000Z</time>
      </trkpt>
      <trkpt lat="47.26665" lon="-2.33699">
        <ele>-3.5999999046326</ele>
        <time>2022-02-20T11:00:39.000Z</time>
      </trkpt>
      <trkpt lat="47.26659" lon="-2.33699">
        <ele>-3.2000000476837</ele>
        <time>2022-02-20T11:00:40.000Z</time>
      </trkpt>
      <trkpt lat="47.26654" lon="-2.337">
        <ele>-2.7999999523163</ele>
        <time>2022-02-20T11:00:41.000Z</time>
      </trkpt>
      <trkpt lat="47.2665" lon="-2.337">
        <ele>-2.4000000953674</ele>
        <time>2022-02-20T11:00:42.000Z</time>
      </trkpt>
      <trkpt lat="47.26645" lon="-2.337">
        <ele>-2</ele>
        <time>2022-02-20T11:00:43.000Z</time>
      </trkpt>
      <trkpt lat="47.2664" lon="-2.337">
        <ele>-1.6000000238419</ele>
        <time>2022-02-20T11:00:44.000Z</time>
      </trkpt>
      <trkpt lat="47.26618" lon="-2.33699">
        <ele>-1.6000000238419</ele>
        <time>2022-02-20T11:00:49.000Z</time>
      </trkpt>
      <trkpt lat="47.2661" lon="-2.33703">
        <ele>-1.6000000238419</ele>
        <time>2022-02-20T11:00:51.000Z</time>
      </trkpt>
      <trkpt lat="47.26602" lon="-2.33701">
        <ele>-1.6000000238419</ele>
        <time>2022-02-20T11:00:53.000Z</time>
      </trkpt>
      <trkpt lat="47.26594" lon="-2.33696">
        <ele>-1.6000000238419</ele>
        <time>2022-02-20T11:00:55.000Z</time>
      </trkpt>
      <trkpt lat="47.2658" lon="-2.33689">
        <ele>-1.6000000238419</ele>
        <time>2022-02-20T11:00:58.000Z</time>
      </trkpt>
      <trkpt lat="47.26573" lon="-2.33681">
        <ele>-1.6000000238419</ele>
        <time>2022-02-20T11:01:00.000Z</time>
      </trkpt>
      <trkpt lat="47.26572" lon="-2.33667">
        <ele>-1.6000000238419</ele>
        <time>2022-02-20T11:01:02.000Z</time>
      </trkpt>
      <trkpt lat="47.26573" lon="-2.33659">
        <ele>-1.6000000238419</ele>
        <time>2022-02-20T11:01:03.000Z</time>
      </trkpt>
      <trkpt lat="47.26572" lon="-2.33649">
        <ele>-1.6000000238419</ele>
        <time>2022-02-20T11:01:04.000Z</time>
      </trkpt>
      <trkpt lat="47.2657" lon="-2.33631">
        <ele>-2</ele>
        <time>2022-02-20T11:01:06.000Z</time>
      </trkpt>
      <trkpt lat="47.26569" lon="-2.33621">
        <ele>-2.4000000953674</ele>
        <time>2022-02-20T11:01:07.000Z</time>
      </trkpt>
      <trkpt lat="47.26567" lon="-2.33612">
        <ele>-2.7999999523163</ele>
        <time>2022-02-20T11:01:08.000Z</time>
      </trkpt>
      <trkpt lat="47.26566" lon="-2.33602">
        <ele>-3.2000000476837</ele>
        <time>2022-02-20T11:01:09.000Z</time>
      </trkpt>
      <trkpt lat="47.26564" lon="-2.33591">
        <ele>-3.5999999046326</ele>
        <time>2022-02-20T11:01:10.000Z</time>
      </trkpt>
      <trkpt lat="47.26561" lon="-2.33571">
        <ele>-3.5999999046326</ele>
        <time>2022-02-20T11:01:12.000Z</time>
      </trkpt>
      <trkpt lat="47.26557" lon="-2.33552">
        <ele>-3.5999999046326</ele>
        <time>2022-02-20T11:01:14.000Z</time>
      </trkpt>
      <trkpt lat="47.26549" lon="-2.33516">
        <ele>-3.5999999046326</ele>
        <time>2022-02-20T11:01:18.000Z</time>
      </trkpt>
      <trkpt lat="47.26543" lon="-2.33499">
        <ele>-3.5999999046326</ele>
        <time>2022-02-20T11:01:20.000Z</time>
      </trkpt>
      <trkpt lat="47.26534" lon="-2.33463">
        <ele>-3.5999999046326</ele>
        <time>2022-02-20T11:01:24.000Z</time>
      </trkpt>
      <trkpt lat="47.26532" lon="-2.33454">
        <ele>-4.1999998092651</ele>
        <time>2022-02-20T11:01:25.000Z</time>
      </trkpt>
      <trkpt lat="47.26531" lon="-2.33446">
        <ele>-5</ele>
        <time>2022-02-20T11:01:26.000Z</time>
      </trkpt>
      <trkpt lat="47.26529" lon="-2.33437">
        <ele>-5.4000000953674</ele>
        <time>2022-02-20T11:01:27.000Z</time>
      </trkpt>
      <trkpt lat="47.26528" lon="-2.33429">
        <ele>-5.8000001907349</ele>
        <time>2022-02-20T11:01:28.000Z</time>
      </trkpt>
      <trkpt lat="47.26526" lon="-2.33404">
        <ele>-5.8000001907349</ele>
        <time>2022-02-20T11:01:31.000Z</time>
      </trkpt>
      <trkpt lat="47.26524" lon="-2.33396">
        <ele>-5.8000001907349</ele>
        <time>2022-02-20T11:01:32.000Z</time>
      </trkpt>
      <trkpt lat="47.2652" lon="-2.33363">
        <ele>-5.8000001907349</ele>
        <time>2022-02-20T11:01:36.000Z</time>
      </trkpt>
      <trkpt lat="47.26507" lon="-2.33349">
        <ele>-5.8000001907349</ele>
        <time>2022-02-20T11:01:39.000Z</time>
      </trkpt>
      <trkpt lat="47.26484" lon="-2.3335">
        <ele>-5.8000001907349</ele>
        <time>2022-02-20T11:01:43.000Z</time>
      </trkpt>
      <trkpt lat="47.26474" lon="-2.3336">
        <ele>-5.8000001907349</ele>
        <time>2022-02-20T11:01:45.000Z</time>
      </trkpt>
      <trkpt lat="47.26469" lon="-2.33364">
        <ele>-5.8000001907349</ele>
        <time>2022-02-20T11:01:46.000Z</time>
      </trkpt>
      <trkpt lat="47.26463" lon="-2.33368">
        <ele>-5.8000001907349</ele>
        <time>2022-02-20T11:01:47.000Z</time>
      </trkpt>
      <trkpt lat="47.26424" lon="-2.33395">
        <ele>-5.8000001907349</ele>
        <time>2022-02-20T11:01:54.000Z</time>
      </trkpt>
      <trkpt lat="47.26412" lon="-2.33401">
        <ele>-5.8000001907349</ele>
        <time>2022-02-20T11:01:56.000Z</time>
      </trkpt>
      <trkpt lat="47.26401" lon="-2.33406">
        <ele>-5.8000001907349</ele>
        <time>2022-02-20T11:01:58.000Z</time>
      </trkpt>
      <trkpt lat="47.26356" lon="-2.33423">
        <ele>-5.8000001907349</ele>
        <time>2022-02-20T11:02:06.000Z</time>
      </trkpt>
      <trkpt lat="47.26329" lon="-2.33432">
        <ele>-5.8000001907349</ele>
        <time>2022-02-20T11:02:12.000Z</time>
      </trkpt>
      <trkpt lat="47.26318" lon="-2.33432">
        <ele>-5.8000001907349</ele>
        <time>2022-02-20T11:02:16.000Z</time>
      </trkpt>
      <trkpt lat="47.26304" lon="-2.33437">
        <ele>-5.8000001907349</ele>
        <time>2022-02-20T11:02:20.000Z</time>
      </trkpt>
      <trkpt lat="47.2628" lon="-2.33442">
        <ele>-5.8000001907349</ele>
        <time>2022-02-20T11:02:25.000Z</time>
      </trkpt>
      <trkpt lat="47.26246" lon="-2.33453">
        <ele>-5.8000001907349</ele>
        <time>2022-02-20T11:02:32.000Z</time>
      </trkpt>
      <trkpt lat="47.26204" lon="-2.33459">
        <ele>-5.8000001907349</ele>
        <time>2022-02-20T11:02:40.000Z</time>
      </trkpt>
      <trkpt lat="47.26162" lon="-2.33464">
        <ele>-5.8000001907349</ele>
        <time>2022-02-20T11:02:48.000Z</time>
      </trkpt>
      <trkpt lat="47.26148" lon="-2.33467">
        <ele>-5.8000001907349</ele>
        <time>2022-02-20T11:02:52.000Z</time>
      </trkpt>
      <trkpt lat="47.26134" lon="-2.3347">
        <ele>-5.8000001907349</ele>
        <time>2022-02-20T11:02:57.000Z</time>
      </trkpt>
      <trkpt lat="47.26127" lon="-2.33475">
        <ele>-5.8000001907349</ele>
        <time>2022-02-20T11:02:59.000Z</time>
      </trkpt>
      <trkpt lat="47.26121" lon="-2.33484">
        <ele>-5.8000001907349</ele>
        <time>2022-02-20T11:03:01.000Z</time>
      </trkpt>
      <trkpt lat="47.2611" lon="-2.33491">
        <ele>-5.8000001907349</ele>
        <time>2022-02-20T11:03:04.000Z</time>
      </trkpt>
      <trkpt lat="47.26106" lon="-2.3349">
        <ele>-5.8000001907349</ele>
        <time>2022-02-20T11:03:05.000Z</time>
      </trkpt>
      <trkpt lat="47.26091" lon="-2.33488">
        <ele>-5.8000001907349</ele>
        <time>2022-02-20T11:03:10.000Z</time>
      </trkpt>
      <trkpt lat="47.26085" lon="-2.33483">
        <ele>-5.8000001907349</ele>
        <time>2022-02-20T11:03:12.000Z</time>
      </trkpt>
      <trkpt lat="47.2608" lon="-2.33473">
        <ele>-5.8000001907349</ele>
        <time>2022-02-20T11:03:14.000Z</time>
      </trkpt>
      <trkpt lat="47.26069" lon="-2.3346">
        <ele>-5.8000001907349</ele>
        <time>2022-02-20T11:03:17.000Z</time>
      </trkpt>
      <trkpt lat="47.26061" lon="-2.33451">
        <ele>-5.8000001907349</ele>
        <time>2022-02-20T11:03:19.000Z</time>
      </trkpt>
      <trkpt lat="47.26047" lon="-2.33458">
        <ele>-5.8000001907349</ele>
        <time>2022-02-20T11:03:22.000Z</time>
      </trkpt>
      <trkpt lat="47.26034" lon="-2.33481">
        <ele>-5.8000001907349</ele>
        <time>2022-02-20T11:03:26.000Z</time>
      </trkpt>
      <trkpt lat="47.26015" lon="-2.3349">
        <ele>-5.8000001907349</ele>
        <time>2022-02-20T11:03:30.000Z</time>
      </trkpt>
      <trkpt lat="47.26009" lon="-2.33491">
        <ele>-5.8000001907349</ele>
        <time>2022-02-20T11:03:31.000Z</time>
      </trkpt>
      <trkpt lat="47.25985" lon="-2.33499">
        <ele>-5.8000001907349</ele>
        <time>2022-02-20T11:03:36.000Z</time>
      </trkpt>
      <trkpt lat="47.25981" lon="-2.33501">
        <ele>-5.8000001907349</ele>
        <time>2022-02-20T11:03:37.000Z</time>
      </trkpt>
      <trkpt lat="47.25963" lon="-2.33505">
        <ele>-5.8000001907349</ele>
        <time>2022-02-20T11:03:42.000Z</time>
      </trkpt>
      <trkpt lat="47.2595" lon="-2.33511">
        <ele>-5.8000001907349</ele>
        <time>2022-02-20T11:03:47.000Z</time>
      </trkpt>
      <trkpt lat="47.25935" lon="-2.33527">
        <ele>-5.8000001907349</ele>
        <time>2022-02-20T11:03:52.000Z</time>
      </trkpt>
      <trkpt lat="47.25907" lon="-2.33551">
        <ele>-5.8000001907349</ele>
        <time>2022-02-20T11:03:59.000Z</time>
      </trkpt>
      <trkpt lat="47.25887" lon="-2.33568">
        <ele>-5.4000000953674</ele>
        <time>2022-02-20T11:04:04.000Z</time>
      </trkpt>
      <trkpt lat="47.25883" lon="-2.33573">
        <ele>-4.8000001907349</ele>
        <time>2022-02-20T11:04:05.000Z</time>
      </trkpt>
      <trkpt lat="47.25878" lon="-2.33575">
        <ele>-4.4000000953674</ele>
        <time>2022-02-20T11:04:06.000Z</time>
      </trkpt>
      <trkpt lat="47.25873" lon="-2.33577">
        <ele>-4</ele>
        <time>2022-02-20T11:04:07.000Z</time>
      </trkpt>
      <trkpt lat="47.25867" lon="-2.33576">
        <ele>-3.5999999046326</ele>
        <time>2022-02-20T11:04:08.000Z</time>
      </trkpt>
      <trkpt lat="47.25862" lon="-2.33576">
        <ele>-3.5999999046326</ele>
        <time>2022-02-20T11:04:09.000Z</time>
      </trkpt>
      <trkpt lat="47.25818" lon="-2.33579">
        <ele>-3.5999999046326</ele>
        <time>2022-02-20T11:04:17.000Z</time>
      </trkpt>
      <trkpt lat="47.25775" lon="-2.33582">
        <ele>-3.5999999046326</ele>
        <time>2022-02-20T11:04:25.000Z</time>
      </trkpt>
      <trkpt lat="47.25748" lon="-2.33586">
        <ele>-3.5999999046326</ele>
        <time>2022-02-20T11:04:30.000Z</time>
      </trkpt>
      <trkpt lat="47.25743" lon="-2.33588">
        <ele>-3.5999999046326</ele>
        <time>2022-02-20T11:04:31.000Z</time>
      </trkpt>
      <trkpt lat="47.25738" lon="-2.33587">
        <ele>-3.5999999046326</ele>
        <time>2022-02-20T11:04:32.000Z</time>
      </trkpt>
      <trkpt lat="47.25728" lon="-2.33584">
        <ele>-3.5999999046326</ele>
        <time>2022-02-20T11:04:34.000Z</time>
      </trkpt>
      <trkpt lat="47.25712" lon="-2.33584">
        <ele>-3.5999999046326</ele>
        <time>2022-02-20T11:04:37.000Z</time>
      </trkpt>
      <trkpt lat="47.25701" lon="-2.33585">
        <ele>-3.5999999046326</ele>
        <time>2022-02-20T11:04:39.000Z</time>
      </trkpt>
      <trkpt lat="47.2567" lon="-2.3358">
        <ele>-3.5999999046326</ele>
        <time>2022-02-20T11:04:45.000Z</time>
      </trkpt>
      <trkpt lat="47.25654" lon="-2.33573">
        <ele>-3.2000000476837</ele>
        <time>2022-02-20T11:04:48.000Z</time>
      </trkpt>
      <trkpt lat="47.25649" lon="-2.33571">
        <ele>-2.7999999523163</ele>
        <time>2022-02-20T11:04:49.000Z</time>
      </trkpt>
      <trkpt lat="47.25644" lon="-2.33568">
        <ele>-2.4000000953674</ele>
        <time>2022-02-20T11:04:50.000Z</time>
      </trkpt>
      <trkpt lat="47.25638" lon="-2.33565">
        <ele>-2</ele>
        <time>2022-02-20T11:04:51.000Z</time>
      </trkpt>
      <trkpt lat="47.25633" lon="-2.33563">
        <ele>-1.6000000238419</ele>
        <time>2022-02-20T11:04:52.000Z</time>
      </trkpt>
      <trkpt lat="47.25623" lon="-2.33557">
        <ele>-1.6000000238419</ele>
        <time>2022-02-20T11:04:54.000Z</time>
      </trkpt>
      <trkpt lat="47.25603" lon="-2.3354">
        <ele>-1.6000000238419</ele>
        <time>2022-02-20T11:04:58.000Z</time>
      </trkpt>
      <trkpt lat="47.25572" lon="-2.33502">
        <ele>-1.6000000238419</ele>
        <time>2022-02-20T11:05:05.000Z</time>
      </trkpt>
      <trkpt lat="47.25545" lon="-2.33451">
        <ele>-1.6000000238419</ele>
        <time>2022-02-20T11:05:13.000Z</time>
      </trkpt>
      <trkpt lat="47.25533" lon="-2.33413">
        <ele>-1.6000000238419</ele>
        <time>2022-02-20T11:05:18.000Z</time>
      </trkpt>
      <trkpt lat="47.25532" lon="-2.33404">
        <ele>-1.6000000238419</ele>
        <time>2022-02-20T11:05:19.000Z</time>
      </trkpt>
      <trkpt lat="47.25522" lon="-2.33338">
        <ele>-1.6000000238419</ele>
        <time>2022-02-20T11:05:27.000Z</time>
      </trkpt>
      <trkpt lat="47.25511" lon="-2.33251">
        <ele>-1.6000000238419</ele>
        <time>2022-02-20T11:05:37.000Z</time>
      </trkpt>
      <trkpt lat="47.25509" lon="-2.33234">
        <ele>-1.6000000238419</ele>
        <time>2022-02-20T11:05:39.000Z</time>
      </trkpt>
      <trkpt lat="47.25501" lon="-2.3317">
        <ele>-1.6000000238419</ele>
        <time>2022-02-20T11:05:46.000Z</time>
      </trkpt>
      <trkpt lat="47.25493" lon="-2.33105">
        <ele>-1.6000000238419</ele>
        <time>2022-02-20T11:05:53.000Z</time>
      </trkpt>
      <trkpt lat="47.25491" lon="-2.33098">
        <ele>-1.6000000238419</ele>
        <time>2022-02-20T11:05:54.000Z</time>
      </trkpt>
      <trkpt lat="47.25481" lon="-2.33092">
        <ele>-1.6000000238419</ele>
        <time>2022-02-20T11:05:56.000Z</time>
      </trkpt>
      <trkpt lat="47.25466" lon="-2.33099">
        <ele>-1.6000000238419</ele>
        <time>2022-02-20T11:05:59.000Z</time>
      </trkpt>
      <trkpt lat="47.25428" lon="-2.33118">
        <ele>-1.6000000238419</ele>
        <time>2022-02-20T11:06:07.000Z</time>
      </trkpt>
      <trkpt lat="47.25414" lon="-2.33125">
        <ele>-1.6000000238419</ele>
        <time>2022-02-20T11:06:10.000Z</time>
      </trkpt>
      <trkpt lat="47.25401" lon="-2.3313">
        <ele>-1.6000000238419</ele>
        <time>2022-02-20T11:06:13.000Z</time>
      </trkpt>
      <trkpt lat="47.25383" lon="-2.33139">
        <ele>-1.6000000238419</ele>
        <time>2022-02-20T11:06:18.000Z</time>
      </trkpt>
      <trkpt lat="47.25377" lon="-2.33127">
        <ele>-1.6000000238419</ele>
        <time>2022-02-20T11:06:21.000Z</time>
      </trkpt>
      <trkpt lat="47.25372" lon="-2.3311">
        <ele>-1.6000000238419</ele>
        <time>2022-02-20T11:06:26.000Z</time>
      </trkpt>
      <trkpt lat="47.2537" lon="-2.33107">
        <ele>-1.6000000238419</ele>
        <time>2022-02-20T11:06:27.000Z</time>
      </trkpt>
      <trkpt lat="47.25367" lon="-2.33103">
        <ele>-1.6000000238419</ele>
        <time>2022-02-20T11:06:31.000Z</time>
      </trkpt>
      <trkpt lat="47.25368" lon="-2.33103">
        <ele>-1.6000000238419</ele>
        <time>2022-02-20T11:18:50.000Z</time>
      </trkpt>
      <trkpt lat="47.25366" lon="-2.3309">
        <ele>-1.6000000238419</ele>
        <time>2022-02-20T11:18:56.000Z</time>
      </trkpt>
      <trkpt lat="47.25359" lon="-2.33071">
        <ele>-1.6000000238419</ele>
        <time>2022-02-20T11:19:02.000Z</time>
      </trkpt>
      <trkpt lat="47.25349" lon="-2.33045">
        <ele>-1.6000000238419</ele>
        <time>2022-02-20T11:19:08.000Z</time>
      </trkpt>
      <trkpt lat="47.25334" lon="-2.33005">
        <ele>-1.6000000238419</ele>
        <time>2022-02-20T11:19:16.000Z</time>
      </trkpt>
      <trkpt lat="47.25319" lon="-2.32968">
        <ele>-1.6000000238419</ele>
        <time>2022-02-20T11:19:23.000Z</time>
      </trkpt>
      <trkpt lat="47.25308" lon="-2.32939">
        <ele>-1.6000000238419</ele>
        <time>2022-02-20T11:19:29.000Z</time>
      </trkpt>
      <trkpt lat="47.25307" lon="-2.32935">
        <ele>-1.6000000238419</ele>
        <time>2022-02-20T11:19:30.000Z</time>
      </trkpt>
      <trkpt lat="47.25309" lon="-2.32925">
        <ele>-1.6000000238419</ele>
        <time>2022-02-20T11:19:32.000Z</time>
      </trkpt>
      <trkpt lat="47.2532" lon="-2.32907">
        <ele>-1.6000000238419</ele>
        <time>2022-02-20T11:19:36.000Z</time>
      </trkpt>
      <trkpt lat="47.25324" lon="-2.32903">
        <ele>-1.6000000238419</ele>
        <time>2022-02-20T11:19:37.000Z</time>
      </trkpt>
      <trkpt lat="47.25352" lon="-2.32878">
        <ele>-1.6000000238419</ele>
        <time>2022-02-20T11:19:44.000Z</time>
      </trkpt>
      <trkpt lat="47.25385" lon="-2.32846">
        <ele>-1.6000000238419</ele>
        <time>2022-02-20T11:19:52.000Z</time>
      </trkpt>
      <trkpt lat="47.25413" lon="-2.32808">
        <ele>-1.6000000238419</ele>
        <time>2022-02-20T11:20:00.000Z</time>
      </trkpt>
      <trkpt lat="47.25422" lon="-2.32795">
        <ele>-1.6000000238419</ele>
        <time>2022-02-20T11:20:03.000Z</time>
      </trkpt>
      <trkpt lat="47.25428" lon="-2.32779">
        <ele>-1.6000000238419</ele>
        <time>2022-02-20T11:20:06.000Z</time>
      </trkpt>
      <trkpt lat="47.2544" lon="-2.32758">
        <ele>-1.6000000238419</ele>
        <time>2022-02-20T11:20:10.000Z</time>
      </trkpt>
      <trkpt lat="47.25443" lon="-2.32753">
        <ele>-1.6000000238419</ele>
        <time>2022-02-20T11:20:11.000Z</time>
      </trkpt>
      <trkpt lat="47.25454" lon="-2.32737">
        <ele>-1.2000000476837</ele>
        <time>2022-02-20T11:20:14.000Z</time>
      </trkpt>
      <trkpt lat="47.25458" lon="-2.32732">
        <ele>-0.80000001192093</ele>
        <time>2022-02-20T11:20:15.000Z</time>
      </trkpt>
      <trkpt lat="47.25462" lon="-2.32728">
        <ele>-0.40000000596046</ele>
        <time>2022-02-20T11:20:16.000Z</time>
      </trkpt>
      <trkpt lat="47.25466" lon="-2.32723">
        <ele>12.2</ele>
        <time>2022-02-20T11:20:17.000Z</time>
      </trkpt>
      <trkpt lat="47.2547" lon="-2.32719">
        <ele>0.40000000596046</ele>
        <time>2022-02-20T11:20:18.000Z</time>
      </trkpt>
      <trkpt lat="47.25474" lon="-2.32714">
        <ele>0.40000000596046</ele>
        <time>2022-02-20T11:20:19.000Z</time>
      </trkpt>
      <trkpt lat="47.25486" lon="-2.3269">
        <ele>0.40000000596046</ele>
        <time>2022-02-20T11:20:23.000Z</time>
      </trkpt>
      <trkpt lat="47.25488" lon="-2.32662">
        <ele>0.40000000596046</ele>
        <time>2022-02-20T11:20:27.000Z</time>
      </trkpt>
      <trkpt lat="47.25486" lon="-2.32647">
        <ele>0.40000000596046</ele>
        <time>2022-02-20T11:20:29.000Z</time>
      </trkpt>
      <trkpt lat="47.2548" lon="-2.32612">
        <ele>0.40000000596046</ele>
        <time>2022-02-20T11:20:34.000Z</time>
      </trkpt>
      <trkpt lat="47.25475" lon="-2.32579">
        <ele>0.40000000596046</ele>
        <time>2022-02-20T11:20:39.000Z</time>
      </trkpt>
      <trkpt lat="47.25477" lon="-2.32573">
        <ele>0.40000000596046</ele>
        <time>2022-02-20T11:20:40.000Z</time>
      </trkpt>
      <trkpt lat="47.2549" lon="-2.32555">
        <ele>0.40000000596046</ele>
        <time>2022-02-20T11:20:44.000Z</time>
      </trkpt>
      <trkpt lat="47.25494" lon="-2.32549">
        <ele>0.40000000596046</ele>
        <time>2022-02-20T11:20:45.000Z</time>
      </trkpt>
      <trkpt lat="47.25498" lon="-2.32545">
        <ele>0.40000000596046</ele>
        <time>2022-02-20T11:20:46.000Z</time>
      </trkpt>
      <trkpt lat="47.25516" lon="-2.32526">
        <ele>0.40000000596046</ele>
        <time>2022-02-20T11:20:50.000Z</time>
      </trkpt>
      <trkpt lat="47.25548" lon="-2.32498">
        <ele>0.40000000596046</ele>
        <time>2022-02-20T11:20:56.000Z</time>
      </trkpt>
      <trkpt lat="47.25573" lon="-2.32476">
        <ele>8.5</ele>
        <time>2022-02-20T11:21:00.000Z</time>
      </trkpt>
      <trkpt lat="47.25579" lon="-2.32469">
        <ele>-0.40000000596046</ele>
        <time>2022-02-20T11:21:01.000Z</time>
      </trkpt>
      <trkpt lat="47.25586" lon="-2.32463">
        <ele>-0.80000001192093</ele>
        <time>2022-02-20T11:21:02.000Z</time>
      </trkpt>
      <trkpt lat="47.25592" lon="-2.32456">
        <ele>-1.3999999761581</ele>
        <time>2022-02-20T11:21:03.000Z</time>
      </trkpt>
      <trkpt lat="47.25598" lon="-2.32449">
        <ele>-1.7999999523163</ele>
        <time>2022-02-20T11:21:04.000Z</time>
      </trkpt>
      <trkpt lat="47.25618" lon="-2.32427">
        <ele>-1.7999999523163</ele>
        <time>2022-02-20T11:21:07.000Z</time>
      </trkpt>
      <trkpt lat="47.25624" lon="-2.3242">
        <ele>-2.4000000953674</ele>
        <time>2022-02-20T11:21:08.000Z</time>
      </trkpt>
      <trkpt lat="47.2563" lon="-2.32413">
        <ele>-2.7999999523163</ele>
        <time>2022-02-20T11:21:09.000Z</time>
      </trkpt>
      <trkpt lat="47.25636" lon="-2.32408">
        <ele>-3.4000000953674</ele>
        <time>2022-02-20T11:21:10.000Z</time>
      </trkpt>
      <trkpt lat="47.25641" lon="-2.32402">
        <ele>-4.4000000953674</ele>
        <time>2022-02-20T11:21:11.000Z</time>
      </trkpt>
      <trkpt lat="47.25646" lon="-2.32399">
        <ele>-4.4000000953674</ele>
        <time>2022-02-20T11:21:12.000Z</time>
      </trkpt>
      <trkpt lat="47.25662" lon="-2.32403">
        <ele>-4.4000000953674</ele>
        <time>2022-02-20T11:21:15.000Z</time>
      </trkpt>
      <trkpt lat="47.25672" lon="-2.3241">
        <ele>-4.4000000953674</ele>
        <time>2022-02-20T11:21:17.000Z</time>
      </trkpt>
      <trkpt lat="47.25677" lon="-2.32414">
        <ele>-4.4000000953674</ele>
        <time>2022-02-20T11:21:18.000Z</time>
      </trkpt>
      <trkpt lat="47.25689" lon="-2.32417">
        <ele>-4.4000000953674</ele>
        <time>2022-02-20T11:21:20.000Z</time>
      </trkpt>
      <trkpt lat="47.25701" lon="-2.32419">
        <ele>-4.8000001907349</ele>
        <time>2022-02-20T11:21:22.000Z</time>
      </trkpt>
      <trkpt lat="47.25707" lon="-2.32419">
        <ele>-5.1999998092651</ele>
        <time>2022-02-20T11:21:23.000Z</time>
      </trkpt>
      <trkpt lat="47.25713" lon="-2.32419">
        <ele>-5.5999999046326</ele>
        <time>2022-02-20T11:21:24.000Z</time>
      </trkpt>
      <trkpt lat="47.2572" lon="-2.3242">
        <ele>-6</ele>
        <time>2022-02-20T11:21:25.000Z</time>
      </trkpt>
      <trkpt lat="47.25726" lon="-2.32421">
        <ele>-6.4000000953674</ele>
        <time>2022-02-20T11:21:26.000Z</time>
      </trkpt>
      <trkpt lat="47.25731" lon="-2.32421">
        <ele>-6.4000000953674</ele>
        <time>2022-02-20T11:21:27.000Z</time>
      </trkpt>
      <trkpt lat="47.25755" lon="-2.32419">
        <ele>-6.4000000953674</ele>
        <time>2022-02-20T11:21:32.000Z</time>
      </trkpt>
      <trkpt lat="47.25759" lon="-2.32418">
        <ele>-6.4000000953674</ele>
        <time>2022-02-20T11:21:33.000Z</time>
      </trkpt>
      <trkpt lat="47.25769" lon="-2.32412">
        <ele>-6.4000000953674</ele>
        <time>2022-02-20T11:21:36.000Z</time>
      </trkpt>
      <trkpt lat="47.25782" lon="-2.32417">
        <ele>-6.4000000953674</ele>
        <time>2022-02-20T11:21:40.000Z</time>
      </trkpt>
      <trkpt lat="47.25789" lon="-2.32427">
        <ele>-6.4000000953674</ele>
        <time>2022-02-20T11:21:42.000Z</time>
      </trkpt>
      <trkpt lat="47.25793" lon="-2.32433">
        <ele>-6.4000000953674</ele>
        <time>2022-02-20T11:21:43.000Z</time>
      </trkpt>
      <trkpt lat="47.25796" lon="-2.32439">
        <ele>-6.4000000953674</ele>
        <time>2022-02-20T11:21:44.000Z</time>
      </trkpt>
      <trkpt lat="47.25815" lon="-2.32456">
        <ele>-6.4000000953674</ele>
        <time>2022-02-20T11:21:48.000Z</time>
      </trkpt>
      <trkpt lat="47.25843" lon="-2.32469">
        <ele>-6.4000000953674</ele>
        <time>2022-02-20T11:21:53.000Z</time>
      </trkpt>
      <trkpt lat="47.25849" lon="-2.3247">
        <ele>-6.4000000953674</ele>
        <time>2022-02-20T11:21:54.000Z</time>
      </trkpt>
      <trkpt lat="47.2586" lon="-2.3247">
        <ele>-6.4000000953674</ele>
        <time>2022-02-20T11:21:56.000Z</time>
      </trkpt>
      <trkpt lat="47.25881" lon="-2.32467">
        <ele>-6.4000000953674</ele>
        <time>2022-02-20T11:22:00.000Z</time>
      </trkpt>
      <trkpt lat="47.25886" lon="-2.32465">
        <ele>-6.4000000953674</ele>
        <time>2022-02-20T11:22:01.000Z</time>
      </trkpt>
      <trkpt lat="47.259" lon="-2.32452">
        <ele>-6.4000000953674</ele>
        <time>2022-02-20T11:22:04.000Z</time>
      </trkpt>
      <trkpt lat="47.25933" lon="-2.32416">
        <ele>-6.4000000953674</ele>
        <time>2022-02-20T11:22:11.000Z</time>
      </trkpt>
      <trkpt lat="47.25965" lon="-2.32372">
        <ele>-6.4000000953674</ele>
        <time>2022-02-20T11:22:19.000Z</time>
      </trkpt>
      <trkpt lat="47.25998" lon="-2.3233">
        <ele>-6.4000000953674</ele>
        <time>2022-02-20T11:22:27.000Z</time>
      </trkpt>
      <trkpt lat="47.26031" lon="-2.32289">
        <ele>-6.4000000953674</ele>
        <time>2022-02-20T11:22:35.000Z</time>
      </trkpt>
      <trkpt lat="47.26068" lon="-2.32247">
        <ele>-6.4000000953674</ele>
        <time>2022-02-20T11:22:44.000Z</time>
      </trkpt>
      <trkpt lat="47.26087" lon="-2.32222">
        <ele>-6.4000000953674</ele>
        <time>2022-02-20T11:22:49.000Z</time>
      </trkpt>
      <trkpt lat="47.26101" lon="-2.32199">
        <ele>-6.4000000953674</ele>
        <time>2022-02-20T11:22:53.000Z</time>
      </trkpt>
      <trkpt lat="47.26107" lon="-2.32186">
        <ele>-6.4000000953674</ele>
        <time>2022-02-20T11:22:55.000Z</time>
      </trkpt>
      <trkpt lat="47.26124" lon="-2.32145">
        <ele>-6.4000000953674</ele>
        <time>2022-02-20T11:23:01.000Z</time>
      </trkpt>
      <trkpt lat="47.2613" lon="-2.32123">
        <ele>-6.4000000953674</ele>
        <time>2022-02-20T11:23:04.000Z</time>
      </trkpt>
      <trkpt lat="47.26136" lon="-2.32101">
        <ele>-6.4000000953674</ele>
        <time>2022-02-20T11:23:07.000Z</time>
      </trkpt>
      <trkpt lat="47.26158" lon="-2.32031">
        <ele>-6.4000000953674</ele>
        <time>2022-02-20T11:23:17.000Z</time>
      </trkpt>
      <trkpt lat="47.26167" lon="-2.32024">
        <ele>-6.4000000953674</ele>
        <time>2022-02-20T11:23:20.000Z</time>
      </trkpt>
      <trkpt lat="47.26181" lon="-2.32021">
        <ele>-6.4000000953674</ele>
        <time>2022-02-20T11:23:24.000Z</time>
      </trkpt>
      <trkpt lat="47.26185" lon="-2.32022">
        <ele>-6.4000000953674</ele>
        <time>2022-02-20T11:23:25.000Z</time>
      </trkpt>
      <trkpt lat="47.26192" lon="-2.32023">
        <ele>-6.4000000953674</ele>
        <time>2022-02-20T11:23:29.000Z</time>
      </trkpt>
      <trkpt lat="47.26193" lon="-2.32022">
        <ele>-6.4000000953674</ele>
        <time>2022-02-20T11:23:30.000Z</time>
      </trkpt>
      <trkpt lat="47.26195" lon="-2.32019">
        <ele>-6.4000000953674</ele>
        <time>2022-02-20T11:23:32.000Z</time>
      </trkpt>
      <trkpt lat="47.26194" lon="-2.32016">
        <ele>-6.4000000953674</ele>
        <time>2022-02-20T11:23:33.000Z</time>
      </trkpt>
      <trkpt lat="47.26196" lon="-2.32009">
        <ele>-6.4000000953674</ele>
        <time>2022-02-20T11:23:36.000Z</time>
      </trkpt>
      <trkpt lat="47.26199" lon="-2.32004">
        <ele>-6.4000000953674</ele>
        <time>2022-02-20T11:23:38.000Z</time>
      </trkpt>
      <trkpt lat="47.26205" lon="-2.32">
        <ele>-6.4000000953674</ele>
        <time>2022-02-20T11:23:40.000Z</time>
      </trkpt>
      <trkpt lat="47.26214" lon="-2.31991">
        <ele>-6.4000000953674</ele>
        <time>2022-02-20T11:23:43.000Z</time>
      </trkpt>
      <trkpt lat="47.26231" lon="-2.3197">
        <ele>-6.4000000953674</ele>
        <time>2022-02-20T11:23:49.000Z</time>
      </trkpt>
      <trkpt lat="47.26241" lon="-2.31958">
        <ele>-6.4000000953674</ele>
        <time>2022-02-20T11:23:54.000Z</time>
      </trkpt>
      <trkpt lat="47.26251" lon="-2.31942">
        <ele>-6.4000000953674</ele>
        <time>2022-02-20T11:23:59.000Z</time>
      </trkpt>
      <trkpt lat="47.26264" lon="-2.3192">
        <ele>-6.4000000953674</ele>
        <time>2022-02-20T11:24:05.000Z</time>
      </trkpt>
      <trkpt lat="47.26279" lon="-2.31899">
        <ele>-6.4000000953674</ele>
        <time>2022-02-20T11:24:10.000Z</time>
      </trkpt>
      <trkpt lat="47.26289" lon="-2.3189">
        <ele>-6.4000000953674</ele>
        <time>2022-02-20T11:24:13.000Z</time>
      </trkpt>
      <trkpt lat="47.26292" lon="-2.31882">
        <ele>-6.4000000953674</ele>
        <time>2022-02-20T11:24:15.000Z</time>
      </trkpt>
      <trkpt lat="47.26297" lon="-2.31868">
        <ele>-6.4000000953674</ele>
        <time>2022-02-20T11:24:18.000Z</time>
      </trkpt>
      <trkpt lat="47.26299" lon="-2.31859">
        <ele>-6.4000000953674</ele>
        <time>2022-02-20T11:24:20.000Z</time>
      </trkpt>
      <trkpt lat="47.26302" lon="-2.3183">
        <ele>-6.4000000953674</ele>
        <time>2022-02-20T11:24:26.000Z</time>
      </trkpt>
      <trkpt lat="47.26304" lon="-2.31794">
        <ele>-6.4000000953674</ele>
        <time>2022-02-20T11:24:32.000Z</time>
      </trkpt>
      <trkpt lat="47.26303" lon="-2.31759">
        <ele>-6.4000000953674</ele>
        <time>2022-02-20T11:24:38.000Z</time>
      </trkpt>
      <trkpt lat="47.26301" lon="-2.31724">
        <ele>-6.4000000953674</ele>
        <time>2022-02-20T11:24:44.000Z</time>
      </trkpt>
      <trkpt lat="47.26307" lon="-2.31712">
        <ele>-6.4000000953674</ele>
        <time>2022-02-20T11:24:47.000Z</time>
      </trkpt>
      <trkpt lat="47.2631" lon="-2.31709">
        <ele>-6.4000000953674</ele>
        <time>2022-02-20T11:24:48.000Z</time>
      </trkpt>
      <trkpt lat="47.26326" lon="-2.31696">
        <ele>-6.4000000953674</ele>
        <time>2022-02-20T11:24:54.000Z</time>
      </trkpt>
      <trkpt lat="47.26329" lon="-2.31693">
        <ele>-6.4000000953674</ele>
        <time>2022-02-20T11:24:55.000Z</time>
      </trkpt>
      <trkpt lat="47.26335" lon="-2.31682">
        <ele>-6.4000000953674</ele>
        <time>2022-02-20T11:24:58.000Z</time>
      </trkpt>
      <trkpt lat="47.2634" lon="-2.31679">
        <ele>-6</ele>
        <time>2022-02-20T11:25:00.000Z</time>
      </trkpt>
      <trkpt lat="47.26344" lon="-2.31679">
        <ele>-5.5999999046326</ele>
        <time>2022-02-20T11:25:01.000Z</time>
      </trkpt>
      <trkpt lat="47.26348" lon="-2.31678">
        <ele>-5.1999998092651</ele>
        <time>2022-02-20T11:25:02.000Z</time>
      </trkpt>
      <trkpt lat="47.26351" lon="-2.31677">
        <ele>-4.8000001907349</ele>
        <time>2022-02-20T11:25:03.000Z</time>
      </trkpt>
      <trkpt lat="47.26354" lon="-2.31676">
        <ele>-4.4000000953674</ele>
        <time>2022-02-20T11:25:04.000Z</time>
      </trkpt>
      <trkpt lat="47.26366" lon="-2.3167">
        <ele>-4.4000000953674</ele>
        <time>2022-02-20T11:25:08.000Z</time>
      </trkpt>
      <trkpt lat="47.26382" lon="-2.31665">
        <ele>-4.4000000953674</ele>
        <time>2022-02-20T11:25:13.000Z</time>
      </trkpt>
      <trkpt lat="47.26396" lon="-2.31657">
        <ele>-4</ele>
        <time>2022-02-20T11:25:18.000Z</time>
      </trkpt>
      <trkpt lat="47.26399" lon="-2.31656">
        <ele>-3.5999999046326</ele>
        <time>2022-02-20T11:25:19.000Z</time>
      </trkpt>
      <trkpt lat="47.26402" lon="-2.31655">
        <ele>-3.2000000476837</ele>
        <time>2022-02-20T11:25:20.000Z</time>
      </trkpt>
      <trkpt lat="47.26405" lon="-2.31653">
        <ele>-2.7999999523163</ele>
        <time>2022-02-20T11:25:21.000Z</time>
      </trkpt>
      <trkpt lat="47.26408" lon="-2.3165">
        <ele>-2.4000000953674</ele>
        <time>2022-02-20T11:25:22.000Z</time>
      </trkpt>
      <trkpt lat="47.26411" lon="-2.31642">
        <ele>-2.4000000953674</ele>
        <time>2022-02-20T11:25:24.000Z</time>
      </trkpt>
      <trkpt lat="47.2641" lon="-2.31624">
        <ele>-2.4000000953674</ele>
        <time>2022-02-20T11:25:28.000Z</time>
      </trkpt>
      <trkpt lat="47.2641" lon="-2.31592">
        <ele>-2.4000000953674</ele>
        <time>2022-02-20T11:25:35.000Z</time>
      </trkpt>
      <trkpt lat="47.2641" lon="-2.31565">
        <ele>-2.4000000953674</ele>
        <time>2022-02-20T11:25:41.000Z</time>
      </trkpt>
      <trkpt lat="47.26413" lon="-2.31551">
        <ele>-2.4000000953674</ele>
        <time>2022-02-20T11:25:45.000Z</time>
      </trkpt>
      <trkpt lat="47.26415" lon="-2.31551">
        <ele>-2.4000000953674</ele>
        <time>2022-02-20T11:25:48.000Z</time>
      </trkpt>
    </trkseg>
  </trk>
</gpx>